<?xml version="1.0" encoding="UTF-8" standalone="no" ?>
<gpx xmlns="http://www.topografix.com/GPX/1/1" xmlns:xsi="http://www.w3.org/2001/XMLSchema-instance" xsi:schemaLocation="http://www.topografix.com/GPX/1/1 http://www.topografix.com/GPX/1/1/gpx.xsd" version="1.1" creator="VisuGPX - https://www.visugpx.com">
  <metadata>
    <name>Chalange Ronde (val Susa)</name>
    <desc><![CDATA[Fenils,Croce del Vallonetto, La Punta, Chalange Ronde]]></desc>
  </metadata>
  <wpt lat="44.99355" lon="6.73715">
    <ele>3012</ele>
    <name><![CDATA[Chalange Ronde]]></name>
  </wpt>
  <wpt lat="44.99348" lon="6.75669">
    <ele>2281.7</ele>
    <name><![CDATA[Colletto del Lago]]></name>
  </wpt>
  <wpt lat="44.9847" lon="6.74932">
    <ele>2752.2</ele>
    <name><![CDATA[Croce del Vallonetto]]></name>
  </wpt>
  <wpt lat="44.98928" lon="6.73808">
    <ele>3037.8</ele>
    <name><![CDATA[La Punta]]></name>
  </wpt>
  <wpt lat="44.99211" lon="6.73727">
    <ele>2982.5</ele>
    <name><![CDATA[Passo dell'Asino]]></name>
  </wpt>
  <wpt lat="44.98348" lon="6.74493">
    <ele>2705.8</ele>
    <name><![CDATA[Ricovero]]></name>
  </wpt>
  <trk>
    <name><![CDATA[Traccia corrente: 21 AGO 2014 06:40]]></name>
    <desc><![CDATA[Traccia corrente: 21 AGO 2014 06:40]]></desc>
    <trkseg>
      <trkpt lat="44.98101" lon="6.80258">
        <ele>1251.559937</ele>
        <time>2014-08-21T04:40:10Z</time>
      </trkpt>
      <trkpt lat="44.98094" lon="6.80258">
        <ele>1251.450073</ele>
        <time>2014-08-21T04:40:11Z</time>
      </trkpt>
      <trkpt lat="44.981" lon="6.80259">
        <ele>1251.419922</ele>
        <time>2014-08-21T04:40:26Z</time>
      </trkpt>
      <trkpt lat="44.98099" lon="6.80263">
        <ele>1251.630005</ele>
        <time>2014-08-21T04:40:57Z</time>
      </trkpt>
      <trkpt lat="44.98099" lon="6.8026">
        <ele>1251.880005</ele>
        <time>2014-08-21T04:41:24Z</time>
      </trkpt>
      <trkpt lat="44.98099" lon="6.8026">
        <ele>1252.27002</ele>
        <time>2014-08-21T04:41:43Z</time>
      </trkpt>
      <trkpt lat="44.98098" lon="6.80259">
        <ele>1252.440063</ele>
        <time>2014-08-21T04:42:06Z</time>
      </trkpt>
      <trkpt lat="44.981" lon="6.80262">
        <ele>1252.469971</ele>
        <time>2014-08-21T04:42:14Z</time>
      </trkpt>
      <trkpt lat="44.98101" lon="6.80262">
        <ele>1252.419922</ele>
        <time>2014-08-21T04:42:17Z</time>
      </trkpt>
      <trkpt lat="44.98102" lon="6.80266">
        <ele>1252.400024</ele>
        <time>2014-08-21T04:42:20Z</time>
      </trkpt>
      <trkpt lat="44.98096" lon="6.80265">
        <ele>1252.079956</ele>
        <time>2014-08-21T04:42:25Z</time>
      </trkpt>
      <trkpt lat="44.981" lon="6.80262">
        <ele>1251.859985</ele>
        <time>2014-08-21T04:42:29Z</time>
      </trkpt>
      <trkpt lat="44.981" lon="6.80247">
        <ele>1252.199951</ele>
        <time>2014-08-21T04:42:36Z</time>
      </trkpt>
      <trkpt lat="44.98099" lon="6.80233">
        <ele>1253.140015</ele>
        <time>2014-08-21T04:42:42Z</time>
      </trkpt>
      <trkpt lat="44.98098" lon="6.80218">
        <ele>1254.449951</ele>
        <time>2014-08-21T04:42:49Z</time>
      </trkpt>
      <trkpt lat="44.98098" lon="6.80214">
        <ele>1254.819946</ele>
        <time>2014-08-21T04:42:51Z</time>
      </trkpt>
      <trkpt lat="44.98098" lon="6.80203">
        <ele>1255.759888</ele>
        <time>2014-08-21T04:42:56Z</time>
      </trkpt>
      <trkpt lat="44.98098" lon="6.80183">
        <ele>1257.52002</ele>
        <time>2014-08-21T04:43:05Z</time>
      </trkpt>
      <trkpt lat="44.98099" lon="6.80181">
        <ele>1257.700073</ele>
        <time>2014-08-21T04:43:06Z</time>
      </trkpt>
      <trkpt lat="44.98096" lon="6.80164">
        <ele>1259.25</ele>
        <time>2014-08-21T04:43:14Z</time>
      </trkpt>
      <trkpt lat="44.98097" lon="6.80152">
        <ele>1260.329956</ele>
        <time>2014-08-21T04:43:20Z</time>
      </trkpt>
      <trkpt lat="44.98098" lon="6.80133">
        <ele>1262.050049</ele>
        <time>2014-08-21T04:43:29Z</time>
      </trkpt>
      <trkpt lat="44.98098" lon="6.80124">
        <ele>1262.939941</ele>
        <time>2014-08-21T04:43:33Z</time>
      </trkpt>
      <trkpt lat="44.98098" lon="6.8011">
        <ele>1263.910034</ele>
        <time>2014-08-21T04:43:40Z</time>
      </trkpt>
      <trkpt lat="44.98098" lon="6.80092">
        <ele>1265.559937</ele>
        <time>2014-08-21T04:43:49Z</time>
      </trkpt>
      <trkpt lat="44.98099" lon="6.80071">
        <ele>1267.389893</ele>
        <time>2014-08-21T04:43:59Z</time>
      </trkpt>
      <trkpt lat="44.98098" lon="6.80056">
        <ele>1268.820068</ele>
        <time>2014-08-21T04:44:06Z</time>
      </trkpt>
      <trkpt lat="44.981" lon="6.80048">
        <ele>1269.440063</ele>
        <time>2014-08-21T04:44:10Z</time>
      </trkpt>
      <trkpt lat="44.98103" lon="6.80033">
        <ele>1271.27002</ele>
        <time>2014-08-21T04:44:18Z</time>
      </trkpt>
      <trkpt lat="44.98104" lon="6.80029">
        <ele>1271.76001</ele>
        <time>2014-08-21T04:44:20Z</time>
      </trkpt>
      <trkpt lat="44.9811" lon="6.80012">
        <ele>1273.5</ele>
        <time>2014-08-21T04:44:29Z</time>
      </trkpt>
      <trkpt lat="44.98118" lon="6.79997">
        <ele>1274.880005</ele>
        <time>2014-08-21T04:44:38Z</time>
      </trkpt>
      <trkpt lat="44.98121" lon="6.79991">
        <ele>1275.329956</ele>
        <time>2014-08-21T04:44:41Z</time>
      </trkpt>
      <trkpt lat="44.98126" lon="6.79973">
        <ele>1277.030029</ele>
        <time>2014-08-21T04:44:50Z</time>
      </trkpt>
      <trkpt lat="44.98131" lon="6.79959">
        <ele>1278.299927</ele>
        <time>2014-08-21T04:44:57Z</time>
      </trkpt>
      <trkpt lat="44.98138" lon="6.79943">
        <ele>1279.799927</ele>
        <time>2014-08-21T04:45:06Z</time>
      </trkpt>
      <trkpt lat="44.98141" lon="6.79929">
        <ele>1281.23999</ele>
        <time>2014-08-21T04:45:13Z</time>
      </trkpt>
      <trkpt lat="44.98148" lon="6.79913">
        <ele>1282.929932</ele>
        <time>2014-08-21T04:45:21Z</time>
      </trkpt>
      <trkpt lat="44.98148" lon="6.79898">
        <ele>1284.26001</ele>
        <time>2014-08-21T04:45:28Z</time>
      </trkpt>
      <trkpt lat="44.98147" lon="6.79885">
        <ele>1285.540039</ele>
        <time>2014-08-21T04:45:34Z</time>
      </trkpt>
      <trkpt lat="44.98148" lon="6.79877">
        <ele>1286.75</ele>
        <time>2014-08-21T04:45:38Z</time>
      </trkpt>
      <trkpt lat="44.98139" lon="6.79855">
        <ele>1288.369995</ele>
        <time>2014-08-21T04:45:48Z</time>
      </trkpt>
      <trkpt lat="44.98127" lon="6.79838">
        <ele>1289.130005</ele>
        <time>2014-08-21T04:45:57Z</time>
      </trkpt>
      <trkpt lat="44.98124" lon="6.79823">
        <ele>1290.079956</ele>
        <time>2014-08-21T04:46:04Z</time>
      </trkpt>
      <trkpt lat="44.98124" lon="6.79814">
        <ele>1290.849976</ele>
        <time>2014-08-21T04:46:08Z</time>
      </trkpt>
      <trkpt lat="44.98126" lon="6.798">
        <ele>1292.22998</ele>
        <time>2014-08-21T04:46:15Z</time>
      </trkpt>
      <trkpt lat="44.98125" lon="6.79793">
        <ele>1293.069946</ele>
        <time>2014-08-21T04:46:19Z</time>
      </trkpt>
      <trkpt lat="44.98124" lon="6.79789">
        <ele>1293.429932</ele>
        <time>2014-08-21T04:46:21Z</time>
      </trkpt>
      <trkpt lat="44.98123" lon="6.79781">
        <ele>1294.159912</ele>
        <time>2014-08-21T04:46:25Z</time>
      </trkpt>
      <trkpt lat="44.98123" lon="6.79775">
        <ele>1294.820068</ele>
        <time>2014-08-21T04:46:28Z</time>
      </trkpt>
      <trkpt lat="44.98124" lon="6.79768">
        <ele>1295.359985</ele>
        <time>2014-08-21T04:46:32Z</time>
      </trkpt>
      <trkpt lat="44.98124" lon="6.79755">
        <ele>1296.320068</ele>
        <time>2014-08-21T04:46:39Z</time>
      </trkpt>
      <trkpt lat="44.9812" lon="6.79737">
        <ele>1297.840088</ele>
        <time>2014-08-21T04:46:47Z</time>
      </trkpt>
      <trkpt lat="44.98119" lon="6.79729">
        <ele>1298.439941</ele>
        <time>2014-08-21T04:46:50Z</time>
      </trkpt>
      <trkpt lat="44.9812" lon="6.79711">
        <ele>1300.130005</ele>
        <time>2014-08-21T04:46:58Z</time>
      </trkpt>
      <trkpt lat="44.98121" lon="6.79693">
        <ele>1301.309937</ele>
        <time>2014-08-21T04:47:06Z</time>
      </trkpt>
      <trkpt lat="44.98123" lon="6.79677">
        <ele>1302.290039</ele>
        <time>2014-08-21T04:47:13Z</time>
      </trkpt>
      <trkpt lat="44.98123" lon="6.79674">
        <ele>1302.420044</ele>
        <time>2014-08-21T04:47:14Z</time>
      </trkpt>
      <trkpt lat="44.98125" lon="6.79663">
        <ele>1303.449951</ele>
        <time>2014-08-21T04:47:19Z</time>
      </trkpt>
      <trkpt lat="44.98127" lon="6.7965">
        <ele>1304.52002</ele>
        <time>2014-08-21T04:47:25Z</time>
      </trkpt>
      <trkpt lat="44.98127" lon="6.79621">
        <ele>1306.359985</ele>
        <time>2014-08-21T04:47:37Z</time>
      </trkpt>
      <trkpt lat="44.98126" lon="6.79604">
        <ele>1307.910034</ele>
        <time>2014-08-21T04:47:46Z</time>
      </trkpt>
      <trkpt lat="44.98128" lon="6.79595">
        <ele>1308.76001</ele>
        <time>2014-08-21T04:47:51Z</time>
      </trkpt>
      <trkpt lat="44.98132" lon="6.79581">
        <ele>1310.079956</ele>
        <time>2014-08-21T04:47:59Z</time>
      </trkpt>
      <trkpt lat="44.98136" lon="6.7957">
        <ele>1311.329956</ele>
        <time>2014-08-21T04:48:06Z</time>
      </trkpt>
      <trkpt lat="44.98136" lon="6.79568">
        <ele>1311.570068</ele>
        <time>2014-08-21T04:48:07Z</time>
      </trkpt>
      <trkpt lat="44.98143" lon="6.7956">
        <ele>1313.059937</ele>
        <time>2014-08-21T04:48:14Z</time>
      </trkpt>
      <trkpt lat="44.98146" lon="6.7955">
        <ele>1314.5</ele>
        <time>2014-08-21T04:48:21Z</time>
      </trkpt>
      <trkpt lat="44.98152" lon="6.79544">
        <ele>1315.609985</ele>
        <time>2014-08-21T04:48:27Z</time>
      </trkpt>
      <trkpt lat="44.98155" lon="6.79532">
        <ele>1317.48999</ele>
        <time>2014-08-21T04:48:35Z</time>
      </trkpt>
      <trkpt lat="44.98158" lon="6.79529">
        <ele>1318.059937</ele>
        <time>2014-08-21T04:48:38Z</time>
      </trkpt>
      <trkpt lat="44.98159" lon="6.79523">
        <ele>1318.859985</ele>
        <time>2014-08-21T04:48:42Z</time>
      </trkpt>
      <trkpt lat="44.98165" lon="6.79518">
        <ele>1320.199951</ele>
        <time>2014-08-21T04:48:49Z</time>
      </trkpt>
      <trkpt lat="44.98167" lon="6.79515">
        <ele>1320.76001</ele>
        <time>2014-08-21T04:48:52Z</time>
      </trkpt>
      <trkpt lat="44.9817" lon="6.79505">
        <ele>1322.439941</ele>
        <time>2014-08-21T04:48:59Z</time>
      </trkpt>
      <trkpt lat="44.98177" lon="6.79498">
        <ele>1323.839966</ele>
        <time>2014-08-21T04:49:07Z</time>
      </trkpt>
      <trkpt lat="44.98182" lon="6.79489">
        <ele>1325.040039</ele>
        <time>2014-08-21T04:49:14Z</time>
      </trkpt>
      <trkpt lat="44.98185" lon="6.79487">
        <ele>1326.319946</ele>
        <time>2014-08-21T04:49:19Z</time>
      </trkpt>
      <trkpt lat="44.98186" lon="6.79482">
        <ele>1327.119995</ele>
        <time>2014-08-21T04:49:22Z</time>
      </trkpt>
      <trkpt lat="44.98185" lon="6.79477">
        <ele>1327.480103</ele>
        <time>2014-08-21T04:49:25Z</time>
      </trkpt>
      <trkpt lat="44.98187" lon="6.79475">
        <ele>1327.690063</ele>
        <time>2014-08-21T04:49:27Z</time>
      </trkpt>
      <trkpt lat="44.98193" lon="6.79471">
        <ele>1329.040039</ele>
        <time>2014-08-21T04:49:36Z</time>
      </trkpt>
      <trkpt lat="44.98194" lon="6.7947">
        <ele>1329.189941</ele>
        <time>2014-08-21T04:49:37Z</time>
      </trkpt>
      <trkpt lat="44.98199" lon="6.79456">
        <ele>1331.019897</ele>
        <time>2014-08-21T04:49:47Z</time>
      </trkpt>
      <trkpt lat="44.98202" lon="6.79451">
        <ele>1332</ele>
        <time>2014-08-21T04:49:52Z</time>
      </trkpt>
      <trkpt lat="44.98204" lon="6.79445">
        <ele>1333.070068</ele>
        <time>2014-08-21T04:49:57Z</time>
      </trkpt>
      <trkpt lat="44.98204" lon="6.79441">
        <ele>1333.430054</ele>
        <time>2014-08-21T04:49:59Z</time>
      </trkpt>
      <trkpt lat="44.9821" lon="6.79435">
        <ele>1334.47998</ele>
        <time>2014-08-21T04:50:06Z</time>
      </trkpt>
      <trkpt lat="44.98212" lon="6.79431">
        <ele>1335.320068</ele>
        <time>2014-08-21T04:50:10Z</time>
      </trkpt>
      <trkpt lat="44.98218" lon="6.79421">
        <ele>1337.01001</ele>
        <time>2014-08-21T04:50:18Z</time>
      </trkpt>
      <trkpt lat="44.98222" lon="6.79414">
        <ele>1338.650024</ele>
        <time>2014-08-21T04:50:26Z</time>
      </trkpt>
      <trkpt lat="44.98225" lon="6.79406">
        <ele>1339.740112</ele>
        <time>2014-08-21T04:50:32Z</time>
      </trkpt>
      <trkpt lat="44.98231" lon="6.794">
        <ele>1341.100098</ele>
        <time>2014-08-21T04:50:38Z</time>
      </trkpt>
      <trkpt lat="44.98237" lon="6.79389">
        <ele>1343.030029</ele>
        <time>2014-08-21T04:50:48Z</time>
      </trkpt>
      <trkpt lat="44.98243" lon="6.79377">
        <ele>1344.589966</ele>
        <time>2014-08-21T04:50:56Z</time>
      </trkpt>
      <trkpt lat="44.98246" lon="6.79365">
        <ele>1345.939941</ele>
        <time>2014-08-21T04:51:03Z</time>
      </trkpt>
      <trkpt lat="44.98252" lon="6.79348">
        <ele>1347.23999</ele>
        <time>2014-08-21T04:51:13Z</time>
      </trkpt>
      <trkpt lat="44.98254" lon="6.79343">
        <ele>1348.109985</ele>
        <time>2014-08-21T04:51:20Z</time>
      </trkpt>
      <trkpt lat="44.98252" lon="6.79342">
        <ele>1348.809937</ele>
        <time>2014-08-21T04:51:49Z</time>
      </trkpt>
      <trkpt lat="44.98255" lon="6.79333">
        <ele>1349.030029</ele>
        <time>2014-08-21T04:52:07Z</time>
      </trkpt>
      <trkpt lat="44.9826" lon="6.79316">
        <ele>1349.52002</ele>
        <time>2014-08-21T04:52:15Z</time>
      </trkpt>
      <trkpt lat="44.98267" lon="6.79301">
        <ele>1350.799927</ele>
        <time>2014-08-21T04:52:23Z</time>
      </trkpt>
      <trkpt lat="44.98275" lon="6.79288">
        <ele>1351.800049</ele>
        <time>2014-08-21T04:52:31Z</time>
      </trkpt>
      <trkpt lat="44.98279" lon="6.79284">
        <ele>1352.099976</ele>
        <time>2014-08-21T04:52:34Z</time>
      </trkpt>
      <trkpt lat="44.98286" lon="6.79274">
        <ele>1353.310059</ele>
        <time>2014-08-21T04:52:40Z</time>
      </trkpt>
      <trkpt lat="44.98295" lon="6.79261">
        <ele>1354.100098</ele>
        <time>2014-08-21T04:52:48Z</time>
      </trkpt>
      <trkpt lat="44.98301" lon="6.79251">
        <ele>1354.809937</ele>
        <time>2014-08-21T04:52:54Z</time>
      </trkpt>
      <trkpt lat="44.98308" lon="6.7924">
        <ele>1356.01001</ele>
        <time>2014-08-21T04:53:02Z</time>
      </trkpt>
      <trkpt lat="44.98311" lon="6.79228">
        <ele>1356.899902</ele>
        <time>2014-08-21T04:53:10Z</time>
      </trkpt>
      <trkpt lat="44.98313" lon="6.79221">
        <ele>1357.390015</ele>
        <time>2014-08-21T04:53:14Z</time>
      </trkpt>
      <trkpt lat="44.98311" lon="6.7921">
        <ele>1358.180054</ele>
        <time>2014-08-21T04:53:20Z</time>
      </trkpt>
      <trkpt lat="44.98312" lon="6.79193">
        <ele>1359.27002</ele>
        <time>2014-08-21T04:53:28Z</time>
      </trkpt>
      <trkpt lat="44.98309" lon="6.79175">
        <ele>1360.48999</ele>
        <time>2014-08-21T04:53:37Z</time>
      </trkpt>
      <trkpt lat="44.98309" lon="6.79173">
        <ele>1360.640015</ele>
        <time>2014-08-21T04:53:38Z</time>
      </trkpt>
      <trkpt lat="44.9831" lon="6.79166">
        <ele>1361.140015</ele>
        <time>2014-08-21T04:53:42Z</time>
      </trkpt>
      <trkpt lat="44.98311" lon="6.79152">
        <ele>1362.069946</ele>
        <time>2014-08-21T04:53:50Z</time>
      </trkpt>
      <trkpt lat="44.98311" lon="6.79144">
        <ele>1362.689941</ele>
        <time>2014-08-21T04:53:54Z</time>
      </trkpt>
      <trkpt lat="44.98313" lon="6.79128">
        <ele>1363.550049</ele>
        <time>2014-08-21T04:54:02Z</time>
      </trkpt>
      <trkpt lat="44.98313" lon="6.79126">
        <ele>1363.660034</ele>
        <time>2014-08-21T04:54:03Z</time>
      </trkpt>
      <trkpt lat="44.98313" lon="6.79111">
        <ele>1364.590088</ele>
        <time>2014-08-21T04:54:12Z</time>
      </trkpt>
      <trkpt lat="44.98313" lon="6.79092">
        <ele>1366.179932</ele>
        <time>2014-08-21T04:54:23Z</time>
      </trkpt>
      <trkpt lat="44.98311" lon="6.79085">
        <ele>1366.719971</ele>
        <time>2014-08-21T04:54:27Z</time>
      </trkpt>
      <trkpt lat="44.98308" lon="6.79077">
        <ele>1367.359985</ele>
        <time>2014-08-21T04:54:32Z</time>
      </trkpt>
      <trkpt lat="44.98305" lon="6.79065">
        <ele>1368.160034</ele>
        <time>2014-08-21T04:54:38Z</time>
      </trkpt>
      <trkpt lat="44.98303" lon="6.79058">
        <ele>1368.829956</ele>
        <time>2014-08-21T04:54:42Z</time>
      </trkpt>
      <trkpt lat="44.98302" lon="6.79054">
        <ele>1369.26001</ele>
        <time>2014-08-21T04:54:44Z</time>
      </trkpt>
      <trkpt lat="44.98308" lon="6.79045">
        <ele>1370.349976</ele>
        <time>2014-08-21T04:54:51Z</time>
      </trkpt>
      <trkpt lat="44.98319" lon="6.79049">
        <ele>1371.210083</ele>
        <time>2014-08-21T04:54:58Z</time>
      </trkpt>
      <trkpt lat="44.98327" lon="6.79067">
        <ele>1372.690063</ele>
        <time>2014-08-21T04:55:07Z</time>
      </trkpt>
      <trkpt lat="44.98333" lon="6.79081">
        <ele>1373.570068</ele>
        <time>2014-08-21T04:55:14Z</time>
      </trkpt>
      <trkpt lat="44.98341" lon="6.79104">
        <ele>1374.73999</ele>
        <time>2014-08-21T04:55:25Z</time>
      </trkpt>
      <trkpt lat="44.98343" lon="6.79112">
        <ele>1375.679932</ele>
        <time>2014-08-21T04:55:29Z</time>
      </trkpt>
      <trkpt lat="44.98345" lon="6.79131">
        <ele>1376.999878</ele>
        <time>2014-08-21T04:55:38Z</time>
      </trkpt>
      <trkpt lat="44.98348" lon="6.79153">
        <ele>1378.47998</ele>
        <time>2014-08-21T04:55:49Z</time>
      </trkpt>
      <trkpt lat="44.9835" lon="6.7917">
        <ele>1379.959961</ele>
        <time>2014-08-21T04:55:57Z</time>
      </trkpt>
      <trkpt lat="44.98349" lon="6.79187">
        <ele>1381.379883</ele>
        <time>2014-08-21T04:56:06Z</time>
      </trkpt>
      <trkpt lat="44.98348" lon="6.79192">
        <ele>1381.97998</ele>
        <time>2014-08-21T04:56:09Z</time>
      </trkpt>
      <trkpt lat="44.98347" lon="6.79213">
        <ele>1383.629883</ele>
        <time>2014-08-21T04:56:19Z</time>
      </trkpt>
      <trkpt lat="44.98349" lon="6.79229">
        <ele>1384.919922</ele>
        <time>2014-08-21T04:56:27Z</time>
      </trkpt>
      <trkpt lat="44.98348" lon="6.79243">
        <ele>1386.129883</ele>
        <time>2014-08-21T04:56:34Z</time>
      </trkpt>
      <trkpt lat="44.98347" lon="6.79264">
        <ele>1387.780029</ele>
        <time>2014-08-21T04:56:44Z</time>
      </trkpt>
      <trkpt lat="44.98347" lon="6.79284">
        <ele>1388.969971</ele>
        <time>2014-08-21T04:56:54Z</time>
      </trkpt>
      <trkpt lat="44.98348" lon="6.79287">
        <ele>1389.079956</ele>
        <time>2014-08-21T04:56:55Z</time>
      </trkpt>
      <trkpt lat="44.98348" lon="6.79295">
        <ele>1389.599976</ele>
        <time>2014-08-21T04:56:59Z</time>
      </trkpt>
      <trkpt lat="44.98348" lon="6.79303">
        <ele>1390.199951</ele>
        <time>2014-08-21T04:57:03Z</time>
      </trkpt>
      <trkpt lat="44.98348" lon="6.79324">
        <ele>1391.890015</ele>
        <time>2014-08-21T04:57:13Z</time>
      </trkpt>
      <trkpt lat="44.98347" lon="6.79344">
        <ele>1393.380005</ele>
        <time>2014-08-21T04:57:23Z</time>
      </trkpt>
      <trkpt lat="44.98343" lon="6.79361">
        <ele>1394.820068</ele>
        <time>2014-08-21T04:57:32Z</time>
      </trkpt>
      <trkpt lat="44.98339" lon="6.79378">
        <ele>1396.220093</ele>
        <time>2014-08-21T04:57:41Z</time>
      </trkpt>
      <trkpt lat="44.98339" lon="6.79399">
        <ele>1398.100098</ele>
        <time>2014-08-21T04:57:51Z</time>
      </trkpt>
      <trkpt lat="44.98345" lon="6.79416">
        <ele>1399.790039</ele>
        <time>2014-08-21T04:58:00Z</time>
      </trkpt>
      <trkpt lat="44.98353" lon="6.79432">
        <ele>1401.850098</ele>
        <time>2014-08-21T04:58:11Z</time>
      </trkpt>
      <trkpt lat="44.98355" lon="6.79434">
        <ele>1402.23999</ele>
        <time>2014-08-21T04:58:13Z</time>
      </trkpt>
      <trkpt lat="44.98361" lon="6.7944">
        <ele>1403.109985</ele>
        <time>2014-08-21T04:58:19Z</time>
      </trkpt>
      <trkpt lat="44.98368" lon="6.79453">
        <ele>1404.949951</ele>
        <time>2014-08-21T04:58:29Z</time>
      </trkpt>
      <trkpt lat="44.98372" lon="6.79455">
        <ele>1405.300049</ele>
        <time>2014-08-21T04:58:32Z</time>
      </trkpt>
      <trkpt lat="44.98381" lon="6.79445">
        <ele>1406.569946</ele>
        <time>2014-08-21T04:58:41Z</time>
      </trkpt>
      <trkpt lat="44.98382" lon="6.79441">
        <ele>1407.150024</ele>
        <time>2014-08-21T04:58:44Z</time>
      </trkpt>
      <trkpt lat="44.98381" lon="6.79431">
        <ele>1408.280029</ele>
        <time>2014-08-21T04:58:50Z</time>
      </trkpt>
      <trkpt lat="44.98381" lon="6.79417">
        <ele>1409.73999</ele>
        <time>2014-08-21T04:58:58Z</time>
      </trkpt>
      <trkpt lat="44.98382" lon="6.79409">
        <ele>1410.659912</ele>
        <time>2014-08-21T04:59:03Z</time>
      </trkpt>
      <trkpt lat="44.98384" lon="6.79395">
        <ele>1412.469971</ele>
        <time>2014-08-21T04:59:11Z</time>
      </trkpt>
      <trkpt lat="44.98387" lon="6.79389">
        <ele>1413.150024</ele>
        <time>2014-08-21T04:59:15Z</time>
      </trkpt>
      <trkpt lat="44.98389" lon="6.79382">
        <ele>1414.23999</ele>
        <time>2014-08-21T04:59:22Z</time>
      </trkpt>
      <trkpt lat="44.98391" lon="6.79378">
        <ele>1414.569946</ele>
        <time>2014-08-21T04:59:25Z</time>
      </trkpt>
      <trkpt lat="44.98398" lon="6.79367">
        <ele>1416.029907</ele>
        <time>2014-08-21T04:59:35Z</time>
      </trkpt>
      <trkpt lat="44.98401" lon="6.79366">
        <ele>1416.380005</ele>
        <time>2014-08-21T04:59:38Z</time>
      </trkpt>
      <trkpt lat="44.98408" lon="6.79356">
        <ele>1417.670044</ele>
        <time>2014-08-21T04:59:48Z</time>
      </trkpt>
      <trkpt lat="44.98408" lon="6.79356">
        <ele>1418.649902</ele>
        <time>2014-08-21T04:59:55Z</time>
      </trkpt>
      <trkpt lat="44.98409" lon="6.79356">
        <ele>1418.97998</ele>
        <time>2014-08-21T05:00:27Z</time>
      </trkpt>
      <trkpt lat="44.98408" lon="6.79355">
        <ele>1419.209961</ele>
        <time>2014-08-21T05:01:06Z</time>
      </trkpt>
      <trkpt lat="44.98409" lon="6.79356">
        <ele>1419.169922</ele>
        <time>2014-08-21T05:01:36Z</time>
      </trkpt>
      <trkpt lat="44.98408" lon="6.79355">
        <ele>1419.059937</ele>
        <time>2014-08-21T05:02:02Z</time>
      </trkpt>
      <trkpt lat="44.9841" lon="6.79348">
        <ele>1419.400024</ele>
        <time>2014-08-21T05:02:07Z</time>
      </trkpt>
      <trkpt lat="44.98419" lon="6.79339">
        <ele>1419.780029</ele>
        <time>2014-08-21T05:02:15Z</time>
      </trkpt>
      <trkpt lat="44.98424" lon="6.79335">
        <ele>1420.5</ele>
        <time>2014-08-21T05:02:20Z</time>
      </trkpt>
      <trkpt lat="44.98432" lon="6.79325">
        <ele>1422.060059</ele>
        <time>2014-08-21T05:02:29Z</time>
      </trkpt>
      <trkpt lat="44.98439" lon="6.79315">
        <ele>1423.689941</ele>
        <time>2014-08-21T05:02:37Z</time>
      </trkpt>
      <trkpt lat="44.98445" lon="6.79301">
        <ele>1425.169922</ele>
        <time>2014-08-21T05:02:47Z</time>
      </trkpt>
      <trkpt lat="44.98451" lon="6.79292">
        <ele>1426.559937</ele>
        <time>2014-08-21T05:02:55Z</time>
      </trkpt>
      <trkpt lat="44.98456" lon="6.79282">
        <ele>1428.02002</ele>
        <time>2014-08-21T05:03:03Z</time>
      </trkpt>
      <trkpt lat="44.98461" lon="6.79276">
        <ele>1428.819946</ele>
        <time>2014-08-21T05:03:09Z</time>
      </trkpt>
      <trkpt lat="44.98468" lon="6.79267">
        <ele>1430.290039</ele>
        <time>2014-08-21T05:03:18Z</time>
      </trkpt>
      <trkpt lat="44.9847" lon="6.79263">
        <ele>1430.660034</ele>
        <time>2014-08-21T05:03:21Z</time>
      </trkpt>
      <trkpt lat="44.98475" lon="6.79252">
        <ele>1432.869995</ele>
        <time>2014-08-21T05:03:31Z</time>
      </trkpt>
      <trkpt lat="44.98482" lon="6.79241">
        <ele>1434.47998</ele>
        <time>2014-08-21T05:03:41Z</time>
      </trkpt>
      <trkpt lat="44.98487" lon="6.79231">
        <ele>1436.119995</ele>
        <time>2014-08-21T05:03:49Z</time>
      </trkpt>
      <trkpt lat="44.9849" lon="6.79226">
        <ele>1436.599976</ele>
        <time>2014-08-21T05:03:53Z</time>
      </trkpt>
      <trkpt lat="44.98496" lon="6.79219">
        <ele>1437.860107</ele>
        <time>2014-08-21T05:04:01Z</time>
      </trkpt>
      <trkpt lat="44.98501" lon="6.79214">
        <ele>1439</ele>
        <time>2014-08-21T05:04:07Z</time>
      </trkpt>
      <trkpt lat="44.98504" lon="6.79209">
        <ele>1440.079956</ele>
        <time>2014-08-21T05:04:13Z</time>
      </trkpt>
      <trkpt lat="44.98507" lon="6.79204">
        <ele>1441.130005</ele>
        <time>2014-08-21T05:04:18Z</time>
      </trkpt>
      <trkpt lat="44.98512" lon="6.79195">
        <ele>1442.699951</ele>
        <time>2014-08-21T05:04:27Z</time>
      </trkpt>
      <trkpt lat="44.98517" lon="6.79189">
        <ele>1444.030029</ele>
        <time>2014-08-21T05:04:35Z</time>
      </trkpt>
      <trkpt lat="44.9852" lon="6.7918">
        <ele>1445.5</ele>
        <time>2014-08-21T05:04:43Z</time>
      </trkpt>
      <trkpt lat="44.98523" lon="6.79174">
        <ele>1446.910034</ele>
        <time>2014-08-21T05:04:51Z</time>
      </trkpt>
      <trkpt lat="44.98526" lon="6.7916">
        <ele>1448.699951</ele>
        <time>2014-08-21T05:05:01Z</time>
      </trkpt>
      <trkpt lat="44.98523" lon="6.79146">
        <ele>1450.469971</ele>
        <time>2014-08-21T05:05:11Z</time>
      </trkpt>
      <trkpt lat="44.98523" lon="6.79145">
        <ele>1450.660034</ele>
        <time>2014-08-21T05:05:12Z</time>
      </trkpt>
      <trkpt lat="44.98521" lon="6.79132">
        <ele>1452.359985</ele>
        <time>2014-08-21T05:05:21Z</time>
      </trkpt>
      <trkpt lat="44.98518" lon="6.79118">
        <ele>1454.52002</ele>
        <time>2014-08-21T05:05:32Z</time>
      </trkpt>
      <trkpt lat="44.98515" lon="6.79107">
        <ele>1455.710083</ele>
        <time>2014-08-21T05:05:40Z</time>
      </trkpt>
      <trkpt lat="44.98511" lon="6.79093">
        <ele>1457.349976</ele>
        <time>2014-08-21T05:05:50Z</time>
      </trkpt>
      <trkpt lat="44.9851" lon="6.79088">
        <ele>1458.049927</ele>
        <time>2014-08-21T05:05:54Z</time>
      </trkpt>
      <trkpt lat="44.98508" lon="6.7908">
        <ele>1459.289917</ele>
        <time>2014-08-21T05:06:00Z</time>
      </trkpt>
      <trkpt lat="44.98505" lon="6.79069">
        <ele>1461.029907</ele>
        <time>2014-08-21T05:06:09Z</time>
      </trkpt>
      <trkpt lat="44.98504" lon="6.79058">
        <ele>1462.340088</ele>
        <time>2014-08-21T05:06:17Z</time>
      </trkpt>
      <trkpt lat="44.98501" lon="6.79046">
        <ele>1464.309937</ele>
        <time>2014-08-21T05:06:26Z</time>
      </trkpt>
      <trkpt lat="44.98498" lon="6.79037">
        <ele>1465.879883</ele>
        <time>2014-08-21T05:06:34Z</time>
      </trkpt>
      <trkpt lat="44.98495" lon="6.79027">
        <ele>1467.469971</ele>
        <time>2014-08-21T05:06:43Z</time>
      </trkpt>
      <trkpt lat="44.98493" lon="6.79018">
        <ele>1468.880005</ele>
        <time>2014-08-21T05:06:51Z</time>
      </trkpt>
      <trkpt lat="44.9849" lon="6.79008">
        <ele>1470.829956</ele>
        <time>2014-08-21T05:07:00Z</time>
      </trkpt>
      <trkpt lat="44.98488" lon="6.78998">
        <ele>1472.130005</ele>
        <time>2014-08-21T05:07:09Z</time>
      </trkpt>
      <trkpt lat="44.98487" lon="6.78991">
        <ele>1473.119995</ele>
        <time>2014-08-21T05:07:15Z</time>
      </trkpt>
      <trkpt lat="44.98483" lon="6.78978">
        <ele>1474.550049</ele>
        <time>2014-08-21T05:07:25Z</time>
      </trkpt>
      <trkpt lat="44.98483" lon="6.78967">
        <ele>1475.949951</ele>
        <time>2014-08-21T05:07:33Z</time>
      </trkpt>
      <trkpt lat="44.98482" lon="6.78963">
        <ele>1476.679932</ele>
        <time>2014-08-21T05:07:36Z</time>
      </trkpt>
      <trkpt lat="44.98483" lon="6.78949">
        <ele>1478</ele>
        <time>2014-08-21T05:07:44Z</time>
      </trkpt>
      <trkpt lat="44.98482" lon="6.78937">
        <ele>1478.990112</ele>
        <time>2014-08-21T05:07:51Z</time>
      </trkpt>
      <trkpt lat="44.98487" lon="6.78919">
        <ele>1480.630005</ele>
        <time>2014-08-21T05:08:01Z</time>
      </trkpt>
      <trkpt lat="44.98492" lon="6.78908">
        <ele>1481.829956</ele>
        <time>2014-08-21T05:08:09Z</time>
      </trkpt>
      <trkpt lat="44.985" lon="6.78901">
        <ele>1482.73999</ele>
        <time>2014-08-21T05:08:16Z</time>
      </trkpt>
      <trkpt lat="44.98508" lon="6.78891">
        <ele>1484.130005</ele>
        <time>2014-08-21T05:08:26Z</time>
      </trkpt>
      <trkpt lat="44.98509" lon="6.7889">
        <ele>1484.26001</ele>
        <time>2014-08-21T05:08:27Z</time>
      </trkpt>
      <trkpt lat="44.98512" lon="6.78886">
        <ele>1484.690063</ele>
        <time>2014-08-21T05:08:31Z</time>
      </trkpt>
      <trkpt lat="44.98515" lon="6.78883">
        <ele>1484.969971</ele>
        <time>2014-08-21T05:08:34Z</time>
      </trkpt>
      <trkpt lat="44.98521" lon="6.78875">
        <ele>1486.310059</ele>
        <time>2014-08-21T05:08:42Z</time>
      </trkpt>
      <trkpt lat="44.98523" lon="6.78875">
        <ele>1486.47998</ele>
        <time>2014-08-21T05:08:44Z</time>
      </trkpt>
      <trkpt lat="44.98529" lon="6.78864">
        <ele>1487.789917</ele>
        <time>2014-08-21T05:08:53Z</time>
      </trkpt>
      <trkpt lat="44.98538" lon="6.78855">
        <ele>1489.140015</ele>
        <time>2014-08-21T05:09:02Z</time>
      </trkpt>
      <trkpt lat="44.98539" lon="6.78854">
        <ele>1489.380005</ele>
        <time>2014-08-21T05:09:03Z</time>
      </trkpt>
      <trkpt lat="44.98546" lon="6.78843">
        <ele>1491.100098</ele>
        <time>2014-08-21T05:09:11Z</time>
      </trkpt>
      <trkpt lat="44.98555" lon="6.78832">
        <ele>1492.339966</ele>
        <time>2014-08-21T05:09:20Z</time>
      </trkpt>
      <trkpt lat="44.98562" lon="6.78827">
        <ele>1493.279907</ele>
        <time>2014-08-21T05:09:27Z</time>
      </trkpt>
      <trkpt lat="44.98571" lon="6.78817">
        <ele>1494.76001</ele>
        <time>2014-08-21T05:09:36Z</time>
      </trkpt>
      <trkpt lat="44.98573" lon="6.78815">
        <ele>1495.119995</ele>
        <time>2014-08-21T05:09:38Z</time>
      </trkpt>
      <trkpt lat="44.98581" lon="6.78807">
        <ele>1496.119995</ele>
        <time>2014-08-21T05:09:45Z</time>
      </trkpt>
      <trkpt lat="44.98583" lon="6.78804">
        <ele>1496.359985</ele>
        <time>2014-08-21T05:09:47Z</time>
      </trkpt>
      <trkpt lat="44.98587" lon="6.78798">
        <ele>1496.890015</ele>
        <time>2014-08-21T05:09:51Z</time>
      </trkpt>
      <trkpt lat="44.98591" lon="6.78779">
        <ele>1498.420044</ele>
        <time>2014-08-21T05:10:02Z</time>
      </trkpt>
      <trkpt lat="44.98591" lon="6.78776">
        <ele>1498.689941</ele>
        <time>2014-08-21T05:10:04Z</time>
      </trkpt>
      <trkpt lat="44.9859" lon="6.78759">
        <ele>1500.450073</ele>
        <time>2014-08-21T05:10:14Z</time>
      </trkpt>
      <trkpt lat="44.98593" lon="6.78746">
        <ele>1501.869995</ele>
        <time>2014-08-21T05:10:22Z</time>
      </trkpt>
      <trkpt lat="44.98593" lon="6.78742">
        <ele>1502.170044</ele>
        <time>2014-08-21T05:10:24Z</time>
      </trkpt>
      <trkpt lat="44.98595" lon="6.78737">
        <ele>1502.779907</ele>
        <time>2014-08-21T05:10:28Z</time>
      </trkpt>
      <trkpt lat="44.98597" lon="6.78734">
        <ele>1503.02002</ele>
        <time>2014-08-21T05:10:30Z</time>
      </trkpt>
      <trkpt lat="44.98601" lon="6.78721">
        <ele>1504.250122</ele>
        <time>2014-08-21T05:10:38Z</time>
      </trkpt>
      <trkpt lat="44.986" lon="6.78705">
        <ele>1505.869995</ele>
        <time>2014-08-21T05:10:47Z</time>
      </trkpt>
      <trkpt lat="44.98596" lon="6.78691">
        <ele>1507.269897</ele>
        <time>2014-08-21T05:10:56Z</time>
      </trkpt>
      <trkpt lat="44.98591" lon="6.78682">
        <ele>1508.309937</ele>
        <time>2014-08-21T05:11:02Z</time>
      </trkpt>
      <trkpt lat="44.98588" lon="6.78676">
        <ele>1508.900024</ele>
        <time>2014-08-21T05:11:06Z</time>
      </trkpt>
      <trkpt lat="44.98586" lon="6.78673">
        <ele>1509.170044</ele>
        <time>2014-08-21T05:11:08Z</time>
      </trkpt>
      <trkpt lat="44.98576" lon="6.7866">
        <ele>1510.47998</ele>
        <time>2014-08-21T05:11:19Z</time>
      </trkpt>
      <trkpt lat="44.98569" lon="6.7865">
        <ele>1511.780029</ele>
        <time>2014-08-21T05:11:28Z</time>
      </trkpt>
      <trkpt lat="44.98568" lon="6.7865">
        <ele>1511.909912</ele>
        <time>2014-08-21T05:11:29Z</time>
      </trkpt>
      <trkpt lat="44.98557" lon="6.78641">
        <ele>1513.540039</ele>
        <time>2014-08-21T05:11:38Z</time>
      </trkpt>
      <trkpt lat="44.98552" lon="6.78625">
        <ele>1515.079956</ele>
        <time>2014-08-21T05:11:48Z</time>
      </trkpt>
      <trkpt lat="44.98553" lon="6.78607">
        <ele>1516.620117</ele>
        <time>2014-08-21T05:11:58Z</time>
      </trkpt>
      <trkpt lat="44.98556" lon="6.7859">
        <ele>1518.390015</ele>
        <time>2014-08-21T05:12:08Z</time>
      </trkpt>
      <trkpt lat="44.98557" lon="6.78577">
        <ele>1520.070068</ele>
        <time>2014-08-21T05:12:16Z</time>
      </trkpt>
      <trkpt lat="44.98562" lon="6.78565">
        <ele>1522.249878</ele>
        <time>2014-08-21T05:12:25Z</time>
      </trkpt>
      <trkpt lat="44.98566" lon="6.78549">
        <ele>1523.48999</ele>
        <time>2014-08-21T05:12:33Z</time>
      </trkpt>
      <trkpt lat="44.98568" lon="6.78533">
        <ele>1524.169922</ele>
        <time>2014-08-21T05:12:41Z</time>
      </trkpt>
      <trkpt lat="44.9857" lon="6.78518">
        <ele>1525.369995</ele>
        <time>2014-08-21T05:12:49Z</time>
      </trkpt>
      <trkpt lat="44.9857" lon="6.78503">
        <ele>1526.369995</ele>
        <time>2014-08-21T05:12:57Z</time>
      </trkpt>
      <trkpt lat="44.98563" lon="6.78483">
        <ele>1527.099976</ele>
        <time>2014-08-21T05:13:06Z</time>
      </trkpt>
      <trkpt lat="44.98562" lon="6.78479">
        <ele>1527.220093</ele>
        <time>2014-08-21T05:13:08Z</time>
      </trkpt>
      <trkpt lat="44.98556" lon="6.78469">
        <ele>1527.98999</ele>
        <time>2014-08-21T05:13:14Z</time>
      </trkpt>
      <trkpt lat="44.98549" lon="6.78456">
        <ele>1529.170044</ele>
        <time>2014-08-21T05:13:23Z</time>
      </trkpt>
      <trkpt lat="44.98548" lon="6.78452">
        <ele>1530.01001</ele>
        <time>2014-08-21T05:13:30Z</time>
      </trkpt>
      <trkpt lat="44.98546" lon="6.78449">
        <ele>1530.469971</ele>
        <time>2014-08-21T05:13:36Z</time>
      </trkpt>
      <trkpt lat="44.98544" lon="6.78436">
        <ele>1530.649902</ele>
        <time>2014-08-21T05:13:42Z</time>
      </trkpt>
      <trkpt lat="44.98537" lon="6.78414">
        <ele>1531.839966</ele>
        <time>2014-08-21T05:13:53Z</time>
      </trkpt>
      <trkpt lat="44.98528" lon="6.78389">
        <ele>1532.800049</ele>
        <time>2014-08-21T05:14:03Z</time>
      </trkpt>
      <trkpt lat="44.98524" lon="6.78374">
        <ele>1533.259888</ele>
        <time>2014-08-21T05:14:10Z</time>
      </trkpt>
      <trkpt lat="44.98516" lon="6.78353">
        <ele>1533.889893</ele>
        <time>2014-08-21T05:14:20Z</time>
      </trkpt>
      <trkpt lat="44.98508" lon="6.78337">
        <ele>1534.48999</ele>
        <time>2014-08-21T05:14:29Z</time>
      </trkpt>
      <trkpt lat="44.98501" lon="6.78324">
        <ele>1535.300049</ele>
        <time>2014-08-21T05:14:37Z</time>
      </trkpt>
      <trkpt lat="44.98498" lon="6.78317">
        <ele>1536.079956</ele>
        <time>2014-08-21T05:14:42Z</time>
      </trkpt>
      <trkpt lat="44.98497" lon="6.78315">
        <ele>1536.219971</ele>
        <time>2014-08-21T05:14:43Z</time>
      </trkpt>
      <trkpt lat="44.98496" lon="6.78314">
        <ele>1536.359985</ele>
        <time>2014-08-21T05:14:44Z</time>
      </trkpt>
      <trkpt lat="44.9849" lon="6.783">
        <ele>1537.650024</ele>
        <time>2014-08-21T05:14:52Z</time>
      </trkpt>
      <trkpt lat="44.98486" lon="6.78283">
        <ele>1539.309937</ele>
        <time>2014-08-21T05:15:01Z</time>
      </trkpt>
      <trkpt lat="44.98483" lon="6.78265">
        <ele>1540.569946</ele>
        <time>2014-08-21T05:15:11Z</time>
      </trkpt>
      <trkpt lat="44.98482" lon="6.7826">
        <ele>1540.780029</ele>
        <time>2014-08-21T05:15:13Z</time>
      </trkpt>
      <trkpt lat="44.98481" lon="6.78239">
        <ele>1541.910034</ele>
        <time>2014-08-21T05:15:22Z</time>
      </trkpt>
      <trkpt lat="44.9848" lon="6.78225">
        <ele>1542.809937</ele>
        <time>2014-08-21T05:15:29Z</time>
      </trkpt>
      <trkpt lat="44.98484" lon="6.78209">
        <ele>1544.529907</ele>
        <time>2014-08-21T05:15:39Z</time>
      </trkpt>
      <trkpt lat="44.98486" lon="6.78206">
        <ele>1545.060059</ele>
        <time>2014-08-21T05:15:41Z</time>
      </trkpt>
      <trkpt lat="44.98493" lon="6.78205">
        <ele>1546.030029</ele>
        <time>2014-08-21T05:15:47Z</time>
      </trkpt>
      <trkpt lat="44.98494" lon="6.78205">
        <ele>1546.180054</ele>
        <time>2014-08-21T05:15:48Z</time>
      </trkpt>
      <trkpt lat="44.98495" lon="6.78206">
        <ele>1546.339966</ele>
        <time>2014-08-21T05:15:49Z</time>
      </trkpt>
      <trkpt lat="44.98496" lon="6.78209">
        <ele>1546.790039</ele>
        <time>2014-08-21T05:15:51Z</time>
      </trkpt>
      <trkpt lat="44.98497" lon="6.78227">
        <ele>1548.26001</ele>
        <time>2014-08-21T05:16:01Z</time>
      </trkpt>
      <trkpt lat="44.98496" lon="6.78235">
        <ele>1548.870117</ele>
        <time>2014-08-21T05:16:05Z</time>
      </trkpt>
      <trkpt lat="44.98496" lon="6.78237">
        <ele>1549.01001</ele>
        <time>2014-08-21T05:16:06Z</time>
      </trkpt>
      <trkpt lat="44.98501" lon="6.78253">
        <ele>1550.030029</ele>
        <time>2014-08-21T05:16:15Z</time>
      </trkpt>
      <trkpt lat="44.98507" lon="6.78267">
        <ele>1550.829956</ele>
        <time>2014-08-21T05:16:25Z</time>
      </trkpt>
      <trkpt lat="44.98512" lon="6.78279">
        <ele>1552.079956</ele>
        <time>2014-08-21T05:16:34Z</time>
      </trkpt>
      <trkpt lat="44.98522" lon="6.78294">
        <ele>1553.26001</ele>
        <time>2014-08-21T05:16:44Z</time>
      </trkpt>
      <trkpt lat="44.98524" lon="6.78297">
        <ele>1553.5</ele>
        <time>2014-08-21T05:16:46Z</time>
      </trkpt>
      <trkpt lat="44.98526" lon="6.78299">
        <ele>1553.76001</ele>
        <time>2014-08-21T05:16:48Z</time>
      </trkpt>
      <trkpt lat="44.98527" lon="6.78301">
        <ele>1553.929932</ele>
        <time>2014-08-21T05:16:49Z</time>
      </trkpt>
      <trkpt lat="44.98528" lon="6.78302">
        <ele>1554.130005</ele>
        <time>2014-08-21T05:16:50Z</time>
      </trkpt>
      <trkpt lat="44.98538" lon="6.78311">
        <ele>1556.52002</ele>
        <time>2014-08-21T05:17:00Z</time>
      </trkpt>
      <trkpt lat="44.98542" lon="6.78312">
        <ele>1557.219971</ele>
        <time>2014-08-21T05:17:04Z</time>
      </trkpt>
      <trkpt lat="44.98545" lon="6.78314">
        <ele>1557.609985</ele>
        <time>2014-08-21T05:17:07Z</time>
      </trkpt>
      <trkpt lat="44.98556" lon="6.78322">
        <ele>1559.289917</ele>
        <time>2014-08-21T05:17:17Z</time>
      </trkpt>
      <trkpt lat="44.98567" lon="6.78327">
        <ele>1560.809937</ele>
        <time>2014-08-21T05:17:26Z</time>
      </trkpt>
      <trkpt lat="44.98578" lon="6.78331">
        <ele>1561.959961</ele>
        <time>2014-08-21T05:17:35Z</time>
      </trkpt>
      <trkpt lat="44.98579" lon="6.78331">
        <ele>1562.150024</ele>
        <time>2014-08-21T05:17:36Z</time>
      </trkpt>
      <trkpt lat="44.98581" lon="6.78331">
        <ele>1562.349976</ele>
        <time>2014-08-21T05:17:37Z</time>
      </trkpt>
      <trkpt lat="44.98582" lon="6.78331">
        <ele>1562.550049</ele>
        <time>2014-08-21T05:17:38Z</time>
      </trkpt>
      <trkpt lat="44.9859" lon="6.78331">
        <ele>1563.969971</ele>
        <time>2014-08-21T05:17:45Z</time>
      </trkpt>
      <trkpt lat="44.98591" lon="6.78331">
        <ele>1564.149902</ele>
        <time>2014-08-21T05:17:46Z</time>
      </trkpt>
      <trkpt lat="44.98593" lon="6.78331">
        <ele>1564.290039</ele>
        <time>2014-08-21T05:17:47Z</time>
      </trkpt>
      <trkpt lat="44.986" lon="6.78329">
        <ele>1564.98999</ele>
        <time>2014-08-21T05:17:53Z</time>
      </trkpt>
      <trkpt lat="44.98608" lon="6.78326">
        <ele>1566.47998</ele>
        <time>2014-08-21T05:18:01Z</time>
      </trkpt>
      <trkpt lat="44.98617" lon="6.78322">
        <ele>1568.22998</ele>
        <time>2014-08-21T05:18:09Z</time>
      </trkpt>
      <trkpt lat="44.98618" lon="6.78322">
        <ele>1568.400024</ele>
        <time>2014-08-21T05:18:10Z</time>
      </trkpt>
      <trkpt lat="44.98625" lon="6.78317">
        <ele>1569.23999</ele>
        <time>2014-08-21T05:18:17Z</time>
      </trkpt>
      <trkpt lat="44.98631" lon="6.78313">
        <ele>1569.910034</ele>
        <time>2014-08-21T05:18:22Z</time>
      </trkpt>
      <trkpt lat="44.98634" lon="6.78312">
        <ele>1570.259888</ele>
        <time>2014-08-21T05:18:24Z</time>
      </trkpt>
      <trkpt lat="44.98635" lon="6.78311">
        <ele>1570.430054</ele>
        <time>2014-08-21T05:18:25Z</time>
      </trkpt>
      <trkpt lat="44.98644" lon="6.78306">
        <ele>1571.819946</ele>
        <time>2014-08-21T05:18:33Z</time>
      </trkpt>
      <trkpt lat="44.98653" lon="6.78309">
        <ele>1572.819946</ele>
        <time>2014-08-21T05:18:40Z</time>
      </trkpt>
      <trkpt lat="44.9866" lon="6.78318">
        <ele>1574.019897</ele>
        <time>2014-08-21T05:18:48Z</time>
      </trkpt>
      <trkpt lat="44.98664" lon="6.78322">
        <ele>1574.75</ele>
        <time>2014-08-21T05:18:53Z</time>
      </trkpt>
      <trkpt lat="44.98671" lon="6.7832">
        <ele>1575.340088</ele>
        <time>2014-08-21T05:18:58Z</time>
      </trkpt>
      <trkpt lat="44.98673" lon="6.78316">
        <ele>1575.700073</ele>
        <time>2014-08-21T05:19:01Z</time>
      </trkpt>
      <trkpt lat="44.98671" lon="6.78305">
        <ele>1576.839966</ele>
        <time>2014-08-21T05:19:09Z</time>
      </trkpt>
      <trkpt lat="44.98672" lon="6.78305">
        <ele>1577.400024</ele>
        <time>2014-08-21T05:19:16Z</time>
      </trkpt>
      <trkpt lat="44.98668" lon="6.78305">
        <ele>1577.810059</ele>
        <time>2014-08-21T05:19:38Z</time>
      </trkpt>
      <trkpt lat="44.98666" lon="6.78299">
        <ele>1577.98999</ele>
        <time>2014-08-21T05:19:42Z</time>
      </trkpt>
      <trkpt lat="44.98664" lon="6.78294">
        <ele>1578.360107</ele>
        <time>2014-08-21T05:19:45Z</time>
      </trkpt>
      <trkpt lat="44.98659" lon="6.78288">
        <ele>1579.23999</ele>
        <time>2014-08-21T05:19:50Z</time>
      </trkpt>
      <trkpt lat="44.98648" lon="6.78276">
        <ele>1580.380005</ele>
        <time>2014-08-21T05:20:00Z</time>
      </trkpt>
      <trkpt lat="44.98641" lon="6.78265">
        <ele>1582.430054</ele>
        <time>2014-08-21T05:20:08Z</time>
      </trkpt>
      <trkpt lat="44.9863" lon="6.7825">
        <ele>1584.619873</ele>
        <time>2014-08-21T05:20:20Z</time>
      </trkpt>
      <trkpt lat="44.98629" lon="6.78248">
        <ele>1584.819946</ele>
        <time>2014-08-21T05:20:21Z</time>
      </trkpt>
      <trkpt lat="44.98626" lon="6.78235">
        <ele>1586.610107</ele>
        <time>2014-08-21T05:20:29Z</time>
      </trkpt>
      <trkpt lat="44.98627" lon="6.78226">
        <ele>1586.98999</ele>
        <time>2014-08-21T05:20:34Z</time>
      </trkpt>
      <trkpt lat="44.98626" lon="6.78205">
        <ele>1588.049927</ele>
        <time>2014-08-21T05:20:45Z</time>
      </trkpt>
      <trkpt lat="44.98625" lon="6.78186">
        <ele>1590.099976</ele>
        <time>2014-08-21T05:20:57Z</time>
      </trkpt>
      <trkpt lat="44.98625" lon="6.78169">
        <ele>1591.75</ele>
        <time>2014-08-21T05:21:07Z</time>
      </trkpt>
      <trkpt lat="44.98626" lon="6.78155">
        <ele>1593.160034</ele>
        <time>2014-08-21T05:21:16Z</time>
      </trkpt>
      <trkpt lat="44.98625" lon="6.78148">
        <ele>1593.899902</ele>
        <time>2014-08-21T05:21:20Z</time>
      </trkpt>
      <trkpt lat="44.98625" lon="6.78143">
        <ele>1594.880005</ele>
        <time>2014-08-21T05:21:29Z</time>
      </trkpt>
      <trkpt lat="44.98623" lon="6.78141">
        <ele>1595.220093</ele>
        <time>2014-08-21T05:21:45Z</time>
      </trkpt>
      <trkpt lat="44.98621" lon="6.78135">
        <ele>1595.220093</ele>
        <time>2014-08-21T05:21:59Z</time>
      </trkpt>
      <trkpt lat="44.98619" lon="6.78114">
        <ele>1595.299927</ele>
        <time>2014-08-21T05:22:08Z</time>
      </trkpt>
      <trkpt lat="44.98614" lon="6.78101">
        <ele>1596.589966</ele>
        <time>2014-08-21T05:22:17Z</time>
      </trkpt>
      <trkpt lat="44.98613" lon="6.78088">
        <ele>1598.189941</ele>
        <time>2014-08-21T05:22:25Z</time>
      </trkpt>
      <trkpt lat="44.9861" lon="6.78073">
        <ele>1600.529907</ele>
        <time>2014-08-21T05:22:35Z</time>
      </trkpt>
      <trkpt lat="44.98606" lon="6.78062">
        <ele>1602.070068</ele>
        <time>2014-08-21T05:22:44Z</time>
      </trkpt>
      <trkpt lat="44.98602" lon="6.78052">
        <ele>1603.849976</ele>
        <time>2014-08-21T05:22:52Z</time>
      </trkpt>
      <trkpt lat="44.98599" lon="6.7804">
        <ele>1605.98999</ele>
        <time>2014-08-21T05:23:00Z</time>
      </trkpt>
      <trkpt lat="44.98596" lon="6.78027">
        <ele>1607.47998</ele>
        <time>2014-08-21T05:23:10Z</time>
      </trkpt>
      <trkpt lat="44.98592" lon="6.78014">
        <ele>1608.910034</ele>
        <time>2014-08-21T05:23:20Z</time>
      </trkpt>
      <trkpt lat="44.9859" lon="6.78009">
        <ele>1610.150024</ele>
        <time>2014-08-21T05:23:27Z</time>
      </trkpt>
      <trkpt lat="44.98587" lon="6.78001">
        <ele>1611.109985</ele>
        <time>2014-08-21T05:23:38Z</time>
      </trkpt>
      <trkpt lat="44.98583" lon="6.77991">
        <ele>1612.469971</ele>
        <time>2014-08-21T05:23:48Z</time>
      </trkpt>
      <trkpt lat="44.9858" lon="6.77982">
        <ele>1613.789917</ele>
        <time>2014-08-21T05:23:59Z</time>
      </trkpt>
      <trkpt lat="44.98577" lon="6.7797">
        <ele>1615.22998</ele>
        <time>2014-08-21T05:24:11Z</time>
      </trkpt>
      <trkpt lat="44.98574" lon="6.77957">
        <ele>1616.73999</ele>
        <time>2014-08-21T05:24:21Z</time>
      </trkpt>
      <trkpt lat="44.9857" lon="6.77944">
        <ele>1618.019897</ele>
        <time>2014-08-21T05:24:32Z</time>
      </trkpt>
      <trkpt lat="44.98567" lon="6.77936">
        <ele>1619.349976</ele>
        <time>2014-08-21T05:24:41Z</time>
      </trkpt>
      <trkpt lat="44.98564" lon="6.77923">
        <ele>1620.320068</ele>
        <time>2014-08-21T05:24:50Z</time>
      </trkpt>
      <trkpt lat="44.98558" lon="6.7791">
        <ele>1622.160034</ele>
        <time>2014-08-21T05:25:00Z</time>
      </trkpt>
      <trkpt lat="44.98554" lon="6.77897">
        <ele>1623.630005</ele>
        <time>2014-08-21T05:25:11Z</time>
      </trkpt>
      <trkpt lat="44.98554" lon="6.77886">
        <ele>1624.899902</ele>
        <time>2014-08-21T05:25:20Z</time>
      </trkpt>
      <trkpt lat="44.98556" lon="6.77881">
        <ele>1626.109985</ele>
        <time>2014-08-21T05:25:28Z</time>
      </trkpt>
      <trkpt lat="44.98556" lon="6.7788">
        <ele>1626.220093</ele>
        <time>2014-08-21T05:25:29Z</time>
      </trkpt>
      <trkpt lat="44.98563" lon="6.77871">
        <ele>1626.72998</ele>
        <time>2014-08-21T05:25:38Z</time>
      </trkpt>
      <trkpt lat="44.98567" lon="6.77873">
        <ele>1627.110107</ele>
        <time>2014-08-21T05:25:42Z</time>
      </trkpt>
      <trkpt lat="44.98571" lon="6.77876">
        <ele>1627.919922</ele>
        <time>2014-08-21T05:25:48Z</time>
      </trkpt>
      <trkpt lat="44.98575" lon="6.77879">
        <ele>1628.380005</ele>
        <time>2014-08-21T05:25:52Z</time>
      </trkpt>
      <trkpt lat="44.98585" lon="6.77885">
        <ele>1629.320068</ele>
        <time>2014-08-21T05:26:01Z</time>
      </trkpt>
      <trkpt lat="44.98596" lon="6.77892">
        <ele>1630.959961</ele>
        <time>2014-08-21T05:26:11Z</time>
      </trkpt>
      <trkpt lat="44.98601" lon="6.77894">
        <ele>1631.869995</ele>
        <time>2014-08-21T05:26:16Z</time>
      </trkpt>
      <trkpt lat="44.98608" lon="6.77899">
        <ele>1633.060059</ele>
        <time>2014-08-21T05:26:23Z</time>
      </trkpt>
      <trkpt lat="44.98613" lon="6.77902">
        <ele>1633.669922</ele>
        <time>2014-08-21T05:26:28Z</time>
      </trkpt>
      <trkpt lat="44.98615" lon="6.77904">
        <ele>1633.939941</ele>
        <time>2014-08-21T05:26:30Z</time>
      </trkpt>
      <trkpt lat="44.98623" lon="6.7791">
        <ele>1635.150024</ele>
        <time>2014-08-21T05:26:39Z</time>
      </trkpt>
      <trkpt lat="44.98632" lon="6.77918">
        <ele>1636.790039</ele>
        <time>2014-08-21T05:26:47Z</time>
      </trkpt>
      <trkpt lat="44.98642" lon="6.77927">
        <ele>1638.269897</ele>
        <time>2014-08-21T05:26:57Z</time>
      </trkpt>
      <trkpt lat="44.9865" lon="6.7794">
        <ele>1639.77002</ele>
        <time>2014-08-21T05:27:07Z</time>
      </trkpt>
      <trkpt lat="44.98651" lon="6.77943">
        <ele>1640.050049</ele>
        <time>2014-08-21T05:27:09Z</time>
      </trkpt>
      <trkpt lat="44.98659" lon="6.77954">
        <ele>1641.320068</ele>
        <time>2014-08-21T05:27:19Z</time>
      </trkpt>
      <trkpt lat="44.98665" lon="6.77958">
        <ele>1642.310059</ele>
        <time>2014-08-21T05:27:25Z</time>
      </trkpt>
      <trkpt lat="44.98674" lon="6.77959">
        <ele>1643.780029</ele>
        <time>2014-08-21T05:27:34Z</time>
      </trkpt>
      <trkpt lat="44.98683" lon="6.7796">
        <ele>1644.890015</ele>
        <time>2014-08-21T05:27:43Z</time>
      </trkpt>
      <trkpt lat="44.98692" lon="6.77959">
        <ele>1646.160034</ele>
        <time>2014-08-21T05:27:52Z</time>
      </trkpt>
      <trkpt lat="44.98696" lon="6.77959">
        <ele>1646.660034</ele>
        <time>2014-08-21T05:27:56Z</time>
      </trkpt>
      <trkpt lat="44.98698" lon="6.77956">
        <ele>1647.360107</ele>
        <time>2014-08-21T05:27:59Z</time>
      </trkpt>
      <trkpt lat="44.98699" lon="6.77945">
        <ele>1648.310059</ele>
        <time>2014-08-21T05:28:06Z</time>
      </trkpt>
      <trkpt lat="44.98693" lon="6.77936">
        <ele>1649.51001</ele>
        <time>2014-08-21T05:28:15Z</time>
      </trkpt>
      <trkpt lat="44.98684" lon="6.77925">
        <ele>1651.369995</ele>
        <time>2014-08-21T05:28:25Z</time>
      </trkpt>
      <trkpt lat="44.98679" lon="6.77916">
        <ele>1652.320068</ele>
        <time>2014-08-21T05:28:32Z</time>
      </trkpt>
      <trkpt lat="44.98675" lon="6.77906">
        <ele>1653.369995</ele>
        <time>2014-08-21T05:28:40Z</time>
      </trkpt>
      <trkpt lat="44.98674" lon="6.77905">
        <ele>1653.509888</ele>
        <time>2014-08-21T05:28:41Z</time>
      </trkpt>
      <trkpt lat="44.9867" lon="6.77892">
        <ele>1655.050049</ele>
        <time>2014-08-21T05:28:51Z</time>
      </trkpt>
      <trkpt lat="44.98665" lon="6.77878">
        <ele>1656.300049</ele>
        <time>2014-08-21T05:29:01Z</time>
      </trkpt>
      <trkpt lat="44.98659" lon="6.77862">
        <ele>1657.929932</ele>
        <time>2014-08-21T05:29:12Z</time>
      </trkpt>
      <trkpt lat="44.98655" lon="6.77848">
        <ele>1659.039917</ele>
        <time>2014-08-21T05:29:21Z</time>
      </trkpt>
      <trkpt lat="44.98652" lon="6.77835">
        <ele>1660.799927</ele>
        <time>2014-08-21T05:29:30Z</time>
      </trkpt>
      <trkpt lat="44.98649" lon="6.77825">
        <ele>1662.419922</ele>
        <time>2014-08-21T05:29:38Z</time>
      </trkpt>
      <trkpt lat="44.98646" lon="6.77813">
        <ele>1663.640015</ele>
        <time>2014-08-21T05:29:46Z</time>
      </trkpt>
      <trkpt lat="44.98644" lon="6.77802">
        <ele>1664.519897</ele>
        <time>2014-08-21T05:29:53Z</time>
      </trkpt>
      <trkpt lat="44.98642" lon="6.77792">
        <ele>1665.929932</ele>
        <time>2014-08-21T05:30:01Z</time>
      </trkpt>
      <trkpt lat="44.98641" lon="6.7778">
        <ele>1667.040039</ele>
        <time>2014-08-21T05:30:09Z</time>
      </trkpt>
      <trkpt lat="44.98642" lon="6.7777">
        <ele>1667.959961</ele>
        <time>2014-08-21T05:30:16Z</time>
      </trkpt>
      <trkpt lat="44.98644" lon="6.77758">
        <ele>1669.059937</ele>
        <time>2014-08-21T05:30:24Z</time>
      </trkpt>
      <trkpt lat="44.98644" lon="6.77746">
        <ele>1669.969971</ele>
        <time>2014-08-21T05:30:31Z</time>
      </trkpt>
      <trkpt lat="44.9864" lon="6.77738">
        <ele>1670.850098</ele>
        <time>2014-08-21T05:30:36Z</time>
      </trkpt>
      <trkpt lat="44.98633" lon="6.7772">
        <ele>1672.039917</ele>
        <time>2014-08-21T05:30:46Z</time>
      </trkpt>
      <trkpt lat="44.98625" lon="6.77713">
        <ele>1672.969971</ele>
        <time>2014-08-21T05:30:53Z</time>
      </trkpt>
      <trkpt lat="44.98619" lon="6.77703">
        <ele>1673.72998</ele>
        <time>2014-08-21T05:31:00Z</time>
      </trkpt>
      <trkpt lat="44.98613" lon="6.77699">
        <ele>1674.5</ele>
        <time>2014-08-21T05:31:06Z</time>
      </trkpt>
      <trkpt lat="44.98603" lon="6.77686">
        <ele>1676.640015</ele>
        <time>2014-08-21T05:31:18Z</time>
      </trkpt>
      <trkpt lat="44.98591" lon="6.77672">
        <ele>1678.650024</ele>
        <time>2014-08-21T05:31:30Z</time>
      </trkpt>
      <trkpt lat="44.98584" lon="6.77662">
        <ele>1679.98999</ele>
        <time>2014-08-21T05:31:38Z</time>
      </trkpt>
      <trkpt lat="44.98578" lon="6.7765">
        <ele>1681.529907</ele>
        <time>2014-08-21T05:31:47Z</time>
      </trkpt>
      <trkpt lat="44.98571" lon="6.77637">
        <ele>1683.02002</ele>
        <time>2014-08-21T05:31:57Z</time>
      </trkpt>
      <trkpt lat="44.98568" lon="6.77631">
        <ele>1683.840088</ele>
        <time>2014-08-21T05:32:02Z</time>
      </trkpt>
      <trkpt lat="44.98563" lon="6.77625">
        <ele>1684.690063</ele>
        <time>2014-08-21T05:32:08Z</time>
      </trkpt>
      <trkpt lat="44.98557" lon="6.77615">
        <ele>1686.140015</ele>
        <time>2014-08-21T05:32:17Z</time>
      </trkpt>
      <trkpt lat="44.9855" lon="6.77603">
        <ele>1687.710083</ele>
        <time>2014-08-21T05:32:27Z</time>
      </trkpt>
      <trkpt lat="44.98544" lon="6.77595">
        <ele>1688.640015</ele>
        <time>2014-08-21T05:32:34Z</time>
      </trkpt>
      <trkpt lat="44.98543" lon="6.77591">
        <ele>1688.97998</ele>
        <time>2014-08-21T05:32:37Z</time>
      </trkpt>
      <trkpt lat="44.9854" lon="6.77578">
        <ele>1690.26001</ele>
        <time>2014-08-21T05:32:46Z</time>
      </trkpt>
      <trkpt lat="44.98538" lon="6.77569">
        <ele>1690.929932</ele>
        <time>2014-08-21T05:32:52Z</time>
      </trkpt>
      <trkpt lat="44.9854" lon="6.77552">
        <ele>1692.300049</ele>
        <time>2014-08-21T05:33:01Z</time>
      </trkpt>
      <trkpt lat="44.98541" lon="6.77547">
        <ele>1692.809937</ele>
        <time>2014-08-21T05:33:04Z</time>
      </trkpt>
      <trkpt lat="44.9855" lon="6.77539">
        <ele>1693.959961</ele>
        <time>2014-08-21T05:33:12Z</time>
      </trkpt>
      <trkpt lat="44.98552" lon="6.7754">
        <ele>1694.300049</ele>
        <time>2014-08-21T05:33:14Z</time>
      </trkpt>
      <trkpt lat="44.98557" lon="6.77551">
        <ele>1695.599976</ele>
        <time>2014-08-21T05:33:22Z</time>
      </trkpt>
      <trkpt lat="44.98564" lon="6.77565">
        <ele>1696.929932</ele>
        <time>2014-08-21T05:33:33Z</time>
      </trkpt>
      <trkpt lat="44.9857" lon="6.77568">
        <ele>1697.630005</ele>
        <time>2014-08-21T05:33:38Z</time>
      </trkpt>
      <trkpt lat="44.98576" lon="6.7757">
        <ele>1698.279907</ele>
        <time>2014-08-21T05:33:44Z</time>
      </trkpt>
      <trkpt lat="44.98583" lon="6.77575">
        <ele>1699.570068</ele>
        <time>2014-08-21T05:33:52Z</time>
      </trkpt>
      <trkpt lat="44.98587" lon="6.77575">
        <ele>1700.059937</ele>
        <time>2014-08-21T05:33:56Z</time>
      </trkpt>
      <trkpt lat="44.98595" lon="6.77581">
        <ele>1700.960083</ele>
        <time>2014-08-21T05:34:04Z</time>
      </trkpt>
      <trkpt lat="44.98601" lon="6.77583">
        <ele>1701.660034</ele>
        <time>2014-08-21T05:34:10Z</time>
      </trkpt>
      <trkpt lat="44.98607" lon="6.77584">
        <ele>1702.349976</ele>
        <time>2014-08-21T05:34:17Z</time>
      </trkpt>
      <trkpt lat="44.98608" lon="6.77583">
        <ele>1702.449951</ele>
        <time>2014-08-21T05:34:18Z</time>
      </trkpt>
      <trkpt lat="44.98609" lon="6.77581">
        <ele>1702.72998</ele>
        <time>2014-08-21T05:34:20Z</time>
      </trkpt>
      <trkpt lat="44.98608" lon="6.77567">
        <ele>1704.26001</ele>
        <time>2014-08-21T05:34:29Z</time>
      </trkpt>
      <trkpt lat="44.98605" lon="6.77561">
        <ele>1705.420044</ele>
        <time>2014-08-21T05:34:35Z</time>
      </trkpt>
      <trkpt lat="44.98598" lon="6.77548">
        <ele>1706.76001</ele>
        <time>2014-08-21T05:34:45Z</time>
      </trkpt>
      <trkpt lat="44.98597" lon="6.77546">
        <ele>1706.890015</ele>
        <time>2014-08-21T05:34:46Z</time>
      </trkpt>
      <trkpt lat="44.9859" lon="6.77535">
        <ele>1707.950073</ele>
        <time>2014-08-21T05:34:55Z</time>
      </trkpt>
      <trkpt lat="44.98588" lon="6.77532">
        <ele>1709.060059</ele>
        <time>2014-08-21T05:35:02Z</time>
      </trkpt>
      <trkpt lat="44.98585" lon="6.77526">
        <ele>1709.329956</ele>
        <time>2014-08-21T05:35:12Z</time>
      </trkpt>
      <trkpt lat="44.9858" lon="6.77517">
        <ele>1709.910034</ele>
        <time>2014-08-21T05:35:19Z</time>
      </trkpt>
      <trkpt lat="44.98572" lon="6.77506">
        <ele>1711.350098</ele>
        <time>2014-08-21T05:35:28Z</time>
      </trkpt>
      <trkpt lat="44.98566" lon="6.77493">
        <ele>1712.309937</ele>
        <time>2014-08-21T05:35:37Z</time>
      </trkpt>
      <trkpt lat="44.98564" lon="6.77484">
        <ele>1713.109985</ele>
        <time>2014-08-21T05:35:44Z</time>
      </trkpt>
      <trkpt lat="44.98563" lon="6.77474">
        <ele>1714.159912</ele>
        <time>2014-08-21T05:35:51Z</time>
      </trkpt>
      <trkpt lat="44.98562" lon="6.77463">
        <ele>1715.27002</ele>
        <time>2014-08-21T05:35:58Z</time>
      </trkpt>
      <trkpt lat="44.98561" lon="6.77458">
        <ele>1715.829956</ele>
        <time>2014-08-21T05:36:02Z</time>
      </trkpt>
      <trkpt lat="44.9856" lon="6.77443">
        <ele>1717.350098</ele>
        <time>2014-08-21T05:36:11Z</time>
      </trkpt>
      <trkpt lat="44.98558" lon="6.77433">
        <ele>1718.749878</ele>
        <time>2014-08-21T05:36:19Z</time>
      </trkpt>
      <trkpt lat="44.98552" lon="6.77426">
        <ele>1719.859985</ele>
        <time>2014-08-21T05:36:26Z</time>
      </trkpt>
      <trkpt lat="44.98544" lon="6.77422">
        <ele>1720.709961</ele>
        <time>2014-08-21T05:36:33Z</time>
      </trkpt>
      <trkpt lat="44.98535" lon="6.77417">
        <ele>1722.249878</ele>
        <time>2014-08-21T05:36:43Z</time>
      </trkpt>
      <trkpt lat="44.98526" lon="6.77414">
        <ele>1723.499878</ele>
        <time>2014-08-21T05:36:51Z</time>
      </trkpt>
      <trkpt lat="44.98518" lon="6.7741">
        <ele>1724.670044</ele>
        <time>2014-08-21T05:37:00Z</time>
      </trkpt>
      <trkpt lat="44.98509" lon="6.77403">
        <ele>1726.02002</ele>
        <time>2014-08-21T05:37:10Z</time>
      </trkpt>
      <trkpt lat="44.98501" lon="6.77398">
        <ele>1727.280029</ele>
        <time>2014-08-21T05:37:18Z</time>
      </trkpt>
      <trkpt lat="44.98491" lon="6.77388">
        <ele>1729.210083</ele>
        <time>2014-08-21T05:37:29Z</time>
      </trkpt>
      <trkpt lat="44.98481" lon="6.77378">
        <ele>1730.429932</ele>
        <time>2014-08-21T05:37:39Z</time>
      </trkpt>
      <trkpt lat="44.98474" lon="6.77366">
        <ele>1731.579956</ele>
        <time>2014-08-21T05:37:49Z</time>
      </trkpt>
      <trkpt lat="44.98468" lon="6.77355">
        <ele>1732.669922</ele>
        <time>2014-08-21T05:37:57Z</time>
      </trkpt>
      <trkpt lat="44.98467" lon="6.77346">
        <ele>1733.140015</ele>
        <time>2014-08-21T05:38:02Z</time>
      </trkpt>
      <trkpt lat="44.98468" lon="6.77342">
        <ele>1733.609985</ele>
        <time>2014-08-21T05:38:05Z</time>
      </trkpt>
      <trkpt lat="44.98469" lon="6.7734">
        <ele>1733.859985</ele>
        <time>2014-08-21T05:38:07Z</time>
      </trkpt>
      <trkpt lat="44.98477" lon="6.7734">
        <ele>1735.339966</ele>
        <time>2014-08-21T05:38:15Z</time>
      </trkpt>
      <trkpt lat="44.98483" lon="6.77348">
        <ele>1736.48999</ele>
        <time>2014-08-21T05:38:23Z</time>
      </trkpt>
      <trkpt lat="44.98491" lon="6.77358">
        <ele>1737.630005</ele>
        <time>2014-08-21T05:38:33Z</time>
      </trkpt>
      <trkpt lat="44.98499" lon="6.77363">
        <ele>1738.650024</ele>
        <time>2014-08-21T05:38:41Z</time>
      </trkpt>
      <trkpt lat="44.98507" lon="6.77369">
        <ele>1739.779907</ele>
        <time>2014-08-21T05:38:50Z</time>
      </trkpt>
      <trkpt lat="44.98515" lon="6.77372">
        <ele>1740.800049</ele>
        <time>2014-08-21T05:38:58Z</time>
      </trkpt>
      <trkpt lat="44.98527" lon="6.77373">
        <ele>1742.140015</ele>
        <time>2014-08-21T05:39:08Z</time>
      </trkpt>
      <trkpt lat="44.98536" lon="6.77371">
        <ele>1743.48999</ele>
        <time>2014-08-21T05:39:17Z</time>
      </trkpt>
      <trkpt lat="44.98547" lon="6.77369">
        <ele>1744.939941</ele>
        <time>2014-08-21T05:39:27Z</time>
      </trkpt>
      <trkpt lat="44.98558" lon="6.77373">
        <ele>1746.769897</ele>
        <time>2014-08-21T05:39:37Z</time>
      </trkpt>
      <trkpt lat="44.98566" lon="6.77375">
        <ele>1748.22998</ele>
        <time>2014-08-21T05:39:45Z</time>
      </trkpt>
      <trkpt lat="44.98575" lon="6.77379">
        <ele>1749.450073</ele>
        <time>2014-08-21T05:39:55Z</time>
      </trkpt>
      <trkpt lat="44.98583" lon="6.77385">
        <ele>1749.860107</ele>
        <time>2014-08-21T05:40:02Z</time>
      </trkpt>
      <trkpt lat="44.98587" lon="6.77389">
        <ele>1750.119873</ele>
        <time>2014-08-21T05:40:06Z</time>
      </trkpt>
      <trkpt lat="44.98597" lon="6.77395">
        <ele>1751.319946</ele>
        <time>2014-08-21T05:40:16Z</time>
      </trkpt>
      <trkpt lat="44.98608" lon="6.77401">
        <ele>1752.22998</ele>
        <time>2014-08-21T05:40:26Z</time>
      </trkpt>
      <trkpt lat="44.98615" lon="6.77405">
        <ele>1753.179932</ele>
        <time>2014-08-21T05:40:33Z</time>
      </trkpt>
      <trkpt lat="44.98625" lon="6.77413">
        <ele>1753.929932</ele>
        <time>2014-08-21T05:40:41Z</time>
      </trkpt>
      <trkpt lat="44.98632" lon="6.77417">
        <ele>1755.25</ele>
        <time>2014-08-21T05:40:48Z</time>
      </trkpt>
      <trkpt lat="44.98641" lon="6.77413">
        <ele>1756.180054</ele>
        <time>2014-08-21T05:40:57Z</time>
      </trkpt>
      <trkpt lat="44.98642" lon="6.7741">
        <ele>1756.410034</ele>
        <time>2014-08-21T05:41:00Z</time>
      </trkpt>
      <trkpt lat="44.98641" lon="6.77399">
        <ele>1757.469971</ele>
        <time>2014-08-21T05:41:08Z</time>
      </trkpt>
      <trkpt lat="44.98639" lon="6.77397">
        <ele>1758.119995</ele>
        <time>2014-08-21T05:41:11Z</time>
      </trkpt>
      <trkpt lat="44.98628" lon="6.77387">
        <ele>1759.73999</ele>
        <time>2014-08-21T05:41:22Z</time>
      </trkpt>
      <trkpt lat="44.9862" lon="6.7738">
        <ele>1760.830078</ele>
        <time>2014-08-21T05:41:30Z</time>
      </trkpt>
      <trkpt lat="44.98617" lon="6.77371">
        <ele>1762.300049</ele>
        <time>2014-08-21T05:41:38Z</time>
      </trkpt>
      <trkpt lat="44.98617" lon="6.7737">
        <ele>1762.489868</ele>
        <time>2014-08-21T05:41:39Z</time>
      </trkpt>
      <trkpt lat="44.98616" lon="6.77356">
        <ele>1763.789917</ele>
        <time>2014-08-21T05:41:48Z</time>
      </trkpt>
      <trkpt lat="44.98617" lon="6.7735">
        <ele>1764.660034</ele>
        <time>2014-08-21T05:41:54Z</time>
      </trkpt>
      <trkpt lat="44.98616" lon="6.77341">
        <ele>1765.769897</ele>
        <time>2014-08-21T05:42:03Z</time>
      </trkpt>
      <trkpt lat="44.98609" lon="6.77335">
        <ele>1767.900024</ele>
        <time>2014-08-21T05:42:15Z</time>
      </trkpt>
      <trkpt lat="44.98605" lon="6.77335">
        <ele>1768.400024</ele>
        <time>2014-08-21T05:42:19Z</time>
      </trkpt>
      <trkpt lat="44.98598" lon="6.77334">
        <ele>1769.319946</ele>
        <time>2014-08-21T05:42:26Z</time>
      </trkpt>
      <trkpt lat="44.98588" lon="6.77326">
        <ele>1770.419922</ele>
        <time>2014-08-21T05:42:35Z</time>
      </trkpt>
      <trkpt lat="44.98585" lon="6.77321">
        <ele>1771.030029</ele>
        <time>2014-08-21T05:42:40Z</time>
      </trkpt>
      <trkpt lat="44.9858" lon="6.77307">
        <ele>1772.119995</ele>
        <time>2014-08-21T05:42:49Z</time>
      </trkpt>
      <trkpt lat="44.98574" lon="6.77298">
        <ele>1773.660034</ele>
        <time>2014-08-21T05:42:58Z</time>
      </trkpt>
      <trkpt lat="44.98567" lon="6.77294">
        <ele>1774.949951</ele>
        <time>2014-08-21T05:43:06Z</time>
      </trkpt>
      <trkpt lat="44.98558" lon="6.77287">
        <ele>1776.049927</ele>
        <time>2014-08-21T05:43:14Z</time>
      </trkpt>
      <trkpt lat="44.9855" lon="6.77279">
        <ele>1777.060059</ele>
        <time>2014-08-21T05:43:21Z</time>
      </trkpt>
      <trkpt lat="44.9854" lon="6.77262">
        <ele>1778.800049</ele>
        <time>2014-08-21T05:43:33Z</time>
      </trkpt>
      <trkpt lat="44.98537" lon="6.77248">
        <ele>1780.22998</ele>
        <time>2014-08-21T05:43:42Z</time>
      </trkpt>
      <trkpt lat="44.98538" lon="6.77247">
        <ele>1780.319946</ele>
        <time>2014-08-21T05:43:43Z</time>
      </trkpt>
      <trkpt lat="44.98546" lon="6.77245">
        <ele>1781.52002</ele>
        <time>2014-08-21T05:43:53Z</time>
      </trkpt>
      <trkpt lat="44.98547" lon="6.77246">
        <ele>1781.619995</ele>
        <time>2014-08-21T05:43:54Z</time>
      </trkpt>
      <trkpt lat="44.98549" lon="6.77248">
        <ele>1781.910034</ele>
        <time>2014-08-21T05:43:57Z</time>
      </trkpt>
      <trkpt lat="44.98559" lon="6.77254">
        <ele>1783.23999</ele>
        <time>2014-08-21T05:44:07Z</time>
      </trkpt>
      <trkpt lat="44.98562" lon="6.77256">
        <ele>1783.900024</ele>
        <time>2014-08-21T05:44:11Z</time>
      </trkpt>
      <trkpt lat="44.98571" lon="6.77259">
        <ele>1785.029907</ele>
        <time>2014-08-21T05:44:19Z</time>
      </trkpt>
      <trkpt lat="44.98581" lon="6.77259">
        <ele>1786.290039</ele>
        <time>2014-08-21T05:44:28Z</time>
      </trkpt>
      <trkpt lat="44.9859" lon="6.77256">
        <ele>1787.789917</ele>
        <time>2014-08-21T05:44:37Z</time>
      </trkpt>
      <trkpt lat="44.98592" lon="6.77257">
        <ele>1788.040039</ele>
        <time>2014-08-21T05:44:39Z</time>
      </trkpt>
      <trkpt lat="44.98605" lon="6.77259">
        <ele>1789.359985</ele>
        <time>2014-08-21T05:44:50Z</time>
      </trkpt>
      <trkpt lat="44.98614" lon="6.77264">
        <ele>1790.549927</ele>
        <time>2014-08-21T05:44:59Z</time>
      </trkpt>
      <trkpt lat="44.98619" lon="6.77266">
        <ele>1790.869995</ele>
        <time>2014-08-21T05:45:03Z</time>
      </trkpt>
      <trkpt lat="44.98622" lon="6.77268">
        <ele>1791.390015</ele>
        <time>2014-08-21T05:45:07Z</time>
      </trkpt>
      <trkpt lat="44.98631" lon="6.77271">
        <ele>1792.640015</ele>
        <time>2014-08-21T05:45:16Z</time>
      </trkpt>
      <trkpt lat="44.98635" lon="6.77271">
        <ele>1793.169922</ele>
        <time>2014-08-21T05:45:20Z</time>
      </trkpt>
      <trkpt lat="44.98637" lon="6.77271">
        <ele>1793.380005</ele>
        <time>2014-08-21T05:45:22Z</time>
      </trkpt>
      <trkpt lat="44.98643" lon="6.77272">
        <ele>1793.930054</ele>
        <time>2014-08-21T05:45:27Z</time>
      </trkpt>
      <trkpt lat="44.98649" lon="6.77274">
        <ele>1794.600098</ele>
        <time>2014-08-21T05:45:32Z</time>
      </trkpt>
      <trkpt lat="44.98658" lon="6.77277">
        <ele>1795.910034</ele>
        <time>2014-08-21T05:45:42Z</time>
      </trkpt>
      <trkpt lat="44.98663" lon="6.77278">
        <ele>1796.719971</ele>
        <time>2014-08-21T05:45:47Z</time>
      </trkpt>
      <trkpt lat="44.9867" lon="6.77281">
        <ele>1797.709961</ele>
        <time>2014-08-21T05:45:54Z</time>
      </trkpt>
      <trkpt lat="44.98679" lon="6.77291">
        <ele>1797.830078</ele>
        <time>2014-08-21T05:46:03Z</time>
      </trkpt>
      <trkpt lat="44.98683" lon="6.77292">
        <ele>1798.200073</ele>
        <time>2014-08-21T05:46:11Z</time>
      </trkpt>
      <trkpt lat="44.98682" lon="6.77293">
        <ele>1798.380005</ele>
        <time>2014-08-21T05:46:21Z</time>
      </trkpt>
      <trkpt lat="44.98684" lon="6.77296">
        <ele>1798.499878</ele>
        <time>2014-08-21T05:46:32Z</time>
      </trkpt>
      <trkpt lat="44.9869" lon="6.77289">
        <ele>1799.22998</ele>
        <time>2014-08-21T05:46:39Z</time>
      </trkpt>
      <trkpt lat="44.98686" lon="6.77279">
        <ele>1800.589966</ele>
        <time>2014-08-21T05:46:48Z</time>
      </trkpt>
      <trkpt lat="44.98684" lon="6.77277">
        <ele>1801.27002</ele>
        <time>2014-08-21T05:46:51Z</time>
      </trkpt>
      <trkpt lat="44.98682" lon="6.77274">
        <ele>1801.97998</ele>
        <time>2014-08-21T05:46:54Z</time>
      </trkpt>
      <trkpt lat="44.9868" lon="6.77265">
        <ele>1803.439941</ele>
        <time>2014-08-21T05:46:59Z</time>
      </trkpt>
      <trkpt lat="44.98675" lon="6.77256">
        <ele>1804.940063</ele>
        <time>2014-08-21T05:47:06Z</time>
      </trkpt>
      <trkpt lat="44.98669" lon="6.7725">
        <ele>1806.140015</ele>
        <time>2014-08-21T05:47:13Z</time>
      </trkpt>
      <trkpt lat="44.98663" lon="6.77242">
        <ele>1807.309937</ele>
        <time>2014-08-21T05:47:22Z</time>
      </trkpt>
      <trkpt lat="44.98656" lon="6.77232">
        <ele>1808.700073</ele>
        <time>2014-08-21T05:47:32Z</time>
      </trkpt>
      <trkpt lat="44.98648" lon="6.77219">
        <ele>1809.699951</ele>
        <time>2014-08-21T05:47:42Z</time>
      </trkpt>
      <trkpt lat="44.98641" lon="6.77209">
        <ele>1810.98999</ele>
        <time>2014-08-21T05:47:51Z</time>
      </trkpt>
      <trkpt lat="44.98636" lon="6.77198">
        <ele>1812.419922</ele>
        <time>2014-08-21T05:48:00Z</time>
      </trkpt>
      <trkpt lat="44.98634" lon="6.77193">
        <ele>1813.009888</ele>
        <time>2014-08-21T05:48:05Z</time>
      </trkpt>
      <trkpt lat="44.98634" lon="6.77189">
        <ele>1813.5</ele>
        <time>2014-08-21T05:48:08Z</time>
      </trkpt>
      <trkpt lat="44.98629" lon="6.77181">
        <ele>1814.110107</ele>
        <time>2014-08-21T05:48:16Z</time>
      </trkpt>
      <trkpt lat="44.98627" lon="6.77179">
        <ele>1814.540039</ele>
        <time>2014-08-21T05:48:19Z</time>
      </trkpt>
      <trkpt lat="44.98625" lon="6.77179">
        <ele>1814.800049</ele>
        <time>2014-08-21T05:48:21Z</time>
      </trkpt>
      <trkpt lat="44.98619" lon="6.77171">
        <ele>1816.100098</ele>
        <time>2014-08-21T05:48:30Z</time>
      </trkpt>
      <trkpt lat="44.98616" lon="6.77167">
        <ele>1816.780029</ele>
        <time>2014-08-21T05:48:34Z</time>
      </trkpt>
      <trkpt lat="44.9861" lon="6.7716">
        <ele>1817.469971</ele>
        <time>2014-08-21T05:48:40Z</time>
      </trkpt>
      <trkpt lat="44.98604" lon="6.77149">
        <ele>1818.76001</ele>
        <time>2014-08-21T05:48:48Z</time>
      </trkpt>
      <trkpt lat="44.98599" lon="6.77132">
        <ele>1820.679932</ele>
        <time>2014-08-21T05:48:59Z</time>
      </trkpt>
      <trkpt lat="44.98599" lon="6.77131">
        <ele>1820.829956</ele>
        <time>2014-08-21T05:49:00Z</time>
      </trkpt>
      <trkpt lat="44.98602" lon="6.77115">
        <ele>1822.280029</ele>
        <time>2014-08-21T05:49:10Z</time>
      </trkpt>
      <trkpt lat="44.98602" lon="6.77101">
        <ele>1822.98999</ele>
        <time>2014-08-21T05:49:18Z</time>
      </trkpt>
      <trkpt lat="44.98603" lon="6.77095">
        <ele>1823.570068</ele>
        <time>2014-08-21T05:49:22Z</time>
      </trkpt>
      <trkpt lat="44.98608" lon="6.77088">
        <ele>1824.560059</ele>
        <time>2014-08-21T05:49:28Z</time>
      </trkpt>
      <trkpt lat="44.98614" lon="6.77089">
        <ele>1825.230103</ele>
        <time>2014-08-21T05:49:35Z</time>
      </trkpt>
      <trkpt lat="44.98616" lon="6.77094">
        <ele>1826.040039</ele>
        <time>2014-08-21T05:49:40Z</time>
      </trkpt>
      <trkpt lat="44.98616" lon="6.771">
        <ele>1826.700073</ele>
        <time>2014-08-21T05:49:44Z</time>
      </trkpt>
      <trkpt lat="44.9862" lon="6.77113">
        <ele>1827.809937</ele>
        <time>2014-08-21T05:49:52Z</time>
      </trkpt>
      <trkpt lat="44.98625" lon="6.77124">
        <ele>1829.050049</ele>
        <time>2014-08-21T05:50:01Z</time>
      </trkpt>
      <trkpt lat="44.98626" lon="6.77125">
        <ele>1829.209961</ele>
        <time>2014-08-21T05:50:02Z</time>
      </trkpt>
      <trkpt lat="44.98631" lon="6.77124">
        <ele>1830.670044</ele>
        <time>2014-08-21T05:50:10Z</time>
      </trkpt>
      <trkpt lat="44.98633" lon="6.77117">
        <ele>1832.180054</ele>
        <time>2014-08-21T05:50:19Z</time>
      </trkpt>
      <trkpt lat="44.98633" lon="6.77106">
        <ele>1833.599976</ele>
        <time>2014-08-21T05:50:28Z</time>
      </trkpt>
      <trkpt lat="44.98636" lon="6.77094">
        <ele>1834.849976</ele>
        <time>2014-08-21T05:50:37Z</time>
      </trkpt>
      <trkpt lat="44.98637" lon="6.77083">
        <ele>1836.109985</ele>
        <time>2014-08-21T05:50:46Z</time>
      </trkpt>
      <trkpt lat="44.98635" lon="6.77071">
        <ele>1838.009888</ele>
        <time>2014-08-21T05:50:59Z</time>
      </trkpt>
      <trkpt lat="44.98633" lon="6.7706">
        <ele>1840.039917</ele>
        <time>2014-08-21T05:51:12Z</time>
      </trkpt>
      <trkpt lat="44.98635" lon="6.77046">
        <ele>1842.240112</ele>
        <time>2014-08-21T05:51:27Z</time>
      </trkpt>
      <trkpt lat="44.98641" lon="6.77042">
        <ele>1844.209961</ele>
        <time>2014-08-21T05:51:40Z</time>
      </trkpt>
      <trkpt lat="44.98642" lon="6.7705">
        <ele>1845.140015</ele>
        <time>2014-08-21T05:51:48Z</time>
      </trkpt>
      <trkpt lat="44.98648" lon="6.77061">
        <ele>1847.27002</ele>
        <time>2014-08-21T05:52:01Z</time>
      </trkpt>
      <trkpt lat="44.98653" lon="6.77071">
        <ele>1848.420044</ele>
        <time>2014-08-21T05:52:10Z</time>
      </trkpt>
      <trkpt lat="44.9866" lon="6.7708">
        <ele>1850.290039</ele>
        <time>2014-08-21T05:52:21Z</time>
      </trkpt>
      <trkpt lat="44.98667" lon="6.77091">
        <ele>1852.039917</ele>
        <time>2014-08-21T05:52:32Z</time>
      </trkpt>
      <trkpt lat="44.98674" lon="6.77097">
        <ele>1853.310059</ele>
        <time>2014-08-21T05:52:41Z</time>
      </trkpt>
      <trkpt lat="44.98675" lon="6.77097">
        <ele>1853.430054</ele>
        <time>2014-08-21T05:52:42Z</time>
      </trkpt>
      <trkpt lat="44.98683" lon="6.77103">
        <ele>1854.940063</ele>
        <time>2014-08-21T05:52:53Z</time>
      </trkpt>
      <trkpt lat="44.98691" lon="6.77108">
        <ele>1856.829956</ele>
        <time>2014-08-21T05:53:05Z</time>
      </trkpt>
      <trkpt lat="44.98698" lon="6.77113">
        <ele>1857.950073</ele>
        <time>2014-08-21T05:53:13Z</time>
      </trkpt>
      <trkpt lat="44.98706" lon="6.77118">
        <ele>1859.580078</ele>
        <time>2014-08-21T05:53:24Z</time>
      </trkpt>
      <trkpt lat="44.98713" lon="6.77121">
        <ele>1861.050049</ele>
        <time>2014-08-21T05:53:33Z</time>
      </trkpt>
      <trkpt lat="44.98719" lon="6.77124">
        <ele>1862.130005</ele>
        <time>2014-08-21T05:53:41Z</time>
      </trkpt>
      <trkpt lat="44.98727" lon="6.77129">
        <ele>1863.789917</ele>
        <time>2014-08-21T05:53:52Z</time>
      </trkpt>
      <trkpt lat="44.98734" lon="6.77134">
        <ele>1865.589966</ele>
        <time>2014-08-21T05:54:04Z</time>
      </trkpt>
      <trkpt lat="44.98738" lon="6.77129">
        <ele>1866.540039</ele>
        <time>2014-08-21T05:54:13Z</time>
      </trkpt>
      <trkpt lat="44.98736" lon="6.77123">
        <ele>1866.909912</ele>
        <time>2014-08-21T05:54:17Z</time>
      </trkpt>
      <trkpt lat="44.98731" lon="6.77115">
        <ele>1867.959961</ele>
        <time>2014-08-21T05:54:26Z</time>
      </trkpt>
      <trkpt lat="44.98726" lon="6.77105">
        <ele>1869.290039</ele>
        <time>2014-08-21T05:54:36Z</time>
      </trkpt>
      <trkpt lat="44.98723" lon="6.77094">
        <ele>1870.859985</ele>
        <time>2014-08-21T05:54:45Z</time>
      </trkpt>
      <trkpt lat="44.98722" lon="6.77092">
        <ele>1871.01001</ele>
        <time>2014-08-21T05:54:46Z</time>
      </trkpt>
      <trkpt lat="44.98719" lon="6.77082">
        <ele>1872.079956</ele>
        <time>2014-08-21T05:54:54Z</time>
      </trkpt>
      <trkpt lat="44.98717" lon="6.77067">
        <ele>1873.420044</ele>
        <time>2014-08-21T05:55:04Z</time>
      </trkpt>
      <trkpt lat="44.98718" lon="6.77057">
        <ele>1874.579956</ele>
        <time>2014-08-21T05:55:11Z</time>
      </trkpt>
      <trkpt lat="44.98719" lon="6.77043">
        <ele>1875.869995</ele>
        <time>2014-08-21T05:55:21Z</time>
      </trkpt>
      <trkpt lat="44.98719" lon="6.77033">
        <ele>1876.900024</ele>
        <time>2014-08-21T05:55:29Z</time>
      </trkpt>
      <trkpt lat="44.98719" lon="6.77019">
        <ele>1878.75</ele>
        <time>2014-08-21T05:55:39Z</time>
      </trkpt>
      <trkpt lat="44.98711" lon="6.77008">
        <ele>1879.909912</ele>
        <time>2014-08-21T05:55:50Z</time>
      </trkpt>
      <trkpt lat="44.98703" lon="6.77002">
        <ele>1880.98999</ele>
        <time>2014-08-21T05:56:00Z</time>
      </trkpt>
      <trkpt lat="44.98697" lon="6.76993">
        <ele>1882</ele>
        <time>2014-08-21T05:56:09Z</time>
      </trkpt>
      <trkpt lat="44.98694" lon="6.7698">
        <ele>1883.459961</ele>
        <time>2014-08-21T05:56:19Z</time>
      </trkpt>
      <trkpt lat="44.98694" lon="6.76976">
        <ele>1884.079956</ele>
        <time>2014-08-21T05:56:22Z</time>
      </trkpt>
      <trkpt lat="44.98691" lon="6.76963">
        <ele>1886.040039</ele>
        <time>2014-08-21T05:56:34Z</time>
      </trkpt>
      <trkpt lat="44.98691" lon="6.76951">
        <ele>1887.219971</ele>
        <time>2014-08-21T05:56:44Z</time>
      </trkpt>
      <trkpt lat="44.98691" lon="6.7695">
        <ele>1887.309937</ele>
        <time>2014-08-21T05:56:45Z</time>
      </trkpt>
      <trkpt lat="44.98696" lon="6.76938">
        <ele>1888.660034</ele>
        <time>2014-08-21T05:56:56Z</time>
      </trkpt>
      <trkpt lat="44.98699" lon="6.76928">
        <ele>1889.51001</ele>
        <time>2014-08-21T05:57:04Z</time>
      </trkpt>
      <trkpt lat="44.98701" lon="6.76916">
        <ele>1890.929932</ele>
        <time>2014-08-21T05:57:13Z</time>
      </trkpt>
      <trkpt lat="44.98699" lon="6.76908">
        <ele>1892.179932</ele>
        <time>2014-08-21T05:57:22Z</time>
      </trkpt>
      <trkpt lat="44.98691" lon="6.76904">
        <ele>1892.809937</ele>
        <time>2014-08-21T05:57:30Z</time>
      </trkpt>
      <trkpt lat="44.98688" lon="6.76905">
        <ele>1893.019897</ele>
        <time>2014-08-21T05:57:33Z</time>
      </trkpt>
      <trkpt lat="44.98679" lon="6.76907">
        <ele>1894.059937</ele>
        <time>2014-08-21T05:57:41Z</time>
      </trkpt>
      <trkpt lat="44.98676" lon="6.76908">
        <ele>1894.390015</ele>
        <time>2014-08-21T05:57:44Z</time>
      </trkpt>
      <trkpt lat="44.98667" lon="6.76907">
        <ele>1895.320068</ele>
        <time>2014-08-21T05:57:53Z</time>
      </trkpt>
      <trkpt lat="44.98658" lon="6.76909">
        <ele>1896.780029</ele>
        <time>2014-08-21T05:58:03Z</time>
      </trkpt>
      <trkpt lat="44.9865" lon="6.76908">
        <ele>1898.119995</ele>
        <time>2014-08-21T05:58:12Z</time>
      </trkpt>
      <trkpt lat="44.98648" lon="6.76906">
        <ele>1898.339966</ele>
        <time>2014-08-21T05:58:14Z</time>
      </trkpt>
      <trkpt lat="44.98645" lon="6.76903">
        <ele>1898.670044</ele>
        <time>2014-08-21T05:58:17Z</time>
      </trkpt>
      <trkpt lat="44.98641" lon="6.76893">
        <ele>1899.73999</ele>
        <time>2014-08-21T05:58:25Z</time>
      </trkpt>
      <trkpt lat="44.98634" lon="6.76887">
        <ele>1900.459961</ele>
        <time>2014-08-21T05:58:34Z</time>
      </trkpt>
      <trkpt lat="44.98629" lon="6.76883">
        <ele>1900.970093</ele>
        <time>2014-08-21T05:58:40Z</time>
      </trkpt>
      <trkpt lat="44.98625" lon="6.76876">
        <ele>1901.779907</ele>
        <time>2014-08-21T05:58:46Z</time>
      </trkpt>
      <trkpt lat="44.98619" lon="6.76867">
        <ele>1902.919922</ele>
        <time>2014-08-21T05:58:55Z</time>
      </trkpt>
      <trkpt lat="44.98613" lon="6.7686">
        <ele>1904.589966</ele>
        <time>2014-08-21T05:59:06Z</time>
      </trkpt>
      <trkpt lat="44.98602" lon="6.76846">
        <ele>1906.269897</ele>
        <time>2014-08-21T05:59:18Z</time>
      </trkpt>
      <trkpt lat="44.98594" lon="6.76838">
        <ele>1907.569946</ele>
        <time>2014-08-21T05:59:28Z</time>
      </trkpt>
      <trkpt lat="44.98586" lon="6.76831">
        <ele>1909.119995</ele>
        <time>2014-08-21T05:59:39Z</time>
      </trkpt>
      <trkpt lat="44.98582" lon="6.76822">
        <ele>1909.840088</ele>
        <time>2014-08-21T05:59:47Z</time>
      </trkpt>
      <trkpt lat="44.98575" lon="6.7681">
        <ele>1910.830078</ele>
        <time>2014-08-21T05:59:58Z</time>
      </trkpt>
      <trkpt lat="44.98568" lon="6.76798">
        <ele>1911.720093</ele>
        <time>2014-08-21T06:00:07Z</time>
      </trkpt>
      <trkpt lat="44.9856" lon="6.76788">
        <ele>1912.810059</ele>
        <time>2014-08-21T06:00:16Z</time>
      </trkpt>
      <trkpt lat="44.98553" lon="6.76779">
        <ele>1914.070068</ele>
        <time>2014-08-21T06:00:25Z</time>
      </trkpt>
      <trkpt lat="44.98546" lon="6.76772">
        <ele>1915</ele>
        <time>2014-08-21T06:00:31Z</time>
      </trkpt>
      <trkpt lat="44.98541" lon="6.76767">
        <ele>1915.73999</ele>
        <time>2014-08-21T06:00:37Z</time>
      </trkpt>
      <trkpt lat="44.98537" lon="6.76767">
        <ele>1916.130005</ele>
        <time>2014-08-21T06:00:41Z</time>
      </trkpt>
      <trkpt lat="44.98535" lon="6.76766">
        <ele>1916.27002</ele>
        <time>2014-08-21T06:00:43Z</time>
      </trkpt>
      <trkpt lat="44.98527" lon="6.76762">
        <ele>1917.200073</ele>
        <time>2014-08-21T06:00:51Z</time>
      </trkpt>
      <trkpt lat="44.9852" lon="6.76758">
        <ele>1918.109985</ele>
        <time>2014-08-21T06:00:58Z</time>
      </trkpt>
      <trkpt lat="44.98513" lon="6.76752">
        <ele>1919.140015</ele>
        <time>2014-08-21T06:01:06Z</time>
      </trkpt>
      <trkpt lat="44.98502" lon="6.76746">
        <ele>1920.199951</ele>
        <time>2014-08-21T06:01:16Z</time>
      </trkpt>
      <trkpt lat="44.98493" lon="6.76741">
        <ele>1921.52002</ele>
        <time>2014-08-21T06:01:25Z</time>
      </trkpt>
      <trkpt lat="44.98491" lon="6.7674">
        <ele>1921.780029</ele>
        <time>2014-08-21T06:01:27Z</time>
      </trkpt>
      <trkpt lat="44.98487" lon="6.76735">
        <ele>1922.329956</ele>
        <time>2014-08-21T06:01:31Z</time>
      </trkpt>
      <trkpt lat="44.98481" lon="6.76718">
        <ele>1922.900024</ele>
        <time>2014-08-21T06:01:40Z</time>
      </trkpt>
      <trkpt lat="44.98482" lon="6.76699">
        <ele>1924.090088</ele>
        <time>2014-08-21T06:01:50Z</time>
      </trkpt>
      <trkpt lat="44.98483" lon="6.76683">
        <ele>1924.179932</ele>
        <time>2014-08-21T06:01:56Z</time>
      </trkpt>
      <trkpt lat="44.98484" lon="6.76668">
        <ele>1924.059937</ele>
        <time>2014-08-21T06:02:02Z</time>
      </trkpt>
      <trkpt lat="44.98487" lon="6.76651">
        <ele>1924.390015</ele>
        <time>2014-08-21T06:02:09Z</time>
      </trkpt>
      <trkpt lat="44.98489" lon="6.76632">
        <ele>1925.450073</ele>
        <time>2014-08-21T06:02:18Z</time>
      </trkpt>
      <trkpt lat="44.9849" lon="6.76617">
        <ele>1926.309937</ele>
        <time>2014-08-21T06:02:25Z</time>
      </trkpt>
      <trkpt lat="44.9849" lon="6.76613">
        <ele>1926.48999</ele>
        <time>2014-08-21T06:02:27Z</time>
      </trkpt>
      <trkpt lat="44.98489" lon="6.76611">
        <ele>1926.599976</ele>
        <time>2014-08-21T06:02:28Z</time>
      </trkpt>
      <trkpt lat="44.98489" lon="6.76609">
        <ele>1926.700073</ele>
        <time>2014-08-21T06:02:29Z</time>
      </trkpt>
      <trkpt lat="44.98489" lon="6.76598">
        <ele>1927.220093</ele>
        <time>2014-08-21T06:02:34Z</time>
      </trkpt>
      <trkpt lat="44.98489" lon="6.76596">
        <ele>1927.370117</ele>
        <time>2014-08-21T06:02:35Z</time>
      </trkpt>
      <trkpt lat="44.98489" lon="6.76592">
        <ele>1927.640015</ele>
        <time>2014-08-21T06:02:37Z</time>
      </trkpt>
      <trkpt lat="44.98489" lon="6.7659">
        <ele>1927.800049</ele>
        <time>2014-08-21T06:02:38Z</time>
      </trkpt>
      <trkpt lat="44.98489" lon="6.76588">
        <ele>1927.959961</ele>
        <time>2014-08-21T06:02:39Z</time>
      </trkpt>
      <trkpt lat="44.98489" lon="6.76585">
        <ele>1928.109985</ele>
        <time>2014-08-21T06:02:40Z</time>
      </trkpt>
      <trkpt lat="44.98488" lon="6.76584">
        <ele>1928.280029</ele>
        <time>2014-08-21T06:02:41Z</time>
      </trkpt>
      <trkpt lat="44.98487" lon="6.76578">
        <ele>1928.869995</ele>
        <time>2014-08-21T06:02:44Z</time>
      </trkpt>
      <trkpt lat="44.98487" lon="6.76576">
        <ele>1928.97998</ele>
        <time>2014-08-21T06:02:45Z</time>
      </trkpt>
      <trkpt lat="44.98485" lon="6.76566">
        <ele>1929.919922</ele>
        <time>2014-08-21T06:02:52Z</time>
      </trkpt>
      <trkpt lat="44.98483" lon="6.76562">
        <ele>1930.389893</ele>
        <time>2014-08-21T06:02:56Z</time>
      </trkpt>
      <trkpt lat="44.98482" lon="6.7656">
        <ele>1930.500122</ele>
        <time>2014-08-21T06:02:57Z</time>
      </trkpt>
      <trkpt lat="44.98478" lon="6.76554">
        <ele>1931.77002</ele>
        <time>2014-08-21T06:03:05Z</time>
      </trkpt>
      <trkpt lat="44.98477" lon="6.76545">
        <ele>1933.030029</ele>
        <time>2014-08-21T06:03:14Z</time>
      </trkpt>
      <trkpt lat="44.98474" lon="6.76534">
        <ele>1934.139893</ele>
        <time>2014-08-21T06:03:25Z</time>
      </trkpt>
      <trkpt lat="44.98469" lon="6.76522">
        <ele>1936.079956</ele>
        <time>2014-08-21T06:03:38Z</time>
      </trkpt>
      <trkpt lat="44.98466" lon="6.76514">
        <ele>1937.459961</ele>
        <time>2014-08-21T06:03:48Z</time>
      </trkpt>
      <trkpt lat="44.9846" lon="6.76506">
        <ele>1938.949951</ele>
        <time>2014-08-21T06:03:59Z</time>
      </trkpt>
      <trkpt lat="44.98452" lon="6.76496">
        <ele>1940.910034</ele>
        <time>2014-08-21T06:04:11Z</time>
      </trkpt>
      <trkpt lat="44.98447" lon="6.76486">
        <ele>1942.469971</ele>
        <time>2014-08-21T06:04:23Z</time>
      </trkpt>
      <trkpt lat="44.98442" lon="6.76479">
        <ele>1944</ele>
        <time>2014-08-21T06:04:32Z</time>
      </trkpt>
      <trkpt lat="44.98435" lon="6.76473">
        <ele>1945.339966</ele>
        <time>2014-08-21T06:04:42Z</time>
      </trkpt>
      <trkpt lat="44.98428" lon="6.76468">
        <ele>1946.919922</ele>
        <time>2014-08-21T06:04:52Z</time>
      </trkpt>
      <trkpt lat="44.98419" lon="6.76459">
        <ele>1949.130127</ele>
        <time>2014-08-21T06:05:07Z</time>
      </trkpt>
      <trkpt lat="44.98416" lon="6.76448">
        <ele>1950.47998</ele>
        <time>2014-08-21T06:05:17Z</time>
      </trkpt>
      <trkpt lat="44.98415" lon="6.76436">
        <ele>1951.599976</ele>
        <time>2014-08-21T06:05:27Z</time>
      </trkpt>
      <trkpt lat="44.98416" lon="6.76424">
        <ele>1953.670044</ele>
        <time>2014-08-21T06:05:39Z</time>
      </trkpt>
      <trkpt lat="44.98417" lon="6.76414">
        <ele>1954.790039</ele>
        <time>2014-08-21T06:05:48Z</time>
      </trkpt>
      <trkpt lat="44.98415" lon="6.76403">
        <ele>1956.290039</ele>
        <time>2014-08-21T06:05:58Z</time>
      </trkpt>
      <trkpt lat="44.98413" lon="6.76393">
        <ele>1957.950073</ele>
        <time>2014-08-21T06:06:09Z</time>
      </trkpt>
      <trkpt lat="44.98412" lon="6.76378">
        <ele>1959.699951</ele>
        <time>2014-08-21T06:06:22Z</time>
      </trkpt>
      <trkpt lat="44.98408" lon="6.76368">
        <ele>1960.880005</ele>
        <time>2014-08-21T06:06:30Z</time>
      </trkpt>
      <trkpt lat="44.98404" lon="6.76359">
        <ele>1962.319946</ele>
        <time>2014-08-21T06:06:39Z</time>
      </trkpt>
      <trkpt lat="44.98403" lon="6.76356">
        <ele>1962.829956</ele>
        <time>2014-08-21T06:06:42Z</time>
      </trkpt>
      <trkpt lat="44.98397" lon="6.76348">
        <ele>1963.869995</ele>
        <time>2014-08-21T06:06:51Z</time>
      </trkpt>
      <trkpt lat="44.98391" lon="6.76339">
        <ele>1964.309937</ele>
        <time>2014-08-21T06:06:58Z</time>
      </trkpt>
      <trkpt lat="44.98381" lon="6.76331">
        <ele>1964.599976</ele>
        <time>2014-08-21T06:07:06Z</time>
      </trkpt>
      <trkpt lat="44.98368" lon="6.76322">
        <ele>1965.310059</ele>
        <time>2014-08-21T06:07:14Z</time>
      </trkpt>
      <trkpt lat="44.98362" lon="6.76304">
        <ele>1965.709961</ele>
        <time>2014-08-21T06:07:22Z</time>
      </trkpt>
      <trkpt lat="44.98368" lon="6.76281">
        <ele>1965.449951</ele>
        <time>2014-08-21T06:07:29Z</time>
      </trkpt>
      <trkpt lat="44.98375" lon="6.76253">
        <ele>1964.859985</ele>
        <time>2014-08-21T06:07:38Z</time>
      </trkpt>
      <trkpt lat="44.98377" lon="6.76248">
        <ele>1964.669922</ele>
        <time>2014-08-21T06:07:40Z</time>
      </trkpt>
      <trkpt lat="44.98378" lon="6.76247">
        <ele>1964.590088</ele>
        <time>2014-08-21T06:07:41Z</time>
      </trkpt>
      <trkpt lat="44.9838" lon="6.76244">
        <ele>1964.280029</ele>
        <time>2014-08-21T06:07:47Z</time>
      </trkpt>
      <trkpt lat="44.9837" lon="6.76245">
        <ele>1964.22998</ele>
        <time>2014-08-21T06:08:08Z</time>
      </trkpt>
      <trkpt lat="44.9837" lon="6.7624">
        <ele>1964.22998</ele>
        <time>2014-08-21T06:08:32Z</time>
      </trkpt>
      <trkpt lat="44.98373" lon="6.76241">
        <ele>1963.97998</ele>
        <time>2014-08-21T06:08:48Z</time>
      </trkpt>
      <trkpt lat="44.98374" lon="6.76234">
        <ele>1964.099976</ele>
        <time>2014-08-21T06:09:14Z</time>
      </trkpt>
      <trkpt lat="44.98374" lon="6.76232">
        <ele>1964.099976</ele>
        <time>2014-08-21T06:09:15Z</time>
      </trkpt>
      <trkpt lat="44.98375" lon="6.76231">
        <ele>1964.089966</ele>
        <time>2014-08-21T06:09:16Z</time>
      </trkpt>
      <trkpt lat="44.98376" lon="6.76229">
        <ele>1964.089966</ele>
        <time>2014-08-21T06:09:17Z</time>
      </trkpt>
      <trkpt lat="44.98378" lon="6.76224">
        <ele>1964.110107</ele>
        <time>2014-08-21T06:09:20Z</time>
      </trkpt>
      <trkpt lat="44.98379" lon="6.76222">
        <ele>1964.149902</ele>
        <time>2014-08-21T06:09:21Z</time>
      </trkpt>
      <trkpt lat="44.9838" lon="6.7622">
        <ele>1964.170044</ele>
        <time>2014-08-21T06:09:22Z</time>
      </trkpt>
      <trkpt lat="44.98381" lon="6.76218">
        <ele>1964.199951</ele>
        <time>2014-08-21T06:09:23Z</time>
      </trkpt>
      <trkpt lat="44.98382" lon="6.76216">
        <ele>1964.22998</ele>
        <time>2014-08-21T06:09:24Z</time>
      </trkpt>
      <trkpt lat="44.98387" lon="6.7621">
        <ele>1964.339966</ele>
        <time>2014-08-21T06:09:28Z</time>
      </trkpt>
      <trkpt lat="44.98388" lon="6.76207">
        <ele>1964.390015</ele>
        <time>2014-08-21T06:09:29Z</time>
      </trkpt>
      <trkpt lat="44.98389" lon="6.76205">
        <ele>1964.390015</ele>
        <time>2014-08-21T06:09:30Z</time>
      </trkpt>
      <trkpt lat="44.98394" lon="6.76194">
        <ele>1964.580078</ele>
        <time>2014-08-21T06:09:36Z</time>
      </trkpt>
      <trkpt lat="44.98394" lon="6.76193">
        <ele>1964.650024</ele>
        <time>2014-08-21T06:09:37Z</time>
      </trkpt>
      <trkpt lat="44.98394" lon="6.7619">
        <ele>1964.72998</ele>
        <time>2014-08-21T06:09:38Z</time>
      </trkpt>
      <trkpt lat="44.98392" lon="6.76188">
        <ele>1964.810059</ele>
        <time>2014-08-21T06:09:39Z</time>
      </trkpt>
      <trkpt lat="44.98391" lon="6.76186">
        <ele>1964.900024</ele>
        <time>2014-08-21T06:09:40Z</time>
      </trkpt>
      <trkpt lat="44.98381" lon="6.7618">
        <ele>1965.100098</ele>
        <time>2014-08-21T06:09:46Z</time>
      </trkpt>
      <trkpt lat="44.98371" lon="6.76177">
        <ele>1964.740112</ele>
        <time>2014-08-21T06:09:51Z</time>
      </trkpt>
      <trkpt lat="44.98355" lon="6.76172">
        <ele>1964.01001</ele>
        <time>2014-08-21T06:09:59Z</time>
      </trkpt>
      <trkpt lat="44.98339" lon="6.76177">
        <ele>1964.330078</ele>
        <time>2014-08-21T06:10:07Z</time>
      </trkpt>
      <trkpt lat="44.98324" lon="6.76181">
        <ele>1964.869995</ele>
        <time>2014-08-21T06:10:16Z</time>
      </trkpt>
      <trkpt lat="44.98311" lon="6.76188">
        <ele>1965.650024</ele>
        <time>2014-08-21T06:10:25Z</time>
      </trkpt>
      <trkpt lat="44.98301" lon="6.76193">
        <ele>1966.089966</ele>
        <time>2014-08-21T06:10:33Z</time>
      </trkpt>
      <trkpt lat="44.98293" lon="6.76195">
        <ele>1967.190063</ele>
        <time>2014-08-21T06:10:40Z</time>
      </trkpt>
      <trkpt lat="44.98286" lon="6.76197">
        <ele>1968.150024</ele>
        <time>2014-08-21T06:10:46Z</time>
      </trkpt>
      <trkpt lat="44.98281" lon="6.76199">
        <ele>1968.799927</ele>
        <time>2014-08-21T06:10:51Z</time>
      </trkpt>
      <trkpt lat="44.98279" lon="6.76199">
        <ele>1968.920044</ele>
        <time>2014-08-21T06:10:52Z</time>
      </trkpt>
      <trkpt lat="44.98278" lon="6.762">
        <ele>1969.080078</ele>
        <time>2014-08-21T06:10:53Z</time>
      </trkpt>
      <trkpt lat="44.98277" lon="6.762">
        <ele>1969.26001</ele>
        <time>2014-08-21T06:10:54Z</time>
      </trkpt>
      <trkpt lat="44.98276" lon="6.76201">
        <ele>1969.410034</ele>
        <time>2014-08-21T06:10:55Z</time>
      </trkpt>
      <trkpt lat="44.98267" lon="6.76204">
        <ele>1970.650024</ele>
        <time>2014-08-21T06:11:03Z</time>
      </trkpt>
      <trkpt lat="44.98265" lon="6.76205">
        <ele>1971.22998</ele>
        <time>2014-08-21T06:11:09Z</time>
      </trkpt>
      <trkpt lat="44.98257" lon="6.76211">
        <ele>1971.929932</ele>
        <time>2014-08-21T06:11:17Z</time>
      </trkpt>
      <trkpt lat="44.9825" lon="6.76223">
        <ele>1972.47998</ele>
        <time>2014-08-21T06:11:26Z</time>
      </trkpt>
      <trkpt lat="44.98245" lon="6.76234">
        <ele>1973.649902</ele>
        <time>2014-08-21T06:11:35Z</time>
      </trkpt>
      <trkpt lat="44.98241" lon="6.76238">
        <ele>1974.400024</ele>
        <time>2014-08-21T06:11:40Z</time>
      </trkpt>
      <trkpt lat="44.98235" lon="6.76249">
        <ele>1975.820068</ele>
        <time>2014-08-21T06:11:49Z</time>
      </trkpt>
      <trkpt lat="44.98228" lon="6.76263">
        <ele>1976.950073</ele>
        <time>2014-08-21T06:12:00Z</time>
      </trkpt>
      <trkpt lat="44.98223" lon="6.76271">
        <ele>1978.200073</ele>
        <time>2014-08-21T06:12:08Z</time>
      </trkpt>
      <trkpt lat="44.98221" lon="6.76282">
        <ele>1979.380005</ele>
        <time>2014-08-21T06:12:16Z</time>
      </trkpt>
      <trkpt lat="44.98219" lon="6.76288">
        <ele>1980.090088</ele>
        <time>2014-08-21T06:12:21Z</time>
      </trkpt>
      <trkpt lat="44.98219" lon="6.76296">
        <ele>1980.97998</ele>
        <time>2014-08-21T06:12:28Z</time>
      </trkpt>
      <trkpt lat="44.9822" lon="6.76296">
        <ele>1981.750122</ele>
        <time>2014-08-21T06:12:38Z</time>
      </trkpt>
      <trkpt lat="44.98217" lon="6.76296">
        <ele>1982.089966</ele>
        <time>2014-08-21T06:12:58Z</time>
      </trkpt>
      <trkpt lat="44.98214" lon="6.76302">
        <ele>1982.559937</ele>
        <time>2014-08-21T06:13:04Z</time>
      </trkpt>
      <trkpt lat="44.98213" lon="6.76303">
        <ele>1982.690063</ele>
        <time>2014-08-21T06:13:05Z</time>
      </trkpt>
      <trkpt lat="44.98212" lon="6.76305">
        <ele>1982.810059</ele>
        <time>2014-08-21T06:13:06Z</time>
      </trkpt>
      <trkpt lat="44.98211" lon="6.76306">
        <ele>1982.939941</ele>
        <time>2014-08-21T06:13:07Z</time>
      </trkpt>
      <trkpt lat="44.98203" lon="6.76308">
        <ele>1984.060059</ele>
        <time>2014-08-21T06:13:15Z</time>
      </trkpt>
      <trkpt lat="44.98196" lon="6.76309">
        <ele>1985.310059</ele>
        <time>2014-08-21T06:13:23Z</time>
      </trkpt>
      <trkpt lat="44.98189" lon="6.7631">
        <ele>1986.809937</ele>
        <time>2014-08-21T06:13:31Z</time>
      </trkpt>
      <trkpt lat="44.98182" lon="6.76314">
        <ele>1988.590088</ele>
        <time>2014-08-21T06:13:41Z</time>
      </trkpt>
      <trkpt lat="44.98175" lon="6.76315">
        <ele>1989.709961</ele>
        <time>2014-08-21T06:13:50Z</time>
      </trkpt>
      <trkpt lat="44.98168" lon="6.76313">
        <ele>1991.119995</ele>
        <time>2014-08-21T06:13:59Z</time>
      </trkpt>
      <trkpt lat="44.98166" lon="6.7631">
        <ele>1991.449951</ele>
        <time>2014-08-21T06:14:03Z</time>
      </trkpt>
      <trkpt lat="44.98165" lon="6.76309">
        <ele>1991.52002</ele>
        <time>2014-08-21T06:14:04Z</time>
      </trkpt>
      <trkpt lat="44.98164" lon="6.76308">
        <ele>1991.589966</ele>
        <time>2014-08-21T06:14:05Z</time>
      </trkpt>
      <trkpt lat="44.98158" lon="6.76302">
        <ele>1992.099976</ele>
        <time>2014-08-21T06:14:11Z</time>
      </trkpt>
      <trkpt lat="44.98157" lon="6.76302">
        <ele>1992.200073</ele>
        <time>2014-08-21T06:14:12Z</time>
      </trkpt>
      <trkpt lat="44.98156" lon="6.76301">
        <ele>1992.300049</ele>
        <time>2014-08-21T06:14:13Z</time>
      </trkpt>
      <trkpt lat="44.98155" lon="6.76301">
        <ele>1992.389893</ele>
        <time>2014-08-21T06:14:14Z</time>
      </trkpt>
      <trkpt lat="44.98154" lon="6.763">
        <ele>1992.500122</ele>
        <time>2014-08-21T06:14:15Z</time>
      </trkpt>
      <trkpt lat="44.98153" lon="6.76299">
        <ele>1992.640015</ele>
        <time>2014-08-21T06:14:16Z</time>
      </trkpt>
      <trkpt lat="44.98145" lon="6.76295">
        <ele>1993.609985</ele>
        <time>2014-08-21T06:14:24Z</time>
      </trkpt>
      <trkpt lat="44.98144" lon="6.76295">
        <ele>1993.689941</ele>
        <time>2014-08-21T06:14:25Z</time>
      </trkpt>
      <trkpt lat="44.98144" lon="6.76294">
        <ele>1993.780029</ele>
        <time>2014-08-21T06:14:26Z</time>
      </trkpt>
      <trkpt lat="44.98143" lon="6.76293">
        <ele>1993.869995</ele>
        <time>2014-08-21T06:14:27Z</time>
      </trkpt>
      <trkpt lat="44.98142" lon="6.76292">
        <ele>1994</ele>
        <time>2014-08-21T06:14:28Z</time>
      </trkpt>
      <trkpt lat="44.98139" lon="6.76286">
        <ele>1994.590088</ele>
        <time>2014-08-21T06:14:33Z</time>
      </trkpt>
      <trkpt lat="44.98137" lon="6.76277">
        <ele>1995.309937</ele>
        <time>2014-08-21T06:14:39Z</time>
      </trkpt>
      <trkpt lat="44.98136" lon="6.76276">
        <ele>1995.449951</ele>
        <time>2014-08-21T06:14:40Z</time>
      </trkpt>
      <trkpt lat="44.98134" lon="6.76271">
        <ele>1996.290039</ele>
        <time>2014-08-21T06:14:44Z</time>
      </trkpt>
      <trkpt lat="44.98131" lon="6.76264">
        <ele>1997.189941</ele>
        <time>2014-08-21T06:14:49Z</time>
      </trkpt>
      <trkpt lat="44.9813" lon="6.76263">
        <ele>1997.390015</ele>
        <time>2014-08-21T06:14:50Z</time>
      </trkpt>
      <trkpt lat="44.98124" lon="6.76258">
        <ele>1998.75</ele>
        <time>2014-08-21T06:14:57Z</time>
      </trkpt>
      <trkpt lat="44.98114" lon="6.76261">
        <ele>2000.190063</ele>
        <time>2014-08-21T06:15:07Z</time>
      </trkpt>
      <trkpt lat="44.98108" lon="6.76265">
        <ele>2000.910034</ele>
        <time>2014-08-21T06:15:14Z</time>
      </trkpt>
      <trkpt lat="44.98107" lon="6.76265">
        <ele>2001.099976</ele>
        <time>2014-08-21T06:15:15Z</time>
      </trkpt>
      <trkpt lat="44.98106" lon="6.76265">
        <ele>2001.299927</ele>
        <time>2014-08-21T06:15:16Z</time>
      </trkpt>
      <trkpt lat="44.98096" lon="6.76265">
        <ele>2002.580078</ele>
        <time>2014-08-21T06:15:26Z</time>
      </trkpt>
      <trkpt lat="44.98091" lon="6.76265">
        <ele>2003.969971</ele>
        <time>2014-08-21T06:15:36Z</time>
      </trkpt>
      <trkpt lat="44.98082" lon="6.76262">
        <ele>2004.820068</ele>
        <time>2014-08-21T06:15:47Z</time>
      </trkpt>
      <trkpt lat="44.98074" lon="6.76262">
        <ele>2006.089966</ele>
        <time>2014-08-21T06:15:57Z</time>
      </trkpt>
      <trkpt lat="44.98065" lon="6.76261">
        <ele>2007.290039</ele>
        <time>2014-08-21T06:16:07Z</time>
      </trkpt>
      <trkpt lat="44.98059" lon="6.76264">
        <ele>2008.390015</ele>
        <time>2014-08-21T06:16:15Z</time>
      </trkpt>
      <trkpt lat="44.98053" lon="6.76265">
        <ele>2010.060059</ele>
        <time>2014-08-21T06:16:25Z</time>
      </trkpt>
      <trkpt lat="44.98048" lon="6.76264">
        <ele>2010.859985</ele>
        <time>2014-08-21T06:16:30Z</time>
      </trkpt>
      <trkpt lat="44.98039" lon="6.76258">
        <ele>2012.140015</ele>
        <time>2014-08-21T06:16:40Z</time>
      </trkpt>
      <trkpt lat="44.9803" lon="6.76251">
        <ele>2013.609985</ele>
        <time>2014-08-21T06:16:51Z</time>
      </trkpt>
      <trkpt lat="44.98022" lon="6.76247">
        <ele>2014.700073</ele>
        <time>2014-08-21T06:17:01Z</time>
      </trkpt>
      <trkpt lat="44.98012" lon="6.76244">
        <ele>2016.210083</ele>
        <time>2014-08-21T06:17:11Z</time>
      </trkpt>
      <trkpt lat="44.98" lon="6.76241">
        <ele>2017.410034</ele>
        <time>2014-08-21T06:17:21Z</time>
      </trkpt>
      <trkpt lat="44.97997" lon="6.76241">
        <ele>2017.660034</ele>
        <time>2014-08-21T06:17:24Z</time>
      </trkpt>
      <trkpt lat="44.97996" lon="6.76241">
        <ele>2017.780029</ele>
        <time>2014-08-21T06:17:25Z</time>
      </trkpt>
      <trkpt lat="44.97995" lon="6.7624">
        <ele>2017.949951</ele>
        <time>2014-08-21T06:17:26Z</time>
      </trkpt>
      <trkpt lat="44.97985" lon="6.76239">
        <ele>2019.180054</ele>
        <time>2014-08-21T06:17:36Z</time>
      </trkpt>
      <trkpt lat="44.97975" lon="6.76236">
        <ele>2020.669922</ele>
        <time>2014-08-21T06:17:46Z</time>
      </trkpt>
      <trkpt lat="44.9797" lon="6.76236">
        <ele>2021.140015</ele>
        <time>2014-08-21T06:17:51Z</time>
      </trkpt>
      <trkpt lat="44.97963" lon="6.76234">
        <ele>2022.369995</ele>
        <time>2014-08-21T06:17:59Z</time>
      </trkpt>
      <trkpt lat="44.9796" lon="6.76232">
        <ele>2022.690063</ele>
        <time>2014-08-21T06:18:02Z</time>
      </trkpt>
      <trkpt lat="44.97952" lon="6.76225">
        <ele>2024.059937</ele>
        <time>2014-08-21T06:18:11Z</time>
      </trkpt>
      <trkpt lat="44.97947" lon="6.76222">
        <ele>2024.97998</ele>
        <time>2014-08-21T06:18:17Z</time>
      </trkpt>
      <trkpt lat="44.97939" lon="6.76216">
        <ele>2026.700073</ele>
        <time>2014-08-21T06:18:28Z</time>
      </trkpt>
      <trkpt lat="44.97933" lon="6.7621">
        <ele>2027.809937</ele>
        <time>2014-08-21T06:18:37Z</time>
      </trkpt>
      <trkpt lat="44.97926" lon="6.76207">
        <ele>2028.869995</ele>
        <time>2014-08-21T06:18:46Z</time>
      </trkpt>
      <trkpt lat="44.9792" lon="6.76202">
        <ele>2030.469971</ele>
        <time>2014-08-21T06:18:55Z</time>
      </trkpt>
      <trkpt lat="44.97911" lon="6.76196">
        <ele>2031.800049</ele>
        <time>2014-08-21T06:19:05Z</time>
      </trkpt>
      <trkpt lat="44.97904" lon="6.76192">
        <ele>2032.669922</ele>
        <time>2014-08-21T06:19:13Z</time>
      </trkpt>
      <trkpt lat="44.97898" lon="6.76186">
        <ele>2034.01001</ele>
        <time>2014-08-21T06:19:22Z</time>
      </trkpt>
      <trkpt lat="44.9789" lon="6.7618">
        <ele>2035.420044</ele>
        <time>2014-08-21T06:19:32Z</time>
      </trkpt>
      <trkpt lat="44.97882" lon="6.76175">
        <ele>2037.26001</ele>
        <time>2014-08-21T06:19:43Z</time>
      </trkpt>
      <trkpt lat="44.97877" lon="6.76171">
        <ele>2038.47998</ele>
        <time>2014-08-21T06:19:51Z</time>
      </trkpt>
      <trkpt lat="44.97869" lon="6.76165">
        <ele>2040.179932</ele>
        <time>2014-08-21T06:20:03Z</time>
      </trkpt>
      <trkpt lat="44.97861" lon="6.76161">
        <ele>2041.339966</ele>
        <time>2014-08-21T06:20:12Z</time>
      </trkpt>
      <trkpt lat="44.97854" lon="6.76157">
        <ele>2042.429932</ele>
        <time>2014-08-21T06:20:21Z</time>
      </trkpt>
      <trkpt lat="44.97847" lon="6.76151">
        <ele>2043.860107</ele>
        <time>2014-08-21T06:20:31Z</time>
      </trkpt>
      <trkpt lat="44.97839" lon="6.76146">
        <ele>2045.149902</ele>
        <time>2014-08-21T06:20:41Z</time>
      </trkpt>
      <trkpt lat="44.97837" lon="6.76145">
        <ele>2045.540039</ele>
        <time>2014-08-21T06:20:44Z</time>
      </trkpt>
      <trkpt lat="44.97831" lon="6.76141">
        <ele>2046.800049</ele>
        <time>2014-08-21T06:20:53Z</time>
      </trkpt>
      <trkpt lat="44.97829" lon="6.76141">
        <ele>2047.609985</ele>
        <time>2014-08-21T06:21:14Z</time>
      </trkpt>
      <trkpt lat="44.97827" lon="6.76138">
        <ele>2047.620117</ele>
        <time>2014-08-21T06:21:18Z</time>
      </trkpt>
      <trkpt lat="44.97825" lon="6.76137">
        <ele>2047.680054</ele>
        <time>2014-08-21T06:21:20Z</time>
      </trkpt>
      <trkpt lat="44.97819" lon="6.7613">
        <ele>2048.439941</ele>
        <time>2014-08-21T06:21:29Z</time>
      </trkpt>
      <trkpt lat="44.97812" lon="6.76121">
        <ele>2049.699951</ele>
        <time>2014-08-21T06:21:39Z</time>
      </trkpt>
      <trkpt lat="44.97806" lon="6.76116">
        <ele>2051.219971</ele>
        <time>2014-08-21T06:21:47Z</time>
      </trkpt>
      <trkpt lat="44.97805" lon="6.76115">
        <ele>2052.02002</ele>
        <time>2014-08-21T06:22:01Z</time>
      </trkpt>
      <trkpt lat="44.97805" lon="6.76114">
        <ele>2052.169922</ele>
        <time>2014-08-21T06:22:21Z</time>
      </trkpt>
      <trkpt lat="44.97805" lon="6.76112">
        <ele>2052.070068</ele>
        <time>2014-08-21T06:22:31Z</time>
      </trkpt>
      <trkpt lat="44.97804" lon="6.7611">
        <ele>2052.179932</ele>
        <time>2014-08-21T06:22:33Z</time>
      </trkpt>
      <trkpt lat="44.97804" lon="6.76108">
        <ele>2052.25</ele>
        <time>2014-08-21T06:22:34Z</time>
      </trkpt>
      <trkpt lat="44.97803" lon="6.76106">
        <ele>2052.340088</ele>
        <time>2014-08-21T06:22:35Z</time>
      </trkpt>
      <trkpt lat="44.97802" lon="6.76104">
        <ele>2052.389893</ele>
        <time>2014-08-21T06:22:36Z</time>
      </trkpt>
      <trkpt lat="44.97802" lon="6.76103">
        <ele>2052.449951</ele>
        <time>2014-08-21T06:22:37Z</time>
      </trkpt>
      <trkpt lat="44.97802" lon="6.761">
        <ele>2052.51001</ele>
        <time>2014-08-21T06:22:38Z</time>
      </trkpt>
      <trkpt lat="44.97802" lon="6.76098">
        <ele>2052.580078</ele>
        <time>2014-08-21T06:22:39Z</time>
      </trkpt>
      <trkpt lat="44.97802" lon="6.76096">
        <ele>2052.640137</ele>
        <time>2014-08-21T06:22:40Z</time>
      </trkpt>
      <trkpt lat="44.97802" lon="6.76094">
        <ele>2052.73999</ele>
        <time>2014-08-21T06:22:41Z</time>
      </trkpt>
      <trkpt lat="44.97802" lon="6.76092">
        <ele>2052.869873</ele>
        <time>2014-08-21T06:22:42Z</time>
      </trkpt>
      <trkpt lat="44.9781" lon="6.76081">
        <ele>2054.280029</ele>
        <time>2014-08-21T06:22:51Z</time>
      </trkpt>
      <trkpt lat="44.97813" lon="6.7608">
        <ele>2054.530029</ele>
        <time>2014-08-21T06:22:53Z</time>
      </trkpt>
      <trkpt lat="44.97814" lon="6.7608">
        <ele>2054.639893</ele>
        <time>2014-08-21T06:22:54Z</time>
      </trkpt>
      <trkpt lat="44.97817" lon="6.76081">
        <ele>2055.01001</ele>
        <time>2014-08-21T06:22:57Z</time>
      </trkpt>
      <trkpt lat="44.97819" lon="6.76082">
        <ele>2055.080078</ele>
        <time>2014-08-21T06:22:58Z</time>
      </trkpt>
      <trkpt lat="44.97828" lon="6.76092">
        <ele>2055.830078</ele>
        <time>2014-08-21T06:23:07Z</time>
      </trkpt>
      <trkpt lat="44.97837" lon="6.76102">
        <ele>2056.669922</ele>
        <time>2014-08-21T06:23:16Z</time>
      </trkpt>
      <trkpt lat="44.97842" lon="6.76107">
        <ele>2057.22998</ele>
        <time>2014-08-21T06:23:21Z</time>
      </trkpt>
      <trkpt lat="44.97843" lon="6.76108">
        <ele>2057.359863</ele>
        <time>2014-08-21T06:23:22Z</time>
      </trkpt>
      <trkpt lat="44.97844" lon="6.76109">
        <ele>2057.48999</ele>
        <time>2014-08-21T06:23:23Z</time>
      </trkpt>
      <trkpt lat="44.97852" lon="6.76118">
        <ele>2058.349854</ele>
        <time>2014-08-21T06:23:31Z</time>
      </trkpt>
      <trkpt lat="44.97853" lon="6.76118">
        <ele>2058.439941</ele>
        <time>2014-08-21T06:23:32Z</time>
      </trkpt>
      <trkpt lat="44.97854" lon="6.76118">
        <ele>2058.550049</ele>
        <time>2014-08-21T06:23:33Z</time>
      </trkpt>
      <trkpt lat="44.97855" lon="6.76118">
        <ele>2058.659912</ele>
        <time>2014-08-21T06:23:34Z</time>
      </trkpt>
      <trkpt lat="44.97856" lon="6.76118">
        <ele>2058.790039</ele>
        <time>2014-08-21T06:23:35Z</time>
      </trkpt>
      <trkpt lat="44.97859" lon="6.76117">
        <ele>2059.110107</ele>
        <time>2014-08-21T06:23:38Z</time>
      </trkpt>
      <trkpt lat="44.97862" lon="6.7611">
        <ele>2059.909912</ele>
        <time>2014-08-21T06:23:44Z</time>
      </trkpt>
      <trkpt lat="44.97862" lon="6.76108">
        <ele>2060.02002</ele>
        <time>2014-08-21T06:23:45Z</time>
      </trkpt>
      <trkpt lat="44.97862" lon="6.76106">
        <ele>2061.140137</ele>
        <time>2014-08-21T06:23:52Z</time>
      </trkpt>
      <trkpt lat="44.97858" lon="6.76099">
        <ele>2061.47998</ele>
        <time>2014-08-21T06:24:02Z</time>
      </trkpt>
      <trkpt lat="44.97851" lon="6.7609">
        <ele>2063.080078</ele>
        <time>2014-08-21T06:24:13Z</time>
      </trkpt>
      <trkpt lat="44.97848" lon="6.76083">
        <ele>2064.110107</ele>
        <time>2014-08-21T06:24:21Z</time>
      </trkpt>
      <trkpt lat="44.97844" lon="6.76078">
        <ele>2065.330078</ele>
        <time>2014-08-21T06:24:29Z</time>
      </trkpt>
      <trkpt lat="44.97839" lon="6.7607">
        <ele>2066.859863</ele>
        <time>2014-08-21T06:24:39Z</time>
      </trkpt>
      <trkpt lat="44.97834" lon="6.76064">
        <ele>2068.180176</ele>
        <time>2014-08-21T06:24:49Z</time>
      </trkpt>
      <trkpt lat="44.97829" lon="6.76055">
        <ele>2069.560059</ele>
        <time>2014-08-21T06:24:59Z</time>
      </trkpt>
      <trkpt lat="44.97823" lon="6.76047">
        <ele>2070.659912</ele>
        <time>2014-08-21T06:25:09Z</time>
      </trkpt>
      <trkpt lat="44.97815" lon="6.76041">
        <ele>2072.110107</ele>
        <time>2014-08-21T06:25:19Z</time>
      </trkpt>
      <trkpt lat="44.97809" lon="6.76036">
        <ele>2073.669922</ele>
        <time>2014-08-21T06:25:29Z</time>
      </trkpt>
      <trkpt lat="44.97804" lon="6.76029">
        <ele>2075.130127</ele>
        <time>2014-08-21T06:25:38Z</time>
      </trkpt>
      <trkpt lat="44.978" lon="6.7602">
        <ele>2076.72998</ele>
        <time>2014-08-21T06:25:49Z</time>
      </trkpt>
      <trkpt lat="44.97802" lon="6.7601">
        <ele>2077.900146</ele>
        <time>2014-08-21T06:25:57Z</time>
      </trkpt>
      <trkpt lat="44.97804" lon="6.76">
        <ele>2079.090088</ele>
        <time>2014-08-21T06:26:07Z</time>
      </trkpt>
      <trkpt lat="44.97808" lon="6.75992">
        <ele>2080.469971</ele>
        <time>2014-08-21T06:26:17Z</time>
      </trkpt>
      <trkpt lat="44.97811" lon="6.75984">
        <ele>2081.709961</ele>
        <time>2014-08-21T06:26:26Z</time>
      </trkpt>
      <trkpt lat="44.97813" lon="6.75975">
        <ele>2082.73999</ele>
        <time>2014-08-21T06:26:34Z</time>
      </trkpt>
      <trkpt lat="44.97811" lon="6.75963">
        <ele>2084.439941</ele>
        <time>2014-08-21T06:26:45Z</time>
      </trkpt>
      <trkpt lat="44.97807" lon="6.75953">
        <ele>2085.550049</ele>
        <time>2014-08-21T06:26:54Z</time>
      </trkpt>
      <trkpt lat="44.97802" lon="6.75946">
        <ele>2086.580078</ele>
        <time>2014-08-21T06:27:02Z</time>
      </trkpt>
      <trkpt lat="44.97799" lon="6.75937">
        <ele>2088.22998</ele>
        <time>2014-08-21T06:27:12Z</time>
      </trkpt>
      <trkpt lat="44.97795" lon="6.75928">
        <ele>2090.22998</ele>
        <time>2014-08-21T06:27:23Z</time>
      </trkpt>
      <trkpt lat="44.97795" lon="6.75925">
        <ele>2090.47998</ele>
        <time>2014-08-21T06:27:25Z</time>
      </trkpt>
      <trkpt lat="44.97791" lon="6.75915">
        <ele>2091.449951</ele>
        <time>2014-08-21T06:27:34Z</time>
      </trkpt>
      <trkpt lat="44.97788" lon="6.75906">
        <ele>2092.560059</ele>
        <time>2014-08-21T06:27:43Z</time>
      </trkpt>
      <trkpt lat="44.97784" lon="6.75897">
        <ele>2093.199951</ele>
        <time>2014-08-21T06:27:52Z</time>
      </trkpt>
      <trkpt lat="44.97779" lon="6.75889">
        <ele>2094.47998</ele>
        <time>2014-08-21T06:28:01Z</time>
      </trkpt>
      <trkpt lat="44.97775" lon="6.75879">
        <ele>2095.719971</ele>
        <time>2014-08-21T06:28:10Z</time>
      </trkpt>
      <trkpt lat="44.97771" lon="6.75868">
        <ele>2096.879883</ele>
        <time>2014-08-21T06:28:20Z</time>
      </trkpt>
      <trkpt lat="44.9777" lon="6.75864">
        <ele>2097.320068</ele>
        <time>2014-08-21T06:28:23Z</time>
      </trkpt>
      <trkpt lat="44.97768" lon="6.75856">
        <ele>2098.25</ele>
        <time>2014-08-21T06:28:30Z</time>
      </trkpt>
      <trkpt lat="44.97771" lon="6.75854">
        <ele>2099.22998</ele>
        <time>2014-08-21T06:28:37Z</time>
      </trkpt>
      <trkpt lat="44.97775" lon="6.75859">
        <ele>2099.920166</ele>
        <time>2014-08-21T06:28:44Z</time>
      </trkpt>
      <trkpt lat="44.97779" lon="6.75866">
        <ele>2100.860107</ele>
        <time>2014-08-21T06:28:51Z</time>
      </trkpt>
      <trkpt lat="44.9778" lon="6.75868">
        <ele>2101.080078</ele>
        <time>2014-08-21T06:28:53Z</time>
      </trkpt>
      <trkpt lat="44.97787" lon="6.75875">
        <ele>2102.320068</ele>
        <time>2014-08-21T06:29:02Z</time>
      </trkpt>
      <trkpt lat="44.97793" lon="6.75881">
        <ele>2103.439941</ele>
        <time>2014-08-21T06:29:10Z</time>
      </trkpt>
      <trkpt lat="44.97798" lon="6.75888">
        <ele>2104.459961</ele>
        <time>2014-08-21T06:29:19Z</time>
      </trkpt>
      <trkpt lat="44.97803" lon="6.75893">
        <ele>2105.72998</ele>
        <time>2014-08-21T06:29:27Z</time>
      </trkpt>
      <trkpt lat="44.97807" lon="6.75899">
        <ele>2106.969971</ele>
        <time>2014-08-21T06:29:35Z</time>
      </trkpt>
      <trkpt lat="44.97812" lon="6.75905">
        <ele>2108.569824</ele>
        <time>2014-08-21T06:29:44Z</time>
      </trkpt>
      <trkpt lat="44.97819" lon="6.75908">
        <ele>2109.449951</ele>
        <time>2014-08-21T06:29:52Z</time>
      </trkpt>
      <trkpt lat="44.97828" lon="6.75907">
        <ele>2110.880127</ele>
        <time>2014-08-21T06:30:03Z</time>
      </trkpt>
      <trkpt lat="44.97831" lon="6.75908">
        <ele>2111.810059</ele>
        <time>2014-08-21T06:30:09Z</time>
      </trkpt>
      <trkpt lat="44.97836" lon="6.75909">
        <ele>2113.380127</ele>
        <time>2014-08-21T06:30:18Z</time>
      </trkpt>
      <trkpt lat="44.97844" lon="6.75909">
        <ele>2115.050049</ele>
        <time>2014-08-21T06:30:29Z</time>
      </trkpt>
      <trkpt lat="44.9785" lon="6.75911">
        <ele>2116.209961</ele>
        <time>2014-08-21T06:30:37Z</time>
      </trkpt>
      <trkpt lat="44.97856" lon="6.75913">
        <ele>2117.620117</ele>
        <time>2014-08-21T06:30:47Z</time>
      </trkpt>
      <trkpt lat="44.97863" lon="6.75912">
        <ele>2119.300049</ele>
        <time>2014-08-21T06:31:00Z</time>
      </trkpt>
      <trkpt lat="44.97864" lon="6.75907">
        <ele>2119.810059</ele>
        <time>2014-08-21T06:31:05Z</time>
      </trkpt>
      <trkpt lat="44.9786" lon="6.75901">
        <ele>2120.459961</ele>
        <time>2014-08-21T06:31:12Z</time>
      </trkpt>
      <trkpt lat="44.97853" lon="6.75895">
        <ele>2121.600098</ele>
        <time>2014-08-21T06:31:22Z</time>
      </trkpt>
      <trkpt lat="44.97846" lon="6.75889">
        <ele>2122.670166</ele>
        <time>2014-08-21T06:31:31Z</time>
      </trkpt>
      <trkpt lat="44.97841" lon="6.75882">
        <ele>2123.570068</ele>
        <time>2014-08-21T06:31:39Z</time>
      </trkpt>
      <trkpt lat="44.97835" lon="6.75878">
        <ele>2125.469971</ele>
        <time>2014-08-21T06:31:49Z</time>
      </trkpt>
      <trkpt lat="44.97831" lon="6.75873">
        <ele>2126.709961</ele>
        <time>2014-08-21T06:31:59Z</time>
      </trkpt>
      <trkpt lat="44.9783" lon="6.75869">
        <ele>2127.22998</ele>
        <time>2014-08-21T06:32:03Z</time>
      </trkpt>
      <trkpt lat="44.97833" lon="6.75864">
        <ele>2128.389893</ele>
        <time>2014-08-21T06:32:11Z</time>
      </trkpt>
      <trkpt lat="44.97835" lon="6.75867">
        <ele>2128.72998</ele>
        <time>2014-08-21T06:32:14Z</time>
      </trkpt>
      <trkpt lat="44.97841" lon="6.7587">
        <ele>2129.689941</ele>
        <time>2014-08-21T06:32:21Z</time>
      </trkpt>
      <trkpt lat="44.97848" lon="6.75872">
        <ele>2130.75</ele>
        <time>2014-08-21T06:32:30Z</time>
      </trkpt>
      <trkpt lat="44.97856" lon="6.75875">
        <ele>2132.080078</ele>
        <time>2014-08-21T06:32:40Z</time>
      </trkpt>
      <trkpt lat="44.97862" lon="6.75877">
        <ele>2133.160156</ele>
        <time>2014-08-21T06:32:49Z</time>
      </trkpt>
      <trkpt lat="44.97869" lon="6.7588">
        <ele>2134.560059</ele>
        <time>2014-08-21T06:32:58Z</time>
      </trkpt>
      <trkpt lat="44.97873" lon="6.75877">
        <ele>2135.899902</ele>
        <time>2014-08-21T06:33:06Z</time>
      </trkpt>
      <trkpt lat="44.97874" lon="6.75871">
        <ele>2136.469971</ele>
        <time>2014-08-21T06:33:11Z</time>
      </trkpt>
      <trkpt lat="44.9787" lon="6.75863">
        <ele>2137.52002</ele>
        <time>2014-08-21T06:33:19Z</time>
      </trkpt>
      <trkpt lat="44.97867" lon="6.75857">
        <ele>2138.830078</ele>
        <time>2014-08-21T06:33:27Z</time>
      </trkpt>
      <trkpt lat="44.97865" lon="6.75852">
        <ele>2140.050049</ele>
        <time>2014-08-21T06:33:34Z</time>
      </trkpt>
      <trkpt lat="44.97862" lon="6.75845">
        <ele>2141.119873</ele>
        <time>2014-08-21T06:33:43Z</time>
      </trkpt>
      <trkpt lat="44.97858" lon="6.75838">
        <ele>2142.300049</ele>
        <time>2014-08-21T06:33:52Z</time>
      </trkpt>
      <trkpt lat="44.97855" lon="6.75829">
        <ele>2143.600098</ele>
        <time>2014-08-21T06:34:01Z</time>
      </trkpt>
      <trkpt lat="44.97853" lon="6.75822">
        <ele>2144.839844</ele>
        <time>2014-08-21T06:34:10Z</time>
      </trkpt>
      <trkpt lat="44.97851" lon="6.75815">
        <ele>2146.080078</ele>
        <time>2014-08-21T06:34:19Z</time>
      </trkpt>
      <trkpt lat="44.97849" lon="6.75806">
        <ele>2147.27002</ele>
        <time>2014-08-21T06:34:29Z</time>
      </trkpt>
      <trkpt lat="44.97852" lon="6.75801">
        <ele>2148.51001</ele>
        <time>2014-08-21T06:34:38Z</time>
      </trkpt>
      <trkpt lat="44.97857" lon="6.75806">
        <ele>2149.570068</ele>
        <time>2014-08-21T06:34:46Z</time>
      </trkpt>
      <trkpt lat="44.97859" lon="6.75808">
        <ele>2149.840088</ele>
        <time>2014-08-21T06:34:48Z</time>
      </trkpt>
      <trkpt lat="44.97865" lon="6.75816">
        <ele>2150.939941</ele>
        <time>2014-08-21T06:34:58Z</time>
      </trkpt>
      <trkpt lat="44.9787" lon="6.75822">
        <ele>2151.889893</ele>
        <time>2014-08-21T06:35:06Z</time>
      </trkpt>
      <trkpt lat="44.97877" lon="6.75828">
        <ele>2153.370117</ele>
        <time>2014-08-21T06:35:15Z</time>
      </trkpt>
      <trkpt lat="44.97883" lon="6.75833">
        <ele>2154.859863</ele>
        <time>2014-08-21T06:35:25Z</time>
      </trkpt>
      <trkpt lat="44.9789" lon="6.75838">
        <ele>2156.5</ele>
        <time>2014-08-21T06:35:36Z</time>
      </trkpt>
      <trkpt lat="44.97895" lon="6.75834">
        <ele>2157.73999</ele>
        <time>2014-08-21T06:35:45Z</time>
      </trkpt>
      <trkpt lat="44.97892" lon="6.75826">
        <ele>2158.51001</ele>
        <time>2014-08-21T06:35:52Z</time>
      </trkpt>
      <trkpt lat="44.97887" lon="6.75815">
        <ele>2159.810059</ele>
        <time>2014-08-21T06:36:02Z</time>
      </trkpt>
      <trkpt lat="44.97884" lon="6.75805">
        <ele>2161.040039</ele>
        <time>2014-08-21T06:36:13Z</time>
      </trkpt>
      <trkpt lat="44.97881" lon="6.75796">
        <ele>2162.310059</ele>
        <time>2014-08-21T06:36:23Z</time>
      </trkpt>
      <trkpt lat="44.97879" lon="6.75786">
        <ele>2163.590088</ele>
        <time>2014-08-21T06:36:33Z</time>
      </trkpt>
      <trkpt lat="44.97875" lon="6.75778">
        <ele>2164.829834</ele>
        <time>2014-08-21T06:36:43Z</time>
      </trkpt>
      <trkpt lat="44.97872" lon="6.7577">
        <ele>2165.929932</ele>
        <time>2014-08-21T06:36:53Z</time>
      </trkpt>
      <trkpt lat="44.97869" lon="6.75761">
        <ele>2166.959961</ele>
        <time>2014-08-21T06:37:03Z</time>
      </trkpt>
      <trkpt lat="44.97867" lon="6.75754">
        <ele>2168.149902</ele>
        <time>2014-08-21T06:37:11Z</time>
      </trkpt>
      <trkpt lat="44.97863" lon="6.75744">
        <ele>2169.560059</ele>
        <time>2014-08-21T06:37:21Z</time>
      </trkpt>
      <trkpt lat="44.9786" lon="6.75735">
        <ele>2170.719971</ele>
        <time>2014-08-21T06:37:30Z</time>
      </trkpt>
      <trkpt lat="44.97858" lon="6.75726">
        <ele>2172.219971</ele>
        <time>2014-08-21T06:37:39Z</time>
      </trkpt>
      <trkpt lat="44.97855" lon="6.75718">
        <ele>2173.699951</ele>
        <time>2014-08-21T06:37:49Z</time>
      </trkpt>
      <trkpt lat="44.97852" lon="6.75712">
        <ele>2175.109863</ele>
        <time>2014-08-21T06:37:59Z</time>
      </trkpt>
      <trkpt lat="44.97851" lon="6.75706">
        <ele>2176.359863</ele>
        <time>2014-08-21T06:38:10Z</time>
      </trkpt>
      <trkpt lat="44.97856" lon="6.75706">
        <ele>2177.300049</ele>
        <time>2014-08-21T06:38:20Z</time>
      </trkpt>
      <trkpt lat="44.9786" lon="6.75712">
        <ele>2178.100098</ele>
        <time>2014-08-21T06:38:27Z</time>
      </trkpt>
      <trkpt lat="44.97865" lon="6.75719">
        <ele>2178.919922</ele>
        <time>2014-08-21T06:38:35Z</time>
      </trkpt>
      <trkpt lat="44.97867" lon="6.7572">
        <ele>2179.190186</ele>
        <time>2014-08-21T06:38:37Z</time>
      </trkpt>
      <trkpt lat="44.97873" lon="6.75725">
        <ele>2180.409912</ele>
        <time>2014-08-21T06:38:45Z</time>
      </trkpt>
      <trkpt lat="44.97878" lon="6.7573">
        <ele>2181.280029</ele>
        <time>2014-08-21T06:38:53Z</time>
      </trkpt>
      <trkpt lat="44.97884" lon="6.75735">
        <ele>2182.959961</ele>
        <time>2014-08-21T06:39:04Z</time>
      </trkpt>
      <trkpt lat="44.97889" lon="6.75734">
        <ele>2184.27002</ele>
        <time>2014-08-21T06:39:15Z</time>
      </trkpt>
      <trkpt lat="44.97885" lon="6.75728">
        <ele>2184.969971</ele>
        <time>2014-08-21T06:39:23Z</time>
      </trkpt>
      <trkpt lat="44.9788" lon="6.75719">
        <ele>2186.310059</ele>
        <time>2014-08-21T06:39:34Z</time>
      </trkpt>
      <trkpt lat="44.97877" lon="6.75709">
        <ele>2187.810059</ele>
        <time>2014-08-21T06:39:44Z</time>
      </trkpt>
      <trkpt lat="44.97875" lon="6.75702">
        <ele>2189.22998</ele>
        <time>2014-08-21T06:39:52Z</time>
      </trkpt>
      <trkpt lat="44.97873" lon="6.75693">
        <ele>2190.51001</ele>
        <time>2014-08-21T06:40:02Z</time>
      </trkpt>
      <trkpt lat="44.9787" lon="6.75683">
        <ele>2191.880127</ele>
        <time>2014-08-21T06:40:13Z</time>
      </trkpt>
      <trkpt lat="44.97869" lon="6.75675">
        <ele>2193.350098</ele>
        <time>2014-08-21T06:40:22Z</time>
      </trkpt>
      <trkpt lat="44.97867" lon="6.75666">
        <ele>2194.570068</ele>
        <time>2014-08-21T06:40:33Z</time>
      </trkpt>
      <trkpt lat="44.97865" lon="6.75659">
        <ele>2195.829834</ele>
        <time>2014-08-21T06:40:43Z</time>
      </trkpt>
      <trkpt lat="44.97862" lon="6.75648">
        <ele>2197.689941</ele>
        <time>2014-08-21T06:40:56Z</time>
      </trkpt>
      <trkpt lat="44.9786" lon="6.75639">
        <ele>2199.180176</ele>
        <time>2014-08-21T06:41:07Z</time>
      </trkpt>
      <trkpt lat="44.97859" lon="6.75632">
        <ele>2200.290039</ele>
        <time>2014-08-21T06:41:15Z</time>
      </trkpt>
      <trkpt lat="44.97857" lon="6.75623">
        <ele>2202.120117</ele>
        <time>2014-08-21T06:41:27Z</time>
      </trkpt>
      <trkpt lat="44.97861" lon="6.75617">
        <ele>2203.77002</ele>
        <time>2014-08-21T06:41:38Z</time>
      </trkpt>
      <trkpt lat="44.97865" lon="6.75622">
        <ele>2204.610107</ele>
        <time>2014-08-21T06:41:45Z</time>
      </trkpt>
      <trkpt lat="44.9787" lon="6.75629">
        <ele>2205.77002</ele>
        <time>2014-08-21T06:41:53Z</time>
      </trkpt>
      <trkpt lat="44.97876" lon="6.75635">
        <ele>2206.889893</ele>
        <time>2014-08-21T06:42:03Z</time>
      </trkpt>
      <trkpt lat="44.97881" lon="6.75642">
        <ele>2208.160156</ele>
        <time>2014-08-21T06:42:13Z</time>
      </trkpt>
      <trkpt lat="44.97888" lon="6.75648">
        <ele>2209.919922</ele>
        <time>2014-08-21T06:42:24Z</time>
      </trkpt>
      <trkpt lat="44.97895" lon="6.75654">
        <ele>2211.090088</ele>
        <time>2014-08-21T06:42:35Z</time>
      </trkpt>
      <trkpt lat="44.97899" lon="6.75659">
        <ele>2211.790039</ele>
        <time>2014-08-21T06:42:43Z</time>
      </trkpt>
      <trkpt lat="44.97905" lon="6.75666">
        <ele>2213.01001</ele>
        <time>2014-08-21T06:42:53Z</time>
      </trkpt>
      <trkpt lat="44.9791" lon="6.75671">
        <ele>2214.149902</ele>
        <time>2014-08-21T06:43:03Z</time>
      </trkpt>
      <trkpt lat="44.97915" lon="6.75677">
        <ele>2215.26001</ele>
        <time>2014-08-21T06:43:13Z</time>
      </trkpt>
      <trkpt lat="44.97921" lon="6.75686">
        <ele>2216.790039</ele>
        <time>2014-08-21T06:43:24Z</time>
      </trkpt>
      <trkpt lat="44.97927" lon="6.75691">
        <ele>2218.119873</ele>
        <time>2014-08-21T06:43:35Z</time>
      </trkpt>
      <trkpt lat="44.97933" lon="6.75699">
        <ele>2219.560059</ele>
        <time>2014-08-21T06:43:48Z</time>
      </trkpt>
      <trkpt lat="44.97939" lon="6.75708">
        <ele>2220.820068</ele>
        <time>2014-08-21T06:43:58Z</time>
      </trkpt>
      <trkpt lat="44.97945" lon="6.75717">
        <ele>2222.930176</ele>
        <time>2014-08-21T06:44:10Z</time>
      </trkpt>
      <trkpt lat="44.97951" lon="6.75727">
        <ele>2224.77002</ele>
        <time>2014-08-21T06:44:24Z</time>
      </trkpt>
      <trkpt lat="44.97957" lon="6.75732">
        <ele>2226.47998</ele>
        <time>2014-08-21T06:44:37Z</time>
      </trkpt>
      <trkpt lat="44.97957" lon="6.75725">
        <ele>2227.300049</ele>
        <time>2014-08-21T06:44:45Z</time>
      </trkpt>
      <trkpt lat="44.97954" lon="6.75719">
        <ele>2228.089844</ele>
        <time>2014-08-21T06:44:53Z</time>
      </trkpt>
      <trkpt lat="44.97951" lon="6.7571">
        <ele>2229.169922</ele>
        <time>2014-08-21T06:45:03Z</time>
      </trkpt>
      <trkpt lat="44.97949" lon="6.757">
        <ele>2230.689941</ele>
        <time>2014-08-21T06:45:13Z</time>
      </trkpt>
      <trkpt lat="44.97947" lon="6.75691">
        <ele>2231.929932</ele>
        <time>2014-08-21T06:45:24Z</time>
      </trkpt>
      <trkpt lat="44.97945" lon="6.75683">
        <ele>2233.27002</ele>
        <time>2014-08-21T06:45:35Z</time>
      </trkpt>
      <trkpt lat="44.97943" lon="6.75673">
        <ele>2234.850098</ele>
        <time>2014-08-21T06:45:46Z</time>
      </trkpt>
      <trkpt lat="44.97943" lon="6.75664">
        <ele>2236.01001</ele>
        <time>2014-08-21T06:45:56Z</time>
      </trkpt>
      <trkpt lat="44.9794" lon="6.75658">
        <ele>2237.25</ele>
        <time>2014-08-21T06:46:05Z</time>
      </trkpt>
      <trkpt lat="44.9794" lon="6.75649">
        <ele>2238.610107</ele>
        <time>2014-08-21T06:46:15Z</time>
      </trkpt>
      <trkpt lat="44.97943" lon="6.75644">
        <ele>2239.900146</ele>
        <time>2014-08-21T06:46:24Z</time>
      </trkpt>
      <trkpt lat="44.97949" lon="6.75649">
        <ele>2240.939941</ele>
        <time>2014-08-21T06:46:33Z</time>
      </trkpt>
      <trkpt lat="44.97957" lon="6.75654">
        <ele>2242.389893</ele>
        <time>2014-08-21T06:46:45Z</time>
      </trkpt>
      <trkpt lat="44.97964" lon="6.75657">
        <ele>2243.300049</ele>
        <time>2014-08-21T06:46:55Z</time>
      </trkpt>
      <trkpt lat="44.97971" lon="6.75662">
        <ele>2244.340088</ele>
        <time>2014-08-21T06:47:05Z</time>
      </trkpt>
      <trkpt lat="44.97979" lon="6.75669">
        <ele>2245.820068</ele>
        <time>2014-08-21T06:47:17Z</time>
      </trkpt>
      <trkpt lat="44.97985" lon="6.75676">
        <ele>2246.669922</ele>
        <time>2014-08-21T06:47:26Z</time>
      </trkpt>
      <trkpt lat="44.97991" lon="6.75682">
        <ele>2248.449951</ele>
        <time>2014-08-21T06:47:37Z</time>
      </trkpt>
      <trkpt lat="44.97999" lon="6.75684">
        <ele>2249.790039</ele>
        <time>2014-08-21T06:47:47Z</time>
      </trkpt>
      <trkpt lat="44.98007" lon="6.75685">
        <ele>2251.380127</ele>
        <time>2014-08-21T06:47:57Z</time>
      </trkpt>
      <trkpt lat="44.98014" lon="6.75687">
        <ele>2252.97998</ele>
        <time>2014-08-21T06:48:07Z</time>
      </trkpt>
      <trkpt lat="44.98021" lon="6.7569">
        <ele>2254.459961</ele>
        <time>2014-08-21T06:48:18Z</time>
      </trkpt>
      <trkpt lat="44.98028" lon="6.75692">
        <ele>2255.669922</ele>
        <time>2014-08-21T06:48:28Z</time>
      </trkpt>
      <trkpt lat="44.98035" lon="6.75692">
        <ele>2256.870117</ele>
        <time>2014-08-21T06:48:37Z</time>
      </trkpt>
      <trkpt lat="44.98044" lon="6.75692">
        <ele>2258.22998</ele>
        <time>2014-08-21T06:48:49Z</time>
      </trkpt>
      <trkpt lat="44.9805" lon="6.75694">
        <ele>2259.219971</ele>
        <time>2014-08-21T06:48:57Z</time>
      </trkpt>
      <trkpt lat="44.98056" lon="6.75695">
        <ele>2260.339844</ele>
        <time>2014-08-21T06:49:07Z</time>
      </trkpt>
      <trkpt lat="44.98063" lon="6.75696">
        <ele>2261.570068</ele>
        <time>2014-08-21T06:49:17Z</time>
      </trkpt>
      <trkpt lat="44.98071" lon="6.75698">
        <ele>2262.969971</ele>
        <time>2014-08-21T06:49:28Z</time>
      </trkpt>
      <trkpt lat="44.98078" lon="6.75698">
        <ele>2264.070068</ele>
        <time>2014-08-21T06:49:36Z</time>
      </trkpt>
      <trkpt lat="44.98084" lon="6.75699">
        <ele>2264.929932</ele>
        <time>2014-08-21T06:49:45Z</time>
      </trkpt>
      <trkpt lat="44.98091" lon="6.75701">
        <ele>2265.899902</ele>
        <time>2014-08-21T06:49:54Z</time>
      </trkpt>
      <trkpt lat="44.98099" lon="6.75703">
        <ele>2267.22998</ele>
        <time>2014-08-21T06:50:04Z</time>
      </trkpt>
      <trkpt lat="44.98106" lon="6.75705">
        <ele>2268.429932</ele>
        <time>2014-08-21T06:50:13Z</time>
      </trkpt>
      <trkpt lat="44.98113" lon="6.75707">
        <ele>2269.820068</ele>
        <time>2014-08-21T06:50:23Z</time>
      </trkpt>
      <trkpt lat="44.98121" lon="6.75708">
        <ele>2271.149902</ele>
        <time>2014-08-21T06:50:33Z</time>
      </trkpt>
      <trkpt lat="44.98128" lon="6.75711">
        <ele>2272.370117</ele>
        <time>2014-08-21T06:50:44Z</time>
      </trkpt>
      <trkpt lat="44.98134" lon="6.75713">
        <ele>2273.820068</ele>
        <time>2014-08-21T06:50:55Z</time>
      </trkpt>
      <trkpt lat="44.98142" lon="6.75718">
        <ele>2274.98999</ele>
        <time>2014-08-21T06:51:06Z</time>
      </trkpt>
      <trkpt lat="44.98148" lon="6.75721">
        <ele>2276.380127</ele>
        <time>2014-08-21T06:51:16Z</time>
      </trkpt>
      <trkpt lat="44.98154" lon="6.75727">
        <ele>2277.800049</ele>
        <time>2014-08-21T06:51:28Z</time>
      </trkpt>
      <trkpt lat="44.98157" lon="6.75721">
        <ele>2278.72998</ele>
        <time>2014-08-21T06:51:35Z</time>
      </trkpt>
      <trkpt lat="44.98156" lon="6.75716">
        <ele>2279.51001</ele>
        <time>2014-08-21T06:51:43Z</time>
      </trkpt>
      <trkpt lat="44.98157" lon="6.75712">
        <ele>2279.5</ele>
        <time>2014-08-21T06:51:58Z</time>
      </trkpt>
      <trkpt lat="44.98158" lon="6.75709">
        <ele>2279.75</ele>
        <time>2014-08-21T06:52:25Z</time>
      </trkpt>
      <trkpt lat="44.98158" lon="6.75705">
        <ele>2279.72998</ele>
        <time>2014-08-21T06:52:42Z</time>
      </trkpt>
      <trkpt lat="44.9816" lon="6.75702">
        <ele>2279.679932</ele>
        <time>2014-08-21T06:52:54Z</time>
      </trkpt>
      <trkpt lat="44.9816" lon="6.75698">
        <ele>2279.97998</ele>
        <time>2014-08-21T06:53:15Z</time>
      </trkpt>
      <trkpt lat="44.98161" lon="6.75695">
        <ele>2280.060059</ele>
        <time>2014-08-21T06:53:29Z</time>
      </trkpt>
      <trkpt lat="44.98161" lon="6.75693">
        <ele>2280.02002</ele>
        <time>2014-08-21T06:53:44Z</time>
      </trkpt>
      <trkpt lat="44.98161" lon="6.75692">
        <ele>2279.909912</ele>
        <time>2014-08-21T06:54:03Z</time>
      </trkpt>
      <trkpt lat="44.98162" lon="6.7569">
        <ele>2280.080078</ele>
        <time>2014-08-21T06:54:22Z</time>
      </trkpt>
      <trkpt lat="44.98162" lon="6.7569">
        <ele>2279.800049</ele>
        <time>2014-08-21T06:54:40Z</time>
      </trkpt>
      <trkpt lat="44.98162" lon="6.75696">
        <ele>2280.27002</ele>
        <time>2014-08-21T06:54:56Z</time>
      </trkpt>
      <trkpt lat="44.98161" lon="6.75699">
        <ele>2280.310059</ele>
        <time>2014-08-21T06:55:10Z</time>
      </trkpt>
      <trkpt lat="44.98161" lon="6.757">
        <ele>2280.400146</ele>
        <time>2014-08-21T06:55:25Z</time>
      </trkpt>
      <trkpt lat="44.9816" lon="6.757">
        <ele>2280.329834</ele>
        <time>2014-08-21T06:55:38Z</time>
      </trkpt>
      <trkpt lat="44.9816" lon="6.757">
        <ele>2280.51001</ele>
        <time>2014-08-21T06:55:51Z</time>
      </trkpt>
      <trkpt lat="44.9816" lon="6.757">
        <ele>2280.390137</ele>
        <time>2014-08-21T06:56:04Z</time>
      </trkpt>
      <trkpt lat="44.98159" lon="6.75701">
        <ele>2280.360107</ele>
        <time>2014-08-21T06:56:22Z</time>
      </trkpt>
      <trkpt lat="44.98161" lon="6.75708">
        <ele>2280.25</ele>
        <time>2014-08-21T06:56:29Z</time>
      </trkpt>
      <trkpt lat="44.98159" lon="6.75711">
        <ele>2279.959961</ele>
        <time>2014-08-21T06:56:39Z</time>
      </trkpt>
      <trkpt lat="44.98157" lon="6.75711">
        <ele>2279.849854</ele>
        <time>2014-08-21T06:56:44Z</time>
      </trkpt>
      <trkpt lat="44.98155" lon="6.7571">
        <ele>2279.889893</ele>
        <time>2014-08-21T06:56:46Z</time>
      </trkpt>
      <trkpt lat="44.98152" lon="6.75711">
        <ele>2280.140137</ele>
        <time>2014-08-21T06:56:49Z</time>
      </trkpt>
      <trkpt lat="44.98148" lon="6.75709">
        <ele>2280.73999</ele>
        <time>2014-08-21T06:56:53Z</time>
      </trkpt>
      <trkpt lat="44.98146" lon="6.75705">
        <ele>2282.300049</ele>
        <time>2014-08-21T06:57:01Z</time>
      </trkpt>
      <trkpt lat="44.98147" lon="6.75706">
        <ele>2283.179932</ele>
        <time>2014-08-21T06:57:11Z</time>
      </trkpt>
      <trkpt lat="44.98147" lon="6.75707">
        <ele>2283.189941</ele>
        <time>2014-08-21T06:57:38Z</time>
      </trkpt>
      <trkpt lat="44.98148" lon="6.75707">
        <ele>2283.280029</ele>
        <time>2014-08-21T06:58:08Z</time>
      </trkpt>
      <trkpt lat="44.98148" lon="6.75707">
        <ele>2282.909912</ele>
        <time>2014-08-21T06:58:32Z</time>
      </trkpt>
      <trkpt lat="44.98148" lon="6.75707">
        <ele>2283.099854</ele>
        <time>2014-08-21T06:58:44Z</time>
      </trkpt>
      <trkpt lat="44.98143" lon="6.75702">
        <ele>2283.619873</ele>
        <time>2014-08-21T06:58:53Z</time>
      </trkpt>
      <trkpt lat="44.98141" lon="6.75698">
        <ele>2284.340088</ele>
        <time>2014-08-21T06:59:02Z</time>
      </trkpt>
      <trkpt lat="44.98137" lon="6.75692">
        <ele>2285.030029</ele>
        <time>2014-08-21T06:59:10Z</time>
      </trkpt>
      <trkpt lat="44.98131" lon="6.75682">
        <ele>2286.599854</ele>
        <time>2014-08-21T06:59:22Z</time>
      </trkpt>
      <trkpt lat="44.98125" lon="6.75672">
        <ele>2288.690186</ele>
        <time>2014-08-21T06:59:34Z</time>
      </trkpt>
      <trkpt lat="44.98118" lon="6.75662">
        <ele>2290.620117</ele>
        <time>2014-08-21T06:59:47Z</time>
      </trkpt>
      <trkpt lat="44.98114" lon="6.75656">
        <ele>2292.280029</ele>
        <time>2014-08-21T06:59:57Z</time>
      </trkpt>
      <trkpt lat="44.98109" lon="6.7565">
        <ele>2293.350098</ele>
        <time>2014-08-21T07:00:07Z</time>
      </trkpt>
      <trkpt lat="44.98104" lon="6.75642">
        <ele>2295.050049</ele>
        <time>2014-08-21T07:00:20Z</time>
      </trkpt>
      <trkpt lat="44.98099" lon="6.75635">
        <ele>2296.439941</ele>
        <time>2014-08-21T07:00:31Z</time>
      </trkpt>
      <trkpt lat="44.98095" lon="6.75626">
        <ele>2297.719971</ele>
        <time>2014-08-21T07:00:41Z</time>
      </trkpt>
      <trkpt lat="44.98091" lon="6.75618">
        <ele>2299.119873</ele>
        <time>2014-08-21T07:00:50Z</time>
      </trkpt>
      <trkpt lat="44.98086" lon="6.7561">
        <ele>2300.51001</ele>
        <time>2014-08-21T07:01:00Z</time>
      </trkpt>
      <trkpt lat="44.98078" lon="6.75602">
        <ele>2302.189941</ele>
        <time>2014-08-21T07:01:13Z</time>
      </trkpt>
      <trkpt lat="44.98074" lon="6.75596">
        <ele>2303.219971</ele>
        <time>2014-08-21T07:01:22Z</time>
      </trkpt>
      <trkpt lat="44.98073" lon="6.75597">
        <ele>2303.880127</ele>
        <time>2014-08-21T07:01:45Z</time>
      </trkpt>
      <trkpt lat="44.98071" lon="6.75596">
        <ele>2303.919922</ele>
        <time>2014-08-21T07:02:11Z</time>
      </trkpt>
      <trkpt lat="44.98065" lon="6.75586">
        <ele>2305.140137</ele>
        <time>2014-08-21T07:02:22Z</time>
      </trkpt>
      <trkpt lat="44.9806" lon="6.75573">
        <ele>2307.52002</ele>
        <time>2014-08-21T07:02:36Z</time>
      </trkpt>
      <trkpt lat="44.98058" lon="6.75569">
        <ele>2308.040039</ele>
        <time>2014-08-21T07:02:43Z</time>
      </trkpt>
      <trkpt lat="44.98057" lon="6.75565">
        <ele>2308.630127</ele>
        <time>2014-08-21T07:02:52Z</time>
      </trkpt>
      <trkpt lat="44.98056" lon="6.75567">
        <ele>2308.860107</ele>
        <time>2014-08-21T07:03:25Z</time>
      </trkpt>
      <trkpt lat="44.98055" lon="6.75565">
        <ele>2308.850098</ele>
        <time>2014-08-21T07:03:55Z</time>
      </trkpt>
      <trkpt lat="44.9805" lon="6.75551">
        <ele>2310.150146</ele>
        <time>2014-08-21T07:04:06Z</time>
      </trkpt>
      <trkpt lat="44.98047" lon="6.75536">
        <ele>2312.469971</ele>
        <time>2014-08-21T07:04:17Z</time>
      </trkpt>
      <trkpt lat="44.98042" lon="6.75525">
        <ele>2314.219971</ele>
        <time>2014-08-21T07:04:27Z</time>
      </trkpt>
      <trkpt lat="44.98038" lon="6.75514">
        <ele>2316.01001</ele>
        <time>2014-08-21T07:04:37Z</time>
      </trkpt>
      <trkpt lat="44.98035" lon="6.75504">
        <ele>2317.669922</ele>
        <time>2014-08-21T07:04:48Z</time>
      </trkpt>
      <trkpt lat="44.98032" lon="6.75495">
        <ele>2319.139893</ele>
        <time>2014-08-21T07:04:59Z</time>
      </trkpt>
      <trkpt lat="44.98029" lon="6.75486">
        <ele>2320.98999</ele>
        <time>2014-08-21T07:05:11Z</time>
      </trkpt>
      <trkpt lat="44.98025" lon="6.75477">
        <ele>2322.199951</ele>
        <time>2014-08-21T07:05:21Z</time>
      </trkpt>
      <trkpt lat="44.9802" lon="6.7547">
        <ele>2323.169922</ele>
        <time>2014-08-21T07:05:31Z</time>
      </trkpt>
      <trkpt lat="44.98013" lon="6.7546">
        <ele>2324.949951</ele>
        <time>2014-08-21T07:05:44Z</time>
      </trkpt>
      <trkpt lat="44.98009" lon="6.75451">
        <ele>2326.439941</ele>
        <time>2014-08-21T07:05:56Z</time>
      </trkpt>
      <trkpt lat="44.98004" lon="6.75439">
        <ele>2328.100098</ele>
        <time>2014-08-21T07:06:09Z</time>
      </trkpt>
      <trkpt lat="44.98002" lon="6.75437">
        <ele>2328.949951</ele>
        <time>2014-08-21T07:06:18Z</time>
      </trkpt>
      <trkpt lat="44.97999" lon="6.75431">
        <ele>2329.800049</ele>
        <time>2014-08-21T07:06:36Z</time>
      </trkpt>
      <trkpt lat="44.97998" lon="6.75429">
        <ele>2329.969971</ele>
        <time>2014-08-21T07:06:38Z</time>
      </trkpt>
      <trkpt lat="44.97995" lon="6.75416">
        <ele>2330.849854</ele>
        <time>2014-08-21T07:06:48Z</time>
      </trkpt>
      <trkpt lat="44.97991" lon="6.75401">
        <ele>2331.949951</ele>
        <time>2014-08-21T07:06:59Z</time>
      </trkpt>
      <trkpt lat="44.97987" lon="6.75388">
        <ele>2332.959961</ele>
        <time>2014-08-21T07:07:09Z</time>
      </trkpt>
      <trkpt lat="44.97985" lon="6.75376">
        <ele>2334.080078</ele>
        <time>2014-08-21T07:07:17Z</time>
      </trkpt>
      <trkpt lat="44.97984" lon="6.75362">
        <ele>2334.679932</ele>
        <time>2014-08-21T07:07:26Z</time>
      </trkpt>
      <trkpt lat="44.97983" lon="6.75359">
        <ele>2334.890137</ele>
        <time>2014-08-21T07:07:28Z</time>
      </trkpt>
      <trkpt lat="44.97981" lon="6.75345">
        <ele>2335.850098</ele>
        <time>2014-08-21T07:07:38Z</time>
      </trkpt>
      <trkpt lat="44.97978" lon="6.75334">
        <ele>2337.02002</ele>
        <time>2014-08-21T07:07:47Z</time>
      </trkpt>
      <trkpt lat="44.97976" lon="6.75325">
        <ele>2337.949951</ele>
        <time>2014-08-21T07:07:54Z</time>
      </trkpt>
      <trkpt lat="44.97976" lon="6.75323">
        <ele>2338.080078</ele>
        <time>2014-08-21T07:07:55Z</time>
      </trkpt>
      <trkpt lat="44.97975" lon="6.75315">
        <ele>2338.73999</ele>
        <time>2014-08-21T07:08:00Z</time>
      </trkpt>
      <trkpt lat="44.97975" lon="6.753">
        <ele>2339.810059</ele>
        <time>2014-08-21T07:08:09Z</time>
      </trkpt>
      <trkpt lat="44.9797" lon="6.75292">
        <ele>2340.48999</ele>
        <time>2014-08-21T07:08:17Z</time>
      </trkpt>
      <trkpt lat="44.97966" lon="6.75283">
        <ele>2341.48999</ele>
        <time>2014-08-21T07:08:27Z</time>
      </trkpt>
      <trkpt lat="44.97962" lon="6.75274">
        <ele>2343.199951</ele>
        <time>2014-08-21T07:08:42Z</time>
      </trkpt>
      <trkpt lat="44.97959" lon="6.75277">
        <ele>2343.570068</ele>
        <time>2014-08-21T07:09:05Z</time>
      </trkpt>
      <trkpt lat="44.97956" lon="6.75279">
        <ele>2343.449951</ele>
        <time>2014-08-21T07:09:31Z</time>
      </trkpt>
      <trkpt lat="44.97955" lon="6.75278">
        <ele>2343.570068</ele>
        <time>2014-08-21T07:09:50Z</time>
      </trkpt>
      <trkpt lat="44.97952" lon="6.7527">
        <ele>2344.02002</ele>
        <time>2014-08-21T07:10:03Z</time>
      </trkpt>
      <trkpt lat="44.97948" lon="6.75257">
        <ele>2345.590088</ele>
        <time>2014-08-21T07:10:17Z</time>
      </trkpt>
      <trkpt lat="44.97946" lon="6.7525">
        <ele>2347.070068</ele>
        <time>2014-08-21T07:10:24Z</time>
      </trkpt>
      <trkpt lat="44.97949" lon="6.7524">
        <ele>2348.140137</ele>
        <time>2014-08-21T07:10:33Z</time>
      </trkpt>
      <trkpt lat="44.97948" lon="6.75236">
        <ele>2348.459961</ele>
        <time>2014-08-21T07:10:40Z</time>
      </trkpt>
      <trkpt lat="44.97945" lon="6.75235">
        <ele>2348.599854</ele>
        <time>2014-08-21T07:10:53Z</time>
      </trkpt>
      <trkpt lat="44.97947" lon="6.75234">
        <ele>2348.870117</ele>
        <time>2014-08-21T07:11:12Z</time>
      </trkpt>
      <trkpt lat="44.97946" lon="6.75231">
        <ele>2348.77002</ele>
        <time>2014-08-21T07:11:31Z</time>
      </trkpt>
      <trkpt lat="44.97945" lon="6.75226">
        <ele>2348.719971</ele>
        <time>2014-08-21T07:11:39Z</time>
      </trkpt>
      <trkpt lat="44.97946" lon="6.75227">
        <ele>2348.610107</ele>
        <time>2014-08-21T07:11:55Z</time>
      </trkpt>
      <trkpt lat="44.97948" lon="6.75232">
        <ele>2348.870117</ele>
        <time>2014-08-21T07:12:11Z</time>
      </trkpt>
      <trkpt lat="44.97945" lon="6.75229">
        <ele>2348.870117</ele>
        <time>2014-08-21T07:12:26Z</time>
      </trkpt>
      <trkpt lat="44.97942" lon="6.7522">
        <ele>2349.169922</ele>
        <time>2014-08-21T07:12:36Z</time>
      </trkpt>
      <trkpt lat="44.97937" lon="6.75206">
        <ele>2350.380127</ele>
        <time>2014-08-21T07:12:47Z</time>
      </trkpt>
      <trkpt lat="44.97931" lon="6.75195">
        <ele>2352.080078</ele>
        <time>2014-08-21T07:12:59Z</time>
      </trkpt>
      <trkpt lat="44.97928" lon="6.75187">
        <ele>2353.320068</ele>
        <time>2014-08-21T07:13:10Z</time>
      </trkpt>
      <trkpt lat="44.97922" lon="6.75178">
        <ele>2354.209961</ele>
        <time>2014-08-21T07:13:19Z</time>
      </trkpt>
      <trkpt lat="44.97917" lon="6.7517">
        <ele>2354.97998</ele>
        <time>2014-08-21T07:13:28Z</time>
      </trkpt>
      <trkpt lat="44.97914" lon="6.75165">
        <ele>2355.689941</ele>
        <time>2014-08-21T07:13:35Z</time>
      </trkpt>
      <trkpt lat="44.97906" lon="6.75156">
        <ele>2356.439941</ele>
        <time>2014-08-21T07:13:45Z</time>
      </trkpt>
      <trkpt lat="44.97901" lon="6.75152">
        <ele>2357.319824</ele>
        <time>2014-08-21T07:13:53Z</time>
      </trkpt>
      <trkpt lat="44.97895" lon="6.75141">
        <ele>2359.030029</ele>
        <time>2014-08-21T07:14:04Z</time>
      </trkpt>
      <trkpt lat="44.97891" lon="6.75134">
        <ele>2359.670166</ele>
        <time>2014-08-21T07:14:11Z</time>
      </trkpt>
      <trkpt lat="44.97883" lon="6.75125">
        <ele>2360.830078</ele>
        <time>2014-08-21T07:14:22Z</time>
      </trkpt>
      <trkpt lat="44.97878" lon="6.75116">
        <ele>2361.920166</ele>
        <time>2014-08-21T07:14:33Z</time>
      </trkpt>
      <trkpt lat="44.97874" lon="6.75105">
        <ele>2362.98999</ele>
        <time>2014-08-21T07:14:43Z</time>
      </trkpt>
      <trkpt lat="44.97869" lon="6.75096">
        <ele>2364.149902</ele>
        <time>2014-08-21T07:14:53Z</time>
      </trkpt>
      <trkpt lat="44.97866" lon="6.75086">
        <ele>2365.330078</ele>
        <time>2014-08-21T07:15:03Z</time>
      </trkpt>
      <trkpt lat="44.9786" lon="6.75074">
        <ele>2366.290039</ele>
        <time>2014-08-21T07:15:15Z</time>
      </trkpt>
      <trkpt lat="44.97855" lon="6.75064">
        <ele>2367.449951</ele>
        <time>2014-08-21T07:15:25Z</time>
      </trkpt>
      <trkpt lat="44.97848" lon="6.75061">
        <ele>2368.340088</ele>
        <time>2014-08-21T07:15:34Z</time>
      </trkpt>
      <trkpt lat="44.97835" lon="6.75054">
        <ele>2369.889893</ele>
        <time>2014-08-21T07:15:49Z</time>
      </trkpt>
      <trkpt lat="44.97827" lon="6.75037">
        <ele>2370.949951</ele>
        <time>2014-08-21T07:16:01Z</time>
      </trkpt>
      <trkpt lat="44.97823" lon="6.75037">
        <ele>2372.02002</ele>
        <time>2014-08-21T07:16:14Z</time>
      </trkpt>
      <trkpt lat="44.97819" lon="6.75033">
        <ele>2373.179932</ele>
        <time>2014-08-21T07:16:24Z</time>
      </trkpt>
      <trkpt lat="44.97813" lon="6.75023">
        <ele>2374.26001</ele>
        <time>2014-08-21T07:16:34Z</time>
      </trkpt>
      <trkpt lat="44.97809" lon="6.75015">
        <ele>2375.659912</ele>
        <time>2014-08-21T07:16:46Z</time>
      </trkpt>
      <trkpt lat="44.97806" lon="6.75005">
        <ele>2376.48999</ele>
        <time>2014-08-21T07:16:55Z</time>
      </trkpt>
      <trkpt lat="44.97803" lon="6.74996">
        <ele>2377.969971</ele>
        <time>2014-08-21T07:17:05Z</time>
      </trkpt>
      <trkpt lat="44.97802" lon="6.74986">
        <ele>2379.51001</ele>
        <time>2014-08-21T07:17:15Z</time>
      </trkpt>
      <trkpt lat="44.97797" lon="6.7498">
        <ele>2381.290039</ele>
        <time>2014-08-21T07:17:26Z</time>
      </trkpt>
      <trkpt lat="44.97792" lon="6.74973">
        <ele>2382.320068</ele>
        <time>2014-08-21T07:17:34Z</time>
      </trkpt>
      <trkpt lat="44.97791" lon="6.74964">
        <ele>2383.02002</ele>
        <time>2014-08-21T07:17:41Z</time>
      </trkpt>
      <trkpt lat="44.97791" lon="6.74959">
        <ele>2383.72998</ele>
        <time>2014-08-21T07:17:49Z</time>
      </trkpt>
      <trkpt lat="44.9779" lon="6.74949">
        <ele>2384.48999</ele>
        <time>2014-08-21T07:17:58Z</time>
      </trkpt>
      <trkpt lat="44.9779" lon="6.74942">
        <ele>2385.209961</ele>
        <time>2014-08-21T07:18:05Z</time>
      </trkpt>
      <trkpt lat="44.97793" lon="6.74932">
        <ele>2386.400146</ele>
        <time>2014-08-21T07:18:15Z</time>
      </trkpt>
      <trkpt lat="44.97796" lon="6.74925">
        <ele>2387.76001</ele>
        <time>2014-08-21T07:18:23Z</time>
      </trkpt>
      <trkpt lat="44.97798" lon="6.74915">
        <ele>2389.23999</ele>
        <time>2014-08-21T07:18:33Z</time>
      </trkpt>
      <trkpt lat="44.97798" lon="6.74911">
        <ele>2389.649902</ele>
        <time>2014-08-21T07:18:37Z</time>
      </trkpt>
      <trkpt lat="44.97801" lon="6.74898">
        <ele>2390.77002</ele>
        <time>2014-08-21T07:18:48Z</time>
      </trkpt>
      <trkpt lat="44.97804" lon="6.74885">
        <ele>2392.439941</ele>
        <time>2014-08-21T07:19:01Z</time>
      </trkpt>
      <trkpt lat="44.97806" lon="6.74875">
        <ele>2394.209961</ele>
        <time>2014-08-21T07:19:13Z</time>
      </trkpt>
      <trkpt lat="44.97807" lon="6.74864">
        <ele>2395.709961</ele>
        <time>2014-08-21T07:19:24Z</time>
      </trkpt>
      <trkpt lat="44.97804" lon="6.74856">
        <ele>2396.600098</ele>
        <time>2014-08-21T07:19:32Z</time>
      </trkpt>
      <trkpt lat="44.978" lon="6.74848">
        <ele>2397.719971</ele>
        <time>2014-08-21T07:19:42Z</time>
      </trkpt>
      <trkpt lat="44.97797" lon="6.74845">
        <ele>2399.140137</ele>
        <time>2014-08-21T07:19:50Z</time>
      </trkpt>
      <trkpt lat="44.97794" lon="6.74843">
        <ele>2399.719971</ele>
        <time>2014-08-21T07:20:12Z</time>
      </trkpt>
      <trkpt lat="44.97791" lon="6.74836">
        <ele>2400.669922</ele>
        <time>2014-08-21T07:20:22Z</time>
      </trkpt>
      <trkpt lat="44.97787" lon="6.74825">
        <ele>2401.459961</ele>
        <time>2014-08-21T07:20:31Z</time>
      </trkpt>
      <trkpt lat="44.97783" lon="6.74817">
        <ele>2402.600098</ele>
        <time>2014-08-21T07:20:39Z</time>
      </trkpt>
      <trkpt lat="44.97782" lon="6.7481">
        <ele>2403.880127</ele>
        <time>2014-08-21T07:20:47Z</time>
      </trkpt>
      <trkpt lat="44.97779" lon="6.74803">
        <ele>2405.350098</ele>
        <time>2014-08-21T07:20:56Z</time>
      </trkpt>
      <trkpt lat="44.97775" lon="6.74794">
        <ele>2406.699951</ele>
        <time>2014-08-21T07:21:06Z</time>
      </trkpt>
      <trkpt lat="44.97772" lon="6.74786">
        <ele>2407.929932</ele>
        <time>2014-08-21T07:21:15Z</time>
      </trkpt>
      <trkpt lat="44.97767" lon="6.74776">
        <ele>2409.639893</ele>
        <time>2014-08-21T07:21:25Z</time>
      </trkpt>
      <trkpt lat="44.97763" lon="6.74766">
        <ele>2411.070068</ele>
        <time>2014-08-21T07:21:37Z</time>
      </trkpt>
      <trkpt lat="44.97758" lon="6.74755">
        <ele>2412.300049</ele>
        <time>2014-08-21T07:21:49Z</time>
      </trkpt>
      <trkpt lat="44.97754" lon="6.74747">
        <ele>2413.570068</ele>
        <time>2014-08-21T07:22:00Z</time>
      </trkpt>
      <trkpt lat="44.97752" lon="6.74741">
        <ele>2414.77002</ele>
        <time>2014-08-21T07:22:09Z</time>
      </trkpt>
      <trkpt lat="44.97748" lon="6.74733">
        <ele>2416.050049</ele>
        <time>2014-08-21T07:22:18Z</time>
      </trkpt>
      <trkpt lat="44.97744" lon="6.74724">
        <ele>2417.610107</ele>
        <time>2014-08-21T07:22:29Z</time>
      </trkpt>
      <trkpt lat="44.97741" lon="6.74716">
        <ele>2419.189941</ele>
        <time>2014-08-21T07:22:38Z</time>
      </trkpt>
      <trkpt lat="44.97738" lon="6.74709">
        <ele>2420.72998</ele>
        <time>2014-08-21T07:22:49Z</time>
      </trkpt>
      <trkpt lat="44.97736" lon="6.74701">
        <ele>2422.119873</ele>
        <time>2014-08-21T07:23:01Z</time>
      </trkpt>
      <trkpt lat="44.97733" lon="6.74694">
        <ele>2423.599854</ele>
        <time>2014-08-21T07:23:11Z</time>
      </trkpt>
      <trkpt lat="44.9773" lon="6.74684">
        <ele>2425.070068</ele>
        <time>2014-08-21T07:23:23Z</time>
      </trkpt>
      <trkpt lat="44.97728" lon="6.74676">
        <ele>2426.179932</ele>
        <time>2014-08-21T07:23:31Z</time>
      </trkpt>
      <trkpt lat="44.97726" lon="6.74669">
        <ele>2427.370117</ele>
        <time>2014-08-21T07:23:40Z</time>
      </trkpt>
      <trkpt lat="44.97727" lon="6.74664">
        <ele>2428.370117</ele>
        <time>2014-08-21T07:23:49Z</time>
      </trkpt>
      <trkpt lat="44.97728" lon="6.74664">
        <ele>2429.150146</ele>
        <time>2014-08-21T07:24:24Z</time>
      </trkpt>
      <trkpt lat="44.97728" lon="6.74666">
        <ele>2429.880127</ele>
        <time>2014-08-21T07:25:12Z</time>
      </trkpt>
      <trkpt lat="44.97728" lon="6.74667">
        <ele>2430.02002</ele>
        <time>2014-08-21T07:25:42Z</time>
      </trkpt>
      <trkpt lat="44.97728" lon="6.74666">
        <ele>2430.169922</ele>
        <time>2014-08-21T07:26:19Z</time>
      </trkpt>
      <trkpt lat="44.97727" lon="6.74665">
        <ele>2430.130127</ele>
        <time>2014-08-21T07:27:04Z</time>
      </trkpt>
      <trkpt lat="44.97726" lon="6.74664">
        <ele>2429.949951</ele>
        <time>2014-08-21T07:27:52Z</time>
      </trkpt>
      <trkpt lat="44.97727" lon="6.74665">
        <ele>2430.5</ele>
        <time>2014-08-21T07:28:36Z</time>
      </trkpt>
      <trkpt lat="44.97727" lon="6.74663">
        <ele>2430.699951</ele>
        <time>2014-08-21T07:28:45Z</time>
      </trkpt>
      <trkpt lat="44.97729" lon="6.7466">
        <ele>2431.030029</ele>
        <time>2014-08-21T07:28:54Z</time>
      </trkpt>
      <trkpt lat="44.97728" lon="6.74653">
        <ele>2431.969971</ele>
        <time>2014-08-21T07:29:01Z</time>
      </trkpt>
      <trkpt lat="44.97729" lon="6.74644">
        <ele>2433.51001</ele>
        <time>2014-08-21T07:29:12Z</time>
      </trkpt>
      <trkpt lat="44.9773" lon="6.74636">
        <ele>2435.030029</ele>
        <time>2014-08-21T07:29:21Z</time>
      </trkpt>
      <trkpt lat="44.97733" lon="6.74625">
        <ele>2437.280029</ele>
        <time>2014-08-21T07:29:36Z</time>
      </trkpt>
      <trkpt lat="44.97734" lon="6.74618">
        <ele>2438.459961</ele>
        <time>2014-08-21T07:29:45Z</time>
      </trkpt>
      <trkpt lat="44.97737" lon="6.74612">
        <ele>2440.050049</ele>
        <time>2014-08-21T07:29:55Z</time>
      </trkpt>
      <trkpt lat="44.97741" lon="6.74604">
        <ele>2441.939941</ele>
        <time>2014-08-21T07:30:09Z</time>
      </trkpt>
      <trkpt lat="44.97746" lon="6.74598">
        <ele>2442.780029</ele>
        <time>2014-08-21T07:30:19Z</time>
      </trkpt>
      <trkpt lat="44.97748" lon="6.74592">
        <ele>2443.839844</ele>
        <time>2014-08-21T07:30:29Z</time>
      </trkpt>
      <trkpt lat="44.97752" lon="6.74583">
        <ele>2445.209961</ele>
        <time>2014-08-21T07:30:40Z</time>
      </trkpt>
      <trkpt lat="44.97753" lon="6.74572">
        <ele>2446.330078</ele>
        <time>2014-08-21T07:30:51Z</time>
      </trkpt>
      <trkpt lat="44.97756" lon="6.74563">
        <ele>2448.199951</ele>
        <time>2014-08-21T07:31:03Z</time>
      </trkpt>
      <trkpt lat="44.97758" lon="6.74555">
        <ele>2449.51001</ele>
        <time>2014-08-21T07:31:11Z</time>
      </trkpt>
      <trkpt lat="44.9776" lon="6.74548">
        <ele>2450.790039</ele>
        <time>2014-08-21T07:31:21Z</time>
      </trkpt>
      <trkpt lat="44.97763" lon="6.74538">
        <ele>2452.26001</ele>
        <time>2014-08-21T07:31:32Z</time>
      </trkpt>
      <trkpt lat="44.97766" lon="6.74528">
        <ele>2453.73999</ele>
        <time>2014-08-21T07:31:43Z</time>
      </trkpt>
      <trkpt lat="44.97769" lon="6.74521">
        <ele>2455.080078</ele>
        <time>2014-08-21T07:31:53Z</time>
      </trkpt>
      <trkpt lat="44.97773" lon="6.74513">
        <ele>2456.369873</ele>
        <time>2014-08-21T07:32:05Z</time>
      </trkpt>
      <trkpt lat="44.97777" lon="6.74506">
        <ele>2457.820068</ele>
        <time>2014-08-21T07:32:16Z</time>
      </trkpt>
      <trkpt lat="44.97781" lon="6.745">
        <ele>2459.540039</ele>
        <time>2014-08-21T07:32:28Z</time>
      </trkpt>
      <trkpt lat="44.97782" lon="6.74507">
        <ele>2460.459961</ele>
        <time>2014-08-21T07:32:37Z</time>
      </trkpt>
      <trkpt lat="44.97781" lon="6.7451">
        <ele>2460.580078</ele>
        <time>2014-08-21T07:32:59Z</time>
      </trkpt>
      <trkpt lat="44.97781" lon="6.74511">
        <ele>2460.630127</ele>
        <time>2014-08-21T07:33:16Z</time>
      </trkpt>
      <trkpt lat="44.97781" lon="6.74511">
        <ele>2460.449951</ele>
        <time>2014-08-21T07:33:41Z</time>
      </trkpt>
      <trkpt lat="44.97781" lon="6.74512">
        <ele>2460.350098</ele>
        <time>2014-08-21T07:33:51Z</time>
      </trkpt>
      <trkpt lat="44.9778" lon="6.7452">
        <ele>2460.410156</ele>
        <time>2014-08-21T07:33:57Z</time>
      </trkpt>
      <trkpt lat="44.97779" lon="6.74537">
        <ele>2460.530029</ele>
        <time>2014-08-21T07:34:07Z</time>
      </trkpt>
      <trkpt lat="44.9778" lon="6.74544">
        <ele>2460.830078</ele>
        <time>2014-08-21T07:34:12Z</time>
      </trkpt>
      <trkpt lat="44.97783" lon="6.74545">
        <ele>2461.030029</ele>
        <time>2014-08-21T07:34:14Z</time>
      </trkpt>
      <trkpt lat="44.97787" lon="6.74547">
        <ele>2461.48999</ele>
        <time>2014-08-21T07:34:22Z</time>
      </trkpt>
      <trkpt lat="44.97787" lon="6.74548">
        <ele>2461.560059</ele>
        <time>2014-08-21T07:34:24Z</time>
      </trkpt>
      <trkpt lat="44.97788" lon="6.74554">
        <ele>2461.849854</ele>
        <time>2014-08-21T07:34:28Z</time>
      </trkpt>
      <trkpt lat="44.9779" lon="6.74569">
        <ele>2462.610107</ele>
        <time>2014-08-21T07:34:39Z</time>
      </trkpt>
      <trkpt lat="44.97793" lon="6.74581">
        <ele>2463.52002</ele>
        <time>2014-08-21T07:34:48Z</time>
      </trkpt>
      <trkpt lat="44.97795" lon="6.74591">
        <ele>2464.309814</ele>
        <time>2014-08-21T07:34:56Z</time>
      </trkpt>
      <trkpt lat="44.97797" lon="6.74603">
        <ele>2465.290039</ele>
        <time>2014-08-21T07:35:06Z</time>
      </trkpt>
      <trkpt lat="44.97803" lon="6.74606">
        <ele>2466.419922</ele>
        <time>2014-08-21T07:35:14Z</time>
      </trkpt>
      <trkpt lat="44.97805" lon="6.74598">
        <ele>2467.389893</ele>
        <time>2014-08-21T07:35:21Z</time>
      </trkpt>
      <trkpt lat="44.97806" lon="6.7459">
        <ele>2468.51001</ele>
        <time>2014-08-21T07:35:28Z</time>
      </trkpt>
      <trkpt lat="44.97806" lon="6.7458">
        <ele>2469.73999</ele>
        <time>2014-08-21T07:35:37Z</time>
      </trkpt>
      <trkpt lat="44.97808" lon="6.74569">
        <ele>2471.280029</ele>
        <time>2014-08-21T07:35:48Z</time>
      </trkpt>
      <trkpt lat="44.97809" lon="6.74557">
        <ele>2472.72998</ele>
        <time>2014-08-21T07:36:01Z</time>
      </trkpt>
      <trkpt lat="44.9781" lon="6.7455">
        <ele>2473.330078</ele>
        <time>2014-08-21T07:36:08Z</time>
      </trkpt>
      <trkpt lat="44.97813" lon="6.7454">
        <ele>2474.679932</ele>
        <time>2014-08-21T07:36:19Z</time>
      </trkpt>
      <trkpt lat="44.97815" lon="6.74527">
        <ele>2476.189941</ele>
        <time>2014-08-21T07:36:32Z</time>
      </trkpt>
      <trkpt lat="44.97817" lon="6.74521">
        <ele>2477</ele>
        <time>2014-08-21T07:36:40Z</time>
      </trkpt>
      <trkpt lat="44.97818" lon="6.74513">
        <ele>2478.300049</ele>
        <time>2014-08-21T07:36:50Z</time>
      </trkpt>
      <trkpt lat="44.97818" lon="6.7451">
        <ele>2479.159912</ele>
        <time>2014-08-21T07:37:10Z</time>
      </trkpt>
      <trkpt lat="44.9782" lon="6.74501">
        <ele>2479.880127</ele>
        <time>2014-08-21T07:37:19Z</time>
      </trkpt>
      <trkpt lat="44.97823" lon="6.74492">
        <ele>2481.130127</ele>
        <time>2014-08-21T07:37:29Z</time>
      </trkpt>
      <trkpt lat="44.97824" lon="6.74488">
        <ele>2481.650146</ele>
        <time>2014-08-21T07:37:33Z</time>
      </trkpt>
      <trkpt lat="44.97827" lon="6.74482">
        <ele>2482.359863</ele>
        <time>2014-08-21T07:37:41Z</time>
      </trkpt>
      <trkpt lat="44.97828" lon="6.74473">
        <ele>2484.040039</ele>
        <time>2014-08-21T07:37:52Z</time>
      </trkpt>
      <trkpt lat="44.97829" lon="6.7448">
        <ele>2484.599854</ele>
        <time>2014-08-21T07:38:00Z</time>
      </trkpt>
      <trkpt lat="44.97829" lon="6.7449">
        <ele>2484.790039</ele>
        <time>2014-08-21T07:38:08Z</time>
      </trkpt>
      <trkpt lat="44.97829" lon="6.74501">
        <ele>2485.219971</ele>
        <time>2014-08-21T07:38:16Z</time>
      </trkpt>
      <trkpt lat="44.97828" lon="6.74503">
        <ele>2485.26001</ele>
        <time>2014-08-21T07:38:17Z</time>
      </trkpt>
      <trkpt lat="44.97828" lon="6.74515">
        <ele>2485.689941</ele>
        <time>2014-08-21T07:38:25Z</time>
      </trkpt>
      <trkpt lat="44.97828" lon="6.7453">
        <ele>2485.830078</ele>
        <time>2014-08-21T07:38:34Z</time>
      </trkpt>
      <trkpt lat="44.97832" lon="6.74542">
        <ele>2486.069824</ele>
        <time>2014-08-21T07:38:43Z</time>
      </trkpt>
      <trkpt lat="44.97835" lon="6.74547">
        <ele>2486.629883</ele>
        <time>2014-08-21T07:38:49Z</time>
      </trkpt>
      <trkpt lat="44.9784" lon="6.74555">
        <ele>2487.189941</ele>
        <time>2014-08-21T07:38:57Z</time>
      </trkpt>
      <trkpt lat="44.97848" lon="6.74561">
        <ele>2487.830078</ele>
        <time>2014-08-21T07:39:06Z</time>
      </trkpt>
      <trkpt lat="44.97848" lon="6.74554">
        <ele>2488.22998</ele>
        <time>2014-08-21T07:39:13Z</time>
      </trkpt>
      <trkpt lat="44.97848" lon="6.74543">
        <ele>2489.959961</ele>
        <time>2014-08-21T07:39:24Z</time>
      </trkpt>
      <trkpt lat="44.97847" lon="6.74535">
        <ele>2492.840088</ele>
        <time>2014-08-21T07:39:35Z</time>
      </trkpt>
      <trkpt lat="44.97845" lon="6.74536">
        <ele>2493.280029</ele>
        <time>2014-08-21T07:39:59Z</time>
      </trkpt>
      <trkpt lat="44.97846" lon="6.74532">
        <ele>2493.440186</ele>
        <time>2014-08-21T07:40:19Z</time>
      </trkpt>
      <trkpt lat="44.97847" lon="6.74524">
        <ele>2494.300049</ele>
        <time>2014-08-21T07:40:26Z</time>
      </trkpt>
      <trkpt lat="44.9785" lon="6.74514">
        <ele>2496.600098</ele>
        <time>2014-08-21T07:40:40Z</time>
      </trkpt>
      <trkpt lat="44.97852" lon="6.74509">
        <ele>2498.060059</ele>
        <time>2014-08-21T07:40:49Z</time>
      </trkpt>
      <trkpt lat="44.97856" lon="6.74502">
        <ele>2499.910156</ele>
        <time>2014-08-21T07:41:00Z</time>
      </trkpt>
      <trkpt lat="44.97857" lon="6.74497">
        <ele>2501.420166</ele>
        <time>2014-08-21T07:41:10Z</time>
      </trkpt>
      <trkpt lat="44.97858" lon="6.74496">
        <ele>2501.909912</ele>
        <time>2014-08-21T07:41:24Z</time>
      </trkpt>
      <trkpt lat="44.97858" lon="6.74497">
        <ele>2501.329834</ele>
        <time>2014-08-21T07:41:43Z</time>
      </trkpt>
      <trkpt lat="44.97857" lon="6.74497">
        <ele>2501.560059</ele>
        <time>2014-08-21T07:41:48Z</time>
      </trkpt>
      <trkpt lat="44.97859" lon="6.74497">
        <ele>2501.73999</ele>
        <time>2014-08-21T07:41:54Z</time>
      </trkpt>
      <trkpt lat="44.97861" lon="6.74494">
        <ele>2502.22998</ele>
        <time>2014-08-21T07:42:00Z</time>
      </trkpt>
      <trkpt lat="44.97863" lon="6.7449">
        <ele>2503.570068</ele>
        <time>2014-08-21T07:42:08Z</time>
      </trkpt>
      <trkpt lat="44.97865" lon="6.74487">
        <ele>2504.740234</ele>
        <time>2014-08-21T07:42:17Z</time>
      </trkpt>
      <trkpt lat="44.97867" lon="6.74482">
        <ele>2506.139893</ele>
        <time>2014-08-21T07:42:27Z</time>
      </trkpt>
      <trkpt lat="44.97867" lon="6.74485">
        <ele>2507.140137</ele>
        <time>2014-08-21T07:42:35Z</time>
      </trkpt>
      <trkpt lat="44.97868" lon="6.7449">
        <ele>2507.900146</ele>
        <time>2014-08-21T07:42:45Z</time>
      </trkpt>
      <trkpt lat="44.97871" lon="6.74498">
        <ele>2508.550049</ele>
        <time>2014-08-21T07:42:54Z</time>
      </trkpt>
      <trkpt lat="44.97876" lon="6.74506">
        <ele>2509.619873</ele>
        <time>2014-08-21T07:43:04Z</time>
      </trkpt>
      <trkpt lat="44.9788" lon="6.74512">
        <ele>2510.810059</ele>
        <time>2014-08-21T07:43:14Z</time>
      </trkpt>
      <trkpt lat="44.97883" lon="6.74517">
        <ele>2511.969971</ele>
        <time>2014-08-21T07:43:23Z</time>
      </trkpt>
      <trkpt lat="44.97888" lon="6.74523">
        <ele>2512.880127</ele>
        <time>2014-08-21T07:43:32Z</time>
      </trkpt>
      <trkpt lat="44.9789" lon="6.74526">
        <ele>2513.109863</ele>
        <time>2014-08-21T07:43:35Z</time>
      </trkpt>
      <trkpt lat="44.97895" lon="6.7453">
        <ele>2513.810059</ele>
        <time>2014-08-21T07:43:43Z</time>
      </trkpt>
      <trkpt lat="44.97895" lon="6.74525">
        <ele>2514.449951</ele>
        <time>2014-08-21T07:43:49Z</time>
      </trkpt>
      <trkpt lat="44.97893" lon="6.74515">
        <ele>2515.829834</ele>
        <time>2014-08-21T07:43:59Z</time>
      </trkpt>
      <trkpt lat="44.97893" lon="6.74508">
        <ele>2517.149902</ele>
        <time>2014-08-21T07:44:09Z</time>
      </trkpt>
      <trkpt lat="44.97893" lon="6.74498">
        <ele>2519.02002</ele>
        <time>2014-08-21T07:44:20Z</time>
      </trkpt>
      <trkpt lat="44.97893" lon="6.74488">
        <ele>2520.609863</ele>
        <time>2014-08-21T07:44:31Z</time>
      </trkpt>
      <trkpt lat="44.97893" lon="6.74479">
        <ele>2521.630127</ele>
        <time>2014-08-21T07:44:40Z</time>
      </trkpt>
      <trkpt lat="44.97894" lon="6.74471">
        <ele>2522.389893</ele>
        <time>2014-08-21T07:44:49Z</time>
      </trkpt>
      <trkpt lat="44.97894" lon="6.74467">
        <ele>2523.399902</ele>
        <time>2014-08-21T07:44:59Z</time>
      </trkpt>
      <trkpt lat="44.97895" lon="6.74467">
        <ele>2523.469971</ele>
        <time>2014-08-21T07:45:24Z</time>
      </trkpt>
      <trkpt lat="44.97895" lon="6.74463">
        <ele>2523.629883</ele>
        <time>2014-08-21T07:45:31Z</time>
      </trkpt>
      <trkpt lat="44.97896" lon="6.74454">
        <ele>2524.830078</ele>
        <time>2014-08-21T07:45:40Z</time>
      </trkpt>
      <trkpt lat="44.97897" lon="6.74445">
        <ele>2526.429932</ele>
        <time>2014-08-21T07:45:51Z</time>
      </trkpt>
      <trkpt lat="44.97897" lon="6.74438">
        <ele>2527.659912</ele>
        <time>2014-08-21T07:46:00Z</time>
      </trkpt>
      <trkpt lat="44.97898" lon="6.7443">
        <ele>2529.27002</ele>
        <time>2014-08-21T07:46:11Z</time>
      </trkpt>
      <trkpt lat="44.97899" lon="6.74424">
        <ele>2531</ele>
        <time>2014-08-21T07:46:22Z</time>
      </trkpt>
      <trkpt lat="44.97899" lon="6.74418">
        <ele>2531.950195</ele>
        <time>2014-08-21T07:46:30Z</time>
      </trkpt>
      <trkpt lat="44.979" lon="6.74415">
        <ele>2532.790039</ele>
        <time>2014-08-21T07:46:38Z</time>
      </trkpt>
      <trkpt lat="44.97901" lon="6.74409">
        <ele>2534.52002</ele>
        <time>2014-08-21T07:46:48Z</time>
      </trkpt>
      <trkpt lat="44.97902" lon="6.74405">
        <ele>2535.839844</ele>
        <time>2014-08-21T07:46:56Z</time>
      </trkpt>
      <trkpt lat="44.97902" lon="6.74401">
        <ele>2536.530029</ele>
        <time>2014-08-21T07:47:03Z</time>
      </trkpt>
      <trkpt lat="44.97903" lon="6.74394">
        <ele>2537.420166</ele>
        <time>2014-08-21T07:47:12Z</time>
      </trkpt>
      <trkpt lat="44.97904" lon="6.74389">
        <ele>2538.969971</ele>
        <time>2014-08-21T07:47:22Z</time>
      </trkpt>
      <trkpt lat="44.97904" lon="6.74383">
        <ele>2540.179932</ele>
        <time>2014-08-21T07:47:32Z</time>
      </trkpt>
      <trkpt lat="44.97905" lon="6.74377">
        <ele>2541.550049</ele>
        <time>2014-08-21T07:47:42Z</time>
      </trkpt>
      <trkpt lat="44.97905" lon="6.7437">
        <ele>2543.350098</ele>
        <time>2014-08-21T07:47:52Z</time>
      </trkpt>
      <trkpt lat="44.97906" lon="6.74362">
        <ele>2544.97998</ele>
        <time>2014-08-21T07:48:04Z</time>
      </trkpt>
      <trkpt lat="44.97907" lon="6.74356">
        <ele>2546.469971</ele>
        <time>2014-08-21T07:48:13Z</time>
      </trkpt>
      <trkpt lat="44.97908" lon="6.74349">
        <ele>2547.590088</ele>
        <time>2014-08-21T07:48:21Z</time>
      </trkpt>
      <trkpt lat="44.97909" lon="6.74343">
        <ele>2548.879883</ele>
        <time>2014-08-21T07:48:29Z</time>
      </trkpt>
      <trkpt lat="44.97911" lon="6.74338">
        <ele>2550.119873</ele>
        <time>2014-08-21T07:48:38Z</time>
      </trkpt>
      <trkpt lat="44.97912" lon="6.74341">
        <ele>2551.01001</ele>
        <time>2014-08-21T07:48:45Z</time>
      </trkpt>
      <trkpt lat="44.97912" lon="6.74342">
        <ele>2551.75</ele>
        <time>2014-08-21T07:48:58Z</time>
      </trkpt>
      <trkpt lat="44.97911" lon="6.74345">
        <ele>2551.689941</ele>
        <time>2014-08-21T07:49:11Z</time>
      </trkpt>
      <trkpt lat="44.97912" lon="6.74347">
        <ele>2551.790039</ele>
        <time>2014-08-21T07:49:13Z</time>
      </trkpt>
      <trkpt lat="44.97914" lon="6.74358">
        <ele>2552.199951</ele>
        <time>2014-08-21T07:49:22Z</time>
      </trkpt>
      <trkpt lat="44.97919" lon="6.74369">
        <ele>2553.529785</ele>
        <time>2014-08-21T07:49:33Z</time>
      </trkpt>
      <trkpt lat="44.97923" lon="6.74377">
        <ele>2554.619873</ele>
        <time>2014-08-21T07:49:44Z</time>
      </trkpt>
      <trkpt lat="44.97928" lon="6.74386">
        <ele>2556.830078</ele>
        <time>2014-08-21T07:49:56Z</time>
      </trkpt>
      <trkpt lat="44.97932" lon="6.74392">
        <ele>2557.869873</ele>
        <time>2014-08-21T07:50:05Z</time>
      </trkpt>
      <trkpt lat="44.97936" lon="6.74397">
        <ele>2559.030029</ele>
        <time>2014-08-21T07:50:14Z</time>
      </trkpt>
      <trkpt lat="44.97935" lon="6.74396">
        <ele>2560</ele>
        <time>2014-08-21T07:50:25Z</time>
      </trkpt>
      <trkpt lat="44.97935" lon="6.74397">
        <ele>2560.48999</ele>
        <time>2014-08-21T07:50:40Z</time>
      </trkpt>
      <trkpt lat="44.97941" lon="6.74406">
        <ele>2561.109863</ele>
        <time>2014-08-21T07:50:50Z</time>
      </trkpt>
      <trkpt lat="44.97946" lon="6.74413">
        <ele>2562.030029</ele>
        <time>2014-08-21T07:50:59Z</time>
      </trkpt>
      <trkpt lat="44.97951" lon="6.74416">
        <ele>2563.170166</ele>
        <time>2014-08-21T07:51:07Z</time>
      </trkpt>
      <trkpt lat="44.97956" lon="6.74422">
        <ele>2564.489746</ele>
        <time>2014-08-21T07:51:17Z</time>
      </trkpt>
      <trkpt lat="44.9796" lon="6.74426">
        <ele>2565.600098</ele>
        <time>2014-08-21T07:51:26Z</time>
      </trkpt>
      <trkpt lat="44.97962" lon="6.74433">
        <ele>2566.319824</ele>
        <time>2014-08-21T07:51:32Z</time>
      </trkpt>
      <trkpt lat="44.97967" lon="6.74441">
        <ele>2566.949951</ele>
        <time>2014-08-21T07:51:41Z</time>
      </trkpt>
      <trkpt lat="44.97973" lon="6.74443">
        <ele>2568.150146</ele>
        <time>2014-08-21T07:51:50Z</time>
      </trkpt>
      <trkpt lat="44.97976" lon="6.74443">
        <ele>2569.090088</ele>
        <time>2014-08-21T07:51:58Z</time>
      </trkpt>
      <trkpt lat="44.97976" lon="6.74443">
        <ele>2569.659912</ele>
        <time>2014-08-21T07:52:08Z</time>
      </trkpt>
      <trkpt lat="44.97974" lon="6.74444">
        <ele>2570.200195</ele>
        <time>2014-08-21T07:52:42Z</time>
      </trkpt>
      <trkpt lat="44.97973" lon="6.7444">
        <ele>2570.359863</ele>
        <time>2014-08-21T07:53:06Z</time>
      </trkpt>
      <trkpt lat="44.97971" lon="6.74437">
        <ele>2570.659912</ele>
        <time>2014-08-21T07:53:10Z</time>
      </trkpt>
      <trkpt lat="44.9797" lon="6.74429">
        <ele>2571.550049</ele>
        <time>2014-08-21T07:53:19Z</time>
      </trkpt>
      <trkpt lat="44.97972" lon="6.74422">
        <ele>2573.189941</ele>
        <time>2014-08-21T07:53:29Z</time>
      </trkpt>
      <trkpt lat="44.97969" lon="6.74409">
        <ele>2575.01001</ele>
        <time>2014-08-21T07:53:43Z</time>
      </trkpt>
      <trkpt lat="44.97965" lon="6.74399">
        <ele>2575.940186</ele>
        <time>2014-08-21T07:53:52Z</time>
      </trkpt>
      <trkpt lat="44.97962" lon="6.74387">
        <ele>2576.869873</ele>
        <time>2014-08-21T07:54:05Z</time>
      </trkpt>
      <trkpt lat="44.97962" lon="6.74381">
        <ele>2578.47998</ele>
        <time>2014-08-21T07:54:14Z</time>
      </trkpt>
      <trkpt lat="44.97964" lon="6.74382">
        <ele>2578.910156</ele>
        <time>2014-08-21T07:54:41Z</time>
      </trkpt>
      <trkpt lat="44.97967" lon="6.74386">
        <ele>2579.130127</ele>
        <time>2014-08-21T07:55:07Z</time>
      </trkpt>
      <trkpt lat="44.97964" lon="6.74383">
        <ele>2579.359863</ele>
        <time>2014-08-21T07:55:21Z</time>
      </trkpt>
      <trkpt lat="44.97964" lon="6.74375">
        <ele>2580.220215</ele>
        <time>2014-08-21T07:55:31Z</time>
      </trkpt>
      <trkpt lat="44.97962" lon="6.74366">
        <ele>2581.399902</ele>
        <time>2014-08-21T07:55:41Z</time>
      </trkpt>
      <trkpt lat="44.97962" lon="6.74359">
        <ele>2582.720215</ele>
        <time>2014-08-21T07:55:51Z</time>
      </trkpt>
      <trkpt lat="44.97963" lon="6.74351">
        <ele>2583.919922</ele>
        <time>2014-08-21T07:56:01Z</time>
      </trkpt>
      <trkpt lat="44.97963" lon="6.74343">
        <ele>2585.01001</ele>
        <time>2014-08-21T07:56:10Z</time>
      </trkpt>
      <trkpt lat="44.97964" lon="6.74334">
        <ele>2586.380127</ele>
        <time>2014-08-21T07:56:20Z</time>
      </trkpt>
      <trkpt lat="44.97965" lon="6.74326">
        <ele>2587.590088</ele>
        <time>2014-08-21T07:56:29Z</time>
      </trkpt>
      <trkpt lat="44.97966" lon="6.74319">
        <ele>2588.600098</ele>
        <time>2014-08-21T07:56:39Z</time>
      </trkpt>
      <trkpt lat="44.97967" lon="6.74308">
        <ele>2590.190186</ele>
        <time>2014-08-21T07:56:50Z</time>
      </trkpt>
      <trkpt lat="44.97968" lon="6.74302">
        <ele>2591.48999</ele>
        <time>2014-08-21T07:56:58Z</time>
      </trkpt>
      <trkpt lat="44.97967" lon="6.74294">
        <ele>2592.429932</ele>
        <time>2014-08-21T07:57:07Z</time>
      </trkpt>
      <trkpt lat="44.97967" lon="6.74289">
        <ele>2592.72998</ele>
        <time>2014-08-21T07:57:15Z</time>
      </trkpt>
      <trkpt lat="44.97967" lon="6.74288">
        <ele>2593.089844</ele>
        <time>2014-08-21T07:57:24Z</time>
      </trkpt>
      <trkpt lat="44.97965" lon="6.74282">
        <ele>2593.25</ele>
        <time>2014-08-21T07:57:32Z</time>
      </trkpt>
      <trkpt lat="44.97967" lon="6.74286">
        <ele>2593.73999</ele>
        <time>2014-08-21T07:57:39Z</time>
      </trkpt>
      <trkpt lat="44.97967" lon="6.74287">
        <ele>2593.800049</ele>
        <time>2014-08-21T07:57:40Z</time>
      </trkpt>
      <trkpt lat="44.97971" lon="6.74296">
        <ele>2594.75</ele>
        <time>2014-08-21T07:57:49Z</time>
      </trkpt>
      <trkpt lat="44.97972" lon="6.74302">
        <ele>2595.280029</ele>
        <time>2014-08-21T07:57:56Z</time>
      </trkpt>
      <trkpt lat="44.97971" lon="6.74316">
        <ele>2595.949951</ele>
        <time>2014-08-21T07:58:05Z</time>
      </trkpt>
      <trkpt lat="44.97973" lon="6.74328">
        <ele>2596.070068</ele>
        <time>2014-08-21T07:58:15Z</time>
      </trkpt>
      <trkpt lat="44.97977" lon="6.74339">
        <ele>2596.550049</ele>
        <time>2014-08-21T07:58:25Z</time>
      </trkpt>
      <trkpt lat="44.9798" lon="6.74351">
        <ele>2597.449951</ele>
        <time>2014-08-21T07:58:35Z</time>
      </trkpt>
      <trkpt lat="44.97985" lon="6.74359">
        <ele>2597.419922</ele>
        <time>2014-08-21T07:58:44Z</time>
      </trkpt>
      <trkpt lat="44.97988" lon="6.74364">
        <ele>2598.459961</ele>
        <time>2014-08-21T07:58:53Z</time>
      </trkpt>
      <trkpt lat="44.9799" lon="6.7436">
        <ele>2599.919922</ele>
        <time>2014-08-21T07:59:00Z</time>
      </trkpt>
      <trkpt lat="44.97989" lon="6.74355">
        <ele>2601.23999</ele>
        <time>2014-08-21T07:59:09Z</time>
      </trkpt>
      <trkpt lat="44.97988" lon="6.74355">
        <ele>2602.049805</ele>
        <time>2014-08-21T07:59:31Z</time>
      </trkpt>
      <trkpt lat="44.97988" lon="6.74349">
        <ele>2602.51001</ele>
        <time>2014-08-21T07:59:44Z</time>
      </trkpt>
      <trkpt lat="44.9799" lon="6.7434">
        <ele>2604.079834</ele>
        <time>2014-08-21T07:59:53Z</time>
      </trkpt>
      <trkpt lat="44.97991" lon="6.7433">
        <ele>2604.860107</ele>
        <time>2014-08-21T08:00:04Z</time>
      </trkpt>
      <trkpt lat="44.97991" lon="6.74318">
        <ele>2606.23999</ele>
        <time>2014-08-21T08:00:16Z</time>
      </trkpt>
      <trkpt lat="44.9799" lon="6.74316">
        <ele>2606.73999</ele>
        <time>2014-08-21T08:00:21Z</time>
      </trkpt>
      <trkpt lat="44.9799" lon="6.74315">
        <ele>2606.23999</ele>
        <time>2014-08-21T08:00:37Z</time>
      </trkpt>
      <trkpt lat="44.97988" lon="6.74314">
        <ele>2606.48999</ele>
        <time>2014-08-21T08:01:29Z</time>
      </trkpt>
      <trkpt lat="44.97987" lon="6.74313">
        <ele>2606.579834</ele>
        <time>2014-08-21T08:02:14Z</time>
      </trkpt>
      <trkpt lat="44.97987" lon="6.74314">
        <ele>2607.01001</ele>
        <time>2014-08-21T08:02:31Z</time>
      </trkpt>
      <trkpt lat="44.97988" lon="6.74315">
        <ele>2607.47998</ele>
        <time>2014-08-21T08:02:51Z</time>
      </trkpt>
      <trkpt lat="44.9799" lon="6.74313">
        <ele>2607.689941</ele>
        <time>2014-08-21T08:02:56Z</time>
      </trkpt>
      <trkpt lat="44.9799" lon="6.74309">
        <ele>2608.180176</ele>
        <time>2014-08-21T08:03:04Z</time>
      </trkpt>
      <trkpt lat="44.97992" lon="6.74301">
        <ele>2609</ele>
        <time>2014-08-21T08:03:14Z</time>
      </trkpt>
      <trkpt lat="44.97994" lon="6.74291">
        <ele>2610.189941</ele>
        <time>2014-08-21T08:03:24Z</time>
      </trkpt>
      <trkpt lat="44.97994" lon="6.7428">
        <ele>2611.349854</ele>
        <time>2014-08-21T08:03:35Z</time>
      </trkpt>
      <trkpt lat="44.97994" lon="6.74272">
        <ele>2612.300049</ele>
        <time>2014-08-21T08:03:42Z</time>
      </trkpt>
      <trkpt lat="44.97994" lon="6.74269">
        <ele>2612.659912</ele>
        <time>2014-08-21T08:03:46Z</time>
      </trkpt>
      <trkpt lat="44.97994" lon="6.74267">
        <ele>2613.02002</ele>
        <time>2014-08-21T08:03:52Z</time>
      </trkpt>
      <trkpt lat="44.97993" lon="6.74268">
        <ele>2612.870117</ele>
        <time>2014-08-21T08:04:14Z</time>
      </trkpt>
      <trkpt lat="44.97994" lon="6.74265">
        <ele>2613.290039</ele>
        <time>2014-08-21T08:04:21Z</time>
      </trkpt>
      <trkpt lat="44.97997" lon="6.7426">
        <ele>2614.190186</ele>
        <time>2014-08-21T08:04:31Z</time>
      </trkpt>
      <trkpt lat="44.98" lon="6.74254">
        <ele>2615.540039</ele>
        <time>2014-08-21T08:04:39Z</time>
      </trkpt>
      <trkpt lat="44.98002" lon="6.74248">
        <ele>2616.960205</ele>
        <time>2014-08-21T08:04:48Z</time>
      </trkpt>
      <trkpt lat="44.98006" lon="6.74242">
        <ele>2618.27002</ele>
        <time>2014-08-21T08:04:58Z</time>
      </trkpt>
      <trkpt lat="44.98009" lon="6.74241">
        <ele>2619.610107</ele>
        <time>2014-08-21T08:05:07Z</time>
      </trkpt>
      <trkpt lat="44.98009" lon="6.74246">
        <ele>2620.279785</ele>
        <time>2014-08-21T08:05:13Z</time>
      </trkpt>
      <trkpt lat="44.9801" lon="6.74254">
        <ele>2621.140137</ele>
        <time>2014-08-21T08:05:20Z</time>
      </trkpt>
      <trkpt lat="44.9801" lon="6.74264">
        <ele>2621.850098</ele>
        <time>2014-08-21T08:05:29Z</time>
      </trkpt>
      <trkpt lat="44.98009" lon="6.74274">
        <ele>2622.900146</ele>
        <time>2014-08-21T08:05:38Z</time>
      </trkpt>
      <trkpt lat="44.98012" lon="6.74288">
        <ele>2623.660156</ele>
        <time>2014-08-21T08:05:49Z</time>
      </trkpt>
      <trkpt lat="44.98014" lon="6.74301">
        <ele>2624.25</ele>
        <time>2014-08-21T08:05:59Z</time>
      </trkpt>
      <trkpt lat="44.98016" lon="6.74305">
        <ele>2624.5</ele>
        <time>2014-08-21T08:06:06Z</time>
      </trkpt>
      <trkpt lat="44.98019" lon="6.743">
        <ele>2625.959961</ele>
        <time>2014-08-21T08:06:16Z</time>
      </trkpt>
      <trkpt lat="44.9802" lon="6.74299">
        <ele>2627.279785</ele>
        <time>2014-08-21T08:06:27Z</time>
      </trkpt>
      <trkpt lat="44.98017" lon="6.74299">
        <ele>2626.859863</ele>
        <time>2014-08-21T08:06:51Z</time>
      </trkpt>
      <trkpt lat="44.98019" lon="6.74295">
        <ele>2627.309814</ele>
        <time>2014-08-21T08:07:09Z</time>
      </trkpt>
      <trkpt lat="44.98022" lon="6.74285">
        <ele>2629.070068</ele>
        <time>2014-08-21T08:07:20Z</time>
      </trkpt>
      <trkpt lat="44.98023" lon="6.74276">
        <ele>2630.109863</ele>
        <time>2014-08-21T08:07:29Z</time>
      </trkpt>
      <trkpt lat="44.98026" lon="6.7427">
        <ele>2631.510254</ele>
        <time>2014-08-21T08:07:37Z</time>
      </trkpt>
      <trkpt lat="44.98029" lon="6.74262">
        <ele>2632.849854</ele>
        <time>2014-08-21T08:07:47Z</time>
      </trkpt>
      <trkpt lat="44.98033" lon="6.74257">
        <ele>2634.189941</ele>
        <time>2014-08-21T08:07:57Z</time>
      </trkpt>
      <trkpt lat="44.98035" lon="6.74248">
        <ele>2635.690186</ele>
        <time>2014-08-21T08:08:06Z</time>
      </trkpt>
      <trkpt lat="44.98039" lon="6.74243">
        <ele>2637.390137</ele>
        <time>2014-08-21T08:08:17Z</time>
      </trkpt>
      <trkpt lat="44.98043" lon="6.74238">
        <ele>2638.709961</ele>
        <time>2014-08-21T08:08:27Z</time>
      </trkpt>
      <trkpt lat="44.98045" lon="6.74233">
        <ele>2639.560059</ele>
        <time>2014-08-21T08:08:33Z</time>
      </trkpt>
      <trkpt lat="44.98045" lon="6.74233">
        <ele>2640.490234</ele>
        <time>2014-08-21T08:08:44Z</time>
      </trkpt>
      <trkpt lat="44.98046" lon="6.74233">
        <ele>2640.5</ele>
        <time>2014-08-21T08:09:18Z</time>
      </trkpt>
      <trkpt lat="44.98049" lon="6.74226">
        <ele>2641.080078</ele>
        <time>2014-08-21T08:09:27Z</time>
      </trkpt>
      <trkpt lat="44.9805" lon="6.74223">
        <ele>2641.259766</ele>
        <time>2014-08-21T08:09:29Z</time>
      </trkpt>
      <trkpt lat="44.98053" lon="6.74213">
        <ele>2642.179932</ele>
        <time>2014-08-21T08:09:38Z</time>
      </trkpt>
      <trkpt lat="44.98056" lon="6.74205">
        <ele>2643.26001</ele>
        <time>2014-08-21T08:09:46Z</time>
      </trkpt>
      <trkpt lat="44.98058" lon="6.74203">
        <ele>2644.499756</ele>
        <time>2014-08-21T08:09:54Z</time>
      </trkpt>
      <trkpt lat="44.98059" lon="6.74206">
        <ele>2645.319824</ele>
        <time>2014-08-21T08:10:03Z</time>
      </trkpt>
      <trkpt lat="44.98063" lon="6.74202">
        <ele>2646.469971</ele>
        <time>2014-08-21T08:10:11Z</time>
      </trkpt>
      <trkpt lat="44.98065" lon="6.74199">
        <ele>2648.359863</ele>
        <time>2014-08-21T08:10:21Z</time>
      </trkpt>
      <trkpt lat="44.98065" lon="6.74199">
        <ele>2648.609863</ele>
        <time>2014-08-21T08:10:47Z</time>
      </trkpt>
      <trkpt lat="44.98067" lon="6.74195">
        <ele>2648.609863</ele>
        <time>2014-08-21T08:11:15Z</time>
      </trkpt>
      <trkpt lat="44.98069" lon="6.74191">
        <ele>2649.679932</ele>
        <time>2014-08-21T08:11:24Z</time>
      </trkpt>
      <trkpt lat="44.9807" lon="6.74194">
        <ele>2650.719971</ele>
        <time>2014-08-21T08:11:32Z</time>
      </trkpt>
      <trkpt lat="44.98072" lon="6.74197">
        <ele>2652.099854</ele>
        <time>2014-08-21T08:11:41Z</time>
      </trkpt>
      <trkpt lat="44.98075" lon="6.74194">
        <ele>2653.059814</ele>
        <time>2014-08-21T08:11:49Z</time>
      </trkpt>
      <trkpt lat="44.98075" lon="6.74195">
        <ele>2653.450195</ele>
        <time>2014-08-21T08:12:11Z</time>
      </trkpt>
      <trkpt lat="44.98077" lon="6.74197">
        <ele>2653.929932</ele>
        <time>2014-08-21T08:12:30Z</time>
      </trkpt>
      <trkpt lat="44.98081" lon="6.74193">
        <ele>2654.910156</ele>
        <time>2014-08-21T08:12:37Z</time>
      </trkpt>
      <trkpt lat="44.98085" lon="6.74188">
        <ele>2656.75</ele>
        <time>2014-08-21T08:12:51Z</time>
      </trkpt>
      <trkpt lat="44.98084" lon="6.74195">
        <ele>2657.809814</ele>
        <time>2014-08-21T08:12:57Z</time>
      </trkpt>
      <trkpt lat="44.98085" lon="6.74205">
        <ele>2658.429932</ele>
        <time>2014-08-21T08:13:06Z</time>
      </trkpt>
      <trkpt lat="44.98088" lon="6.7421">
        <ele>2659.290039</ele>
        <time>2014-08-21T08:13:16Z</time>
      </trkpt>
      <trkpt lat="44.98091" lon="6.74204">
        <ele>2661.049805</ele>
        <time>2014-08-21T08:13:25Z</time>
      </trkpt>
      <trkpt lat="44.98091" lon="6.74202">
        <ele>2661.360107</ele>
        <time>2014-08-21T08:13:27Z</time>
      </trkpt>
      <trkpt lat="44.98092" lon="6.74194">
        <ele>2662.160156</ele>
        <time>2014-08-21T08:13:35Z</time>
      </trkpt>
      <trkpt lat="44.98096" lon="6.74186">
        <ele>2663.350098</ele>
        <time>2014-08-21T08:13:46Z</time>
      </trkpt>
      <trkpt lat="44.981" lon="6.74181">
        <ele>2664.099854</ele>
        <time>2014-08-21T08:13:54Z</time>
      </trkpt>
      <trkpt lat="44.98104" lon="6.74178">
        <ele>2665.199951</ele>
        <time>2014-08-21T08:14:01Z</time>
      </trkpt>
      <trkpt lat="44.98108" lon="6.74173">
        <ele>2665.870117</ele>
        <time>2014-08-21T08:14:09Z</time>
      </trkpt>
      <trkpt lat="44.98111" lon="6.74169">
        <ele>2666.580078</ele>
        <time>2014-08-21T08:14:18Z</time>
      </trkpt>
      <trkpt lat="44.98114" lon="6.74179">
        <ele>2667.709961</ele>
        <time>2014-08-21T08:14:28Z</time>
      </trkpt>
      <trkpt lat="44.98115" lon="6.74188">
        <ele>2668.649902</ele>
        <time>2014-08-21T08:14:37Z</time>
      </trkpt>
      <trkpt lat="44.98112" lon="6.74196">
        <ele>2670.409912</ele>
        <time>2014-08-21T08:14:46Z</time>
      </trkpt>
      <trkpt lat="44.98114" lon="6.74196">
        <ele>2672.199951</ele>
        <time>2014-08-21T08:14:56Z</time>
      </trkpt>
      <trkpt lat="44.98115" lon="6.74196">
        <ele>2672.290039</ele>
        <time>2014-08-21T08:15:18Z</time>
      </trkpt>
      <trkpt lat="44.98116" lon="6.74196">
        <ele>2672.309814</ele>
        <time>2014-08-21T08:15:42Z</time>
      </trkpt>
      <trkpt lat="44.98122" lon="6.74186">
        <ele>2672.98999</ele>
        <time>2014-08-21T08:15:51Z</time>
      </trkpt>
      <trkpt lat="44.98126" lon="6.7418">
        <ele>2673.869873</ele>
        <time>2014-08-21T08:15:58Z</time>
      </trkpt>
      <trkpt lat="44.98129" lon="6.74171">
        <ele>2674.719971</ele>
        <time>2014-08-21T08:16:06Z</time>
      </trkpt>
      <trkpt lat="44.98131" lon="6.74165">
        <ele>2675.01001</ele>
        <time>2014-08-21T08:16:13Z</time>
      </trkpt>
      <trkpt lat="44.98134" lon="6.74159">
        <ele>2676.5</ele>
        <time>2014-08-21T08:16:22Z</time>
      </trkpt>
      <trkpt lat="44.98138" lon="6.74156">
        <ele>2678.090088</ele>
        <time>2014-08-21T08:16:30Z</time>
      </trkpt>
      <trkpt lat="44.98141" lon="6.74155">
        <ele>2679.609863</ele>
        <time>2014-08-21T08:16:39Z</time>
      </trkpt>
      <trkpt lat="44.98139" lon="6.74157">
        <ele>2680.140137</ele>
        <time>2014-08-21T08:17:04Z</time>
      </trkpt>
      <trkpt lat="44.98138" lon="6.74155">
        <ele>2680.040039</ele>
        <time>2014-08-21T08:17:18Z</time>
      </trkpt>
      <trkpt lat="44.98143" lon="6.74152">
        <ele>2681.01001</ele>
        <time>2014-08-21T08:17:28Z</time>
      </trkpt>
      <trkpt lat="44.98147" lon="6.74149">
        <ele>2682.439941</ele>
        <time>2014-08-21T08:17:36Z</time>
      </trkpt>
      <trkpt lat="44.98148" lon="6.74148">
        <ele>2683.069824</ele>
        <time>2014-08-21T08:17:40Z</time>
      </trkpt>
      <trkpt lat="44.98151" lon="6.74153">
        <ele>2684.810059</ele>
        <time>2014-08-21T08:17:49Z</time>
      </trkpt>
      <trkpt lat="44.98157" lon="6.74158">
        <ele>2686.180176</ele>
        <time>2014-08-21T08:18:00Z</time>
      </trkpt>
      <trkpt lat="44.98159" lon="6.74162">
        <ele>2688.199951</ele>
        <time>2014-08-21T08:18:10Z</time>
      </trkpt>
      <trkpt lat="44.98157" lon="6.74165">
        <ele>2689.370117</ele>
        <time>2014-08-21T08:18:31Z</time>
      </trkpt>
      <trkpt lat="44.98157" lon="6.74167">
        <ele>2689.179932</ele>
        <time>2014-08-21T08:18:55Z</time>
      </trkpt>
      <trkpt lat="44.98156" lon="6.7417">
        <ele>2689.77002</ele>
        <time>2014-08-21T08:19:04Z</time>
      </trkpt>
      <trkpt lat="44.98154" lon="6.74175">
        <ele>2690.710205</ele>
        <time>2014-08-21T08:19:13Z</time>
      </trkpt>
      <trkpt lat="44.98153" lon="6.74184">
        <ele>2691.070068</ele>
        <time>2014-08-21T08:19:21Z</time>
      </trkpt>
      <trkpt lat="44.98148" lon="6.74195">
        <ele>2691.900146</ele>
        <time>2014-08-21T08:19:31Z</time>
      </trkpt>
      <trkpt lat="44.98141" lon="6.74208">
        <ele>2692.740234</ele>
        <time>2014-08-21T08:19:41Z</time>
      </trkpt>
      <trkpt lat="44.98136" lon="6.74222">
        <ele>2692.660156</ele>
        <time>2014-08-21T08:19:52Z</time>
      </trkpt>
      <trkpt lat="44.98133" lon="6.74235">
        <ele>2692.910156</ele>
        <time>2014-08-21T08:20:01Z</time>
      </trkpt>
      <trkpt lat="44.98134" lon="6.74243">
        <ele>2692.690186</ele>
        <time>2014-08-21T08:20:08Z</time>
      </trkpt>
      <trkpt lat="44.98136" lon="6.74249">
        <ele>2692.179932</ele>
        <time>2014-08-21T08:20:15Z</time>
      </trkpt>
      <trkpt lat="44.98135" lon="6.7425">
        <ele>2692.690186</ele>
        <time>2014-08-21T08:20:38Z</time>
      </trkpt>
      <trkpt lat="44.98135" lon="6.7425">
        <ele>2692.549805</ele>
        <time>2014-08-21T08:20:58Z</time>
      </trkpt>
      <trkpt lat="44.98135" lon="6.74249">
        <ele>2692.27002</ele>
        <time>2014-08-21T08:21:15Z</time>
      </trkpt>
      <trkpt lat="44.98136" lon="6.74247">
        <ele>2692.51001</ele>
        <time>2014-08-21T08:21:37Z</time>
      </trkpt>
      <trkpt lat="44.98134" lon="6.74246">
        <ele>2692.290039</ele>
        <time>2014-08-21T08:22:03Z</time>
      </trkpt>
      <trkpt lat="44.98132" lon="6.74243">
        <ele>2692.220215</ele>
        <time>2014-08-21T08:22:11Z</time>
      </trkpt>
      <trkpt lat="44.98132" lon="6.74244">
        <ele>2691.779785</ele>
        <time>2014-08-21T08:22:34Z</time>
      </trkpt>
      <trkpt lat="44.98134" lon="6.74247">
        <ele>2691.820068</ele>
        <time>2014-08-21T08:23:10Z</time>
      </trkpt>
      <trkpt lat="44.98135" lon="6.74248">
        <ele>2691.840088</ele>
        <time>2014-08-21T08:23:11Z</time>
      </trkpt>
      <trkpt lat="44.98137" lon="6.74249">
        <ele>2691.929932</ele>
        <time>2014-08-21T08:23:14Z</time>
      </trkpt>
      <trkpt lat="44.98141" lon="6.74254">
        <ele>2692.030029</ele>
        <time>2014-08-21T08:23:18Z</time>
      </trkpt>
      <trkpt lat="44.98148" lon="6.74265">
        <ele>2692.47998</ele>
        <time>2014-08-21T08:23:26Z</time>
      </trkpt>
      <trkpt lat="44.98152" lon="6.7427">
        <ele>2692.790039</ele>
        <time>2014-08-21T08:23:31Z</time>
      </trkpt>
      <trkpt lat="44.98162" lon="6.74281">
        <ele>2692.75</ele>
        <time>2014-08-21T08:23:40Z</time>
      </trkpt>
      <trkpt lat="44.9817" lon="6.74288">
        <ele>2692.440186</ele>
        <time>2014-08-21T08:23:48Z</time>
      </trkpt>
      <trkpt lat="44.98175" lon="6.74288">
        <ele>2692.740234</ele>
        <time>2014-08-21T08:23:56Z</time>
      </trkpt>
      <trkpt lat="44.98176" lon="6.74288">
        <ele>2692.75</ele>
        <time>2014-08-21T08:24:07Z</time>
      </trkpt>
      <trkpt lat="44.98172" lon="6.74289">
        <ele>2692.629883</ele>
        <time>2014-08-21T08:25:33Z</time>
      </trkpt>
      <trkpt lat="44.98173" lon="6.74291">
        <ele>2692.640137</ele>
        <time>2014-08-21T08:26:16Z</time>
      </trkpt>
      <trkpt lat="44.98179" lon="6.74289">
        <ele>2693.199951</ele>
        <time>2014-08-21T08:26:23Z</time>
      </trkpt>
      <trkpt lat="44.98184" lon="6.74288">
        <ele>2693.969971</ele>
        <time>2014-08-21T08:26:32Z</time>
      </trkpt>
      <trkpt lat="44.98184" lon="6.74285">
        <ele>2695.030029</ele>
        <time>2014-08-21T08:27:01Z</time>
      </trkpt>
      <trkpt lat="44.98187" lon="6.74285">
        <ele>2694.810059</ele>
        <time>2014-08-21T08:27:14Z</time>
      </trkpt>
      <trkpt lat="44.98198" lon="6.74288">
        <ele>2695.019775</ele>
        <time>2014-08-21T08:27:23Z</time>
      </trkpt>
      <trkpt lat="44.98205" lon="6.74293">
        <ele>2695.449951</ele>
        <time>2014-08-21T08:27:29Z</time>
      </trkpt>
      <trkpt lat="44.98216" lon="6.74297">
        <ele>2695.649902</ele>
        <time>2014-08-21T08:27:38Z</time>
      </trkpt>
      <trkpt lat="44.98225" lon="6.74295">
        <ele>2696.689941</ele>
        <time>2014-08-21T08:27:48Z</time>
      </trkpt>
      <trkpt lat="44.9823" lon="6.74299">
        <ele>2697.519775</ele>
        <time>2014-08-21T08:27:53Z</time>
      </trkpt>
      <trkpt lat="44.98228" lon="6.74314">
        <ele>2697.299805</ele>
        <time>2014-08-21T08:28:01Z</time>
      </trkpt>
      <trkpt lat="44.98227" lon="6.74325">
        <ele>2696.450195</ele>
        <time>2014-08-21T08:28:10Z</time>
      </trkpt>
      <trkpt lat="44.98227" lon="6.74326">
        <ele>2696.450195</ele>
        <time>2014-08-21T08:28:14Z</time>
      </trkpt>
      <trkpt lat="44.98222" lon="6.7434">
        <ele>2696.23999</ele>
        <time>2014-08-21T08:28:20Z</time>
      </trkpt>
      <trkpt lat="44.98221" lon="6.74354">
        <ele>2695.290039</ele>
        <time>2014-08-21T08:28:26Z</time>
      </trkpt>
      <trkpt lat="44.98222" lon="6.74355">
        <ele>2695.099854</ele>
        <time>2014-08-21T08:28:28Z</time>
      </trkpt>
      <trkpt lat="44.98228" lon="6.74359">
        <ele>2694.860107</ele>
        <time>2014-08-21T08:28:35Z</time>
      </trkpt>
      <trkpt lat="44.98235" lon="6.7436">
        <ele>2695.219971</ele>
        <time>2014-08-21T08:28:43Z</time>
      </trkpt>
      <trkpt lat="44.98241" lon="6.74362">
        <ele>2696.040039</ele>
        <time>2014-08-21T08:28:50Z</time>
      </trkpt>
      <trkpt lat="44.98243" lon="6.74363">
        <ele>2696.230225</ele>
        <time>2014-08-21T08:28:52Z</time>
      </trkpt>
      <trkpt lat="44.98247" lon="6.74364">
        <ele>2696.700195</ele>
        <time>2014-08-21T08:28:56Z</time>
      </trkpt>
      <trkpt lat="44.98249" lon="6.7437">
        <ele>2697.149902</ele>
        <time>2014-08-21T08:29:01Z</time>
      </trkpt>
      <trkpt lat="44.98259" lon="6.74371">
        <ele>2698.130127</ele>
        <time>2014-08-21T08:29:11Z</time>
      </trkpt>
      <trkpt lat="44.98265" lon="6.74372">
        <ele>2698.820068</ele>
        <time>2014-08-21T08:29:18Z</time>
      </trkpt>
      <trkpt lat="44.98267" lon="6.74373">
        <ele>2699.090088</ele>
        <time>2014-08-21T08:29:21Z</time>
      </trkpt>
      <trkpt lat="44.98276" lon="6.74378">
        <ele>2699.97998</ele>
        <time>2014-08-21T08:29:30Z</time>
      </trkpt>
      <trkpt lat="44.98284" lon="6.74385">
        <ele>2700.600098</ele>
        <time>2014-08-21T08:29:40Z</time>
      </trkpt>
      <trkpt lat="44.98288" lon="6.74394">
        <ele>2701.109863</ele>
        <time>2014-08-21T08:29:47Z</time>
      </trkpt>
      <trkpt lat="44.98293" lon="6.744">
        <ele>2701.540039</ele>
        <time>2014-08-21T08:29:55Z</time>
      </trkpt>
      <trkpt lat="44.98295" lon="6.74401">
        <ele>2701.75</ele>
        <time>2014-08-21T08:29:59Z</time>
      </trkpt>
      <trkpt lat="44.98302" lon="6.74408">
        <ele>2702.889893</ele>
        <time>2014-08-21T08:30:07Z</time>
      </trkpt>
      <trkpt lat="44.98307" lon="6.74417">
        <ele>2703.650146</ele>
        <time>2014-08-21T08:30:14Z</time>
      </trkpt>
      <trkpt lat="44.98311" lon="6.74427">
        <ele>2703.73999</ele>
        <time>2014-08-21T08:30:20Z</time>
      </trkpt>
      <trkpt lat="44.98314" lon="6.74437">
        <ele>2703.719971</ele>
        <time>2014-08-21T08:30:26Z</time>
      </trkpt>
      <trkpt lat="44.98316" lon="6.74446">
        <ele>2703.400146</ele>
        <time>2014-08-21T08:30:32Z</time>
      </trkpt>
      <trkpt lat="44.98326" lon="6.7448">
        <ele>2701.699951</ele>
        <time>2014-08-21T08:30:38Z</time>
      </trkpt>
      <trkpt lat="44.98328" lon="6.74485">
        <ele>2700.5</ele>
        <time>2014-08-21T08:30:42Z</time>
      </trkpt>
      <trkpt lat="44.9833" lon="6.74495">
        <ele>2700.790039</ele>
        <time>2014-08-21T08:30:50Z</time>
      </trkpt>
      <trkpt lat="44.98332" lon="6.74507">
        <ele>2701.120117</ele>
        <time>2014-08-21T08:30:58Z</time>
      </trkpt>
      <trkpt lat="44.98333" lon="6.74513">
        <ele>2701.100098</ele>
        <time>2014-08-21T08:31:02Z</time>
      </trkpt>
      <trkpt lat="44.98338" lon="6.7452">
        <ele>2701.290039</ele>
        <time>2014-08-21T08:31:12Z</time>
      </trkpt>
      <trkpt lat="44.98339" lon="6.7452">
        <ele>2701.040039</ele>
        <time>2014-08-21T08:31:19Z</time>
      </trkpt>
      <trkpt lat="44.98341" lon="6.74517">
        <ele>2701</ele>
        <time>2014-08-21T08:31:41Z</time>
      </trkpt>
      <trkpt lat="44.98342" lon="6.74513">
        <ele>2701.01001</ele>
        <time>2014-08-21T08:32:13Z</time>
      </trkpt>
      <trkpt lat="44.98343" lon="6.74512">
        <ele>2700.909912</ele>
        <time>2014-08-21T08:32:39Z</time>
      </trkpt>
      <trkpt lat="44.98344" lon="6.74512">
        <ele>2701.150146</ele>
        <time>2014-08-21T08:33:05Z</time>
      </trkpt>
      <trkpt lat="44.98344" lon="6.74513">
        <ele>2700.719971</ele>
        <time>2014-08-21T08:33:27Z</time>
      </trkpt>
      <trkpt lat="44.98344" lon="6.74513">
        <ele>2700.650146</ele>
        <time>2014-08-21T08:33:34Z</time>
      </trkpt>
      <trkpt lat="44.98344" lon="6.74518">
        <ele>2700.780029</ele>
        <time>2014-08-21T08:33:40Z</time>
      </trkpt>
      <trkpt lat="44.98343" lon="6.74519">
        <ele>2701.200195</ele>
        <time>2014-08-21T08:33:55Z</time>
      </trkpt>
      <trkpt lat="44.98345" lon="6.74521">
        <ele>2701.22998</ele>
        <time>2014-08-21T08:33:57Z</time>
      </trkpt>
      <trkpt lat="44.98357" lon="6.74521">
        <ele>2701.340088</ele>
        <time>2014-08-21T08:34:07Z</time>
      </trkpt>
      <trkpt lat="44.98364" lon="6.74519">
        <ele>2701.75</ele>
        <time>2014-08-21T08:34:15Z</time>
      </trkpt>
      <trkpt lat="44.98366" lon="6.74518">
        <ele>2702</ele>
        <time>2014-08-21T08:34:18Z</time>
      </trkpt>
      <trkpt lat="44.98367" lon="6.74512">
        <ele>2702.429932</ele>
        <time>2014-08-21T08:34:23Z</time>
      </trkpt>
      <trkpt lat="44.98366" lon="6.74502">
        <ele>2703.959961</ele>
        <time>2014-08-21T08:34:32Z</time>
      </trkpt>
      <trkpt lat="44.98368" lon="6.74496">
        <ele>2705.48999</ele>
        <time>2014-08-21T08:34:41Z</time>
      </trkpt>
      <trkpt lat="44.98369" lon="6.74496">
        <ele>2705.809814</ele>
        <time>2014-08-21T08:34:43Z</time>
      </trkpt>
      <trkpt lat="44.98371" lon="6.74498">
        <ele>2706.849854</ele>
        <time>2014-08-21T08:34:50Z</time>
      </trkpt>
      <trkpt lat="44.98372" lon="6.74501">
        <ele>2708.229736</ele>
        <time>2014-08-21T08:34:59Z</time>
      </trkpt>
      <trkpt lat="44.98373" lon="6.74505">
        <ele>2708.51001</ele>
        <time>2014-08-21T08:35:19Z</time>
      </trkpt>
      <trkpt lat="44.98379" lon="6.7451">
        <ele>2709.889893</ele>
        <time>2014-08-21T08:35:31Z</time>
      </trkpt>
      <trkpt lat="44.98385" lon="6.7451">
        <ele>2711.030029</ele>
        <time>2014-08-21T08:35:38Z</time>
      </trkpt>
      <trkpt lat="44.98388" lon="6.74511">
        <ele>2711.449951</ele>
        <time>2014-08-21T08:35:42Z</time>
      </trkpt>
      <trkpt lat="44.98397" lon="6.7451">
        <ele>2711.159912</ele>
        <time>2014-08-21T08:35:51Z</time>
      </trkpt>
      <trkpt lat="44.98404" lon="6.74508">
        <ele>2710.679932</ele>
        <time>2014-08-21T08:36:00Z</time>
      </trkpt>
      <trkpt lat="44.98415" lon="6.74503">
        <ele>2710.080078</ele>
        <time>2014-08-21T08:36:09Z</time>
      </trkpt>
      <trkpt lat="44.98424" lon="6.74501">
        <ele>2709.810059</ele>
        <time>2014-08-21T08:36:17Z</time>
      </trkpt>
      <trkpt lat="44.98433" lon="6.7451">
        <ele>2709.839844</ele>
        <time>2014-08-21T08:36:26Z</time>
      </trkpt>
      <trkpt lat="44.98441" lon="6.74525">
        <ele>2710.060059</ele>
        <time>2014-08-21T08:36:35Z</time>
      </trkpt>
      <trkpt lat="44.98448" lon="6.74534">
        <ele>2710.97998</ele>
        <time>2014-08-21T08:36:44Z</time>
      </trkpt>
      <trkpt lat="44.98453" lon="6.74541">
        <ele>2711.769775</ele>
        <time>2014-08-21T08:36:52Z</time>
      </trkpt>
      <trkpt lat="44.98457" lon="6.74545">
        <ele>2712.300049</ele>
        <time>2014-08-21T08:36:59Z</time>
      </trkpt>
      <trkpt lat="44.98462" lon="6.7455">
        <ele>2714.22998</ele>
        <time>2014-08-21T08:37:08Z</time>
      </trkpt>
      <trkpt lat="44.98464" lon="6.74561">
        <ele>2715.439941</ele>
        <time>2014-08-21T08:37:17Z</time>
      </trkpt>
      <trkpt lat="44.98464" lon="6.74565">
        <ele>2715.709961</ele>
        <time>2014-08-21T08:37:20Z</time>
      </trkpt>
      <trkpt lat="44.98466" lon="6.74577">
        <ele>2716.51001</ele>
        <time>2014-08-21T08:37:30Z</time>
      </trkpt>
      <trkpt lat="44.98466" lon="6.74578">
        <ele>2716.97998</ele>
        <time>2014-08-21T08:37:38Z</time>
      </trkpt>
      <trkpt lat="44.98466" lon="6.74579">
        <ele>2717.280029</ele>
        <time>2014-08-21T08:38:09Z</time>
      </trkpt>
      <trkpt lat="44.98468" lon="6.74588">
        <ele>2717.280029</ele>
        <time>2014-08-21T08:38:16Z</time>
      </trkpt>
      <trkpt lat="44.9847" lon="6.74592">
        <ele>2717.650146</ele>
        <time>2014-08-21T08:38:19Z</time>
      </trkpt>
      <trkpt lat="44.9847" lon="6.74598">
        <ele>2717.879883</ele>
        <time>2014-08-21T08:38:23Z</time>
      </trkpt>
      <trkpt lat="44.98472" lon="6.74611">
        <ele>2718.670166</ele>
        <time>2014-08-21T08:38:32Z</time>
      </trkpt>
      <trkpt lat="44.98472" lon="6.74616">
        <ele>2718.990234</ele>
        <time>2014-08-21T08:38:36Z</time>
      </trkpt>
      <trkpt lat="44.98474" lon="6.7463">
        <ele>2720.030029</ele>
        <time>2014-08-21T08:38:47Z</time>
      </trkpt>
      <trkpt lat="44.98474" lon="6.74633">
        <ele>2720.189941</ele>
        <time>2014-08-21T08:38:49Z</time>
      </trkpt>
      <trkpt lat="44.98476" lon="6.74644">
        <ele>2721.699951</ele>
        <time>2014-08-21T08:38:59Z</time>
      </trkpt>
      <trkpt lat="44.98477" lon="6.7465">
        <ele>2722.98999</ele>
        <time>2014-08-21T08:39:06Z</time>
      </trkpt>
      <trkpt lat="44.98477" lon="6.7465">
        <ele>2724.27002</ele>
        <time>2014-08-21T08:39:15Z</time>
      </trkpt>
      <trkpt lat="44.98477" lon="6.74649">
        <ele>2723.819824</ele>
        <time>2014-08-21T08:39:36Z</time>
      </trkpt>
      <trkpt lat="44.98477" lon="6.74652">
        <ele>2723.969971</ele>
        <time>2014-08-21T08:40:04Z</time>
      </trkpt>
      <trkpt lat="44.98479" lon="6.7466">
        <ele>2724.300049</ele>
        <time>2014-08-21T08:40:12Z</time>
      </trkpt>
      <trkpt lat="44.98479" lon="6.74671">
        <ele>2725.640137</ele>
        <time>2014-08-21T08:40:21Z</time>
      </trkpt>
      <trkpt lat="44.9848" lon="6.74676">
        <ele>2725.959961</ele>
        <time>2014-08-21T08:40:25Z</time>
      </trkpt>
      <trkpt lat="44.9848" lon="6.74679">
        <ele>2726.01001</ele>
        <time>2014-08-21T08:40:27Z</time>
      </trkpt>
      <trkpt lat="44.98481" lon="6.74689">
        <ele>2726.240234</ele>
        <time>2014-08-21T08:40:34Z</time>
      </trkpt>
      <trkpt lat="44.98484" lon="6.74698">
        <ele>2728.209961</ele>
        <time>2014-08-21T08:40:44Z</time>
      </trkpt>
      <trkpt lat="44.98484" lon="6.747">
        <ele>2729.820068</ele>
        <time>2014-08-21T08:40:53Z</time>
      </trkpt>
      <trkpt lat="44.98481" lon="6.74699">
        <ele>2730.22998</ele>
        <time>2014-08-21T08:41:23Z</time>
      </trkpt>
      <trkpt lat="44.98482" lon="6.74704">
        <ele>2730.390137</ele>
        <time>2014-08-21T08:41:38Z</time>
      </trkpt>
      <trkpt lat="44.98485" lon="6.74714">
        <ele>2732.02002</ele>
        <time>2014-08-21T08:41:50Z</time>
      </trkpt>
      <trkpt lat="44.98487" lon="6.74721">
        <ele>2733.280029</ele>
        <time>2014-08-21T08:41:57Z</time>
      </trkpt>
      <trkpt lat="44.98489" lon="6.74731">
        <ele>2734.529785</ele>
        <time>2014-08-21T08:42:06Z</time>
      </trkpt>
      <trkpt lat="44.9849" lon="6.7474">
        <ele>2735.790039</ele>
        <time>2014-08-21T08:42:15Z</time>
      </trkpt>
      <trkpt lat="44.98492" lon="6.74748">
        <ele>2737.590088</ele>
        <time>2014-08-21T08:42:25Z</time>
      </trkpt>
      <trkpt lat="44.98493" lon="6.7475">
        <ele>2738.660156</ele>
        <time>2014-08-21T08:42:33Z</time>
      </trkpt>
      <trkpt lat="44.98494" lon="6.74751">
        <ele>2739</ele>
        <time>2014-08-21T08:42:50Z</time>
      </trkpt>
      <trkpt lat="44.98494" lon="6.74753">
        <ele>2739.400146</ele>
        <time>2014-08-21T08:43:17Z</time>
      </trkpt>
      <trkpt lat="44.98496" lon="6.7476">
        <ele>2739.820068</ele>
        <time>2014-08-21T08:43:26Z</time>
      </trkpt>
      <trkpt lat="44.98498" lon="6.74767">
        <ele>2741.330078</ele>
        <time>2014-08-21T08:43:33Z</time>
      </trkpt>
      <trkpt lat="44.98502" lon="6.7477">
        <ele>2742.01001</ele>
        <time>2014-08-21T08:43:40Z</time>
      </trkpt>
      <trkpt lat="44.98508" lon="6.74778">
        <ele>2743.5</ele>
        <time>2014-08-21T08:43:50Z</time>
      </trkpt>
      <trkpt lat="44.98514" lon="6.74783">
        <ele>2744.379883</ele>
        <time>2014-08-21T08:43:59Z</time>
      </trkpt>
      <trkpt lat="44.9852" lon="6.74789">
        <ele>2745.600098</ele>
        <time>2014-08-21T08:44:08Z</time>
      </trkpt>
      <trkpt lat="44.98522" lon="6.74794">
        <ele>2746.52002</ele>
        <time>2014-08-21T08:44:16Z</time>
      </trkpt>
      <trkpt lat="44.98523" lon="6.74791">
        <ele>2747.340088</ele>
        <time>2014-08-21T08:44:37Z</time>
      </trkpt>
      <trkpt lat="44.98522" lon="6.74794">
        <ele>2747.469971</ele>
        <time>2014-08-21T08:44:54Z</time>
      </trkpt>
      <trkpt lat="44.98524" lon="6.74805">
        <ele>2748.51001</ele>
        <time>2014-08-21T08:45:04Z</time>
      </trkpt>
      <trkpt lat="44.98526" lon="6.74816">
        <ele>2749.940186</ele>
        <time>2014-08-21T08:45:14Z</time>
      </trkpt>
      <trkpt lat="44.98526" lon="6.7482">
        <ele>2750.75</ele>
        <time>2014-08-21T08:45:17Z</time>
      </trkpt>
      <trkpt lat="44.98525" lon="6.74827">
        <ele>2751.820068</ele>
        <time>2014-08-21T08:45:25Z</time>
      </trkpt>
      <trkpt lat="44.98527" lon="6.7483">
        <ele>2752.839844</ele>
        <time>2014-08-21T08:45:33Z</time>
      </trkpt>
      <trkpt lat="44.98527" lon="6.74829">
        <ele>2753.080078</ele>
        <time>2014-08-21T08:46:02Z</time>
      </trkpt>
      <trkpt lat="44.9853" lon="6.74841">
        <ele>2754.190186</ele>
        <time>2014-08-21T08:46:12Z</time>
      </trkpt>
      <trkpt lat="44.9853" lon="6.74847">
        <ele>2755.030029</ele>
        <time>2014-08-21T08:46:17Z</time>
      </trkpt>
      <trkpt lat="44.98528" lon="6.7486">
        <ele>2756.079834</ele>
        <time>2014-08-21T08:46:26Z</time>
      </trkpt>
      <trkpt lat="44.98526" lon="6.74872">
        <ele>2756.610107</ele>
        <time>2014-08-21T08:46:34Z</time>
      </trkpt>
      <trkpt lat="44.98527" lon="6.74881">
        <ele>2757.350098</ele>
        <time>2014-08-21T08:46:41Z</time>
      </trkpt>
      <trkpt lat="44.98527" lon="6.74883">
        <ele>2757.439941</ele>
        <time>2014-08-21T08:46:42Z</time>
      </trkpt>
      <trkpt lat="44.98522" lon="6.7489">
        <ele>2757.75</ele>
        <time>2014-08-21T08:46:50Z</time>
      </trkpt>
      <trkpt lat="44.98515" lon="6.749">
        <ele>2757.699951</ele>
        <time>2014-08-21T08:46:54Z</time>
      </trkpt>
      <trkpt lat="44.98502" lon="6.74912">
        <ele>2756.590088</ele>
        <time>2014-08-21T08:47:00Z</time>
      </trkpt>
      <trkpt lat="44.98496" lon="6.74923">
        <ele>2755.870117</ele>
        <time>2014-08-21T08:47:06Z</time>
      </trkpt>
      <trkpt lat="44.98491" lon="6.74934">
        <ele>2755.119873</ele>
        <time>2014-08-21T08:47:12Z</time>
      </trkpt>
      <trkpt lat="44.98489" lon="6.74938">
        <ele>2754.629883</ele>
        <time>2014-08-21T08:47:18Z</time>
      </trkpt>
      <trkpt lat="44.98487" lon="6.74943">
        <ele>2754.330078</ele>
        <time>2014-08-21T08:47:25Z</time>
      </trkpt>
      <trkpt lat="44.98486" lon="6.74942">
        <ele>2754.530029</ele>
        <time>2014-08-21T08:47:53Z</time>
      </trkpt>
      <trkpt lat="44.98486" lon="6.74941">
        <ele>2754.560059</ele>
        <time>2014-08-21T08:48:34Z</time>
      </trkpt>
      <trkpt lat="44.98487" lon="6.74938">
        <ele>2754.860107</ele>
        <time>2014-08-21T08:49:03Z</time>
      </trkpt>
      <trkpt lat="44.98495" lon="6.74932">
        <ele>2755.139893</ele>
        <time>2014-08-21T08:49:12Z</time>
      </trkpt>
      <trkpt lat="44.98501" lon="6.74925">
        <ele>2756.050049</ele>
        <time>2014-08-21T08:49:21Z</time>
      </trkpt>
      <trkpt lat="44.98505" lon="6.74921">
        <ele>2758.26001</ele>
        <time>2014-08-21T08:49:31Z</time>
      </trkpt>
      <trkpt lat="44.98508" lon="6.74919">
        <ele>2759.789795</ele>
        <time>2014-08-21T08:49:39Z</time>
      </trkpt>
      <trkpt lat="44.98508" lon="6.74918">
        <ele>2760.75</ele>
        <time>2014-08-21T08:49:50Z</time>
      </trkpt>
      <trkpt lat="44.98508" lon="6.74917">
        <ele>2760.870117</ele>
        <time>2014-08-21T08:50:02Z</time>
      </trkpt>
      <trkpt lat="44.98508" lon="6.74918">
        <ele>2760.139893</ele>
        <time>2014-08-21T08:50:31Z</time>
      </trkpt>
      <trkpt lat="44.9851" lon="6.74919">
        <ele>2759.719971</ele>
        <time>2014-08-21T08:55:20Z</time>
      </trkpt>
      <trkpt lat="44.98499" lon="6.74925">
        <ele>2743.430176</ele>
        <time>2014-08-21T09:00:33Z</time>
      </trkpt>
      <trkpt lat="44.98503" lon="6.74921">
        <ele>2743.430176</ele>
        <time>2014-08-21T09:00:34Z</time>
      </trkpt>
      <trkpt lat="44.98508" lon="6.74917">
        <ele>2745.360107</ele>
        <time>2014-08-21T09:00:47Z</time>
      </trkpt>
      <trkpt lat="44.98509" lon="6.74918">
        <ele>2745.909912</ele>
        <time>2014-08-21T09:01:17Z</time>
      </trkpt>
      <trkpt lat="44.98509" lon="6.74915">
        <ele>2746.009766</ele>
        <time>2014-08-21T09:01:26Z</time>
      </trkpt>
      <trkpt lat="44.98516" lon="6.74904">
        <ele>2745.25</ele>
        <time>2014-08-21T09:01:36Z</time>
      </trkpt>
      <trkpt lat="44.9852" lon="6.74901">
        <ele>2745.069824</ele>
        <time>2014-08-21T09:01:44Z</time>
      </trkpt>
      <trkpt lat="44.98522" lon="6.749">
        <ele>2744.610107</ele>
        <time>2014-08-21T09:01:52Z</time>
      </trkpt>
      <trkpt lat="44.98525" lon="6.74886">
        <ele>2744.279785</ele>
        <time>2014-08-21T09:02:01Z</time>
      </trkpt>
      <trkpt lat="44.98532" lon="6.74882">
        <ele>2744.790039</ele>
        <time>2014-08-21T09:02:09Z</time>
      </trkpt>
      <trkpt lat="44.98532" lon="6.74877">
        <ele>2745.48999</ele>
        <time>2014-08-21T09:02:18Z</time>
      </trkpt>
      <trkpt lat="44.98533" lon="6.74864">
        <ele>2746.169922</ele>
        <time>2014-08-21T09:02:28Z</time>
      </trkpt>
      <trkpt lat="44.98536" lon="6.74852">
        <ele>2746.670166</ele>
        <time>2014-08-21T09:02:37Z</time>
      </trkpt>
      <trkpt lat="44.9854" lon="6.74844">
        <ele>2746.120117</ele>
        <time>2014-08-21T09:02:45Z</time>
      </trkpt>
      <trkpt lat="44.98544" lon="6.74836">
        <ele>2746.280029</ele>
        <time>2014-08-21T09:02:52Z</time>
      </trkpt>
      <trkpt lat="44.98546" lon="6.74822">
        <ele>2747.610107</ele>
        <time>2014-08-21T09:03:03Z</time>
      </trkpt>
      <trkpt lat="44.98547" lon="6.74812">
        <ele>2748.870117</ele>
        <time>2014-08-21T09:03:12Z</time>
      </trkpt>
      <trkpt lat="44.98547" lon="6.74802">
        <ele>2750.300049</ele>
        <time>2014-08-21T09:03:22Z</time>
      </trkpt>
      <trkpt lat="44.98547" lon="6.74796">
        <ele>2752.119873</ele>
        <time>2014-08-21T09:03:32Z</time>
      </trkpt>
      <trkpt lat="44.98547" lon="6.74795">
        <ele>2752.610107</ele>
        <time>2014-08-21T09:04:03Z</time>
      </trkpt>
      <trkpt lat="44.98548" lon="6.74789">
        <ele>2753.100098</ele>
        <time>2014-08-21T09:04:17Z</time>
      </trkpt>
      <trkpt lat="44.9855" lon="6.7478">
        <ele>2753.590088</ele>
        <time>2014-08-21T09:04:25Z</time>
      </trkpt>
      <trkpt lat="44.98552" lon="6.74771">
        <ele>2754.790039</ele>
        <time>2014-08-21T09:04:34Z</time>
      </trkpt>
      <trkpt lat="44.98552" lon="6.74769">
        <ele>2756.449951</ele>
        <time>2014-08-21T09:04:41Z</time>
      </trkpt>
      <trkpt lat="44.98552" lon="6.74769">
        <ele>2757.300049</ele>
        <time>2014-08-21T09:05:05Z</time>
      </trkpt>
      <trkpt lat="44.98552" lon="6.74769">
        <ele>2757.27002</ele>
        <time>2014-08-21T09:05:26Z</time>
      </trkpt>
      <trkpt lat="44.98552" lon="6.74757">
        <ele>2758.500244</ele>
        <time>2014-08-21T09:05:37Z</time>
      </trkpt>
      <trkpt lat="44.98553" lon="6.74746">
        <ele>2760.669922</ele>
        <time>2014-08-21T09:05:48Z</time>
      </trkpt>
      <trkpt lat="44.98554" lon="6.74738">
        <ele>2763.200195</ele>
        <time>2014-08-21T09:05:59Z</time>
      </trkpt>
      <trkpt lat="44.98555" lon="6.74729">
        <ele>2765.52002</ele>
        <time>2014-08-21T09:06:10Z</time>
      </trkpt>
      <trkpt lat="44.98556" lon="6.7473">
        <ele>2766.929932</ele>
        <time>2014-08-21T09:06:26Z</time>
      </trkpt>
      <trkpt lat="44.98556" lon="6.7473">
        <ele>2767.139893</ele>
        <time>2014-08-21T09:06:47Z</time>
      </trkpt>
      <trkpt lat="44.98555" lon="6.74729">
        <ele>2767.669922</ele>
        <time>2014-08-21T09:07:09Z</time>
      </trkpt>
      <trkpt lat="44.98556" lon="6.74722">
        <ele>2768.76001</ele>
        <time>2014-08-21T09:07:18Z</time>
      </trkpt>
      <trkpt lat="44.98556" lon="6.74715">
        <ele>2770.649902</ele>
        <time>2014-08-21T09:07:27Z</time>
      </trkpt>
      <trkpt lat="44.98558" lon="6.74705">
        <ele>2772.909912</ele>
        <time>2014-08-21T09:07:38Z</time>
      </trkpt>
      <trkpt lat="44.98557" lon="6.74698">
        <ele>2774.210205</ele>
        <time>2014-08-21T09:07:48Z</time>
      </trkpt>
      <trkpt lat="44.98558" lon="6.74691">
        <ele>2775.02002</ele>
        <time>2014-08-21T09:07:58Z</time>
      </trkpt>
      <trkpt lat="44.98558" lon="6.74692">
        <ele>2775.399902</ele>
        <time>2014-08-21T09:08:10Z</time>
      </trkpt>
      <trkpt lat="44.98558" lon="6.74693">
        <ele>2775.560059</ele>
        <time>2014-08-21T09:08:34Z</time>
      </trkpt>
      <trkpt lat="44.98557" lon="6.74687">
        <ele>2775.940186</ele>
        <time>2014-08-21T09:08:42Z</time>
      </trkpt>
      <trkpt lat="44.98557" lon="6.74684">
        <ele>2775.820068</ele>
        <time>2014-08-21T09:08:48Z</time>
      </trkpt>
      <trkpt lat="44.98558" lon="6.74683">
        <ele>2776.01001</ele>
        <time>2014-08-21T09:08:56Z</time>
      </trkpt>
      <trkpt lat="44.98559" lon="6.74684">
        <ele>2776.22998</ele>
        <time>2014-08-21T09:09:04Z</time>
      </trkpt>
      <trkpt lat="44.9856" lon="6.74679">
        <ele>2777.25</ele>
        <time>2014-08-21T09:09:12Z</time>
      </trkpt>
      <trkpt lat="44.98563" lon="6.74675">
        <ele>2778.349854</ele>
        <time>2014-08-21T09:09:21Z</time>
      </trkpt>
      <trkpt lat="44.98563" lon="6.74676">
        <ele>2779.300049</ele>
        <time>2014-08-21T09:09:32Z</time>
      </trkpt>
      <trkpt lat="44.98562" lon="6.74676">
        <ele>2779.52002</ele>
        <time>2014-08-21T09:10:02Z</time>
      </trkpt>
      <trkpt lat="44.98565" lon="6.74672">
        <ele>2780.22998</ele>
        <time>2014-08-21T09:10:13Z</time>
      </trkpt>
      <trkpt lat="44.98567" lon="6.74667">
        <ele>2782.860107</ele>
        <time>2014-08-21T09:10:24Z</time>
      </trkpt>
      <trkpt lat="44.9857" lon="6.74669">
        <ele>2785.070068</ele>
        <time>2014-08-21T09:10:34Z</time>
      </trkpt>
      <trkpt lat="44.9857" lon="6.74669">
        <ele>2786.189941</ele>
        <time>2014-08-21T09:10:47Z</time>
      </trkpt>
      <trkpt lat="44.9857" lon="6.74668">
        <ele>2786.260254</ele>
        <time>2014-08-21T09:11:14Z</time>
      </trkpt>
      <trkpt lat="44.98571" lon="6.7467">
        <ele>2786.52002</ele>
        <time>2014-08-21T09:11:26Z</time>
      </trkpt>
      <trkpt lat="44.98574" lon="6.74673">
        <ele>2787.140137</ele>
        <time>2014-08-21T09:11:34Z</time>
      </trkpt>
      <trkpt lat="44.98575" lon="6.74671">
        <ele>2788.439941</ele>
        <time>2014-08-21T09:11:42Z</time>
      </trkpt>
      <trkpt lat="44.98576" lon="6.74673">
        <ele>2790.160156</ele>
        <time>2014-08-21T09:11:52Z</time>
      </trkpt>
      <trkpt lat="44.98576" lon="6.74672">
        <ele>2791.25</ele>
        <time>2014-08-21T09:12:10Z</time>
      </trkpt>
      <trkpt lat="44.98578" lon="6.74675">
        <ele>2791.320068</ele>
        <time>2014-08-21T09:12:27Z</time>
      </trkpt>
      <trkpt lat="44.9858" lon="6.74676">
        <ele>2791.629883</ele>
        <time>2014-08-21T09:12:33Z</time>
      </trkpt>
      <trkpt lat="44.98581" lon="6.74672">
        <ele>2793.219971</ele>
        <time>2014-08-21T09:12:44Z</time>
      </trkpt>
      <trkpt lat="44.98583" lon="6.74665">
        <ele>2794.899902</ele>
        <time>2014-08-21T09:12:53Z</time>
      </trkpt>
      <trkpt lat="44.98586" lon="6.74661">
        <ele>2797.070068</ele>
        <time>2014-08-21T09:13:04Z</time>
      </trkpt>
      <trkpt lat="44.98587" lon="6.74662">
        <ele>2797.610107</ele>
        <time>2014-08-21T09:13:41Z</time>
      </trkpt>
      <trkpt lat="44.98589" lon="6.74657">
        <ele>2798.540039</ele>
        <time>2014-08-21T09:13:52Z</time>
      </trkpt>
      <trkpt lat="44.98592" lon="6.74654">
        <ele>2800.360107</ele>
        <time>2014-08-21T09:14:03Z</time>
      </trkpt>
      <trkpt lat="44.98594" lon="6.74654">
        <ele>2801.469971</ele>
        <time>2014-08-21T09:14:09Z</time>
      </trkpt>
      <trkpt lat="44.98593" lon="6.74656">
        <ele>2802.390137</ele>
        <time>2014-08-21T09:14:24Z</time>
      </trkpt>
      <trkpt lat="44.98593" lon="6.74654">
        <ele>2802.310059</ele>
        <time>2014-08-21T09:14:49Z</time>
      </trkpt>
      <trkpt lat="44.98596" lon="6.74647">
        <ele>2803.25</ele>
        <time>2014-08-21T09:14:59Z</time>
      </trkpt>
      <trkpt lat="44.98598" lon="6.74639">
        <ele>2805.620117</ele>
        <time>2014-08-21T09:15:13Z</time>
      </trkpt>
      <trkpt lat="44.98601" lon="6.7463">
        <ele>2806.949951</ele>
        <time>2014-08-21T09:15:24Z</time>
      </trkpt>
      <trkpt lat="44.98601" lon="6.74628">
        <ele>2807.570068</ele>
        <time>2014-08-21T09:15:33Z</time>
      </trkpt>
      <trkpt lat="44.98597" lon="6.74627">
        <ele>2807.710205</ele>
        <time>2014-08-21T09:15:47Z</time>
      </trkpt>
      <trkpt lat="44.98597" lon="6.74628">
        <ele>2807.859863</ele>
        <time>2014-08-21T09:16:06Z</time>
      </trkpt>
      <trkpt lat="44.98596" lon="6.74627">
        <ele>2808.629883</ele>
        <time>2014-08-21T09:16:33Z</time>
      </trkpt>
      <trkpt lat="44.98596" lon="6.74628">
        <ele>2808.100098</ele>
        <time>2014-08-21T09:16:48Z</time>
      </trkpt>
      <trkpt lat="44.98597" lon="6.74631">
        <ele>2808.139893</ele>
        <time>2014-08-21T09:17:05Z</time>
      </trkpt>
      <trkpt lat="44.98598" lon="6.74631">
        <ele>2808.229736</ele>
        <time>2014-08-21T09:17:11Z</time>
      </trkpt>
      <trkpt lat="44.98601" lon="6.74624">
        <ele>2809.070068</ele>
        <time>2014-08-21T09:17:20Z</time>
      </trkpt>
      <trkpt lat="44.98603" lon="6.74615">
        <ele>2811.320068</ele>
        <time>2014-08-21T09:17:32Z</time>
      </trkpt>
      <trkpt lat="44.98605" lon="6.74608">
        <ele>2812.460205</ele>
        <time>2014-08-21T09:17:40Z</time>
      </trkpt>
      <trkpt lat="44.98607" lon="6.74603">
        <ele>2812.900146</ele>
        <time>2014-08-21T09:17:48Z</time>
      </trkpt>
      <trkpt lat="44.98609" lon="6.74602">
        <ele>2814.539795</ele>
        <time>2014-08-21T09:17:57Z</time>
      </trkpt>
      <trkpt lat="44.98611" lon="6.74603">
        <ele>2816.02002</ele>
        <time>2014-08-21T09:18:14Z</time>
      </trkpt>
      <trkpt lat="44.98612" lon="6.74603">
        <ele>2816.5</ele>
        <time>2014-08-21T09:18:39Z</time>
      </trkpt>
      <trkpt lat="44.98614" lon="6.74603">
        <ele>2817.779785</ele>
        <time>2014-08-21T09:18:47Z</time>
      </trkpt>
      <trkpt lat="44.98618" lon="6.74599">
        <ele>2819.52002</ele>
        <time>2014-08-21T09:18:56Z</time>
      </trkpt>
      <trkpt lat="44.98622" lon="6.74594">
        <ele>2820.340088</ele>
        <time>2014-08-21T09:19:05Z</time>
      </trkpt>
      <trkpt lat="44.98622" lon="6.74593">
        <ele>2820.040039</ele>
        <time>2014-08-21T09:19:23Z</time>
      </trkpt>
      <trkpt lat="44.98623" lon="6.74593">
        <ele>2820.109863</ele>
        <time>2014-08-21T09:20:02Z</time>
      </trkpt>
      <trkpt lat="44.98622" lon="6.74593">
        <ele>2820.150146</ele>
        <time>2014-08-21T09:20:04Z</time>
      </trkpt>
      <trkpt lat="44.98623" lon="6.74592">
        <ele>2820.459961</ele>
        <time>2014-08-21T09:20:09Z</time>
      </trkpt>
      <trkpt lat="44.98628" lon="6.74587">
        <ele>2821.610107</ele>
        <time>2014-08-21T09:20:18Z</time>
      </trkpt>
      <trkpt lat="44.98634" lon="6.74581">
        <ele>2821.97998</ele>
        <time>2014-08-21T09:20:26Z</time>
      </trkpt>
      <trkpt lat="44.98635" lon="6.74581">
        <ele>2822</ele>
        <time>2014-08-21T09:20:28Z</time>
      </trkpt>
      <trkpt lat="44.98641" lon="6.74573">
        <ele>2822.400146</ele>
        <time>2014-08-21T09:20:38Z</time>
      </trkpt>
      <trkpt lat="44.98645" lon="6.74568">
        <ele>2822.829834</ele>
        <time>2014-08-21T09:20:46Z</time>
      </trkpt>
      <trkpt lat="44.98648" lon="6.7456">
        <ele>2823.299805</ele>
        <time>2014-08-21T09:20:55Z</time>
      </trkpt>
      <trkpt lat="44.98655" lon="6.74558">
        <ele>2824.080078</ele>
        <time>2014-08-21T09:21:04Z</time>
      </trkpt>
      <trkpt lat="44.98662" lon="6.74562">
        <ele>2825.610107</ele>
        <time>2014-08-21T09:21:16Z</time>
      </trkpt>
      <trkpt lat="44.98666" lon="6.74559">
        <ele>2827.76001</ele>
        <time>2014-08-21T09:21:25Z</time>
      </trkpt>
      <trkpt lat="44.98667" lon="6.74558">
        <ele>2829.430176</ele>
        <time>2014-08-21T09:21:34Z</time>
      </trkpt>
      <trkpt lat="44.98667" lon="6.74557">
        <ele>2829.22998</ele>
        <time>2014-08-21T09:21:56Z</time>
      </trkpt>
      <trkpt lat="44.98669" lon="6.74553">
        <ele>2829.630127</ele>
        <time>2014-08-21T09:22:06Z</time>
      </trkpt>
      <trkpt lat="44.98676" lon="6.74545">
        <ele>2830.819824</ele>
        <time>2014-08-21T09:22:18Z</time>
      </trkpt>
      <trkpt lat="44.98676" lon="6.74545">
        <ele>2832.26001</ele>
        <time>2014-08-21T09:22:46Z</time>
      </trkpt>
      <trkpt lat="44.98677" lon="6.74545">
        <ele>2832.320068</ele>
        <time>2014-08-21T09:22:47Z</time>
      </trkpt>
      <trkpt lat="44.98687" lon="6.74531">
        <ele>2832.429932</ele>
        <time>2014-08-21T09:22:59Z</time>
      </trkpt>
      <trkpt lat="44.98696" lon="6.7452">
        <ele>2834.330078</ele>
        <time>2014-08-21T09:23:13Z</time>
      </trkpt>
      <trkpt lat="44.98701" lon="6.7451">
        <ele>2837.090088</ele>
        <time>2014-08-21T09:23:24Z</time>
      </trkpt>
      <trkpt lat="44.98705" lon="6.74499">
        <ele>2839.970215</ele>
        <time>2014-08-21T09:23:37Z</time>
      </trkpt>
      <trkpt lat="44.98705" lon="6.74499">
        <ele>2841.27002</ele>
        <time>2014-08-21T09:23:48Z</time>
      </trkpt>
      <trkpt lat="44.98704" lon="6.745">
        <ele>2841.650146</ele>
        <time>2014-08-21T09:24:14Z</time>
      </trkpt>
      <trkpt lat="44.98706" lon="6.74501">
        <ele>2841.870117</ele>
        <time>2014-08-21T09:24:21Z</time>
      </trkpt>
      <trkpt lat="44.98711" lon="6.74498">
        <ele>2843.709961</ele>
        <time>2014-08-21T09:24:32Z</time>
      </trkpt>
      <trkpt lat="44.98714" lon="6.74496">
        <ele>2845.830078</ele>
        <time>2014-08-21T09:24:41Z</time>
      </trkpt>
      <trkpt lat="44.98716" lon="6.74492">
        <ele>2848.620117</ele>
        <time>2014-08-21T09:24:53Z</time>
      </trkpt>
      <trkpt lat="44.98716" lon="6.74491">
        <ele>2849.01001</ele>
        <time>2014-08-21T09:25:28Z</time>
      </trkpt>
      <trkpt lat="44.98718" lon="6.74487">
        <ele>2849.580078</ele>
        <time>2014-08-21T09:25:36Z</time>
      </trkpt>
      <trkpt lat="44.98721" lon="6.74482">
        <ele>2851.51001</ele>
        <time>2014-08-21T09:25:46Z</time>
      </trkpt>
      <trkpt lat="44.98726" lon="6.74477">
        <ele>2854.23999</ele>
        <time>2014-08-21T09:25:58Z</time>
      </trkpt>
      <trkpt lat="44.98729" lon="6.74472">
        <ele>2855.77002</ele>
        <time>2014-08-21T09:26:06Z</time>
      </trkpt>
      <trkpt lat="44.9873" lon="6.74472">
        <ele>2857.330078</ele>
        <time>2014-08-21T09:26:16Z</time>
      </trkpt>
      <trkpt lat="44.98731" lon="6.74472">
        <ele>2858.050049</ele>
        <time>2014-08-21T09:26:48Z</time>
      </trkpt>
      <trkpt lat="44.98733" lon="6.74467">
        <ele>2858.579834</ele>
        <time>2014-08-21T09:27:01Z</time>
      </trkpt>
      <trkpt lat="44.98737" lon="6.7446">
        <ele>2860.199951</ele>
        <time>2014-08-21T09:27:12Z</time>
      </trkpt>
      <trkpt lat="44.9874" lon="6.74453">
        <ele>2862.339844</ele>
        <time>2014-08-21T09:27:23Z</time>
      </trkpt>
      <trkpt lat="44.98742" lon="6.74449">
        <ele>2864.019775</ele>
        <time>2014-08-21T09:27:33Z</time>
      </trkpt>
      <trkpt lat="44.98745" lon="6.74445">
        <ele>2865.290039</ele>
        <time>2014-08-21T09:27:40Z</time>
      </trkpt>
      <trkpt lat="44.98746" lon="6.74442">
        <ele>2866.330078</ele>
        <time>2014-08-21T09:27:45Z</time>
      </trkpt>
      <trkpt lat="44.98746" lon="6.74443">
        <ele>2866.590088</ele>
        <time>2014-08-21T09:27:54Z</time>
      </trkpt>
      <trkpt lat="44.98749" lon="6.74439">
        <ele>2866.590088</ele>
        <time>2014-08-21T09:28:02Z</time>
      </trkpt>
      <trkpt lat="44.98752" lon="6.74431">
        <ele>2867.22998</ele>
        <time>2014-08-21T09:28:10Z</time>
      </trkpt>
      <trkpt lat="44.98755" lon="6.74425">
        <ele>2867.870117</ele>
        <time>2014-08-21T09:28:17Z</time>
      </trkpt>
      <trkpt lat="44.98754" lon="6.74423">
        <ele>2868.370117</ele>
        <time>2014-08-21T09:28:42Z</time>
      </trkpt>
      <trkpt lat="44.98755" lon="6.74418">
        <ele>2868.560059</ele>
        <time>2014-08-21T09:28:51Z</time>
      </trkpt>
      <trkpt lat="44.98758" lon="6.74407">
        <ele>2869.839844</ele>
        <time>2014-08-21T09:29:00Z</time>
      </trkpt>
      <trkpt lat="44.98763" lon="6.74395">
        <ele>2870.820068</ele>
        <time>2014-08-21T09:29:09Z</time>
      </trkpt>
      <trkpt lat="44.98769" lon="6.74384">
        <ele>2872.330078</ele>
        <time>2014-08-21T09:29:19Z</time>
      </trkpt>
      <trkpt lat="44.98774" lon="6.74375">
        <ele>2874.139893</ele>
        <time>2014-08-21T09:29:30Z</time>
      </trkpt>
      <trkpt lat="44.98777" lon="6.74371">
        <ele>2875.610107</ele>
        <time>2014-08-21T09:29:39Z</time>
      </trkpt>
      <trkpt lat="44.98777" lon="6.74372">
        <ele>2876.680176</ele>
        <time>2014-08-21T09:29:57Z</time>
      </trkpt>
      <trkpt lat="44.98777" lon="6.74373">
        <ele>2876.789795</ele>
        <time>2014-08-21T09:30:18Z</time>
      </trkpt>
      <trkpt lat="44.98777" lon="6.74372">
        <ele>2877.309814</ele>
        <time>2014-08-21T09:30:49Z</time>
      </trkpt>
      <trkpt lat="44.98777" lon="6.74371">
        <ele>2877.48999</ele>
        <time>2014-08-21T09:30:56Z</time>
      </trkpt>
      <trkpt lat="44.98781" lon="6.74366">
        <ele>2878.110107</ele>
        <time>2014-08-21T09:31:05Z</time>
      </trkpt>
      <trkpt lat="44.98785" lon="6.74361">
        <ele>2879.73999</ele>
        <time>2014-08-21T09:31:15Z</time>
      </trkpt>
      <trkpt lat="44.98789" lon="6.74356">
        <ele>2882.079834</ele>
        <time>2014-08-21T09:31:26Z</time>
      </trkpt>
      <trkpt lat="44.98793" lon="6.7435">
        <ele>2884.540039</ele>
        <time>2014-08-21T09:31:38Z</time>
      </trkpt>
      <trkpt lat="44.98796" lon="6.74349">
        <ele>2886.380127</ele>
        <time>2014-08-21T09:31:48Z</time>
      </trkpt>
      <trkpt lat="44.98796" lon="6.74349">
        <ele>2887.070068</ele>
        <time>2014-08-21T09:32:19Z</time>
      </trkpt>
      <trkpt lat="44.98798" lon="6.74347">
        <ele>2887.170166</ele>
        <time>2014-08-21T09:32:39Z</time>
      </trkpt>
      <trkpt lat="44.98802" lon="6.74341">
        <ele>2888.939941</ele>
        <time>2014-08-21T09:32:49Z</time>
      </trkpt>
      <trkpt lat="44.98806" lon="6.74334">
        <ele>2891.820068</ele>
        <time>2014-08-21T09:33:00Z</time>
      </trkpt>
      <trkpt lat="44.98809" lon="6.74329">
        <ele>2893.52002</ele>
        <time>2014-08-21T09:33:09Z</time>
      </trkpt>
      <trkpt lat="44.98812" lon="6.74322">
        <ele>2895.760254</ele>
        <time>2014-08-21T09:33:20Z</time>
      </trkpt>
      <trkpt lat="44.98814" lon="6.74317">
        <ele>2898.570068</ele>
        <time>2014-08-21T09:33:31Z</time>
      </trkpt>
      <trkpt lat="44.98814" lon="6.74318">
        <ele>2899.379883</ele>
        <time>2014-08-21T09:34:14Z</time>
      </trkpt>
      <trkpt lat="44.98816" lon="6.74315">
        <ele>2900.350098</ele>
        <time>2014-08-21T09:34:25Z</time>
      </trkpt>
      <trkpt lat="44.98819" lon="6.7431">
        <ele>2902.25</ele>
        <time>2014-08-21T09:34:35Z</time>
      </trkpt>
      <trkpt lat="44.98823" lon="6.74302">
        <ele>2904.310059</ele>
        <time>2014-08-21T09:34:47Z</time>
      </trkpt>
      <trkpt lat="44.98826" lon="6.74296">
        <ele>2906.370117</ele>
        <time>2014-08-21T09:34:57Z</time>
      </trkpt>
      <trkpt lat="44.98827" lon="6.74289">
        <ele>2908.080078</ele>
        <time>2014-08-21T09:35:05Z</time>
      </trkpt>
      <trkpt lat="44.98828" lon="6.7429">
        <ele>2908.279785</ele>
        <time>2014-08-21T09:35:25Z</time>
      </trkpt>
      <trkpt lat="44.98831" lon="6.74286">
        <ele>2908.52002</ele>
        <time>2014-08-21T09:35:38Z</time>
      </trkpt>
      <trkpt lat="44.98837" lon="6.74275">
        <ele>2909.360107</ele>
        <time>2014-08-21T09:35:48Z</time>
      </trkpt>
      <trkpt lat="44.98842" lon="6.74268">
        <ele>2910.920166</ele>
        <time>2014-08-21T09:35:58Z</time>
      </trkpt>
      <trkpt lat="44.98848" lon="6.74262">
        <ele>2913.370117</ele>
        <time>2014-08-21T09:36:09Z</time>
      </trkpt>
      <trkpt lat="44.98852" lon="6.74257">
        <ele>2915.590088</ele>
        <time>2014-08-21T09:36:19Z</time>
      </trkpt>
      <trkpt lat="44.98855" lon="6.74254">
        <ele>2917.25</ele>
        <time>2014-08-21T09:36:28Z</time>
      </trkpt>
      <trkpt lat="44.98854" lon="6.74254">
        <ele>2917.870117</ele>
        <time>2014-08-21T09:36:46Z</time>
      </trkpt>
      <trkpt lat="44.98853" lon="6.7425">
        <ele>2917.900146</ele>
        <time>2014-08-21T09:36:57Z</time>
      </trkpt>
      <trkpt lat="44.98855" lon="6.74242">
        <ele>2917.76001</ele>
        <time>2014-08-21T09:37:04Z</time>
      </trkpt>
      <trkpt lat="44.9886" lon="6.74228">
        <ele>2916.850098</ele>
        <time>2014-08-21T09:37:13Z</time>
      </trkpt>
      <trkpt lat="44.98861" lon="6.74227">
        <ele>2916.839844</ele>
        <time>2014-08-21T09:37:14Z</time>
      </trkpt>
      <trkpt lat="44.98864" lon="6.7422">
        <ele>2917.089844</ele>
        <time>2014-08-21T09:37:22Z</time>
      </trkpt>
      <trkpt lat="44.98866" lon="6.74216">
        <ele>2917.369873</ele>
        <time>2014-08-21T09:37:25Z</time>
      </trkpt>
      <trkpt lat="44.9887" lon="6.74209">
        <ele>2918.22998</ele>
        <time>2014-08-21T09:37:35Z</time>
      </trkpt>
      <trkpt lat="44.9887" lon="6.74209">
        <ele>2918.349854</ele>
        <time>2014-08-21T09:37:36Z</time>
      </trkpt>
      <trkpt lat="44.98876" lon="6.74197">
        <ele>2918.610107</ele>
        <time>2014-08-21T09:37:46Z</time>
      </trkpt>
      <trkpt lat="44.98877" lon="6.74195">
        <ele>2917.809814</ele>
        <time>2014-08-21T09:37:54Z</time>
      </trkpt>
      <trkpt lat="44.98879" lon="6.74194">
        <ele>2917.48999</ele>
        <time>2014-08-21T09:38:15Z</time>
      </trkpt>
      <trkpt lat="44.9888" lon="6.74191">
        <ele>2917.449951</ele>
        <time>2014-08-21T09:38:17Z</time>
      </trkpt>
      <trkpt lat="44.98884" lon="6.74183">
        <ele>2917.080078</ele>
        <time>2014-08-21T09:38:22Z</time>
      </trkpt>
      <trkpt lat="44.98891" lon="6.74168">
        <ele>2916.630127</ele>
        <time>2014-08-21T09:38:33Z</time>
      </trkpt>
      <trkpt lat="44.9889" lon="6.74166">
        <ele>2916.270264</ele>
        <time>2014-08-21T09:38:42Z</time>
      </trkpt>
      <trkpt lat="44.9889" lon="6.74163">
        <ele>2916.25</ele>
        <time>2014-08-21T09:38:47Z</time>
      </trkpt>
      <trkpt lat="44.98891" lon="6.74156">
        <ele>2916.079834</ele>
        <time>2014-08-21T09:38:51Z</time>
      </trkpt>
      <trkpt lat="44.98896" lon="6.74142">
        <ele>2915.100098</ele>
        <time>2014-08-21T09:39:00Z</time>
      </trkpt>
      <trkpt lat="44.98901" lon="6.74128">
        <ele>2916.560059</ele>
        <time>2014-08-21T09:39:11Z</time>
      </trkpt>
      <trkpt lat="44.98904" lon="6.74115">
        <ele>2918.349854</ele>
        <time>2014-08-21T09:39:21Z</time>
      </trkpt>
      <trkpt lat="44.98907" lon="6.74102">
        <ele>2920.600098</ele>
        <time>2014-08-21T09:39:33Z</time>
      </trkpt>
      <trkpt lat="44.98908" lon="6.74095">
        <ele>2922.339844</ele>
        <time>2014-08-21T09:39:44Z</time>
      </trkpt>
      <trkpt lat="44.98909" lon="6.74096">
        <ele>2923.420166</ele>
        <time>2014-08-21T09:40:11Z</time>
      </trkpt>
      <trkpt lat="44.98909" lon="6.74096">
        <ele>2923.649902</ele>
        <time>2014-08-21T09:40:31Z</time>
      </trkpt>
      <trkpt lat="44.9891" lon="6.74087">
        <ele>2924.52002</ele>
        <time>2014-08-21T09:40:42Z</time>
      </trkpt>
      <trkpt lat="44.98911" lon="6.74077">
        <ele>2926.789795</ele>
        <time>2014-08-21T09:40:55Z</time>
      </trkpt>
      <trkpt lat="44.98912" lon="6.74068">
        <ele>2929.169922</ele>
        <time>2014-08-21T09:41:07Z</time>
      </trkpt>
      <trkpt lat="44.98913" lon="6.74061">
        <ele>2931.77002</ele>
        <time>2014-08-21T09:41:18Z</time>
      </trkpt>
      <trkpt lat="44.98913" lon="6.74061">
        <ele>2932.929932</ele>
        <time>2014-08-21T09:41:29Z</time>
      </trkpt>
      <trkpt lat="44.98912" lon="6.74062">
        <ele>2933.219971</ele>
        <time>2014-08-21T09:41:52Z</time>
      </trkpt>
      <trkpt lat="44.98912" lon="6.7406">
        <ele>2933.649902</ele>
        <time>2014-08-21T09:42:06Z</time>
      </trkpt>
      <trkpt lat="44.98916" lon="6.74056">
        <ele>2934.679932</ele>
        <time>2014-08-21T09:42:16Z</time>
      </trkpt>
      <trkpt lat="44.98918" lon="6.74049">
        <ele>2936.809814</ele>
        <time>2014-08-21T09:42:26Z</time>
      </trkpt>
      <trkpt lat="44.98918" lon="6.74042">
        <ele>2938.780029</ele>
        <time>2014-08-21T09:42:35Z</time>
      </trkpt>
      <trkpt lat="44.98918" lon="6.74039">
        <ele>2940.52002</ele>
        <time>2014-08-21T09:42:43Z</time>
      </trkpt>
      <trkpt lat="44.98918" lon="6.74039">
        <ele>2941.23999</ele>
        <time>2014-08-21T09:43:22Z</time>
      </trkpt>
      <trkpt lat="44.9892" lon="6.74038">
        <ele>2941.620117</ele>
        <time>2014-08-21T09:43:41Z</time>
      </trkpt>
      <trkpt lat="44.98919" lon="6.74032">
        <ele>2942.890137</ele>
        <time>2014-08-21T09:43:50Z</time>
      </trkpt>
      <trkpt lat="44.9892" lon="6.74023">
        <ele>2945.959961</ele>
        <time>2014-08-21T09:44:05Z</time>
      </trkpt>
      <trkpt lat="44.98921" lon="6.74018">
        <ele>2948.060059</ele>
        <time>2014-08-21T09:44:14Z</time>
      </trkpt>
      <trkpt lat="44.9892" lon="6.74018">
        <ele>2949.02002</ele>
        <time>2014-08-21T09:44:38Z</time>
      </trkpt>
      <trkpt lat="44.98921" lon="6.74017">
        <ele>2949.299805</ele>
        <time>2014-08-21T09:45:00Z</time>
      </trkpt>
      <trkpt lat="44.98923" lon="6.74012">
        <ele>2950.330078</ele>
        <time>2014-08-21T09:45:08Z</time>
      </trkpt>
      <trkpt lat="44.98923" lon="6.74004">
        <ele>2952.649902</ele>
        <time>2014-08-21T09:45:19Z</time>
      </trkpt>
      <trkpt lat="44.9892" lon="6.73997">
        <ele>2954.629883</ele>
        <time>2014-08-21T09:45:28Z</time>
      </trkpt>
      <trkpt lat="44.98917" lon="6.73992">
        <ele>2956.379883</ele>
        <time>2014-08-21T09:45:37Z</time>
      </trkpt>
      <trkpt lat="44.98919" lon="6.73989">
        <ele>2957.809814</ele>
        <time>2014-08-21T09:45:45Z</time>
      </trkpt>
      <trkpt lat="44.98921" lon="6.73988">
        <ele>2959.040039</ele>
        <time>2014-08-21T09:45:54Z</time>
      </trkpt>
      <trkpt lat="44.98922" lon="6.73986">
        <ele>2959.360107</ele>
        <time>2014-08-21T09:46:10Z</time>
      </trkpt>
      <trkpt lat="44.98922" lon="6.73984">
        <ele>2959.719971</ele>
        <time>2014-08-21T09:46:17Z</time>
      </trkpt>
      <trkpt lat="44.98921" lon="6.73984">
        <ele>2959.560059</ele>
        <time>2014-08-21T09:46:47Z</time>
      </trkpt>
      <trkpt lat="44.9892" lon="6.73977">
        <ele>2960.52002</ele>
        <time>2014-08-21T09:46:57Z</time>
      </trkpt>
      <trkpt lat="44.98919" lon="6.73969">
        <ele>2963.090088</ele>
        <time>2014-08-21T09:47:08Z</time>
      </trkpt>
      <trkpt lat="44.98919" lon="6.73962">
        <ele>2964.680176</ele>
        <time>2014-08-21T09:47:17Z</time>
      </trkpt>
      <trkpt lat="44.9892" lon="6.73956">
        <ele>2966.610107</ele>
        <time>2014-08-21T09:47:26Z</time>
      </trkpt>
      <trkpt lat="44.9892" lon="6.73953">
        <ele>2968.02002</ele>
        <time>2014-08-21T09:47:35Z</time>
      </trkpt>
      <trkpt lat="44.9892" lon="6.73953">
        <ele>2968.439941</ele>
        <time>2014-08-21T09:47:56Z</time>
      </trkpt>
      <trkpt lat="44.9892" lon="6.73954">
        <ele>2969</ele>
        <time>2014-08-21T09:48:20Z</time>
      </trkpt>
      <trkpt lat="44.98918" lon="6.73949">
        <ele>2969.570068</ele>
        <time>2014-08-21T09:48:30Z</time>
      </trkpt>
      <trkpt lat="44.98921" lon="6.73946">
        <ele>2970.890137</ele>
        <time>2014-08-21T09:48:38Z</time>
      </trkpt>
      <trkpt lat="44.98921" lon="6.73942">
        <ele>2972.559814</ele>
        <time>2014-08-21T09:48:46Z</time>
      </trkpt>
      <trkpt lat="44.98918" lon="6.73936">
        <ele>2974.580078</ele>
        <time>2014-08-21T09:48:57Z</time>
      </trkpt>
      <trkpt lat="44.98918" lon="6.73935">
        <ele>2975.840088</ele>
        <time>2014-08-21T09:49:08Z</time>
      </trkpt>
      <trkpt lat="44.98919" lon="6.73936">
        <ele>2976.069824</ele>
        <time>2014-08-21T09:49:29Z</time>
      </trkpt>
      <trkpt lat="44.98917" lon="6.73931">
        <ele>2977.200195</ele>
        <time>2014-08-21T09:49:39Z</time>
      </trkpt>
      <trkpt lat="44.98915" lon="6.73925">
        <ele>2979.219971</ele>
        <time>2014-08-21T09:49:51Z</time>
      </trkpt>
      <trkpt lat="44.98912" lon="6.73919">
        <ele>2980.73999</ele>
        <time>2014-08-21T09:50:00Z</time>
      </trkpt>
      <trkpt lat="44.98911" lon="6.73916">
        <ele>2982.949951</ele>
        <time>2014-08-21T09:50:11Z</time>
      </trkpt>
      <trkpt lat="44.98911" lon="6.73916">
        <ele>2982.860107</ele>
        <time>2014-08-21T09:50:33Z</time>
      </trkpt>
      <trkpt lat="44.9891" lon="6.73915">
        <ele>2982.799805</ele>
        <time>2014-08-21T09:50:51Z</time>
      </trkpt>
      <trkpt lat="44.98912" lon="6.73914">
        <ele>2983.860107</ele>
        <time>2014-08-21T09:51:02Z</time>
      </trkpt>
      <trkpt lat="44.98914" lon="6.7391">
        <ele>2984.72998</ele>
        <time>2014-08-21T09:51:11Z</time>
      </trkpt>
      <trkpt lat="44.98917" lon="6.73908">
        <ele>2986.400146</ele>
        <time>2014-08-21T09:51:19Z</time>
      </trkpt>
      <trkpt lat="44.98918" lon="6.73907">
        <ele>2987.919922</ele>
        <time>2014-08-21T09:51:28Z</time>
      </trkpt>
      <trkpt lat="44.98918" lon="6.73905">
        <ele>2988.439941</ele>
        <time>2014-08-21T09:51:37Z</time>
      </trkpt>
      <trkpt lat="44.98918" lon="6.73904">
        <ele>2989</ele>
        <time>2014-08-21T09:52:05Z</time>
      </trkpt>
      <trkpt lat="44.9892" lon="6.73902">
        <ele>2989.350098</ele>
        <time>2014-08-21T09:52:29Z</time>
      </trkpt>
      <trkpt lat="44.98921" lon="6.73898">
        <ele>2990.739746</ele>
        <time>2014-08-21T09:52:37Z</time>
      </trkpt>
      <trkpt lat="44.98923" lon="6.73894">
        <ele>2992.299805</ele>
        <time>2014-08-21T09:52:45Z</time>
      </trkpt>
      <trkpt lat="44.98923" lon="6.73892">
        <ele>2994.429932</ele>
        <time>2014-08-21T09:52:56Z</time>
      </trkpt>
      <trkpt lat="44.98923" lon="6.73892">
        <ele>2994.77002</ele>
        <time>2014-08-21T09:53:24Z</time>
      </trkpt>
      <trkpt lat="44.98921" lon="6.73889">
        <ele>2995.27002</ele>
        <time>2014-08-21T09:53:33Z</time>
      </trkpt>
      <trkpt lat="44.98922" lon="6.73887">
        <ele>2996.859863</ele>
        <time>2014-08-21T09:53:42Z</time>
      </trkpt>
      <trkpt lat="44.98922" lon="6.73884">
        <ele>2998.119873</ele>
        <time>2014-08-21T09:53:49Z</time>
      </trkpt>
      <trkpt lat="44.98921" lon="6.73881">
        <ele>2999.959961</ele>
        <time>2014-08-21T09:53:58Z</time>
      </trkpt>
      <trkpt lat="44.98921" lon="6.73881">
        <ele>3000.389893</ele>
        <time>2014-08-21T09:54:22Z</time>
      </trkpt>
      <trkpt lat="44.98921" lon="6.7388">
        <ele>3000.199951</ele>
        <time>2014-08-21T09:54:52Z</time>
      </trkpt>
      <trkpt lat="44.98923" lon="6.73879">
        <ele>3001.159912</ele>
        <time>2014-08-21T09:55:02Z</time>
      </trkpt>
      <trkpt lat="44.98924" lon="6.73875">
        <ele>3002.440186</ele>
        <time>2014-08-21T09:55:09Z</time>
      </trkpt>
      <trkpt lat="44.98926" lon="6.73873">
        <ele>3004.580078</ele>
        <time>2014-08-21T09:55:18Z</time>
      </trkpt>
      <trkpt lat="44.98925" lon="6.73874">
        <ele>3005.5</ele>
        <time>2014-08-21T09:55:26Z</time>
      </trkpt>
      <trkpt lat="44.98925" lon="6.73873">
        <ele>3005.659912</ele>
        <time>2014-08-21T09:55:39Z</time>
      </trkpt>
      <trkpt lat="44.98926" lon="6.73871">
        <ele>3005.550049</ele>
        <time>2014-08-21T09:55:49Z</time>
      </trkpt>
      <trkpt lat="44.98925" lon="6.73867">
        <ele>3007.570068</ele>
        <time>2014-08-21T09:55:59Z</time>
      </trkpt>
      <trkpt lat="44.98925" lon="6.73867">
        <ele>3008.929932</ele>
        <time>2014-08-21T09:56:12Z</time>
      </trkpt>
      <trkpt lat="44.98925" lon="6.73866">
        <ele>3008.570068</ele>
        <time>2014-08-21T09:56:30Z</time>
      </trkpt>
      <trkpt lat="44.98924" lon="6.73866">
        <ele>3008.420166</ele>
        <time>2014-08-21T09:57:33Z</time>
      </trkpt>
      <trkpt lat="44.98924" lon="6.73867">
        <ele>3008.709961</ele>
        <time>2014-08-21T09:58:36Z</time>
      </trkpt>
      <trkpt lat="44.98924" lon="6.73867">
        <ele>3008.659912</ele>
        <time>2014-08-21T09:59:15Z</time>
      </trkpt>
      <trkpt lat="44.98923" lon="6.73868">
        <ele>3008.560059</ele>
        <time>2014-08-21T09:59:56Z</time>
      </trkpt>
      <trkpt lat="44.98923" lon="6.73867">
        <ele>3008.689941</ele>
        <time>2014-08-21T10:00:10Z</time>
      </trkpt>
      <trkpt lat="44.98923" lon="6.73868">
        <ele>3008.609863</ele>
        <time>2014-08-21T10:00:30Z</time>
      </trkpt>
      <trkpt lat="44.98923" lon="6.73868">
        <ele>3008.820068</ele>
        <time>2014-08-21T10:00:37Z</time>
      </trkpt>
      <trkpt lat="44.98924" lon="6.73866">
        <ele>3008.890137</ele>
        <time>2014-08-21T10:00:44Z</time>
      </trkpt>
      <trkpt lat="44.98924" lon="6.73862">
        <ele>3010.350098</ele>
        <time>2014-08-21T10:00:53Z</time>
      </trkpt>
      <trkpt lat="44.98925" lon="6.73856">
        <ele>3012.050049</ele>
        <time>2014-08-21T10:01:01Z</time>
      </trkpt>
      <trkpt lat="44.98925" lon="6.7385">
        <ele>3014.310059</ele>
        <time>2014-08-21T10:01:09Z</time>
      </trkpt>
      <trkpt lat="44.98926" lon="6.73847">
        <ele>3017.210205</ele>
        <time>2014-08-21T10:01:19Z</time>
      </trkpt>
      <trkpt lat="44.98927" lon="6.73845">
        <ele>3017.73999</ele>
        <time>2014-08-21T10:01:38Z</time>
      </trkpt>
      <trkpt lat="44.98926" lon="6.73842">
        <ele>3017.889893</ele>
        <time>2014-08-21T10:01:56Z</time>
      </trkpt>
      <trkpt lat="44.98925" lon="6.73837">
        <ele>3019.389893</ele>
        <time>2014-08-21T10:02:04Z</time>
      </trkpt>
      <trkpt lat="44.98925" lon="6.73837">
        <ele>3020.629883</ele>
        <time>2014-08-21T10:02:14Z</time>
      </trkpt>
      <trkpt lat="44.98925" lon="6.73838">
        <ele>3020.899902</ele>
        <time>2014-08-21T10:02:43Z</time>
      </trkpt>
      <trkpt lat="44.98926" lon="6.73836">
        <ele>3021.280029</ele>
        <time>2014-08-21T10:02:52Z</time>
      </trkpt>
      <trkpt lat="44.98923" lon="6.73834">
        <ele>3021.889893</ele>
        <time>2014-08-21T10:03:02Z</time>
      </trkpt>
      <trkpt lat="44.98921" lon="6.73832">
        <ele>3022.75</ele>
        <time>2014-08-21T10:03:10Z</time>
      </trkpt>
      <trkpt lat="44.98921" lon="6.73832">
        <ele>3024.47998</ele>
        <time>2014-08-21T10:03:21Z</time>
      </trkpt>
      <trkpt lat="44.98922" lon="6.73829">
        <ele>3025.059814</ele>
        <time>2014-08-21T10:03:30Z</time>
      </trkpt>
      <trkpt lat="44.98922" lon="6.73828">
        <ele>3025.840088</ele>
        <time>2014-08-21T10:03:38Z</time>
      </trkpt>
      <trkpt lat="44.98922" lon="6.73825">
        <ele>3026.339844</ele>
        <time>2014-08-21T10:03:58Z</time>
      </trkpt>
      <trkpt lat="44.98919" lon="6.73825">
        <ele>3026.75</ele>
        <time>2014-08-21T10:04:15Z</time>
      </trkpt>
      <trkpt lat="44.98918" lon="6.73824">
        <ele>3028.459961</ele>
        <time>2014-08-21T10:04:26Z</time>
      </trkpt>
      <trkpt lat="44.98918" lon="6.73822">
        <ele>3030.100098</ele>
        <time>2014-08-21T10:04:33Z</time>
      </trkpt>
      <trkpt lat="44.98918" lon="6.7382">
        <ele>3031.619873</ele>
        <time>2014-08-21T10:04:39Z</time>
      </trkpt>
      <trkpt lat="44.98918" lon="6.7382">
        <ele>3032.26001</ele>
        <time>2014-08-21T10:04:54Z</time>
      </trkpt>
      <trkpt lat="44.98918" lon="6.73821">
        <ele>3032.469971</ele>
        <time>2014-08-21T10:05:15Z</time>
      </trkpt>
      <trkpt lat="44.98918" lon="6.7382">
        <ele>3032.379883</ele>
        <time>2014-08-21T10:06:42Z</time>
      </trkpt>
      <trkpt lat="44.98919" lon="6.73817">
        <ele>3032.549805</ele>
        <time>2014-08-21T10:07:17Z</time>
      </trkpt>
      <trkpt lat="44.98923" lon="6.73804">
        <ele>3034.620117</ele>
        <time>2014-08-21T10:07:30Z</time>
      </trkpt>
      <trkpt lat="44.98929" lon="6.73796">
        <ele>3036.169922</ele>
        <time>2014-08-21T10:07:41Z</time>
      </trkpt>
      <trkpt lat="44.98932" lon="6.73791">
        <ele>3037.570068</ele>
        <time>2014-08-21T10:07:49Z</time>
      </trkpt>
      <trkpt lat="44.98937" lon="6.73788">
        <ele>3039.650146</ele>
        <time>2014-08-21T10:07:59Z</time>
      </trkpt>
      <trkpt lat="44.98937" lon="6.73787">
        <ele>3040.630127</ele>
        <time>2014-08-21T10:08:11Z</time>
      </trkpt>
      <trkpt lat="44.98938" lon="6.73786">
        <ele>3040.550049</ele>
        <time>2014-08-21T10:08:23Z</time>
      </trkpt>
      <trkpt lat="44.98938" lon="6.73784">
        <ele>3040.739746</ele>
        <time>2014-08-21T10:08:41Z</time>
      </trkpt>
      <trkpt lat="44.98937" lon="6.73785">
        <ele>3040.98999</ele>
        <time>2014-08-21T10:09:17Z</time>
      </trkpt>
      <trkpt lat="44.98937" lon="6.73785">
        <ele>3040.889893</ele>
        <time>2014-08-21T10:10:20Z</time>
      </trkpt>
      <trkpt lat="44.98936" lon="6.73785">
        <ele>3040.550049</ele>
        <time>2014-08-21T10:11:18Z</time>
      </trkpt>
      <trkpt lat="44.98936" lon="6.73785">
        <ele>3040.97998</ele>
        <time>2014-08-21T10:12:16Z</time>
      </trkpt>
      <trkpt lat="44.98935" lon="6.73785">
        <ele>3041.27002</ele>
        <time>2014-08-21T10:13:07Z</time>
      </trkpt>
      <trkpt lat="44.98936" lon="6.73784">
        <ele>3041.330078</ele>
        <time>2014-08-21T10:13:51Z</time>
      </trkpt>
      <trkpt lat="44.98936" lon="6.73784">
        <ele>3040.810059</ele>
        <time>2014-08-21T10:14:40Z</time>
      </trkpt>
      <trkpt lat="44.98936" lon="6.73783">
        <ele>3041.010254</ele>
        <time>2014-08-21T10:15:22Z</time>
      </trkpt>
      <trkpt lat="44.98936" lon="6.73784">
        <ele>3041.199951</ele>
        <time>2014-08-21T10:16:10Z</time>
      </trkpt>
      <trkpt lat="44.98936" lon="6.73783">
        <ele>3041.609863</ele>
        <time>2014-08-21T10:16:42Z</time>
      </trkpt>
      <trkpt lat="44.9894" lon="6.73783">
        <ele>3041.52002</ele>
        <time>2014-08-21T10:16:53Z</time>
      </trkpt>
      <trkpt lat="44.98941" lon="6.73782">
        <ele>3040.5</ele>
        <time>2014-08-21T10:17:02Z</time>
      </trkpt>
      <trkpt lat="44.9894" lon="6.73781">
        <ele>3040.099854</ele>
        <time>2014-08-21T10:17:33Z</time>
      </trkpt>
      <trkpt lat="44.9894" lon="6.73781">
        <ele>3039.790039</ele>
        <time>2014-08-21T10:18:01Z</time>
      </trkpt>
      <trkpt lat="44.98941" lon="6.7378">
        <ele>3039.810059</ele>
        <time>2014-08-21T10:18:14Z</time>
      </trkpt>
      <trkpt lat="44.98943" lon="6.7378">
        <ele>3039.870117</ele>
        <time>2014-08-21T10:18:19Z</time>
      </trkpt>
      <trkpt lat="44.9895" lon="6.73778">
        <ele>3039.560059</ele>
        <time>2014-08-21T10:18:23Z</time>
      </trkpt>
      <trkpt lat="44.98958" lon="6.73775">
        <ele>3036.929932</ele>
        <time>2014-08-21T10:18:29Z</time>
      </trkpt>
      <trkpt lat="44.98959" lon="6.73778">
        <ele>3034.169922</ele>
        <time>2014-08-21T10:18:57Z</time>
      </trkpt>
      <trkpt lat="44.9896" lon="6.73779">
        <ele>3034.009766</ele>
        <time>2014-08-21T10:19:53Z</time>
      </trkpt>
      <trkpt lat="44.98964" lon="6.73778">
        <ele>3034.119873</ele>
        <time>2014-08-21T10:20:01Z</time>
      </trkpt>
      <trkpt lat="44.98971" lon="6.73778">
        <ele>3033.860107</ele>
        <time>2014-08-21T10:20:12Z</time>
      </trkpt>
      <trkpt lat="44.98978" lon="6.7378">
        <ele>3033.669922</ele>
        <time>2014-08-21T10:20:19Z</time>
      </trkpt>
      <trkpt lat="44.98984" lon="6.73784">
        <ele>3035.330078</ele>
        <time>2014-08-21T10:20:30Z</time>
      </trkpt>
      <trkpt lat="44.98987" lon="6.73785">
        <ele>3036.330078</ele>
        <time>2014-08-21T10:20:37Z</time>
      </trkpt>
      <trkpt lat="44.98988" lon="6.73786">
        <ele>3036.359863</ele>
        <time>2014-08-21T10:20:45Z</time>
      </trkpt>
      <trkpt lat="44.9899" lon="6.73785">
        <ele>3036.02002</ele>
        <time>2014-08-21T10:20:54Z</time>
      </trkpt>
      <trkpt lat="44.98994" lon="6.73786">
        <ele>3035.969971</ele>
        <time>2014-08-21T10:21:01Z</time>
      </trkpt>
      <trkpt lat="44.98994" lon="6.73786">
        <ele>3035.77002</ele>
        <time>2014-08-21T10:21:23Z</time>
      </trkpt>
      <trkpt lat="44.98993" lon="6.73784">
        <ele>3035.540039</ele>
        <time>2014-08-21T10:21:43Z</time>
      </trkpt>
      <trkpt lat="44.98993" lon="6.73783">
        <ele>3035.790039</ele>
        <time>2014-08-21T10:22:14Z</time>
      </trkpt>
      <trkpt lat="44.98995" lon="6.73779">
        <ele>3035.830078</ele>
        <time>2014-08-21T10:22:24Z</time>
      </trkpt>
      <trkpt lat="44.99002" lon="6.73777">
        <ele>3035.51001</ele>
        <time>2014-08-21T10:22:33Z</time>
      </trkpt>
      <trkpt lat="44.9901" lon="6.73773">
        <ele>3035.619873</ele>
        <time>2014-08-21T10:22:43Z</time>
      </trkpt>
      <trkpt lat="44.99016" lon="6.7377">
        <ele>3035.419922</ele>
        <time>2014-08-21T10:22:49Z</time>
      </trkpt>
      <trkpt lat="44.99019" lon="6.73769">
        <ele>3034.949951</ele>
        <time>2014-08-21T10:22:54Z</time>
      </trkpt>
      <trkpt lat="44.99023" lon="6.73771">
        <ele>3033.340088</ele>
        <time>2014-08-21T10:23:02Z</time>
      </trkpt>
      <trkpt lat="44.99023" lon="6.73771">
        <ele>3032.300049</ele>
        <time>2014-08-21T10:23:34Z</time>
      </trkpt>
      <trkpt lat="44.99023" lon="6.73771">
        <ele>3033.110107</ele>
        <time>2014-08-21T10:24:05Z</time>
      </trkpt>
      <trkpt lat="44.99023" lon="6.73771">
        <ele>3032.890137</ele>
        <time>2014-08-21T10:24:19Z</time>
      </trkpt>
      <trkpt lat="44.99018" lon="6.73771">
        <ele>3034.059814</ele>
        <time>2014-08-21T10:24:27Z</time>
      </trkpt>
      <trkpt lat="44.99019" lon="6.73771">
        <ele>3035.049805</ele>
        <time>2014-08-21T10:24:37Z</time>
      </trkpt>
      <trkpt lat="44.99027" lon="6.73772">
        <ele>3033.75</ele>
        <time>2014-08-21T10:24:46Z</time>
      </trkpt>
      <trkpt lat="44.99027" lon="6.73774">
        <ele>3032.050049</ele>
        <time>2014-08-21T10:24:54Z</time>
      </trkpt>
      <trkpt lat="44.9903" lon="6.73776">
        <ele>3031.189941</ele>
        <time>2014-08-21T10:25:30Z</time>
      </trkpt>
      <trkpt lat="44.99039" lon="6.73779">
        <ele>3029.52002</ele>
        <time>2014-08-21T10:25:39Z</time>
      </trkpt>
      <trkpt lat="44.99044" lon="6.73776">
        <ele>3026.25</ele>
        <time>2014-08-21T10:25:46Z</time>
      </trkpt>
      <trkpt lat="44.99045" lon="6.73775">
        <ele>3024.089844</ele>
        <time>2014-08-21T10:25:54Z</time>
      </trkpt>
      <trkpt lat="44.99052" lon="6.73775">
        <ele>3022.189941</ele>
        <time>2014-08-21T10:26:01Z</time>
      </trkpt>
      <trkpt lat="44.99056" lon="6.73772">
        <ele>3018.640137</ele>
        <time>2014-08-21T10:26:08Z</time>
      </trkpt>
      <trkpt lat="44.99059" lon="6.73772">
        <ele>3016.949951</ele>
        <time>2014-08-21T10:26:12Z</time>
      </trkpt>
      <trkpt lat="44.99063" lon="6.7377">
        <ele>3015.209961</ele>
        <time>2014-08-21T10:26:17Z</time>
      </trkpt>
      <trkpt lat="44.9907" lon="6.73771">
        <ele>3012.089844</ele>
        <time>2014-08-21T10:26:26Z</time>
      </trkpt>
      <trkpt lat="44.99075" lon="6.73773">
        <ele>3010.150146</ele>
        <time>2014-08-21T10:26:32Z</time>
      </trkpt>
      <trkpt lat="44.99076" lon="6.7377">
        <ele>3007.689941</ele>
        <time>2014-08-21T10:26:40Z</time>
      </trkpt>
      <trkpt lat="44.99078" lon="6.7377">
        <ele>3007.069824</ele>
        <time>2014-08-21T10:26:44Z</time>
      </trkpt>
      <trkpt lat="44.99085" lon="6.73773">
        <ele>3005.400146</ele>
        <time>2014-08-21T10:26:53Z</time>
      </trkpt>
      <trkpt lat="44.99086" lon="6.73774">
        <ele>3003.679932</ele>
        <time>2014-08-21T10:27:04Z</time>
      </trkpt>
      <trkpt lat="44.99087" lon="6.73774">
        <ele>3003.670166</ele>
        <time>2014-08-21T10:27:06Z</time>
      </trkpt>
      <trkpt lat="44.99091" lon="6.73772">
        <ele>3003.419922</ele>
        <time>2014-08-21T10:27:11Z</time>
      </trkpt>
      <trkpt lat="44.991" lon="6.73767">
        <ele>3000.319824</ele>
        <time>2014-08-21T10:27:21Z</time>
      </trkpt>
      <trkpt lat="44.991" lon="6.73765">
        <ele>2999.649902</ele>
        <time>2014-08-21T10:27:23Z</time>
      </trkpt>
      <trkpt lat="44.99103" lon="6.73762">
        <ele>2998.630127</ele>
        <time>2014-08-21T10:27:26Z</time>
      </trkpt>
      <trkpt lat="44.99105" lon="6.73762">
        <ele>2997.590088</ele>
        <time>2014-08-21T10:27:28Z</time>
      </trkpt>
      <trkpt lat="44.99114" lon="6.73759">
        <ele>2995.969971</ele>
        <time>2014-08-21T10:27:36Z</time>
      </trkpt>
      <trkpt lat="44.99123" lon="6.73757">
        <ele>2994.219971</ele>
        <time>2014-08-21T10:27:45Z</time>
      </trkpt>
      <trkpt lat="44.99125" lon="6.73757">
        <ele>2993.919922</ele>
        <time>2014-08-21T10:27:48Z</time>
      </trkpt>
      <trkpt lat="44.99131" lon="6.7375">
        <ele>2993.559814</ele>
        <time>2014-08-21T10:27:56Z</time>
      </trkpt>
      <trkpt lat="44.99135" lon="6.73743">
        <ele>2992.560059</ele>
        <time>2014-08-21T10:28:06Z</time>
      </trkpt>
      <trkpt lat="44.9914" lon="6.73737">
        <ele>2990.419922</ele>
        <time>2014-08-21T10:28:16Z</time>
      </trkpt>
      <trkpt lat="44.99143" lon="6.73733">
        <ele>2988.099854</ele>
        <time>2014-08-21T10:28:25Z</time>
      </trkpt>
      <trkpt lat="44.99148" lon="6.73729">
        <ele>2986.680176</ele>
        <time>2014-08-21T10:28:33Z</time>
      </trkpt>
      <trkpt lat="44.99154" lon="6.73725">
        <ele>2984.970215</ele>
        <time>2014-08-21T10:28:40Z</time>
      </trkpt>
      <trkpt lat="44.99157" lon="6.73724">
        <ele>2983.680176</ele>
        <time>2014-08-21T10:28:44Z</time>
      </trkpt>
      <trkpt lat="44.9916" lon="6.73723">
        <ele>2982.640137</ele>
        <time>2014-08-21T10:28:51Z</time>
      </trkpt>
      <trkpt lat="44.99162" lon="6.73721">
        <ele>2982.439941</ele>
        <time>2014-08-21T10:28:53Z</time>
      </trkpt>
      <trkpt lat="44.99164" lon="6.73721">
        <ele>2982.150146</ele>
        <time>2014-08-21T10:29:01Z</time>
      </trkpt>
      <trkpt lat="44.99164" lon="6.73722">
        <ele>2982.079834</ele>
        <time>2014-08-21T10:29:12Z</time>
      </trkpt>
      <trkpt lat="44.99168" lon="6.73721">
        <ele>2982.25</ele>
        <time>2014-08-21T10:29:22Z</time>
      </trkpt>
      <trkpt lat="44.9917" lon="6.7372">
        <ele>2981.449951</ele>
        <time>2014-08-21T10:29:30Z</time>
      </trkpt>
      <trkpt lat="44.99172" lon="6.73721">
        <ele>2981.22998</ele>
        <time>2014-08-21T10:29:40Z</time>
      </trkpt>
      <trkpt lat="44.99177" lon="6.73718">
        <ele>2980.47998</ele>
        <time>2014-08-21T10:29:51Z</time>
      </trkpt>
      <trkpt lat="44.99182" lon="6.73716">
        <ele>2978.449951</ele>
        <time>2014-08-21T10:30:00Z</time>
      </trkpt>
      <trkpt lat="44.99186" lon="6.73717">
        <ele>2978.390137</ele>
        <time>2014-08-21T10:30:08Z</time>
      </trkpt>
      <trkpt lat="44.9919" lon="6.73719">
        <ele>2979.889893</ele>
        <time>2014-08-21T10:30:17Z</time>
      </trkpt>
      <trkpt lat="44.99193" lon="6.7372">
        <ele>2980.51001</ele>
        <time>2014-08-21T10:30:26Z</time>
      </trkpt>
      <trkpt lat="44.99198" lon="6.73722">
        <ele>2981.460205</ele>
        <time>2014-08-21T10:30:36Z</time>
      </trkpt>
      <trkpt lat="44.99199" lon="6.73723">
        <ele>2982.030029</ele>
        <time>2014-08-21T10:30:47Z</time>
      </trkpt>
      <trkpt lat="44.99202" lon="6.73724">
        <ele>2982.679932</ele>
        <time>2014-08-21T10:31:11Z</time>
      </trkpt>
      <trkpt lat="44.99206" lon="6.73729">
        <ele>2982.920166</ele>
        <time>2014-08-21T10:31:20Z</time>
      </trkpt>
      <trkpt lat="44.99209" lon="6.73731">
        <ele>2983.889893</ele>
        <time>2014-08-21T10:31:25Z</time>
      </trkpt>
      <trkpt lat="44.99213" lon="6.73736">
        <ele>2984.370117</ele>
        <time>2014-08-21T10:31:31Z</time>
      </trkpt>
      <trkpt lat="44.99217" lon="6.73738">
        <ele>2985.22998</ele>
        <time>2014-08-21T10:31:39Z</time>
      </trkpt>
      <trkpt lat="44.99217" lon="6.73739">
        <ele>2985.23999</ele>
        <time>2014-08-21T10:31:54Z</time>
      </trkpt>
      <trkpt lat="44.99217" lon="6.73738">
        <ele>2984.870117</ele>
        <time>2014-08-21T10:32:17Z</time>
      </trkpt>
      <trkpt lat="44.99218" lon="6.73738">
        <ele>2985.030029</ele>
        <time>2014-08-21T10:32:20Z</time>
      </trkpt>
      <trkpt lat="44.99223" lon="6.73736">
        <ele>2985.220215</ele>
        <time>2014-08-21T10:32:24Z</time>
      </trkpt>
      <trkpt lat="44.99225" lon="6.73735">
        <ele>2985.099854</ele>
        <time>2014-08-21T10:32:31Z</time>
      </trkpt>
      <trkpt lat="44.99224" lon="6.73739">
        <ele>2984.879883</ele>
        <time>2014-08-21T10:32:34Z</time>
      </trkpt>
      <trkpt lat="44.99226" lon="6.73742">
        <ele>2983.820068</ele>
        <time>2014-08-21T10:32:40Z</time>
      </trkpt>
      <trkpt lat="44.99227" lon="6.73743">
        <ele>2982.949951</ele>
        <time>2014-08-21T10:32:50Z</time>
      </trkpt>
      <trkpt lat="44.9923" lon="6.73743">
        <ele>2983.049805</ele>
        <time>2014-08-21T10:33:30Z</time>
      </trkpt>
      <trkpt lat="44.99231" lon="6.73744">
        <ele>2983.129883</ele>
        <time>2014-08-21T10:34:00Z</time>
      </trkpt>
      <trkpt lat="44.9923" lon="6.73743">
        <ele>2982.290039</ele>
        <time>2014-08-21T10:34:31Z</time>
      </trkpt>
      <trkpt lat="44.9923" lon="6.73739">
        <ele>2982.599854</ele>
        <time>2014-08-21T10:34:36Z</time>
      </trkpt>
      <trkpt lat="44.99231" lon="6.73731">
        <ele>2984.469971</ele>
        <time>2014-08-21T10:34:45Z</time>
      </trkpt>
      <trkpt lat="44.99238" lon="6.73729">
        <ele>2986</ele>
        <time>2014-08-21T10:34:55Z</time>
      </trkpt>
      <trkpt lat="44.99243" lon="6.73727">
        <ele>2987.869873</ele>
        <time>2014-08-21T10:35:04Z</time>
      </trkpt>
      <trkpt lat="44.99247" lon="6.73724">
        <ele>2990.47998</ele>
        <time>2014-08-21T10:35:14Z</time>
      </trkpt>
      <trkpt lat="44.9925" lon="6.73724">
        <ele>2992.02002</ele>
        <time>2014-08-21T10:35:22Z</time>
      </trkpt>
      <trkpt lat="44.99249" lon="6.73724">
        <ele>2992.249756</ele>
        <time>2014-08-21T10:35:41Z</time>
      </trkpt>
      <trkpt lat="44.99248" lon="6.73724">
        <ele>2992.310059</ele>
        <time>2014-08-21T10:36:02Z</time>
      </trkpt>
      <trkpt lat="44.99253" lon="6.73724">
        <ele>2993.589844</ele>
        <time>2014-08-21T10:36:11Z</time>
      </trkpt>
      <trkpt lat="44.99257" lon="6.7373">
        <ele>2995.719971</ele>
        <time>2014-08-21T10:36:21Z</time>
      </trkpt>
      <trkpt lat="44.99262" lon="6.73728">
        <ele>2997.949951</ele>
        <time>2014-08-21T10:36:31Z</time>
      </trkpt>
      <trkpt lat="44.99266" lon="6.73725">
        <ele>3000.610107</ele>
        <time>2014-08-21T10:36:42Z</time>
      </trkpt>
      <trkpt lat="44.99266" lon="6.73725">
        <ele>3001.209961</ele>
        <time>2014-08-21T10:37:09Z</time>
      </trkpt>
      <trkpt lat="44.99266" lon="6.73727">
        <ele>3001.590088</ele>
        <time>2014-08-21T10:37:31Z</time>
      </trkpt>
      <trkpt lat="44.99268" lon="6.73729">
        <ele>3002.190186</ele>
        <time>2014-08-21T10:37:37Z</time>
      </trkpt>
      <trkpt lat="44.99273" lon="6.73729">
        <ele>3003.650146</ele>
        <time>2014-08-21T10:37:46Z</time>
      </trkpt>
      <trkpt lat="44.99276" lon="6.7373">
        <ele>3005.76001</ele>
        <time>2014-08-21T10:37:56Z</time>
      </trkpt>
      <trkpt lat="44.9928" lon="6.73731">
        <ele>3007.410156</ele>
        <time>2014-08-21T10:38:05Z</time>
      </trkpt>
      <trkpt lat="44.99281" lon="6.7373">
        <ele>3008.98999</ele>
        <time>2014-08-21T10:38:17Z</time>
      </trkpt>
      <trkpt lat="44.99282" lon="6.7373">
        <ele>3009.179932</ele>
        <time>2014-08-21T10:38:38Z</time>
      </trkpt>
      <trkpt lat="44.99286" lon="6.73732">
        <ele>3009.349854</ele>
        <time>2014-08-21T10:38:51Z</time>
      </trkpt>
      <trkpt lat="44.99289" lon="6.7373">
        <ele>3011.090088</ele>
        <time>2014-08-21T10:39:01Z</time>
      </trkpt>
      <trkpt lat="44.99293" lon="6.73729">
        <ele>3012.709961</ele>
        <time>2014-08-21T10:39:09Z</time>
      </trkpt>
      <trkpt lat="44.99296" lon="6.73727">
        <ele>3014.190186</ele>
        <time>2014-08-21T10:39:18Z</time>
      </trkpt>
      <trkpt lat="44.99301" lon="6.73725">
        <ele>3016.199951</ele>
        <time>2014-08-21T10:39:28Z</time>
      </trkpt>
      <trkpt lat="44.99304" lon="6.73724">
        <ele>3017.589844</ele>
        <time>2014-08-21T10:39:37Z</time>
      </trkpt>
      <trkpt lat="44.99303" lon="6.73723">
        <ele>3018.299805</ele>
        <time>2014-08-21T10:39:51Z</time>
      </trkpt>
      <trkpt lat="44.99303" lon="6.73723">
        <ele>3019.110107</ele>
        <time>2014-08-21T10:40:07Z</time>
      </trkpt>
      <trkpt lat="44.99306" lon="6.73721">
        <ele>3019.26001</ele>
        <time>2014-08-21T10:40:15Z</time>
      </trkpt>
      <trkpt lat="44.99311" lon="6.73718">
        <ele>3021.360107</ele>
        <time>2014-08-21T10:40:26Z</time>
      </trkpt>
      <trkpt lat="44.99315" lon="6.73716">
        <ele>3023.030029</ele>
        <time>2014-08-21T10:40:36Z</time>
      </trkpt>
      <trkpt lat="44.99317" lon="6.73717">
        <ele>3024.310059</ele>
        <time>2014-08-21T10:40:45Z</time>
      </trkpt>
      <trkpt lat="44.99316" lon="6.73717">
        <ele>3024.469971</ele>
        <time>2014-08-21T10:40:55Z</time>
      </trkpt>
      <trkpt lat="44.99317" lon="6.73717">
        <ele>3024.77002</ele>
        <time>2014-08-21T10:41:07Z</time>
      </trkpt>
      <trkpt lat="44.99317" lon="6.73716">
        <ele>3024.48999</ele>
        <time>2014-08-21T10:41:31Z</time>
      </trkpt>
      <trkpt lat="44.9932" lon="6.73715">
        <ele>3025.01001</ele>
        <time>2014-08-21T10:41:40Z</time>
      </trkpt>
      <trkpt lat="44.99325" lon="6.73715">
        <ele>3026.780029</ele>
        <time>2014-08-21T10:41:50Z</time>
      </trkpt>
      <trkpt lat="44.9933" lon="6.73712">
        <ele>3029.219971</ele>
        <time>2014-08-21T10:42:00Z</time>
      </trkpt>
      <trkpt lat="44.99334" lon="6.73707">
        <ele>3030.819824</ele>
        <time>2014-08-21T10:42:10Z</time>
      </trkpt>
      <trkpt lat="44.99338" lon="6.73705">
        <ele>3032.079834</ele>
        <time>2014-08-21T10:42:20Z</time>
      </trkpt>
      <trkpt lat="44.99338" lon="6.73706">
        <ele>3032.820068</ele>
        <time>2014-08-21T10:42:38Z</time>
      </trkpt>
      <trkpt lat="44.99338" lon="6.73703">
        <ele>3033.240234</ele>
        <time>2014-08-21T10:43:08Z</time>
      </trkpt>
      <trkpt lat="44.99342" lon="6.737">
        <ele>3034.109863</ele>
        <time>2014-08-21T10:43:16Z</time>
      </trkpt>
      <trkpt lat="44.99345" lon="6.73696">
        <ele>3035.640137</ele>
        <time>2014-08-21T10:43:24Z</time>
      </trkpt>
      <trkpt lat="44.99348" lon="6.73694">
        <ele>3036.850098</ele>
        <time>2014-08-21T10:43:32Z</time>
      </trkpt>
      <trkpt lat="44.9935" lon="6.73694">
        <ele>3038.140137</ele>
        <time>2014-08-21T10:43:40Z</time>
      </trkpt>
      <trkpt lat="44.99352" lon="6.73694">
        <ele>3039.150146</ele>
        <time>2014-08-21T10:43:49Z</time>
      </trkpt>
      <trkpt lat="44.99351" lon="6.73693">
        <ele>3038.959961</ele>
        <time>2014-08-21T10:44:13Z</time>
      </trkpt>
      <trkpt lat="44.99351" lon="6.73694">
        <ele>3039.100098</ele>
        <time>2014-08-21T10:44:50Z</time>
      </trkpt>
      <trkpt lat="44.99352" lon="6.73693">
        <ele>3039.059814</ele>
        <time>2014-08-21T10:45:28Z</time>
      </trkpt>
      <trkpt lat="44.99351" lon="6.73693">
        <ele>3039.23999</ele>
        <time>2014-08-21T10:46:03Z</time>
      </trkpt>
      <trkpt lat="44.99352" lon="6.73692">
        <ele>3039.340088</ele>
        <time>2014-08-21T10:46:39Z</time>
      </trkpt>
      <trkpt lat="44.99352" lon="6.73692">
        <ele>3039.400146</ele>
        <time>2014-08-21T10:47:17Z</time>
      </trkpt>
      <trkpt lat="44.99352" lon="6.73692">
        <ele>3039.320068</ele>
        <time>2014-08-21T10:47:50Z</time>
      </trkpt>
      <trkpt lat="44.99351" lon="6.73692">
        <ele>3039.150146</ele>
        <time>2014-08-21T10:48:26Z</time>
      </trkpt>
      <trkpt lat="44.99351" lon="6.73692">
        <ele>3038.75</ele>
        <time>2014-08-21T10:48:56Z</time>
      </trkpt>
      <trkpt lat="44.99351" lon="6.73693">
        <ele>3038.880127</ele>
        <time>2014-08-21T10:49:36Z</time>
      </trkpt>
      <trkpt lat="44.99351" lon="6.73693">
        <ele>3039.02002</ele>
        <time>2014-08-21T10:50:15Z</time>
      </trkpt>
      <trkpt lat="44.99351" lon="6.73693">
        <ele>3039.180176</ele>
        <time>2014-08-21T10:50:46Z</time>
      </trkpt>
      <trkpt lat="44.99351" lon="6.73693">
        <ele>3038.830078</ele>
        <time>2014-08-21T10:51:31Z</time>
      </trkpt>
      <trkpt lat="44.99351" lon="6.73692">
        <ele>3039.040039</ele>
        <time>2014-08-21T10:52:13Z</time>
      </trkpt>
      <trkpt lat="44.99351" lon="6.73692">
        <ele>3039.040039</ele>
        <time>2014-08-21T10:52:49Z</time>
      </trkpt>
      <trkpt lat="44.99351" lon="6.73692">
        <ele>3039.500244</ele>
        <time>2014-08-21T10:53:32Z</time>
      </trkpt>
      <trkpt lat="44.99351" lon="6.73692">
        <ele>3039.469971</ele>
        <time>2014-08-21T10:54:04Z</time>
      </trkpt>
      <trkpt lat="44.99351" lon="6.73692">
        <ele>3039.52002</ele>
        <time>2014-08-21T10:54:51Z</time>
      </trkpt>
      <trkpt lat="44.99351" lon="6.73691">
        <ele>3039.689941</ele>
        <time>2014-08-21T10:55:45Z</time>
      </trkpt>
      <trkpt lat="44.99351" lon="6.73692">
        <ele>3039.350098</ele>
        <time>2014-08-21T10:56:26Z</time>
      </trkpt>
      <trkpt lat="44.99351" lon="6.73693">
        <ele>3039.749756</ele>
        <time>2014-08-21T10:57:17Z</time>
      </trkpt>
      <trkpt lat="44.9935" lon="6.73692">
        <ele>3039.350098</ele>
        <time>2014-08-21T10:57:59Z</time>
      </trkpt>
      <trkpt lat="44.9935" lon="6.73693">
        <ele>3039.590088</ele>
        <time>2014-08-21T10:58:41Z</time>
      </trkpt>
      <trkpt lat="44.9935" lon="6.73693">
        <ele>3039.400146</ele>
        <time>2014-08-21T10:59:21Z</time>
      </trkpt>
      <trkpt lat="44.9935" lon="6.73693">
        <ele>3039.429932</ele>
        <time>2014-08-21T10:59:58Z</time>
      </trkpt>
      <trkpt lat="44.9935" lon="6.73693">
        <ele>3039.959961</ele>
        <time>2014-08-21T11:00:42Z</time>
      </trkpt>
      <trkpt lat="44.9935" lon="6.73693">
        <ele>3039.98999</ele>
        <time>2014-08-21T11:01:19Z</time>
      </trkpt>
      <trkpt lat="44.9935" lon="6.73693">
        <ele>3039.799805</ele>
        <time>2014-08-21T11:02:02Z</time>
      </trkpt>
      <trkpt lat="44.9935" lon="6.73693">
        <ele>3040.490234</ele>
        <time>2014-08-21T11:02:46Z</time>
      </trkpt>
      <trkpt lat="44.9935" lon="6.73693">
        <ele>3040.719971</ele>
        <time>2014-08-21T11:03:31Z</time>
      </trkpt>
      <trkpt lat="44.9935" lon="6.73692">
        <ele>3040.110107</ele>
        <time>2014-08-21T11:04:14Z</time>
      </trkpt>
      <trkpt lat="44.9935" lon="6.73692">
        <ele>3040.310059</ele>
        <time>2014-08-21T11:04:56Z</time>
      </trkpt>
      <trkpt lat="44.99351" lon="6.73691">
        <ele>3040.699951</ele>
        <time>2014-08-21T11:05:46Z</time>
      </trkpt>
      <trkpt lat="44.9935" lon="6.73691">
        <ele>3040.590088</ele>
        <time>2014-08-21T11:06:31Z</time>
      </trkpt>
      <trkpt lat="44.9935" lon="6.73691">
        <ele>3040.76001</ele>
        <time>2014-08-21T11:07:15Z</time>
      </trkpt>
      <trkpt lat="44.99351" lon="6.73691">
        <ele>3040.75</ele>
        <time>2014-08-21T11:07:56Z</time>
      </trkpt>
      <trkpt lat="44.99351" lon="6.73691">
        <ele>3041.089844</ele>
        <time>2014-08-21T11:08:44Z</time>
      </trkpt>
      <trkpt lat="44.99352" lon="6.73691">
        <ele>3041.109863</ele>
        <time>2014-08-21T11:09:25Z</time>
      </trkpt>
      <trkpt lat="44.99352" lon="6.73691">
        <ele>3040.880127</ele>
        <time>2014-08-21T11:10:03Z</time>
      </trkpt>
      <trkpt lat="44.99352" lon="6.73691">
        <ele>3041.330078</ele>
        <time>2014-08-21T11:10:52Z</time>
      </trkpt>
      <trkpt lat="44.99352" lon="6.73691">
        <ele>3040.939941</ele>
        <time>2014-08-21T11:11:34Z</time>
      </trkpt>
      <trkpt lat="44.99351" lon="6.73691">
        <ele>3041.039795</ele>
        <time>2014-08-21T11:12:10Z</time>
      </trkpt>
      <trkpt lat="44.9935" lon="6.73692">
        <ele>3040.880127</ele>
        <time>2014-08-21T11:12:46Z</time>
      </trkpt>
      <trkpt lat="44.99349" lon="6.73693">
        <ele>3041.010254</ele>
        <time>2014-08-21T11:13:25Z</time>
      </trkpt>
      <trkpt lat="44.99348" lon="6.73693">
        <ele>3040.899902</ele>
        <time>2014-08-21T11:14:07Z</time>
      </trkpt>
      <trkpt lat="44.99348" lon="6.73693">
        <ele>3041.180176</ele>
        <time>2014-08-21T11:14:53Z</time>
      </trkpt>
      <trkpt lat="44.99349" lon="6.73693">
        <ele>3041.330078</ele>
        <time>2014-08-21T11:15:50Z</time>
      </trkpt>
      <trkpt lat="44.9935" lon="6.73692">
        <ele>3041.27002</ele>
        <time>2014-08-21T11:16:27Z</time>
      </trkpt>
      <trkpt lat="44.9935" lon="6.73692">
        <ele>3041.010254</ele>
        <time>2014-08-21T11:17:02Z</time>
      </trkpt>
      <trkpt lat="44.9935" lon="6.73691">
        <ele>3040.5</ele>
        <time>2014-08-21T11:17:33Z</time>
      </trkpt>
      <trkpt lat="44.9935" lon="6.7369">
        <ele>3041.030029</ele>
        <time>2014-08-21T11:18:07Z</time>
      </trkpt>
      <trkpt lat="44.99351" lon="6.7369">
        <ele>3041.27002</ele>
        <time>2014-08-21T11:18:46Z</time>
      </trkpt>
      <trkpt lat="44.99351" lon="6.73689">
        <ele>3041.230225</ele>
        <time>2014-08-21T11:19:22Z</time>
      </trkpt>
      <trkpt lat="44.99351" lon="6.73688">
        <ele>3041.679932</ele>
        <time>2014-08-21T11:19:58Z</time>
      </trkpt>
      <trkpt lat="44.9935" lon="6.73689">
        <ele>3041.309814</ele>
        <time>2014-08-21T11:20:27Z</time>
      </trkpt>
      <trkpt lat="44.9935" lon="6.73689">
        <ele>3041.679932</ele>
        <time>2014-08-21T11:20:57Z</time>
      </trkpt>
      <trkpt lat="44.9935" lon="6.73689">
        <ele>3041.439941</ele>
        <time>2014-08-21T11:21:29Z</time>
      </trkpt>
      <trkpt lat="44.9935" lon="6.73689">
        <ele>3041.779785</ele>
        <time>2014-08-21T11:21:57Z</time>
      </trkpt>
      <trkpt lat="44.9935" lon="6.73689">
        <ele>3041.700195</ele>
        <time>2014-08-21T11:22:30Z</time>
      </trkpt>
      <trkpt lat="44.9935" lon="6.7369">
        <ele>3041.700195</ele>
        <time>2014-08-21T11:23:00Z</time>
      </trkpt>
      <trkpt lat="44.99349" lon="6.73689">
        <ele>3042.159912</ele>
        <time>2014-08-21T11:23:36Z</time>
      </trkpt>
      <trkpt lat="44.99349" lon="6.73689">
        <ele>3041.550049</ele>
        <time>2014-08-21T11:23:46Z</time>
      </trkpt>
      <trkpt lat="44.9935" lon="6.73691">
        <ele>3041.480225</ele>
        <time>2014-08-21T11:24:24Z</time>
      </trkpt>
      <trkpt lat="44.9935" lon="6.73691">
        <ele>3041.209961</ele>
        <time>2014-08-21T11:25:01Z</time>
      </trkpt>
      <trkpt lat="44.9935" lon="6.73691">
        <ele>3041.98999</ele>
        <time>2014-08-21T11:25:34Z</time>
      </trkpt>
      <trkpt lat="44.99346" lon="6.73691">
        <ele>3042.120117</ele>
        <time>2014-08-21T11:25:42Z</time>
      </trkpt>
      <trkpt lat="44.99343" lon="6.73695">
        <ele>3041.659912</ele>
        <time>2014-08-21T11:25:51Z</time>
      </trkpt>
      <trkpt lat="44.99343" lon="6.73696">
        <ele>3040.22998</ele>
        <time>2014-08-21T11:26:05Z</time>
      </trkpt>
      <trkpt lat="44.99344" lon="6.73696">
        <ele>3039.48999</ele>
        <time>2014-08-21T11:26:16Z</time>
      </trkpt>
      <trkpt lat="44.99344" lon="6.73697">
        <ele>3039.849854</ele>
        <time>2014-08-21T11:27:05Z</time>
      </trkpt>
      <trkpt lat="44.99344" lon="6.73697">
        <ele>3040.209961</ele>
        <time>2014-08-21T11:27:25Z</time>
      </trkpt>
      <trkpt lat="44.9934" lon="6.737">
        <ele>3040.349854</ele>
        <time>2014-08-21T11:27:32Z</time>
      </trkpt>
      <trkpt lat="44.99335" lon="6.73705">
        <ele>3038.809814</ele>
        <time>2014-08-21T11:27:39Z</time>
      </trkpt>
      <trkpt lat="44.99335" lon="6.73706">
        <ele>3036.969971</ele>
        <time>2014-08-21T11:28:00Z</time>
      </trkpt>
      <trkpt lat="44.99335" lon="6.73705">
        <ele>3036.780029</ele>
        <time>2014-08-21T11:28:26Z</time>
      </trkpt>
      <trkpt lat="44.99335" lon="6.73706">
        <ele>3037.109863</ele>
        <time>2014-08-21T11:28:45Z</time>
      </trkpt>
      <trkpt lat="44.99331" lon="6.7371">
        <ele>3036.659912</ele>
        <time>2014-08-21T11:29:05Z</time>
      </trkpt>
      <trkpt lat="44.99328" lon="6.73713">
        <ele>3036.320068</ele>
        <time>2014-08-21T11:29:12Z</time>
      </trkpt>
      <trkpt lat="44.99321" lon="6.73717">
        <ele>3035.77002</ele>
        <time>2014-08-21T11:29:20Z</time>
      </trkpt>
      <trkpt lat="44.99313" lon="6.7372">
        <ele>3033.199951</ele>
        <time>2014-08-21T11:29:27Z</time>
      </trkpt>
      <trkpt lat="44.9931" lon="6.73721">
        <ele>3030.070068</ele>
        <time>2014-08-21T11:29:34Z</time>
      </trkpt>
      <trkpt lat="44.9931" lon="6.73721">
        <ele>3028.76001</ele>
        <time>2014-08-21T11:29:50Z</time>
      </trkpt>
      <trkpt lat="44.99307" lon="6.7372">
        <ele>3028.590088</ele>
        <time>2014-08-21T11:30:17Z</time>
      </trkpt>
      <trkpt lat="44.99296" lon="6.73726">
        <ele>3026.719971</ele>
        <time>2014-08-21T11:30:26Z</time>
      </trkpt>
      <trkpt lat="44.99288" lon="6.73731">
        <ele>3023.619873</ele>
        <time>2014-08-21T11:30:32Z</time>
      </trkpt>
      <trkpt lat="44.99286" lon="6.73732">
        <ele>3023.120117</ele>
        <time>2014-08-21T11:30:33Z</time>
      </trkpt>
      <trkpt lat="44.99281" lon="6.73731">
        <ele>3020.929932</ele>
        <time>2014-08-21T11:30:37Z</time>
      </trkpt>
      <trkpt lat="44.99275" lon="6.73729">
        <ele>3017.27002</ele>
        <time>2014-08-21T11:30:42Z</time>
      </trkpt>
      <trkpt lat="44.99272" lon="6.73728">
        <ele>3014.019775</ele>
        <time>2014-08-21T11:30:47Z</time>
      </trkpt>
      <trkpt lat="44.99272" lon="6.73729">
        <ele>3011.409912</ele>
        <time>2014-08-21T11:30:58Z</time>
      </trkpt>
      <trkpt lat="44.99265" lon="6.7373">
        <ele>3010.669922</ele>
        <time>2014-08-21T11:31:05Z</time>
      </trkpt>
      <trkpt lat="44.99262" lon="6.73729">
        <ele>3009.649902</ele>
        <time>2014-08-21T11:31:07Z</time>
      </trkpt>
      <trkpt lat="44.99253" lon="6.73727">
        <ele>3005.909912</ele>
        <time>2014-08-21T11:31:14Z</time>
      </trkpt>
      <trkpt lat="44.99244" lon="6.73725">
        <ele>3002.630127</ele>
        <time>2014-08-21T11:31:19Z</time>
      </trkpt>
      <trkpt lat="44.99241" lon="6.73726">
        <ele>3001.570068</ele>
        <time>2014-08-21T11:31:21Z</time>
      </trkpt>
      <trkpt lat="44.99228" lon="6.73733">
        <ele>2997.220215</ele>
        <time>2014-08-21T11:31:27Z</time>
      </trkpt>
      <trkpt lat="44.99218" lon="6.73738">
        <ele>2993.389893</ele>
        <time>2014-08-21T11:31:32Z</time>
      </trkpt>
      <trkpt lat="44.99218" lon="6.73738">
        <ele>2992.769775</ele>
        <time>2014-08-21T11:31:34Z</time>
      </trkpt>
      <trkpt lat="44.99219" lon="6.7374">
        <ele>2992.030029</ele>
        <time>2014-08-21T11:31:38Z</time>
      </trkpt>
      <trkpt lat="44.99224" lon="6.73745">
        <ele>2990.819824</ele>
        <time>2014-08-21T11:31:44Z</time>
      </trkpt>
      <trkpt lat="44.99227" lon="6.73745">
        <ele>2989.780029</ele>
        <time>2014-08-21T11:32:00Z</time>
      </trkpt>
      <trkpt lat="44.99231" lon="6.73746">
        <ele>2989.609863</ele>
        <time>2014-08-21T11:32:05Z</time>
      </trkpt>
      <trkpt lat="44.99236" lon="6.73746">
        <ele>2990.269775</ele>
        <time>2014-08-21T11:32:14Z</time>
      </trkpt>
      <trkpt lat="44.99235" lon="6.73746">
        <ele>2990.880127</ele>
        <time>2014-08-21T11:32:22Z</time>
      </trkpt>
      <trkpt lat="44.99233" lon="6.73745">
        <ele>2990.590088</ele>
        <time>2014-08-21T11:32:30Z</time>
      </trkpt>
      <trkpt lat="44.99229" lon="6.73744">
        <ele>2990.449951</ele>
        <time>2014-08-21T11:32:34Z</time>
      </trkpt>
      <trkpt lat="44.99223" lon="6.73741">
        <ele>2989.890137</ele>
        <time>2014-08-21T11:32:42Z</time>
      </trkpt>
      <trkpt lat="44.99222" lon="6.73743">
        <ele>2989.439941</ele>
        <time>2014-08-21T11:32:59Z</time>
      </trkpt>
      <trkpt lat="44.99222" lon="6.73744">
        <ele>2989.320068</ele>
        <time>2014-08-21T11:33:25Z</time>
      </trkpt>
      <trkpt lat="44.9922" lon="6.73745">
        <ele>2989.120117</ele>
        <time>2014-08-21T11:33:48Z</time>
      </trkpt>
      <trkpt lat="44.9922" lon="6.73748">
        <ele>2989.040039</ele>
        <time>2014-08-21T11:33:51Z</time>
      </trkpt>
      <trkpt lat="44.99228" lon="6.73761">
        <ele>2986.780029</ele>
        <time>2014-08-21T11:34:01Z</time>
      </trkpt>
      <trkpt lat="44.99228" lon="6.7377">
        <ele>2983.680176</ele>
        <time>2014-08-21T11:34:08Z</time>
      </trkpt>
      <trkpt lat="44.99226" lon="6.73772">
        <ele>2981.080078</ele>
        <time>2014-08-21T11:34:16Z</time>
      </trkpt>
      <trkpt lat="44.99221" lon="6.73776">
        <ele>2979.709961</ele>
        <time>2014-08-21T11:34:26Z</time>
      </trkpt>
      <trkpt lat="44.99216" lon="6.73779">
        <ele>2977.829834</ele>
        <time>2014-08-21T11:34:33Z</time>
      </trkpt>
      <trkpt lat="44.99213" lon="6.73783">
        <ele>2976.77002</ele>
        <time>2014-08-21T11:34:37Z</time>
      </trkpt>
      <trkpt lat="44.99209" lon="6.73788">
        <ele>2973.849854</ele>
        <time>2014-08-21T11:34:44Z</time>
      </trkpt>
      <trkpt lat="44.99205" lon="6.73793">
        <ele>2971.52002</ele>
        <time>2014-08-21T11:34:53Z</time>
      </trkpt>
      <trkpt lat="44.99202" lon="6.73795">
        <ele>2970.050049</ele>
        <time>2014-08-21T11:34:59Z</time>
      </trkpt>
      <trkpt lat="44.99196" lon="6.738">
        <ele>2968.370117</ele>
        <time>2014-08-21T11:35:09Z</time>
      </trkpt>
      <trkpt lat="44.99192" lon="6.73803">
        <ele>2967.75</ele>
        <time>2014-08-21T11:35:17Z</time>
      </trkpt>
      <trkpt lat="44.99188" lon="6.73808">
        <ele>2967.060059</ele>
        <time>2014-08-21T11:35:25Z</time>
      </trkpt>
      <trkpt lat="44.99189" lon="6.7381">
        <ele>2965.890137</ele>
        <time>2014-08-21T11:35:34Z</time>
      </trkpt>
      <trkpt lat="44.99189" lon="6.73813">
        <ele>2964.439941</ele>
        <time>2014-08-21T11:35:43Z</time>
      </trkpt>
      <trkpt lat="44.99192" lon="6.73818">
        <ele>2962.460205</ele>
        <time>2014-08-21T11:35:52Z</time>
      </trkpt>
      <trkpt lat="44.99192" lon="6.73822">
        <ele>2959.77002</ele>
        <time>2014-08-21T11:36:02Z</time>
      </trkpt>
      <trkpt lat="44.99191" lon="6.73827">
        <ele>2958.469971</ele>
        <time>2014-08-21T11:36:13Z</time>
      </trkpt>
      <trkpt lat="44.99192" lon="6.73832">
        <ele>2956.75</ele>
        <time>2014-08-21T11:36:20Z</time>
      </trkpt>
      <trkpt lat="44.99193" lon="6.7384">
        <ele>2954.340088</ele>
        <time>2014-08-21T11:36:29Z</time>
      </trkpt>
      <trkpt lat="44.99195" lon="6.73847">
        <ele>2951.26001</ele>
        <time>2014-08-21T11:36:39Z</time>
      </trkpt>
      <trkpt lat="44.99197" lon="6.73849">
        <ele>2948.829834</ele>
        <time>2014-08-21T11:36:48Z</time>
      </trkpt>
      <trkpt lat="44.99198" lon="6.73847">
        <ele>2948.350098</ele>
        <time>2014-08-21T11:36:50Z</time>
      </trkpt>
      <trkpt lat="44.992" lon="6.73842">
        <ele>2947.209961</ele>
        <time>2014-08-21T11:36:58Z</time>
      </trkpt>
      <trkpt lat="44.99206" lon="6.73841">
        <ele>2946.159912</ele>
        <time>2014-08-21T11:37:07Z</time>
      </trkpt>
      <trkpt lat="44.99208" lon="6.7384">
        <ele>2944.370117</ele>
        <time>2014-08-21T11:37:17Z</time>
      </trkpt>
      <trkpt lat="44.99207" lon="6.73841">
        <ele>2944.02002</ele>
        <time>2014-08-21T11:37:33Z</time>
      </trkpt>
      <trkpt lat="44.99214" lon="6.73844">
        <ele>2942.910156</ele>
        <time>2014-08-21T11:37:43Z</time>
      </trkpt>
      <trkpt lat="44.99215" lon="6.73847">
        <ele>2939.840088</ele>
        <time>2014-08-21T11:37:50Z</time>
      </trkpt>
      <trkpt lat="44.99217" lon="6.73851">
        <ele>2936.850098</ele>
        <time>2014-08-21T11:37:59Z</time>
      </trkpt>
      <trkpt lat="44.99217" lon="6.7386">
        <ele>2933.649902</ele>
        <time>2014-08-21T11:38:09Z</time>
      </trkpt>
      <trkpt lat="44.99218" lon="6.73862">
        <ele>2931.189941</ele>
        <time>2014-08-21T11:38:17Z</time>
      </trkpt>
      <trkpt lat="44.99216" lon="6.73869">
        <ele>2929.5</ele>
        <time>2014-08-21T11:38:26Z</time>
      </trkpt>
      <trkpt lat="44.99214" lon="6.73872">
        <ele>2927.180176</ele>
        <time>2014-08-21T11:38:33Z</time>
      </trkpt>
      <trkpt lat="44.99211" lon="6.73874">
        <ele>2925.610107</ele>
        <time>2014-08-21T11:38:40Z</time>
      </trkpt>
      <trkpt lat="44.99207" lon="6.73881">
        <ele>2924.419922</ele>
        <time>2014-08-21T11:38:48Z</time>
      </trkpt>
      <trkpt lat="44.99205" lon="6.73886">
        <ele>2922.119873</ele>
        <time>2014-08-21T11:38:57Z</time>
      </trkpt>
      <trkpt lat="44.99208" lon="6.73893">
        <ele>2919.360107</ele>
        <time>2014-08-21T11:39:05Z</time>
      </trkpt>
      <trkpt lat="44.99207" lon="6.73899">
        <ele>2916.310059</ele>
        <time>2014-08-21T11:39:13Z</time>
      </trkpt>
      <trkpt lat="44.99207" lon="6.73905">
        <ele>2913.219971</ele>
        <time>2014-08-21T11:39:22Z</time>
      </trkpt>
      <trkpt lat="44.99205" lon="6.73906">
        <ele>2910.370117</ele>
        <time>2014-08-21T11:39:31Z</time>
      </trkpt>
      <trkpt lat="44.99204" lon="6.73909">
        <ele>2909.689941</ele>
        <time>2014-08-21T11:39:45Z</time>
      </trkpt>
      <trkpt lat="44.99201" lon="6.73916">
        <ele>2907.550049</ele>
        <time>2014-08-21T11:39:54Z</time>
      </trkpt>
      <trkpt lat="44.99202" lon="6.73923">
        <ele>2904.76001</ele>
        <time>2014-08-21T11:40:03Z</time>
      </trkpt>
      <trkpt lat="44.99197" lon="6.73929">
        <ele>2902.539795</ele>
        <time>2014-08-21T11:40:12Z</time>
      </trkpt>
      <trkpt lat="44.99193" lon="6.73932">
        <ele>2900.830078</ele>
        <time>2014-08-21T11:40:17Z</time>
      </trkpt>
      <trkpt lat="44.99188" lon="6.73936">
        <ele>2898.630127</ele>
        <time>2014-08-21T11:40:23Z</time>
      </trkpt>
      <trkpt lat="44.99182" lon="6.73937">
        <ele>2897.129883</ele>
        <time>2014-08-21T11:40:31Z</time>
      </trkpt>
      <trkpt lat="44.99179" lon="6.73944">
        <ele>2894.879883</ele>
        <time>2014-08-21T11:40:40Z</time>
      </trkpt>
      <trkpt lat="44.99177" lon="6.73952">
        <ele>2891.879883</ele>
        <time>2014-08-21T11:40:48Z</time>
      </trkpt>
      <trkpt lat="44.99177" lon="6.73955">
        <ele>2890.01001</ele>
        <time>2014-08-21T11:40:52Z</time>
      </trkpt>
      <trkpt lat="44.99177" lon="6.73959">
        <ele>2887.699951</ele>
        <time>2014-08-21T11:41:09Z</time>
      </trkpt>
      <trkpt lat="44.99179" lon="6.73964">
        <ele>2886.459961</ele>
        <time>2014-08-21T11:41:19Z</time>
      </trkpt>
      <trkpt lat="44.99182" lon="6.7397">
        <ele>2883.800049</ele>
        <time>2014-08-21T11:41:27Z</time>
      </trkpt>
      <trkpt lat="44.9918" lon="6.73976">
        <ele>2881.550049</ele>
        <time>2014-08-21T11:41:35Z</time>
      </trkpt>
      <trkpt lat="44.99178" lon="6.73981">
        <ele>2878.429932</ele>
        <time>2014-08-21T11:41:42Z</time>
      </trkpt>
      <trkpt lat="44.99177" lon="6.73983">
        <ele>2875.699951</ele>
        <time>2014-08-21T11:41:56Z</time>
      </trkpt>
      <trkpt lat="44.99178" lon="6.73986">
        <ele>2875.23999</ele>
        <time>2014-08-21T11:42:10Z</time>
      </trkpt>
      <trkpt lat="44.99177" lon="6.73987">
        <ele>2874.039795</ele>
        <time>2014-08-21T11:42:18Z</time>
      </trkpt>
      <trkpt lat="44.9918" lon="6.73993">
        <ele>2872.039795</ele>
        <time>2014-08-21T11:42:26Z</time>
      </trkpt>
      <trkpt lat="44.99186" lon="6.73996">
        <ele>2869.019775</ele>
        <time>2014-08-21T11:42:34Z</time>
      </trkpt>
      <trkpt lat="44.99187" lon="6.73999">
        <ele>2867.430176</ele>
        <time>2014-08-21T11:42:41Z</time>
      </trkpt>
      <trkpt lat="44.99189" lon="6.74005">
        <ele>2865.120117</ele>
        <time>2014-08-21T11:42:49Z</time>
      </trkpt>
      <trkpt lat="44.99186" lon="6.74009">
        <ele>2862.859863</ele>
        <time>2014-08-21T11:42:55Z</time>
      </trkpt>
      <trkpt lat="44.99188" lon="6.74012">
        <ele>2860.51001</ele>
        <time>2014-08-21T11:43:03Z</time>
      </trkpt>
      <trkpt lat="44.99188" lon="6.74012">
        <ele>2859.660156</ele>
        <time>2014-08-21T11:43:12Z</time>
      </trkpt>
      <trkpt lat="44.99194" lon="6.74014">
        <ele>2859.459961</ele>
        <time>2014-08-21T11:43:24Z</time>
      </trkpt>
      <trkpt lat="44.99196" lon="6.74016">
        <ele>2858.52002</ele>
        <time>2014-08-21T11:43:28Z</time>
      </trkpt>
      <trkpt lat="44.992" lon="6.74023">
        <ele>2855.25</ele>
        <time>2014-08-21T11:43:37Z</time>
      </trkpt>
      <trkpt lat="44.99205" lon="6.74027">
        <ele>2852.390137</ele>
        <time>2014-08-21T11:43:47Z</time>
      </trkpt>
      <trkpt lat="44.99203" lon="6.74034">
        <ele>2850</ele>
        <time>2014-08-21T11:43:56Z</time>
      </trkpt>
      <trkpt lat="44.99202" lon="6.7404">
        <ele>2846.959961</ele>
        <time>2014-08-21T11:44:05Z</time>
      </trkpt>
      <trkpt lat="44.99201" lon="6.74048">
        <ele>2845.179932</ele>
        <time>2014-08-21T11:44:14Z</time>
      </trkpt>
      <trkpt lat="44.99195" lon="6.74054">
        <ele>2842.810059</ele>
        <time>2014-08-21T11:44:23Z</time>
      </trkpt>
      <trkpt lat="44.99193" lon="6.7406">
        <ele>2840.839844</ele>
        <time>2014-08-21T11:44:32Z</time>
      </trkpt>
      <trkpt lat="44.99195" lon="6.74065">
        <ele>2837.849854</ele>
        <time>2014-08-21T11:44:40Z</time>
      </trkpt>
      <trkpt lat="44.99197" lon="6.74069">
        <ele>2835.469971</ele>
        <time>2014-08-21T11:44:49Z</time>
      </trkpt>
      <trkpt lat="44.992" lon="6.74073">
        <ele>2833.649902</ele>
        <time>2014-08-21T11:44:56Z</time>
      </trkpt>
      <trkpt lat="44.99198" lon="6.74083">
        <ele>2830.48999</ele>
        <time>2014-08-21T11:45:04Z</time>
      </trkpt>
      <trkpt lat="44.99198" lon="6.74093">
        <ele>2827.829834</ele>
        <time>2014-08-21T11:45:12Z</time>
      </trkpt>
      <trkpt lat="44.99195" lon="6.74101">
        <ele>2824.639893</ele>
        <time>2014-08-21T11:45:22Z</time>
      </trkpt>
      <trkpt lat="44.99196" lon="6.74104">
        <ele>2822.100098</ele>
        <time>2014-08-21T11:45:31Z</time>
      </trkpt>
      <trkpt lat="44.99196" lon="6.74111">
        <ele>2821.349854</ele>
        <time>2014-08-21T11:45:43Z</time>
      </trkpt>
      <trkpt lat="44.99197" lon="6.74115">
        <ele>2819.98999</ele>
        <time>2014-08-21T11:45:49Z</time>
      </trkpt>
      <trkpt lat="44.99202" lon="6.74124">
        <ele>2818.189941</ele>
        <time>2014-08-21T11:45:57Z</time>
      </trkpt>
      <trkpt lat="44.99204" lon="6.74133">
        <ele>2815.870117</ele>
        <time>2014-08-21T11:46:03Z</time>
      </trkpt>
      <trkpt lat="44.99206" lon="6.74141">
        <ele>2814.710205</ele>
        <time>2014-08-21T11:46:07Z</time>
      </trkpt>
      <trkpt lat="44.99212" lon="6.74157">
        <ele>2811.189941</ele>
        <time>2014-08-21T11:46:16Z</time>
      </trkpt>
      <trkpt lat="44.99212" lon="6.7416">
        <ele>2808.329834</ele>
        <time>2014-08-21T11:46:23Z</time>
      </trkpt>
      <trkpt lat="44.99211" lon="6.74162">
        <ele>2805.600098</ele>
        <time>2014-08-21T11:46:31Z</time>
      </trkpt>
      <trkpt lat="44.99214" lon="6.7417">
        <ele>2802.699951</ele>
        <time>2014-08-21T11:46:38Z</time>
      </trkpt>
      <trkpt lat="44.99216" lon="6.74168">
        <ele>2801.100098</ele>
        <time>2014-08-21T11:46:43Z</time>
      </trkpt>
      <trkpt lat="44.99219" lon="6.74168">
        <ele>2799.690186</ele>
        <time>2014-08-21T11:47:00Z</time>
      </trkpt>
      <trkpt lat="44.99222" lon="6.74178">
        <ele>2797.040039</ele>
        <time>2014-08-21T11:47:09Z</time>
      </trkpt>
      <trkpt lat="44.99225" lon="6.74186">
        <ele>2794.620117</ele>
        <time>2014-08-21T11:47:16Z</time>
      </trkpt>
      <trkpt lat="44.99228" lon="6.74189">
        <ele>2791.639893</ele>
        <time>2014-08-21T11:47:23Z</time>
      </trkpt>
      <trkpt lat="44.99228" lon="6.74195">
        <ele>2788.469971</ele>
        <time>2014-08-21T11:47:32Z</time>
      </trkpt>
      <trkpt lat="44.99229" lon="6.74199">
        <ele>2785.399902</ele>
        <time>2014-08-21T11:47:40Z</time>
      </trkpt>
      <trkpt lat="44.99228" lon="6.742">
        <ele>2782.689941</ele>
        <time>2014-08-21T11:47:50Z</time>
      </trkpt>
      <trkpt lat="44.99232" lon="6.74206">
        <ele>2781.859863</ele>
        <time>2014-08-21T11:48:01Z</time>
      </trkpt>
      <trkpt lat="44.99233" lon="6.7421">
        <ele>2781.169922</ele>
        <time>2014-08-21T11:48:04Z</time>
      </trkpt>
      <trkpt lat="44.99233" lon="6.74218">
        <ele>2777.890137</ele>
        <time>2014-08-21T11:48:12Z</time>
      </trkpt>
      <trkpt lat="44.99233" lon="6.74221">
        <ele>2777.02002</ele>
        <time>2014-08-21T11:48:15Z</time>
      </trkpt>
      <trkpt lat="44.99233" lon="6.74229">
        <ele>2774.800049</ele>
        <time>2014-08-21T11:48:23Z</time>
      </trkpt>
      <trkpt lat="44.99233" lon="6.7424">
        <ele>2772.400146</ele>
        <time>2014-08-21T11:48:33Z</time>
      </trkpt>
      <trkpt lat="44.99232" lon="6.74242">
        <ele>2771.72998</ele>
        <time>2014-08-21T11:48:36Z</time>
      </trkpt>
      <trkpt lat="44.99229" lon="6.74251">
        <ele>2770.749756</ele>
        <time>2014-08-21T11:48:41Z</time>
      </trkpt>
      <trkpt lat="44.99222" lon="6.74267">
        <ele>2767.110107</ele>
        <time>2014-08-21T11:48:50Z</time>
      </trkpt>
      <trkpt lat="44.99221" lon="6.7429">
        <ele>2763.390137</ele>
        <time>2014-08-21T11:48:57Z</time>
      </trkpt>
      <trkpt lat="44.99222" lon="6.74297">
        <ele>2760.969971</ele>
        <time>2014-08-21T11:49:02Z</time>
      </trkpt>
      <trkpt lat="44.99224" lon="6.74298">
        <ele>2758.579834</ele>
        <time>2014-08-21T11:49:13Z</time>
      </trkpt>
      <trkpt lat="44.99227" lon="6.74301">
        <ele>2757.98999</ele>
        <time>2014-08-21T11:49:25Z</time>
      </trkpt>
      <trkpt lat="44.99232" lon="6.74304">
        <ele>2757</ele>
        <time>2014-08-21T11:49:30Z</time>
      </trkpt>
      <trkpt lat="44.99234" lon="6.74307">
        <ele>2755.939941</ele>
        <time>2014-08-21T11:49:34Z</time>
      </trkpt>
      <trkpt lat="44.9924" lon="6.7431">
        <ele>2754.310059</ele>
        <time>2014-08-21T11:49:42Z</time>
      </trkpt>
      <trkpt lat="44.99238" lon="6.74312">
        <ele>2753.180176</ele>
        <time>2014-08-21T11:49:47Z</time>
      </trkpt>
      <trkpt lat="44.99231" lon="6.74313">
        <ele>2751.909912</ele>
        <time>2014-08-21T11:49:56Z</time>
      </trkpt>
      <trkpt lat="44.99224" lon="6.74317">
        <ele>2750.119873</ele>
        <time>2014-08-21T11:50:08Z</time>
      </trkpt>
      <trkpt lat="44.99218" lon="6.74321">
        <ele>2747.079834</ele>
        <time>2014-08-21T11:50:16Z</time>
      </trkpt>
      <trkpt lat="44.99218" lon="6.74324">
        <ele>2744.799805</ele>
        <time>2014-08-21T11:50:23Z</time>
      </trkpt>
      <trkpt lat="44.99218" lon="6.74326">
        <ele>2741.879883</ele>
        <time>2014-08-21T11:50:35Z</time>
      </trkpt>
      <trkpt lat="44.99214" lon="6.7433">
        <ele>2740.419922</ele>
        <time>2014-08-21T11:50:46Z</time>
      </trkpt>
      <trkpt lat="44.99214" lon="6.74331">
        <ele>2737.849854</ele>
        <time>2014-08-21T11:50:57Z</time>
      </trkpt>
      <trkpt lat="44.99218" lon="6.74334">
        <ele>2737.429932</ele>
        <time>2014-08-21T11:51:03Z</time>
      </trkpt>
      <trkpt lat="44.99219" lon="6.7434">
        <ele>2736.5</ele>
        <time>2014-08-21T11:51:12Z</time>
      </trkpt>
      <trkpt lat="44.99219" lon="6.74348">
        <ele>2734.48999</ele>
        <time>2014-08-21T11:51:22Z</time>
      </trkpt>
      <trkpt lat="44.99221" lon="6.74351">
        <ele>2733.25</ele>
        <time>2014-08-21T11:51:25Z</time>
      </trkpt>
      <trkpt lat="44.99222" lon="6.74352">
        <ele>2731.75</ele>
        <time>2014-08-21T11:51:33Z</time>
      </trkpt>
      <trkpt lat="44.99218" lon="6.74359">
        <ele>2730.640137</ele>
        <time>2014-08-21T11:51:41Z</time>
      </trkpt>
      <trkpt lat="44.99217" lon="6.74365">
        <ele>2727.829834</ele>
        <time>2014-08-21T11:51:49Z</time>
      </trkpt>
      <trkpt lat="44.99216" lon="6.74372">
        <ele>2724.650146</ele>
        <time>2014-08-21T11:51:57Z</time>
      </trkpt>
      <trkpt lat="44.9921" lon="6.74376">
        <ele>2721.580078</ele>
        <time>2014-08-21T11:52:05Z</time>
      </trkpt>
      <trkpt lat="44.99208" lon="6.74377">
        <ele>2719.689941</ele>
        <time>2014-08-21T11:52:12Z</time>
      </trkpt>
      <trkpt lat="44.99204" lon="6.74379">
        <ele>2717.339844</ele>
        <time>2014-08-21T11:52:24Z</time>
      </trkpt>
      <trkpt lat="44.99206" lon="6.74386">
        <ele>2715.300049</ele>
        <time>2014-08-21T11:52:32Z</time>
      </trkpt>
      <trkpt lat="44.99207" lon="6.74391">
        <ele>2712.300049</ele>
        <time>2014-08-21T11:52:40Z</time>
      </trkpt>
      <trkpt lat="44.99208" lon="6.74396">
        <ele>2709.910156</ele>
        <time>2014-08-21T11:52:49Z</time>
      </trkpt>
      <trkpt lat="44.99209" lon="6.74398">
        <ele>2709.319824</ele>
        <time>2014-08-21T11:52:52Z</time>
      </trkpt>
      <trkpt lat="44.99212" lon="6.74405">
        <ele>2707.199951</ele>
        <time>2014-08-21T11:53:02Z</time>
      </trkpt>
      <trkpt lat="44.99208" lon="6.74408">
        <ele>2706.579834</ele>
        <time>2014-08-21T11:53:18Z</time>
      </trkpt>
      <trkpt lat="44.99206" lon="6.74412">
        <ele>2705.02002</ele>
        <time>2014-08-21T11:53:26Z</time>
      </trkpt>
      <trkpt lat="44.99205" lon="6.74414">
        <ele>2702.129883</ele>
        <time>2014-08-21T11:53:34Z</time>
      </trkpt>
      <trkpt lat="44.99203" lon="6.74418">
        <ele>2700.319824</ele>
        <time>2014-08-21T11:53:43Z</time>
      </trkpt>
      <trkpt lat="44.99197" lon="6.74423">
        <ele>2697.23999</ele>
        <time>2014-08-21T11:53:53Z</time>
      </trkpt>
      <trkpt lat="44.99194" lon="6.74426">
        <ele>2695.73999</ele>
        <time>2014-08-21T11:53:57Z</time>
      </trkpt>
      <trkpt lat="44.99188" lon="6.74431">
        <ele>2692.370117</ele>
        <time>2014-08-21T11:54:05Z</time>
      </trkpt>
      <trkpt lat="44.99188" lon="6.74433">
        <ele>2689.73999</ele>
        <time>2014-08-21T11:54:12Z</time>
      </trkpt>
      <trkpt lat="44.99191" lon="6.74449">
        <ele>2687.070068</ele>
        <time>2014-08-21T11:54:19Z</time>
      </trkpt>
      <trkpt lat="44.99197" lon="6.74458">
        <ele>2683.900146</ele>
        <time>2014-08-21T11:54:24Z</time>
      </trkpt>
      <trkpt lat="44.99198" lon="6.74462">
        <ele>2682.640137</ele>
        <time>2014-08-21T11:54:26Z</time>
      </trkpt>
      <trkpt lat="44.99203" lon="6.74466">
        <ele>2679.089844</ele>
        <time>2014-08-21T11:54:33Z</time>
      </trkpt>
      <trkpt lat="44.99202" lon="6.74464">
        <ele>2676.869873</ele>
        <time>2014-08-21T11:54:51Z</time>
      </trkpt>
      <trkpt lat="44.99201" lon="6.74465">
        <ele>2676.649902</ele>
        <time>2014-08-21T11:55:04Z</time>
      </trkpt>
      <trkpt lat="44.99198" lon="6.74472">
        <ele>2676.330078</ele>
        <time>2014-08-21T11:55:12Z</time>
      </trkpt>
      <trkpt lat="44.99193" lon="6.7448">
        <ele>2672.97998</ele>
        <time>2014-08-21T11:55:21Z</time>
      </trkpt>
      <trkpt lat="44.99192" lon="6.74481">
        <ele>2672.600098</ele>
        <time>2014-08-21T11:55:22Z</time>
      </trkpt>
      <trkpt lat="44.99191" lon="6.74486">
        <ele>2670.159912</ele>
        <time>2014-08-21T11:55:29Z</time>
      </trkpt>
      <trkpt lat="44.99192" lon="6.74487">
        <ele>2668.360107</ele>
        <time>2014-08-21T11:55:38Z</time>
      </trkpt>
      <trkpt lat="44.99192" lon="6.74487">
        <ele>2668.120117</ele>
        <time>2014-08-21T11:55:48Z</time>
      </trkpt>
      <trkpt lat="44.99195" lon="6.74502">
        <ele>2666.839844</ele>
        <time>2014-08-21T11:55:56Z</time>
      </trkpt>
      <trkpt lat="44.99198" lon="6.74516">
        <ele>2663.599854</ele>
        <time>2014-08-21T11:56:02Z</time>
      </trkpt>
      <trkpt lat="44.99198" lon="6.74525">
        <ele>2660.480225</ele>
        <time>2014-08-21T11:56:06Z</time>
      </trkpt>
      <trkpt lat="44.99199" lon="6.74536">
        <ele>2657.410156</ele>
        <time>2014-08-21T11:56:11Z</time>
      </trkpt>
      <trkpt lat="44.99201" lon="6.74547">
        <ele>2654.209961</ele>
        <time>2014-08-21T11:56:16Z</time>
      </trkpt>
      <trkpt lat="44.99201" lon="6.74551">
        <ele>2652.949951</ele>
        <time>2014-08-21T11:56:18Z</time>
      </trkpt>
      <trkpt lat="44.99204" lon="6.74557">
        <ele>2648.969971</ele>
        <time>2014-08-21T11:56:25Z</time>
      </trkpt>
      <trkpt lat="44.99205" lon="6.7456">
        <ele>2646.689941</ele>
        <time>2014-08-21T11:56:35Z</time>
      </trkpt>
      <trkpt lat="44.9921" lon="6.74577">
        <ele>2644.590088</ele>
        <time>2014-08-21T11:56:42Z</time>
      </trkpt>
      <trkpt lat="44.99213" lon="6.74591">
        <ele>2641.829834</ele>
        <time>2014-08-21T11:56:47Z</time>
      </trkpt>
      <trkpt lat="44.99213" lon="6.74595">
        <ele>2640.719971</ele>
        <time>2014-08-21T11:56:49Z</time>
      </trkpt>
      <trkpt lat="44.99214" lon="6.74607">
        <ele>2636.900146</ele>
        <time>2014-08-21T11:56:56Z</time>
      </trkpt>
      <trkpt lat="44.99216" lon="6.74632">
        <ele>2633.619873</ele>
        <time>2014-08-21T11:57:04Z</time>
      </trkpt>
      <trkpt lat="44.99219" lon="6.74641">
        <ele>2631.870117</ele>
        <time>2014-08-21T11:57:07Z</time>
      </trkpt>
      <trkpt lat="44.99223" lon="6.74648">
        <ele>2629.389893</ele>
        <time>2014-08-21T11:57:11Z</time>
      </trkpt>
      <trkpt lat="44.99232" lon="6.74657">
        <ele>2625.879883</ele>
        <time>2014-08-21T11:57:19Z</time>
      </trkpt>
      <trkpt lat="44.99235" lon="6.74665">
        <ele>2622.76001</ele>
        <time>2014-08-21T11:57:28Z</time>
      </trkpt>
      <trkpt lat="44.99239" lon="6.74674">
        <ele>2619.909912</ele>
        <time>2014-08-21T11:57:38Z</time>
      </trkpt>
      <trkpt lat="44.99241" lon="6.74681">
        <ele>2616.839844</ele>
        <time>2014-08-21T11:57:48Z</time>
      </trkpt>
      <trkpt lat="44.99241" lon="6.74682">
        <ele>2616.550049</ele>
        <time>2014-08-21T11:57:49Z</time>
      </trkpt>
      <trkpt lat="44.99243" lon="6.74689">
        <ele>2613.890137</ele>
        <time>2014-08-21T11:57:58Z</time>
      </trkpt>
      <trkpt lat="44.99244" lon="6.74696">
        <ele>2611.370117</ele>
        <time>2014-08-21T11:58:06Z</time>
      </trkpt>
      <trkpt lat="44.99241" lon="6.74704">
        <ele>2608.97998</ele>
        <time>2014-08-21T11:58:14Z</time>
      </trkpt>
      <trkpt lat="44.99244" lon="6.74709">
        <ele>2606.459961</ele>
        <time>2014-08-21T11:58:22Z</time>
      </trkpt>
      <trkpt lat="44.99249" lon="6.7471">
        <ele>2604.060059</ele>
        <time>2014-08-21T11:58:30Z</time>
      </trkpt>
      <trkpt lat="44.9925" lon="6.74711">
        <ele>2602.639893</ele>
        <time>2014-08-21T11:58:38Z</time>
      </trkpt>
      <trkpt lat="44.99254" lon="6.74716">
        <ele>2601.959961</ele>
        <time>2014-08-21T11:58:44Z</time>
      </trkpt>
      <trkpt lat="44.99259" lon="6.74719">
        <ele>2600.48999</ele>
        <time>2014-08-21T11:58:51Z</time>
      </trkpt>
      <trkpt lat="44.9926" lon="6.74719">
        <ele>2599.310059</ele>
        <time>2014-08-21T11:59:04Z</time>
      </trkpt>
      <trkpt lat="44.99265" lon="6.74726">
        <ele>2599.029785</ele>
        <time>2014-08-21T11:59:08Z</time>
      </trkpt>
      <trkpt lat="44.99274" lon="6.74737">
        <ele>2596.52002</ele>
        <time>2014-08-21T11:59:17Z</time>
      </trkpt>
      <trkpt lat="44.99277" lon="6.74742">
        <ele>2594.040039</ele>
        <time>2014-08-21T11:59:24Z</time>
      </trkpt>
      <trkpt lat="44.99283" lon="6.74748">
        <ele>2592.899902</ele>
        <time>2014-08-21T11:59:33Z</time>
      </trkpt>
      <trkpt lat="44.99285" lon="6.74753">
        <ele>2591.999756</ele>
        <time>2014-08-21T11:59:42Z</time>
      </trkpt>
      <trkpt lat="44.99285" lon="6.74754">
        <ele>2590.810059</ele>
        <time>2014-08-21T11:59:52Z</time>
      </trkpt>
      <trkpt lat="44.9929" lon="6.74755">
        <ele>2590.560059</ele>
        <time>2014-08-21T12:00:04Z</time>
      </trkpt>
      <trkpt lat="44.99299" lon="6.74762">
        <ele>2590.160156</ele>
        <time>2014-08-21T12:00:13Z</time>
      </trkpt>
      <trkpt lat="44.99299" lon="6.74763">
        <ele>2590.080078</ele>
        <time>2014-08-21T12:00:14Z</time>
      </trkpt>
      <trkpt lat="44.99308" lon="6.7477">
        <ele>2589.030029</ele>
        <time>2014-08-21T12:00:22Z</time>
      </trkpt>
      <trkpt lat="44.99312" lon="6.74775">
        <ele>2586.809814</ele>
        <time>2014-08-21T12:00:31Z</time>
      </trkpt>
      <trkpt lat="44.99315" lon="6.74781">
        <ele>2586.169922</ele>
        <time>2014-08-21T12:00:37Z</time>
      </trkpt>
      <trkpt lat="44.99319" lon="6.7479">
        <ele>2584.829834</ele>
        <time>2014-08-21T12:00:45Z</time>
      </trkpt>
      <trkpt lat="44.99318" lon="6.74791">
        <ele>2583.72998</ele>
        <time>2014-08-21T12:00:53Z</time>
      </trkpt>
      <trkpt lat="44.99322" lon="6.74802">
        <ele>2582.530029</ele>
        <time>2014-08-21T12:01:02Z</time>
      </trkpt>
      <trkpt lat="44.99327" lon="6.74809">
        <ele>2580.709961</ele>
        <time>2014-08-21T12:01:10Z</time>
      </trkpt>
      <trkpt lat="44.99329" lon="6.74819">
        <ele>2578.429932</ele>
        <time>2014-08-21T12:01:19Z</time>
      </trkpt>
      <trkpt lat="44.99334" lon="6.74828">
        <ele>2576.660156</ele>
        <time>2014-08-21T12:01:28Z</time>
      </trkpt>
      <trkpt lat="44.99332" lon="6.74829">
        <ele>2575.340088</ele>
        <time>2014-08-21T12:01:33Z</time>
      </trkpt>
      <trkpt lat="44.99323" lon="6.74825">
        <ele>2574.030029</ele>
        <time>2014-08-21T12:01:43Z</time>
      </trkpt>
      <trkpt lat="44.99317" lon="6.7482">
        <ele>2572.77002</ele>
        <time>2014-08-21T12:01:51Z</time>
      </trkpt>
      <trkpt lat="44.9931" lon="6.74813">
        <ele>2571.190186</ele>
        <time>2014-08-21T12:02:00Z</time>
      </trkpt>
      <trkpt lat="44.9931" lon="6.74815">
        <ele>2569.650146</ele>
        <time>2014-08-21T12:02:09Z</time>
      </trkpt>
      <trkpt lat="44.99313" lon="6.74822">
        <ele>2568.01001</ele>
        <time>2014-08-21T12:02:17Z</time>
      </trkpt>
      <trkpt lat="44.99319" lon="6.7483">
        <ele>2566.569824</ele>
        <time>2014-08-21T12:02:28Z</time>
      </trkpt>
      <trkpt lat="44.99322" lon="6.74836">
        <ele>2565.870117</ele>
        <time>2014-08-21T12:02:33Z</time>
      </trkpt>
      <trkpt lat="44.99325" lon="6.74841">
        <ele>2564.649902</ele>
        <time>2014-08-21T12:02:41Z</time>
      </trkpt>
      <trkpt lat="44.99324" lon="6.74841">
        <ele>2562.780029</ele>
        <time>2014-08-21T12:02:49Z</time>
      </trkpt>
      <trkpt lat="44.99316" lon="6.74838">
        <ele>2562.320068</ele>
        <time>2014-08-21T12:02:58Z</time>
      </trkpt>
      <trkpt lat="44.99308" lon="6.74833">
        <ele>2561.399902</ele>
        <time>2014-08-21T12:03:08Z</time>
      </trkpt>
      <trkpt lat="44.99306" lon="6.74832">
        <ele>2561.079834</ele>
        <time>2014-08-21T12:03:10Z</time>
      </trkpt>
      <trkpt lat="44.993" lon="6.74834">
        <ele>2558.860107</ele>
        <time>2014-08-21T12:03:20Z</time>
      </trkpt>
      <trkpt lat="44.99301" lon="6.74836">
        <ele>2558.159912</ele>
        <time>2014-08-21T12:03:22Z</time>
      </trkpt>
      <trkpt lat="44.99305" lon="6.74848">
        <ele>2555.730225</ele>
        <time>2014-08-21T12:03:30Z</time>
      </trkpt>
      <trkpt lat="44.99307" lon="6.74854">
        <ele>2553.820068</ele>
        <time>2014-08-21T12:03:35Z</time>
      </trkpt>
      <trkpt lat="44.99309" lon="6.7486">
        <ele>2551.090088</ele>
        <time>2014-08-21T12:03:44Z</time>
      </trkpt>
      <trkpt lat="44.99305" lon="6.7486">
        <ele>2549.409912</ele>
        <time>2014-08-21T12:03:52Z</time>
      </trkpt>
      <trkpt lat="44.993" lon="6.74859">
        <ele>2548.609863</ele>
        <time>2014-08-21T12:03:57Z</time>
      </trkpt>
      <trkpt lat="44.99292" lon="6.74855">
        <ele>2546.400146</ele>
        <time>2014-08-21T12:04:06Z</time>
      </trkpt>
      <trkpt lat="44.9929" lon="6.7486">
        <ele>2543.77002</ele>
        <time>2014-08-21T12:04:16Z</time>
      </trkpt>
      <trkpt lat="44.99294" lon="6.74867">
        <ele>2541.540039</ele>
        <time>2014-08-21T12:04:24Z</time>
      </trkpt>
      <trkpt lat="44.99296" lon="6.74875">
        <ele>2539.22998</ele>
        <time>2014-08-21T12:04:34Z</time>
      </trkpt>
      <trkpt lat="44.99297" lon="6.74875">
        <ele>2538.930176</ele>
        <time>2014-08-21T12:04:35Z</time>
      </trkpt>
      <trkpt lat="44.99299" lon="6.74883">
        <ele>2536</ele>
        <time>2014-08-21T12:04:44Z</time>
      </trkpt>
      <trkpt lat="44.99297" lon="6.74883">
        <ele>2534.439941</ele>
        <time>2014-08-21T12:04:49Z</time>
      </trkpt>
      <trkpt lat="44.99288" lon="6.74883">
        <ele>2532.73999</ele>
        <time>2014-08-21T12:04:59Z</time>
      </trkpt>
      <trkpt lat="44.9928" lon="6.7488">
        <ele>2530.75</ele>
        <time>2014-08-21T12:05:07Z</time>
      </trkpt>
      <trkpt lat="44.99273" lon="6.74877">
        <ele>2528.76001</ele>
        <time>2014-08-21T12:05:15Z</time>
      </trkpt>
      <trkpt lat="44.99274" lon="6.74881">
        <ele>2526.949951</ele>
        <time>2014-08-21T12:05:22Z</time>
      </trkpt>
      <trkpt lat="44.99275" lon="6.74885">
        <ele>2525.780029</ele>
        <time>2014-08-21T12:05:28Z</time>
      </trkpt>
      <trkpt lat="44.99278" lon="6.74897">
        <ele>2524.509766</ele>
        <time>2014-08-21T12:05:35Z</time>
      </trkpt>
      <trkpt lat="44.99281" lon="6.74902">
        <ele>2522.810059</ele>
        <time>2014-08-21T12:05:39Z</time>
      </trkpt>
      <trkpt lat="44.99282" lon="6.7491">
        <ele>2519.859863</ele>
        <time>2014-08-21T12:05:46Z</time>
      </trkpt>
      <trkpt lat="44.99279" lon="6.74911">
        <ele>2517.790039</ele>
        <time>2014-08-21T12:05:54Z</time>
      </trkpt>
      <trkpt lat="44.99275" lon="6.74908">
        <ele>2517.290039</ele>
        <time>2014-08-21T12:05:58Z</time>
      </trkpt>
      <trkpt lat="44.99264" lon="6.74902">
        <ele>2516.079834</ele>
        <time>2014-08-21T12:06:08Z</time>
      </trkpt>
      <trkpt lat="44.99257" lon="6.74897">
        <ele>2514.580078</ele>
        <time>2014-08-21T12:06:17Z</time>
      </trkpt>
      <trkpt lat="44.99256" lon="6.749">
        <ele>2512.76001</ele>
        <time>2014-08-21T12:06:24Z</time>
      </trkpt>
      <trkpt lat="44.99257" lon="6.74903">
        <ele>2510.73999</ele>
        <time>2014-08-21T12:06:33Z</time>
      </trkpt>
      <trkpt lat="44.99261" lon="6.74902">
        <ele>2509.47998</ele>
        <time>2014-08-21T12:07:05Z</time>
      </trkpt>
      <trkpt lat="44.99262" lon="6.74903">
        <ele>2509.269775</ele>
        <time>2014-08-21T12:07:34Z</time>
      </trkpt>
      <trkpt lat="44.99261" lon="6.74902">
        <ele>2509.349854</ele>
        <time>2014-08-21T12:07:53Z</time>
      </trkpt>
      <trkpt lat="44.99261" lon="6.74905">
        <ele>2509.51001</ele>
        <time>2014-08-21T12:08:00Z</time>
      </trkpt>
      <trkpt lat="44.99264" lon="6.74914">
        <ele>2509.030029</ele>
        <time>2014-08-21T12:08:07Z</time>
      </trkpt>
      <trkpt lat="44.99262" lon="6.74913">
        <ele>2506.570068</ele>
        <time>2014-08-21T12:08:26Z</time>
      </trkpt>
      <trkpt lat="44.99262" lon="6.74919">
        <ele>2506.47998</ele>
        <time>2014-08-21T12:08:35Z</time>
      </trkpt>
      <trkpt lat="44.99262" lon="6.74921">
        <ele>2505.52002</ele>
        <time>2014-08-21T12:08:45Z</time>
      </trkpt>
      <trkpt lat="44.99265" lon="6.74929">
        <ele>2504.140137</ele>
        <time>2014-08-21T12:08:52Z</time>
      </trkpt>
      <trkpt lat="44.99265" lon="6.7493">
        <ele>2501.840088</ele>
        <time>2014-08-21T12:09:03Z</time>
      </trkpt>
      <trkpt lat="44.99266" lon="6.7494">
        <ele>2501.370117</ele>
        <time>2014-08-21T12:09:08Z</time>
      </trkpt>
      <trkpt lat="44.99269" lon="6.74957">
        <ele>2498.72998</ele>
        <time>2014-08-21T12:09:15Z</time>
      </trkpt>
      <trkpt lat="44.99268" lon="6.74961">
        <ele>2495.959961</ele>
        <time>2014-08-21T12:09:21Z</time>
      </trkpt>
      <trkpt lat="44.99268" lon="6.74961">
        <ele>2495.619873</ele>
        <time>2014-08-21T12:09:22Z</time>
      </trkpt>
      <trkpt lat="44.99264" lon="6.74961">
        <ele>2493.030029</ele>
        <time>2014-08-21T12:09:31Z</time>
      </trkpt>
      <trkpt lat="44.99261" lon="6.74961">
        <ele>2491.780029</ele>
        <time>2014-08-21T12:09:39Z</time>
      </trkpt>
      <trkpt lat="44.99259" lon="6.74959">
        <ele>2491.5</ele>
        <time>2014-08-21T12:09:47Z</time>
      </trkpt>
      <trkpt lat="44.99253" lon="6.74955">
        <ele>2491.27002</ele>
        <time>2014-08-21T12:09:51Z</time>
      </trkpt>
      <trkpt lat="44.9924" lon="6.74946">
        <ele>2489.959961</ele>
        <time>2014-08-21T12:09:57Z</time>
      </trkpt>
      <trkpt lat="44.99236" lon="6.74943">
        <ele>2488.540039</ele>
        <time>2014-08-21T12:10:03Z</time>
      </trkpt>
      <trkpt lat="44.99237" lon="6.74942">
        <ele>2487.399902</ele>
        <time>2014-08-21T12:10:25Z</time>
      </trkpt>
      <trkpt lat="44.99235" lon="6.74942">
        <ele>2487.209961</ele>
        <time>2014-08-21T12:10:40Z</time>
      </trkpt>
      <trkpt lat="44.99236" lon="6.74946">
        <ele>2486.369873</ele>
        <time>2014-08-21T12:10:48Z</time>
      </trkpt>
      <trkpt lat="44.99236" lon="6.74947">
        <ele>2485.639893</ele>
        <time>2014-08-21T12:10:52Z</time>
      </trkpt>
      <trkpt lat="44.99237" lon="6.7495">
        <ele>2485.320068</ele>
        <time>2014-08-21T12:10:54Z</time>
      </trkpt>
      <trkpt lat="44.99241" lon="6.74967">
        <ele>2483.75</ele>
        <time>2014-08-21T12:11:02Z</time>
      </trkpt>
      <trkpt lat="44.99247" lon="6.74986">
        <ele>2480.300049</ele>
        <time>2014-08-21T12:11:09Z</time>
      </trkpt>
      <trkpt lat="44.99249" lon="6.74993">
        <ele>2476.52002</ele>
        <time>2014-08-21T12:11:14Z</time>
      </trkpt>
      <trkpt lat="44.99246" lon="6.74992">
        <ele>2474.180176</ele>
        <time>2014-08-21T12:11:20Z</time>
      </trkpt>
      <trkpt lat="44.99242" lon="6.74991">
        <ele>2472.869873</ele>
        <time>2014-08-21T12:11:28Z</time>
      </trkpt>
      <trkpt lat="44.99239" lon="6.7499">
        <ele>2472.47998</ele>
        <time>2014-08-21T12:11:31Z</time>
      </trkpt>
      <trkpt lat="44.99227" lon="6.74983">
        <ele>2470.860107</ele>
        <time>2014-08-21T12:11:39Z</time>
      </trkpt>
      <trkpt lat="44.99219" lon="6.74975">
        <ele>2469.72998</ele>
        <time>2014-08-21T12:11:45Z</time>
      </trkpt>
      <trkpt lat="44.99214" lon="6.74973">
        <ele>2468.689941</ele>
        <time>2014-08-21T12:11:52Z</time>
      </trkpt>
      <trkpt lat="44.99213" lon="6.74974">
        <ele>2467.909912</ele>
        <time>2014-08-21T12:12:00Z</time>
      </trkpt>
      <trkpt lat="44.99213" lon="6.74975">
        <ele>2467.449951</ele>
        <time>2014-08-21T12:12:19Z</time>
      </trkpt>
      <trkpt lat="44.99213" lon="6.74977">
        <ele>2467.419922</ele>
        <time>2014-08-21T12:12:24Z</time>
      </trkpt>
      <trkpt lat="44.99218" lon="6.74998">
        <ele>2465.089844</ele>
        <time>2014-08-21T12:12:33Z</time>
      </trkpt>
      <trkpt lat="44.99222" lon="6.75013">
        <ele>2462.02002</ele>
        <time>2014-08-21T12:12:39Z</time>
      </trkpt>
      <trkpt lat="44.99226" lon="6.75026">
        <ele>2458.949951</ele>
        <time>2014-08-21T12:12:44Z</time>
      </trkpt>
      <trkpt lat="44.9923" lon="6.75038">
        <ele>2455.73999</ele>
        <time>2014-08-21T12:12:49Z</time>
      </trkpt>
      <trkpt lat="44.99232" lon="6.75046">
        <ele>2452.609863</ele>
        <time>2014-08-21T12:12:53Z</time>
      </trkpt>
      <trkpt lat="44.99237" lon="6.75059">
        <ele>2449.570068</ele>
        <time>2014-08-21T12:12:58Z</time>
      </trkpt>
      <trkpt lat="44.99241" lon="6.7507">
        <ele>2446.47998</ele>
        <time>2014-08-21T12:13:03Z</time>
      </trkpt>
      <trkpt lat="44.99242" lon="6.75073">
        <ele>2445.310059</ele>
        <time>2014-08-21T12:13:05Z</time>
      </trkpt>
      <trkpt lat="44.99246" lon="6.75078">
        <ele>2441.51001</ele>
        <time>2014-08-21T12:13:12Z</time>
      </trkpt>
      <trkpt lat="44.99247" lon="6.75086">
        <ele>2438.900146</ele>
        <time>2014-08-21T12:13:19Z</time>
      </trkpt>
      <trkpt lat="44.99252" lon="6.75096">
        <ele>2436.679932</ele>
        <time>2014-08-21T12:13:28Z</time>
      </trkpt>
      <trkpt lat="44.99254" lon="6.75105">
        <ele>2434.98999</ele>
        <time>2014-08-21T12:13:36Z</time>
      </trkpt>
      <trkpt lat="44.99255" lon="6.75118">
        <ele>2433.110107</ele>
        <time>2014-08-21T12:13:44Z</time>
      </trkpt>
      <trkpt lat="44.99259" lon="6.75132">
        <ele>2431.050049</ele>
        <time>2014-08-21T12:13:54Z</time>
      </trkpt>
      <trkpt lat="44.99263" lon="6.75142">
        <ele>2429.599854</ele>
        <time>2014-08-21T12:14:02Z</time>
      </trkpt>
      <trkpt lat="44.99264" lon="6.75155">
        <ele>2427.73999</ele>
        <time>2014-08-21T12:14:11Z</time>
      </trkpt>
      <trkpt lat="44.99266" lon="6.7517">
        <ele>2424.97998</ele>
        <time>2014-08-21T12:14:20Z</time>
      </trkpt>
      <trkpt lat="44.99268" lon="6.75177">
        <ele>2423.580078</ele>
        <time>2014-08-21T12:14:25Z</time>
      </trkpt>
      <trkpt lat="44.99271" lon="6.75185">
        <ele>2421.719971</ele>
        <time>2014-08-21T12:14:32Z</time>
      </trkpt>
      <trkpt lat="44.99273" lon="6.75197">
        <ele>2420.709961</ele>
        <time>2014-08-21T12:14:41Z</time>
      </trkpt>
      <trkpt lat="44.99274" lon="6.75204">
        <ele>2419.839844</ele>
        <time>2014-08-21T12:14:48Z</time>
      </trkpt>
      <trkpt lat="44.99275" lon="6.75216">
        <ele>2418.589844</ele>
        <time>2014-08-21T12:14:56Z</time>
      </trkpt>
      <trkpt lat="44.99276" lon="6.75223">
        <ele>2417.350098</ele>
        <time>2014-08-21T12:15:03Z</time>
      </trkpt>
      <trkpt lat="44.99278" lon="6.75237">
        <ele>2416.01001</ele>
        <time>2014-08-21T12:15:13Z</time>
      </trkpt>
      <trkpt lat="44.99281" lon="6.75242">
        <ele>2413.900146</ele>
        <time>2014-08-21T12:15:21Z</time>
      </trkpt>
      <trkpt lat="44.99279" lon="6.7524">
        <ele>2412.719971</ele>
        <time>2014-08-21T12:15:42Z</time>
      </trkpt>
      <trkpt lat="44.99281" lon="6.75248">
        <ele>2412.449951</ele>
        <time>2014-08-21T12:15:50Z</time>
      </trkpt>
      <trkpt lat="44.99283" lon="6.75258">
        <ele>2410.790039</ele>
        <time>2014-08-21T12:15:57Z</time>
      </trkpt>
      <trkpt lat="44.99285" lon="6.75266">
        <ele>2409.48999</ele>
        <time>2014-08-21T12:16:02Z</time>
      </trkpt>
      <trkpt lat="44.99287" lon="6.7527">
        <ele>2408.370117</ele>
        <time>2014-08-21T12:16:06Z</time>
      </trkpt>
      <trkpt lat="44.99289" lon="6.75275">
        <ele>2407.650146</ele>
        <time>2014-08-21T12:16:10Z</time>
      </trkpt>
      <trkpt lat="44.99293" lon="6.75288">
        <ele>2405.180176</ele>
        <time>2014-08-21T12:16:19Z</time>
      </trkpt>
      <trkpt lat="44.99299" lon="6.753">
        <ele>2402.969971</ele>
        <time>2014-08-21T12:16:28Z</time>
      </trkpt>
      <trkpt lat="44.99299" lon="6.75305">
        <ele>2401.580078</ele>
        <time>2014-08-21T12:16:34Z</time>
      </trkpt>
      <trkpt lat="44.99301" lon="6.75317">
        <ele>2398.939941</ele>
        <time>2014-08-21T12:16:43Z</time>
      </trkpt>
      <trkpt lat="44.99306" lon="6.75324">
        <ele>2395.72998</ele>
        <time>2014-08-21T12:16:52Z</time>
      </trkpt>
      <trkpt lat="44.99306" lon="6.75332">
        <ele>2393.860107</ele>
        <time>2014-08-21T12:16:59Z</time>
      </trkpt>
      <trkpt lat="44.99307" lon="6.75342">
        <ele>2390.819824</ele>
        <time>2014-08-21T12:17:09Z</time>
      </trkpt>
      <trkpt lat="44.99309" lon="6.75354">
        <ele>2387.459961</ele>
        <time>2014-08-21T12:17:18Z</time>
      </trkpt>
      <trkpt lat="44.99312" lon="6.75358">
        <ele>2386.169922</ele>
        <time>2014-08-21T12:17:22Z</time>
      </trkpt>
      <trkpt lat="44.99319" lon="6.75363">
        <ele>2385.050049</ele>
        <time>2014-08-21T12:17:30Z</time>
      </trkpt>
      <trkpt lat="44.99322" lon="6.75366">
        <ele>2384.620117</ele>
        <time>2014-08-21T12:17:35Z</time>
      </trkpt>
      <trkpt lat="44.99327" lon="6.75372">
        <ele>2383.139893</ele>
        <time>2014-08-21T12:17:44Z</time>
      </trkpt>
      <trkpt lat="44.99331" lon="6.75381">
        <ele>2381.080078</ele>
        <time>2014-08-21T12:17:53Z</time>
      </trkpt>
      <trkpt lat="44.99332" lon="6.75385">
        <ele>2378.930176</ele>
        <time>2014-08-21T12:17:58Z</time>
      </trkpt>
      <trkpt lat="44.99337" lon="6.7539">
        <ele>2376.51001</ele>
        <time>2014-08-21T12:18:06Z</time>
      </trkpt>
      <trkpt lat="44.9934" lon="6.75395">
        <ele>2375.149902</ele>
        <time>2014-08-21T12:18:15Z</time>
      </trkpt>
      <trkpt lat="44.99342" lon="6.75408">
        <ele>2373.73999</ele>
        <time>2014-08-21T12:18:26Z</time>
      </trkpt>
      <trkpt lat="44.99345" lon="6.75413">
        <ele>2371.939941</ele>
        <time>2014-08-21T12:18:34Z</time>
      </trkpt>
      <trkpt lat="44.99347" lon="6.75416">
        <ele>2371.22998</ele>
        <time>2014-08-21T12:18:37Z</time>
      </trkpt>
      <trkpt lat="44.99347" lon="6.7542">
        <ele>2370.48999</ele>
        <time>2014-08-21T12:18:40Z</time>
      </trkpt>
      <trkpt lat="44.9935" lon="6.75427">
        <ele>2369.130127</ele>
        <time>2014-08-21T12:18:48Z</time>
      </trkpt>
      <trkpt lat="44.9935" lon="6.75427">
        <ele>2368.119873</ele>
        <time>2014-08-21T12:19:09Z</time>
      </trkpt>
      <trkpt lat="44.99352" lon="6.75434">
        <ele>2367.870117</ele>
        <time>2014-08-21T12:19:16Z</time>
      </trkpt>
      <trkpt lat="44.99352" lon="6.75444">
        <ele>2365.859863</ele>
        <time>2014-08-21T12:19:23Z</time>
      </trkpt>
      <trkpt lat="44.99352" lon="6.75449">
        <ele>2363.75</ele>
        <time>2014-08-21T12:19:30Z</time>
      </trkpt>
      <trkpt lat="44.99354" lon="6.75453">
        <ele>2362.899902</ele>
        <time>2014-08-21T12:19:34Z</time>
      </trkpt>
      <trkpt lat="44.99358" lon="6.75467">
        <ele>2361.469971</ele>
        <time>2014-08-21T12:19:44Z</time>
      </trkpt>
      <trkpt lat="44.99358" lon="6.75473">
        <ele>2359.620117</ele>
        <time>2014-08-21T12:19:53Z</time>
      </trkpt>
      <trkpt lat="44.99357" lon="6.75474">
        <ele>2359.030029</ele>
        <time>2014-08-21T12:20:03Z</time>
      </trkpt>
      <trkpt lat="44.99361" lon="6.7549">
        <ele>2357.959961</ele>
        <time>2014-08-21T12:20:11Z</time>
      </trkpt>
      <trkpt lat="44.99367" lon="6.75506">
        <ele>2354.689941</ele>
        <time>2014-08-21T12:20:19Z</time>
      </trkpt>
      <trkpt lat="44.99367" lon="6.75508">
        <ele>2352.219971</ele>
        <time>2014-08-21T12:20:24Z</time>
      </trkpt>
      <trkpt lat="44.99364" lon="6.75507">
        <ele>2350.800049</ele>
        <time>2014-08-21T12:20:30Z</time>
      </trkpt>
      <trkpt lat="44.99352" lon="6.755">
        <ele>2349.350098</ele>
        <time>2014-08-21T12:20:37Z</time>
      </trkpt>
      <trkpt lat="44.99348" lon="6.75497">
        <ele>2348.620117</ele>
        <time>2014-08-21T12:20:40Z</time>
      </trkpt>
      <trkpt lat="44.99344" lon="6.75496">
        <ele>2345.600098</ele>
        <time>2014-08-21T12:20:48Z</time>
      </trkpt>
      <trkpt lat="44.99344" lon="6.75498">
        <ele>2344.23999</ele>
        <time>2014-08-21T12:20:54Z</time>
      </trkpt>
      <trkpt lat="44.99344" lon="6.75499">
        <ele>2344.099854</ele>
        <time>2014-08-21T12:20:55Z</time>
      </trkpt>
      <trkpt lat="44.99348" lon="6.75515">
        <ele>2341.909912</ele>
        <time>2014-08-21T12:21:03Z</time>
      </trkpt>
      <trkpt lat="44.9935" lon="6.75531">
        <ele>2338.780029</ele>
        <time>2014-08-21T12:21:11Z</time>
      </trkpt>
      <trkpt lat="44.99353" lon="6.75538">
        <ele>2335.699951</ele>
        <time>2014-08-21T12:21:16Z</time>
      </trkpt>
      <trkpt lat="44.99351" lon="6.75537">
        <ele>2332.650146</ele>
        <time>2014-08-21T12:21:21Z</time>
      </trkpt>
      <trkpt lat="44.99351" lon="6.75537">
        <ele>2331.369873</ele>
        <time>2014-08-21T12:21:24Z</time>
      </trkpt>
      <trkpt lat="44.9935" lon="6.75536">
        <ele>2330.909912</ele>
        <time>2014-08-21T12:21:27Z</time>
      </trkpt>
      <trkpt lat="44.99341" lon="6.7553">
        <ele>2330.48999</ele>
        <time>2014-08-21T12:21:32Z</time>
      </trkpt>
      <trkpt lat="44.99331" lon="6.75523">
        <ele>2328.840088</ele>
        <time>2014-08-21T12:21:39Z</time>
      </trkpt>
      <trkpt lat="44.99331" lon="6.75526">
        <ele>2327.719971</ele>
        <time>2014-08-21T12:21:44Z</time>
      </trkpt>
      <trkpt lat="44.99334" lon="6.75533">
        <ele>2326.290039</ele>
        <time>2014-08-21T12:21:51Z</time>
      </trkpt>
      <trkpt lat="44.99334" lon="6.75534">
        <ele>2325.97998</ele>
        <time>2014-08-21T12:21:53Z</time>
      </trkpt>
      <trkpt lat="44.99338" lon="6.75551">
        <ele>2324.320068</ele>
        <time>2014-08-21T12:22:00Z</time>
      </trkpt>
      <trkpt lat="44.99342" lon="6.75562">
        <ele>2322.580078</ele>
        <time>2014-08-21T12:22:05Z</time>
      </trkpt>
      <trkpt lat="44.99346" lon="6.75567">
        <ele>2319.22998</ele>
        <time>2014-08-21T12:22:12Z</time>
      </trkpt>
      <trkpt lat="44.99347" lon="6.75569">
        <ele>2318.290039</ele>
        <time>2014-08-21T12:22:14Z</time>
      </trkpt>
      <trkpt lat="44.9935" lon="6.75574">
        <ele>2317.030029</ele>
        <time>2014-08-21T12:22:21Z</time>
      </trkpt>
      <trkpt lat="44.99354" lon="6.75577">
        <ele>2315.669922</ele>
        <time>2014-08-21T12:22:29Z</time>
      </trkpt>
      <trkpt lat="44.99358" lon="6.75582">
        <ele>2314.5</ele>
        <time>2014-08-21T12:22:37Z</time>
      </trkpt>
      <trkpt lat="44.99362" lon="6.75587">
        <ele>2313.409912</ele>
        <time>2014-08-21T12:22:46Z</time>
      </trkpt>
      <trkpt lat="44.99364" lon="6.75591">
        <ele>2312</ele>
        <time>2014-08-21T12:22:53Z</time>
      </trkpt>
      <trkpt lat="44.99365" lon="6.75596">
        <ele>2310.030029</ele>
        <time>2014-08-21T12:23:02Z</time>
      </trkpt>
      <trkpt lat="44.99366" lon="6.756">
        <ele>2309.050049</ele>
        <time>2014-08-21T12:23:13Z</time>
      </trkpt>
      <trkpt lat="44.99367" lon="6.7561">
        <ele>2307.889893</ele>
        <time>2014-08-21T12:23:21Z</time>
      </trkpt>
      <trkpt lat="44.99367" lon="6.75618">
        <ele>2305.830078</ele>
        <time>2014-08-21T12:23:28Z</time>
      </trkpt>
      <trkpt lat="44.99365" lon="6.75625">
        <ele>2303.880127</ele>
        <time>2014-08-21T12:23:35Z</time>
      </trkpt>
      <trkpt lat="44.99363" lon="6.75628">
        <ele>2302.169922</ele>
        <time>2014-08-21T12:23:41Z</time>
      </trkpt>
      <trkpt lat="44.99359" lon="6.75632">
        <ele>2301.310059</ele>
        <time>2014-08-21T12:23:45Z</time>
      </trkpt>
      <trkpt lat="44.99354" lon="6.75642">
        <ele>2299.360107</ele>
        <time>2014-08-21T12:23:52Z</time>
      </trkpt>
      <trkpt lat="44.99353" lon="6.75643">
        <ele>2298.939941</ele>
        <time>2014-08-21T12:23:54Z</time>
      </trkpt>
      <trkpt lat="44.99353" lon="6.75647">
        <ele>2298.570068</ele>
        <time>2014-08-21T12:23:56Z</time>
      </trkpt>
      <trkpt lat="44.99352" lon="6.75659">
        <ele>2298.119873</ele>
        <time>2014-08-21T12:24:05Z</time>
      </trkpt>
      <trkpt lat="44.99351" lon="6.75672">
        <ele>2298.899902</ele>
        <time>2014-08-21T12:24:13Z</time>
      </trkpt>
      <trkpt lat="44.99349" lon="6.75685">
        <ele>2299.440186</ele>
        <time>2014-08-21T12:24:21Z</time>
      </trkpt>
      <trkpt lat="44.99348" lon="6.75686">
        <ele>2299.5</ele>
        <time>2014-08-21T12:24:22Z</time>
      </trkpt>
      <trkpt lat="44.99344" lon="6.75687">
        <ele>2299.820068</ele>
        <time>2014-08-21T12:24:26Z</time>
      </trkpt>
      <trkpt lat="44.99342" lon="6.75689">
        <ele>2299.790039</ele>
        <time>2014-08-21T12:24:34Z</time>
      </trkpt>
      <trkpt lat="44.99341" lon="6.75686">
        <ele>2299.400146</ele>
        <time>2014-08-21T12:25:11Z</time>
      </trkpt>
      <trkpt lat="44.99342" lon="6.75688">
        <ele>2299.199951</ele>
        <time>2014-08-21T12:25:34Z</time>
      </trkpt>
      <trkpt lat="44.99331" lon="6.75693">
        <ele>2299.189941</ele>
        <time>2014-08-21T12:25:43Z</time>
      </trkpt>
      <trkpt lat="44.99328" lon="6.75694">
        <ele>2299.199951</ele>
        <time>2014-08-21T12:25:45Z</time>
      </trkpt>
      <trkpt lat="44.9932" lon="6.7571">
        <ele>2299.090088</ele>
        <time>2014-08-21T12:25:53Z</time>
      </trkpt>
      <trkpt lat="44.99309" lon="6.75735">
        <ele>2297.969971</ele>
        <time>2014-08-21T12:26:01Z</time>
      </trkpt>
      <trkpt lat="44.99303" lon="6.75753">
        <ele>2295.900146</ele>
        <time>2014-08-21T12:26:09Z</time>
      </trkpt>
      <trkpt lat="44.99297" lon="6.75769">
        <ele>2293.790039</ele>
        <time>2014-08-21T12:26:15Z</time>
      </trkpt>
      <trkpt lat="44.99284" lon="6.75789">
        <ele>2291.379883</ele>
        <time>2014-08-21T12:26:24Z</time>
      </trkpt>
      <trkpt lat="44.99281" lon="6.75793">
        <ele>2289.900146</ele>
        <time>2014-08-21T12:26:29Z</time>
      </trkpt>
      <trkpt lat="44.99281" lon="6.75794">
        <ele>2288.860107</ele>
        <time>2014-08-21T12:26:48Z</time>
      </trkpt>
      <trkpt lat="44.99275" lon="6.758">
        <ele>2288.820068</ele>
        <time>2014-08-21T12:26:51Z</time>
      </trkpt>
      <trkpt lat="44.99261" lon="6.75827">
        <ele>2286.959961</ele>
        <time>2014-08-21T12:26:59Z</time>
      </trkpt>
      <trkpt lat="44.99256" lon="6.75849">
        <ele>2284.609863</ele>
        <time>2014-08-21T12:27:05Z</time>
      </trkpt>
      <trkpt lat="44.99246" lon="6.75861">
        <ele>2282.820068</ele>
        <time>2014-08-21T12:27:11Z</time>
      </trkpt>
      <trkpt lat="44.99228" lon="6.75877">
        <ele>2279.27002</ele>
        <time>2014-08-21T12:27:18Z</time>
      </trkpt>
      <trkpt lat="44.99215" lon="6.75892">
        <ele>2276.290039</ele>
        <time>2014-08-21T12:27:23Z</time>
      </trkpt>
      <trkpt lat="44.99205" lon="6.75911">
        <ele>2273.22998</ele>
        <time>2014-08-21T12:27:29Z</time>
      </trkpt>
      <trkpt lat="44.99202" lon="6.75917">
        <ele>2272.48999</ele>
        <time>2014-08-21T12:27:31Z</time>
      </trkpt>
      <trkpt lat="44.99201" lon="6.75921">
        <ele>2272.179932</ele>
        <time>2014-08-21T12:27:32Z</time>
      </trkpt>
      <trkpt lat="44.992" lon="6.75924">
        <ele>2271.890137</ele>
        <time>2014-08-21T12:27:33Z</time>
      </trkpt>
      <trkpt lat="44.99199" lon="6.75928">
        <ele>2271.580078</ele>
        <time>2014-08-21T12:27:34Z</time>
      </trkpt>
      <trkpt lat="44.99198" lon="6.75932">
        <ele>2271.300049</ele>
        <time>2014-08-21T12:27:35Z</time>
      </trkpt>
      <trkpt lat="44.99191" lon="6.75959">
        <ele>2269.26001</ele>
        <time>2014-08-21T12:27:40Z</time>
      </trkpt>
      <trkpt lat="44.99188" lon="6.75964">
        <ele>2268.810059</ele>
        <time>2014-08-21T12:27:41Z</time>
      </trkpt>
      <trkpt lat="44.99184" lon="6.75967">
        <ele>2268.419922</ele>
        <time>2014-08-21T12:27:42Z</time>
      </trkpt>
      <trkpt lat="44.9918" lon="6.7597">
        <ele>2268.030029</ele>
        <time>2014-08-21T12:27:43Z</time>
      </trkpt>
      <trkpt lat="44.99177" lon="6.75972">
        <ele>2267.649902</ele>
        <time>2014-08-21T12:27:44Z</time>
      </trkpt>
      <trkpt lat="44.99175" lon="6.75974">
        <ele>2267.330078</ele>
        <time>2014-08-21T12:27:45Z</time>
      </trkpt>
      <trkpt lat="44.99174" lon="6.75976">
        <ele>2267.030029</ele>
        <time>2014-08-21T12:27:46Z</time>
      </trkpt>
      <trkpt lat="44.99172" lon="6.75977">
        <ele>2266.02002</ele>
        <time>2014-08-21T12:27:51Z</time>
      </trkpt>
      <trkpt lat="44.99172" lon="6.75976">
        <ele>2264.370117</ele>
        <time>2014-08-21T12:28:05Z</time>
      </trkpt>
      <trkpt lat="44.99168" lon="6.7598">
        <ele>2264.169922</ele>
        <time>2014-08-21T12:28:14Z</time>
      </trkpt>
      <trkpt lat="44.99167" lon="6.75983">
        <ele>2264.129883</ele>
        <time>2014-08-21T12:28:15Z</time>
      </trkpt>
      <trkpt lat="44.99165" lon="6.75986">
        <ele>2264.060059</ele>
        <time>2014-08-21T12:28:16Z</time>
      </trkpt>
      <trkpt lat="44.99164" lon="6.75988">
        <ele>2263.929932</ele>
        <time>2014-08-21T12:28:17Z</time>
      </trkpt>
      <trkpt lat="44.99163" lon="6.75992">
        <ele>2263.130127</ele>
        <time>2014-08-21T12:28:22Z</time>
      </trkpt>
      <trkpt lat="44.99155" lon="6.76005">
        <ele>2262.310059</ele>
        <time>2014-08-21T12:28:27Z</time>
      </trkpt>
      <trkpt lat="44.99146" lon="6.76021">
        <ele>2259.75</ele>
        <time>2014-08-21T12:28:33Z</time>
      </trkpt>
      <trkpt lat="44.99129" lon="6.76033">
        <ele>2256.409912</ele>
        <time>2014-08-21T12:28:39Z</time>
      </trkpt>
      <trkpt lat="44.99115" lon="6.76047">
        <ele>2253.110107</ele>
        <time>2014-08-21T12:28:45Z</time>
      </trkpt>
      <trkpt lat="44.99101" lon="6.76067">
        <ele>2249.699951</ele>
        <time>2014-08-21T12:28:52Z</time>
      </trkpt>
      <trkpt lat="44.99086" lon="6.7608">
        <ele>2246.359863</ele>
        <time>2014-08-21T12:28:57Z</time>
      </trkpt>
      <trkpt lat="44.99081" lon="6.7608">
        <ele>2245.75</ele>
        <time>2014-08-21T12:28:58Z</time>
      </trkpt>
      <trkpt lat="44.99076" lon="6.76078">
        <ele>2245.209961</ele>
        <time>2014-08-21T12:28:59Z</time>
      </trkpt>
      <trkpt lat="44.99072" lon="6.76074">
        <ele>2244.709961</ele>
        <time>2014-08-21T12:29:00Z</time>
      </trkpt>
      <trkpt lat="44.9907" lon="6.76068">
        <ele>2244.189941</ele>
        <time>2014-08-21T12:29:01Z</time>
      </trkpt>
      <trkpt lat="44.9907" lon="6.76063">
        <ele>2243.699951</ele>
        <time>2014-08-21T12:29:02Z</time>
      </trkpt>
      <trkpt lat="44.9907" lon="6.76059">
        <ele>2243.300049</ele>
        <time>2014-08-21T12:29:03Z</time>
      </trkpt>
      <trkpt lat="44.99069" lon="6.76055">
        <ele>2242.939941</ele>
        <time>2014-08-21T12:29:04Z</time>
      </trkpt>
      <trkpt lat="44.99068" lon="6.76052">
        <ele>2242.649902</ele>
        <time>2014-08-21T12:29:05Z</time>
      </trkpt>
      <trkpt lat="44.99063" lon="6.76033">
        <ele>2241.159912</ele>
        <time>2014-08-21T12:29:11Z</time>
      </trkpt>
      <trkpt lat="44.99064" lon="6.76032">
        <ele>2240</ele>
        <time>2014-08-21T12:29:26Z</time>
      </trkpt>
      <trkpt lat="44.99062" lon="6.7603">
        <ele>2239.829834</ele>
        <time>2014-08-21T12:29:33Z</time>
      </trkpt>
      <trkpt lat="44.9906" lon="6.76029">
        <ele>2239.820068</ele>
        <time>2014-08-21T12:29:34Z</time>
      </trkpt>
      <trkpt lat="44.99058" lon="6.76029">
        <ele>2239.800049</ele>
        <time>2014-08-21T12:29:35Z</time>
      </trkpt>
      <trkpt lat="44.99055" lon="6.76028">
        <ele>2239.77002</ele>
        <time>2014-08-21T12:29:36Z</time>
      </trkpt>
      <trkpt lat="44.99052" lon="6.76027">
        <ele>2239.72998</ele>
        <time>2014-08-21T12:29:37Z</time>
      </trkpt>
      <trkpt lat="44.99048" lon="6.76024">
        <ele>2239.630127</ele>
        <time>2014-08-21T12:29:38Z</time>
      </trkpt>
      <trkpt lat="44.99045" lon="6.76022">
        <ele>2239.439941</ele>
        <time>2014-08-21T12:29:39Z</time>
      </trkpt>
      <trkpt lat="44.99043" lon="6.76019">
        <ele>2239.160156</ele>
        <time>2014-08-21T12:29:40Z</time>
      </trkpt>
      <trkpt lat="44.99033" lon="6.7601">
        <ele>2237.839844</ele>
        <time>2014-08-21T12:29:44Z</time>
      </trkpt>
      <trkpt lat="44.99031" lon="6.7601">
        <ele>2237.600098</ele>
        <time>2014-08-21T12:29:45Z</time>
      </trkpt>
      <trkpt lat="44.99017" lon="6.7601">
        <ele>2236.23999</ele>
        <time>2014-08-21T12:29:50Z</time>
      </trkpt>
      <trkpt lat="44.99016" lon="6.76011">
        <ele>2235.899902</ele>
        <time>2014-08-21T12:29:51Z</time>
      </trkpt>
      <trkpt lat="44.99007" lon="6.76024">
        <ele>2233.5</ele>
        <time>2014-08-21T12:29:58Z</time>
      </trkpt>
      <trkpt lat="44.99006" lon="6.76027">
        <ele>2233.139893</ele>
        <time>2014-08-21T12:29:59Z</time>
      </trkpt>
      <trkpt lat="44.99005" lon="6.76027">
        <ele>2231.23999</ele>
        <time>2014-08-21T12:30:04Z</time>
      </trkpt>
      <trkpt lat="44.99009" lon="6.7603">
        <ele>2229.689941</ele>
        <time>2014-08-21T12:30:27Z</time>
      </trkpt>
      <trkpt lat="44.99008" lon="6.76026">
        <ele>2229.76001</ele>
        <time>2014-08-21T12:30:48Z</time>
      </trkpt>
      <trkpt lat="44.99008" lon="6.76028">
        <ele>2229.790039</ele>
        <time>2014-08-21T12:31:08Z</time>
      </trkpt>
      <trkpt lat="44.99008" lon="6.76031">
        <ele>2229.830078</ele>
        <time>2014-08-21T12:31:11Z</time>
      </trkpt>
      <trkpt lat="44.99007" lon="6.76033">
        <ele>2229.830078</ele>
        <time>2014-08-21T12:31:12Z</time>
      </trkpt>
      <trkpt lat="44.99006" lon="6.76035">
        <ele>2229.840088</ele>
        <time>2014-08-21T12:31:13Z</time>
      </trkpt>
      <trkpt lat="44.99005" lon="6.76038">
        <ele>2229.830078</ele>
        <time>2014-08-21T12:31:14Z</time>
      </trkpt>
      <trkpt lat="44.99004" lon="6.76041">
        <ele>2229.73999</ele>
        <time>2014-08-21T12:31:15Z</time>
      </trkpt>
      <trkpt lat="44.99003" lon="6.76044">
        <ele>2229.590088</ele>
        <time>2014-08-21T12:31:16Z</time>
      </trkpt>
      <trkpt lat="44.99001" lon="6.76047">
        <ele>2229.389893</ele>
        <time>2014-08-21T12:31:17Z</time>
      </trkpt>
      <trkpt lat="44.99" lon="6.7605">
        <ele>2229.110107</ele>
        <time>2014-08-21T12:31:18Z</time>
      </trkpt>
      <trkpt lat="44.98997" lon="6.76054">
        <ele>2226.879883</ele>
        <time>2014-08-21T12:31:23Z</time>
      </trkpt>
      <trkpt lat="44.98993" lon="6.76066">
        <ele>2225.650146</ele>
        <time>2014-08-21T12:31:28Z</time>
      </trkpt>
      <trkpt lat="44.98988" lon="6.76091">
        <ele>2223.22998</ele>
        <time>2014-08-21T12:31:34Z</time>
      </trkpt>
      <trkpt lat="44.98982" lon="6.7611">
        <ele>2220</ele>
        <time>2014-08-21T12:31:39Z</time>
      </trkpt>
      <trkpt lat="44.98979" lon="6.76129">
        <ele>2216.560059</ele>
        <time>2014-08-21T12:31:44Z</time>
      </trkpt>
      <trkpt lat="44.98976" lon="6.76149">
        <ele>2213.350098</ele>
        <time>2014-08-21T12:31:49Z</time>
      </trkpt>
      <trkpt lat="44.98967" lon="6.76167">
        <ele>2210.5</ele>
        <time>2014-08-21T12:31:54Z</time>
      </trkpt>
      <trkpt lat="44.98958" lon="6.76182">
        <ele>2206.810059</ele>
        <time>2014-08-21T12:31:59Z</time>
      </trkpt>
      <trkpt lat="44.98952" lon="6.76194">
        <ele>2203.280029</ele>
        <time>2014-08-21T12:32:04Z</time>
      </trkpt>
      <trkpt lat="44.98951" lon="6.76197">
        <ele>2202.619873</ele>
        <time>2014-08-21T12:32:05Z</time>
      </trkpt>
      <trkpt lat="44.9895" lon="6.762">
        <ele>2201.97998</ele>
        <time>2014-08-21T12:32:06Z</time>
      </trkpt>
      <trkpt lat="44.98948" lon="6.76204">
        <ele>2201.380127</ele>
        <time>2014-08-21T12:32:07Z</time>
      </trkpt>
      <trkpt lat="44.98946" lon="6.76207">
        <ele>2200.810059</ele>
        <time>2014-08-21T12:32:08Z</time>
      </trkpt>
      <trkpt lat="44.98944" lon="6.7621">
        <ele>2200.189941</ele>
        <time>2014-08-21T12:32:09Z</time>
      </trkpt>
      <trkpt lat="44.98942" lon="6.76213">
        <ele>2199.48999</ele>
        <time>2014-08-21T12:32:10Z</time>
      </trkpt>
      <trkpt lat="44.98941" lon="6.76216">
        <ele>2198.169922</ele>
        <time>2014-08-21T12:32:11Z</time>
      </trkpt>
      <trkpt lat="44.98939" lon="6.76218">
        <ele>2197.5</ele>
        <time>2014-08-21T12:32:12Z</time>
      </trkpt>
      <trkpt lat="44.98937" lon="6.76221">
        <ele>2196.850098</ele>
        <time>2014-08-21T12:32:13Z</time>
      </trkpt>
      <trkpt lat="44.98935" lon="6.76223">
        <ele>2196.22998</ele>
        <time>2014-08-21T12:32:14Z</time>
      </trkpt>
      <trkpt lat="44.98934" lon="6.76226">
        <ele>2195.640137</ele>
        <time>2014-08-21T12:32:15Z</time>
      </trkpt>
      <trkpt lat="44.98932" lon="6.76228">
        <ele>2195.060059</ele>
        <time>2014-08-21T12:32:16Z</time>
      </trkpt>
      <trkpt lat="44.98931" lon="6.76232">
        <ele>2194.469971</ele>
        <time>2014-08-21T12:32:17Z</time>
      </trkpt>
      <trkpt lat="44.9893" lon="6.76235">
        <ele>2193.870117</ele>
        <time>2014-08-21T12:32:18Z</time>
      </trkpt>
      <trkpt lat="44.98923" lon="6.76254">
        <ele>2190.640137</ele>
        <time>2014-08-21T12:32:23Z</time>
      </trkpt>
      <trkpt lat="44.98917" lon="6.76268">
        <ele>2187.439941</ele>
        <time>2014-08-21T12:32:28Z</time>
      </trkpt>
      <trkpt lat="44.98909" lon="6.76287">
        <ele>2184.399902</ele>
        <time>2014-08-21T12:32:34Z</time>
      </trkpt>
      <trkpt lat="44.98897" lon="6.76305">
        <ele>2181.919922</ele>
        <time>2014-08-21T12:32:39Z</time>
      </trkpt>
      <trkpt lat="44.98892" lon="6.76308">
        <ele>2181.449951</ele>
        <time>2014-08-21T12:32:40Z</time>
      </trkpt>
      <trkpt lat="44.98888" lon="6.7631">
        <ele>2180.949951</ele>
        <time>2014-08-21T12:32:41Z</time>
      </trkpt>
      <trkpt lat="44.98867" lon="6.7632">
        <ele>2177.929932</ele>
        <time>2014-08-21T12:32:47Z</time>
      </trkpt>
      <trkpt lat="44.98861" lon="6.76326">
        <ele>2176.01001</ele>
        <time>2014-08-21T12:32:53Z</time>
      </trkpt>
      <trkpt lat="44.98859" lon="6.76323">
        <ele>2175.189941</ele>
        <time>2014-08-21T12:33:00Z</time>
      </trkpt>
      <trkpt lat="44.9886" lon="6.76318">
        <ele>2174.830078</ele>
        <time>2014-08-21T12:33:02Z</time>
      </trkpt>
      <trkpt lat="44.98862" lon="6.76316">
        <ele>2174.669922</ele>
        <time>2014-08-21T12:33:03Z</time>
      </trkpt>
      <trkpt lat="44.98863" lon="6.76313">
        <ele>2174.51001</ele>
        <time>2014-08-21T12:33:04Z</time>
      </trkpt>
      <trkpt lat="44.98864" lon="6.76309">
        <ele>2174.369873</ele>
        <time>2014-08-21T12:33:05Z</time>
      </trkpt>
      <trkpt lat="44.98866" lon="6.76306">
        <ele>2174.23999</ele>
        <time>2014-08-21T12:33:06Z</time>
      </trkpt>
      <trkpt lat="44.98866" lon="6.76303">
        <ele>2174.090088</ele>
        <time>2014-08-21T12:33:07Z</time>
      </trkpt>
      <trkpt lat="44.98867" lon="6.763">
        <ele>2173.889893</ele>
        <time>2014-08-21T12:33:08Z</time>
      </trkpt>
      <trkpt lat="44.98869" lon="6.76297">
        <ele>2173.660156</ele>
        <time>2014-08-21T12:33:09Z</time>
      </trkpt>
      <trkpt lat="44.9887" lon="6.76294">
        <ele>2173.459961</ele>
        <time>2014-08-21T12:33:10Z</time>
      </trkpt>
      <trkpt lat="44.98872" lon="6.76291">
        <ele>2173.27002</ele>
        <time>2014-08-21T12:33:11Z</time>
      </trkpt>
      <trkpt lat="44.98876" lon="6.76276">
        <ele>2171.879883</ele>
        <time>2014-08-21T12:33:16Z</time>
      </trkpt>
      <trkpt lat="44.98872" lon="6.76258">
        <ele>2169.870117</ele>
        <time>2014-08-21T12:33:21Z</time>
      </trkpt>
      <trkpt lat="44.98863" lon="6.7624">
        <ele>2167.429932</ele>
        <time>2014-08-21T12:33:27Z</time>
      </trkpt>
      <trkpt lat="44.98861" lon="6.76237">
        <ele>2167.129883</ele>
        <time>2014-08-21T12:33:28Z</time>
      </trkpt>
      <trkpt lat="44.9886" lon="6.76229">
        <ele>2166.360107</ele>
        <time>2014-08-21T12:33:30Z</time>
      </trkpt>
      <trkpt lat="44.98862" lon="6.76198">
        <ele>2162.959961</ele>
        <time>2014-08-21T12:33:38Z</time>
      </trkpt>
      <trkpt lat="44.98863" lon="6.7618">
        <ele>2160.370117</ele>
        <time>2014-08-21T12:33:43Z</time>
      </trkpt>
      <trkpt lat="44.98863" lon="6.76177">
        <ele>2159.939941</ele>
        <time>2014-08-21T12:33:44Z</time>
      </trkpt>
      <trkpt lat="44.98863" lon="6.76175">
        <ele>2159.459961</ele>
        <time>2014-08-21T12:33:45Z</time>
      </trkpt>
      <trkpt lat="44.98863" lon="6.76171">
        <ele>2158.959961</ele>
        <time>2014-08-21T12:33:46Z</time>
      </trkpt>
      <trkpt lat="44.98862" lon="6.76167">
        <ele>2158.469971</ele>
        <time>2014-08-21T12:33:47Z</time>
      </trkpt>
      <trkpt lat="44.98861" lon="6.76162">
        <ele>2157.98999</ele>
        <time>2014-08-21T12:33:48Z</time>
      </trkpt>
      <trkpt lat="44.9886" lon="6.76157">
        <ele>2157.469971</ele>
        <time>2014-08-21T12:33:49Z</time>
      </trkpt>
      <trkpt lat="44.98854" lon="6.76137">
        <ele>2154.449951</ele>
        <time>2014-08-21T12:33:54Z</time>
      </trkpt>
      <trkpt lat="44.98853" lon="6.76108">
        <ele>2151.800049</ele>
        <time>2014-08-21T12:34:00Z</time>
      </trkpt>
      <trkpt lat="44.98854" lon="6.76106">
        <ele>2150.219971</ele>
        <time>2014-08-21T12:34:03Z</time>
      </trkpt>
      <trkpt lat="44.98855" lon="6.76105">
        <ele>2149.77002</ele>
        <time>2014-08-21T12:34:04Z</time>
      </trkpt>
      <trkpt lat="44.9886" lon="6.76099">
        <ele>2148.179932</ele>
        <time>2014-08-21T12:34:11Z</time>
      </trkpt>
      <trkpt lat="44.98859" lon="6.76097">
        <ele>2147.47998</ele>
        <time>2014-08-21T12:34:22Z</time>
      </trkpt>
      <trkpt lat="44.98861" lon="6.76099">
        <ele>2147.040039</ele>
        <time>2014-08-21T12:34:50Z</time>
      </trkpt>
      <trkpt lat="44.98857" lon="6.76103">
        <ele>2147.040039</ele>
        <time>2014-08-21T12:34:55Z</time>
      </trkpt>
      <trkpt lat="44.98854" lon="6.76104">
        <ele>2147.25</ele>
        <time>2014-08-21T12:34:58Z</time>
      </trkpt>
      <trkpt lat="44.98846" lon="6.76111">
        <ele>2147.299805</ele>
        <time>2014-08-21T12:35:06Z</time>
      </trkpt>
      <trkpt lat="44.98843" lon="6.76119">
        <ele>2147.5</ele>
        <time>2014-08-21T12:35:15Z</time>
      </trkpt>
      <trkpt lat="44.98842" lon="6.76122">
        <ele>2147.439941</ele>
        <time>2014-08-21T12:35:36Z</time>
      </trkpt>
      <trkpt lat="44.98842" lon="6.7612">
        <ele>2147.439941</ele>
        <time>2014-08-21T12:35:48Z</time>
      </trkpt>
      <trkpt lat="44.98837" lon="6.76126">
        <ele>2147.370117</ele>
        <time>2014-08-21T12:35:52Z</time>
      </trkpt>
      <trkpt lat="44.98834" lon="6.76127">
        <ele>2147.330078</ele>
        <time>2014-08-21T12:35:53Z</time>
      </trkpt>
      <trkpt lat="44.98822" lon="6.76133">
        <ele>2145.969971</ele>
        <time>2014-08-21T12:35:58Z</time>
      </trkpt>
      <trkpt lat="44.9881" lon="6.76142">
        <ele>2142.570068</ele>
        <time>2014-08-21T12:36:05Z</time>
      </trkpt>
      <trkpt lat="44.98795" lon="6.76156">
        <ele>2139.52002</ele>
        <time>2014-08-21T12:36:13Z</time>
      </trkpt>
      <trkpt lat="44.98774" lon="6.76177">
        <ele>2135.939941</ele>
        <time>2014-08-21T12:36:21Z</time>
      </trkpt>
      <trkpt lat="44.98767" lon="6.76192">
        <ele>2132.919922</ele>
        <time>2014-08-21T12:36:28Z</time>
      </trkpt>
      <trkpt lat="44.98759" lon="6.76205">
        <ele>2129.830078</ele>
        <time>2014-08-21T12:36:34Z</time>
      </trkpt>
      <trkpt lat="44.98747" lon="6.76204">
        <ele>2126.300049</ele>
        <time>2014-08-21T12:36:40Z</time>
      </trkpt>
      <trkpt lat="44.98741" lon="6.76201">
        <ele>2122.699951</ele>
        <time>2014-08-21T12:36:45Z</time>
      </trkpt>
      <trkpt lat="44.98739" lon="6.76199">
        <ele>2119.619873</ele>
        <time>2014-08-21T12:36:57Z</time>
      </trkpt>
      <trkpt lat="44.9873" lon="6.7619">
        <ele>2118.530029</ele>
        <time>2014-08-21T12:37:07Z</time>
      </trkpt>
      <trkpt lat="44.98719" lon="6.76188">
        <ele>2115.5</ele>
        <time>2014-08-21T12:37:13Z</time>
      </trkpt>
      <trkpt lat="44.98707" lon="6.76191">
        <ele>2112.47998</ele>
        <time>2014-08-21T12:37:18Z</time>
      </trkpt>
      <trkpt lat="44.98692" lon="6.76192">
        <ele>2108.909912</ele>
        <time>2014-08-21T12:37:23Z</time>
      </trkpt>
      <trkpt lat="44.98676" lon="6.76195">
        <ele>2105.570068</ele>
        <time>2014-08-21T12:37:28Z</time>
      </trkpt>
      <trkpt lat="44.98661" lon="6.76195">
        <ele>2102.219971</ele>
        <time>2014-08-21T12:37:33Z</time>
      </trkpt>
      <trkpt lat="44.98647" lon="6.76194">
        <ele>2099.130127</ele>
        <time>2014-08-21T12:37:37Z</time>
      </trkpt>
      <trkpt lat="44.9863" lon="6.76201">
        <ele>2095.889893</ele>
        <time>2014-08-21T12:37:42Z</time>
      </trkpt>
      <trkpt lat="44.98611" lon="6.76208">
        <ele>2092.76001</ele>
        <time>2014-08-21T12:37:47Z</time>
      </trkpt>
      <trkpt lat="44.98592" lon="6.7622">
        <ele>2089.659912</ele>
        <time>2014-08-21T12:37:53Z</time>
      </trkpt>
      <trkpt lat="44.98586" lon="6.76226">
        <ele>2088.77002</ele>
        <time>2014-08-21T12:37:55Z</time>
      </trkpt>
      <trkpt lat="44.98583" lon="6.7623">
        <ele>2088.369873</ele>
        <time>2014-08-21T12:37:56Z</time>
      </trkpt>
      <trkpt lat="44.9858" lon="6.76234">
        <ele>2087.929932</ele>
        <time>2014-08-21T12:37:57Z</time>
      </trkpt>
      <trkpt lat="44.98578" lon="6.76238">
        <ele>2087.449951</ele>
        <time>2014-08-21T12:37:58Z</time>
      </trkpt>
      <trkpt lat="44.98576" lon="6.76243">
        <ele>2086.939941</ele>
        <time>2014-08-21T12:37:59Z</time>
      </trkpt>
      <trkpt lat="44.98573" lon="6.76246">
        <ele>2086.419922</ele>
        <time>2014-08-21T12:38:00Z</time>
      </trkpt>
      <trkpt lat="44.98571" lon="6.76249">
        <ele>2085.959961</ele>
        <time>2014-08-21T12:38:01Z</time>
      </trkpt>
      <trkpt lat="44.98568" lon="6.76253">
        <ele>2085.209961</ele>
        <time>2014-08-21T12:38:02Z</time>
      </trkpt>
      <trkpt lat="44.98565" lon="6.76258">
        <ele>2084.709961</ele>
        <time>2014-08-21T12:38:03Z</time>
      </trkpt>
      <trkpt lat="44.98555" lon="6.7628">
        <ele>2081.080078</ele>
        <time>2014-08-21T12:38:08Z</time>
      </trkpt>
      <trkpt lat="44.98546" lon="6.76302">
        <ele>2077.76001</ele>
        <time>2014-08-21T12:38:13Z</time>
      </trkpt>
      <trkpt lat="44.98537" lon="6.76324">
        <ele>2074.52002</ele>
        <time>2014-08-21T12:38:18Z</time>
      </trkpt>
      <trkpt lat="44.9853" lon="6.76351">
        <ele>2071.389893</ele>
        <time>2014-08-21T12:38:24Z</time>
      </trkpt>
      <trkpt lat="44.98524" lon="6.76369">
        <ele>2068.300049</ele>
        <time>2014-08-21T12:38:29Z</time>
      </trkpt>
      <trkpt lat="44.98523" lon="6.76383">
        <ele>2066.040039</ele>
        <time>2014-08-21T12:38:33Z</time>
      </trkpt>
      <trkpt lat="44.98524" lon="6.76386">
        <ele>2065.530029</ele>
        <time>2014-08-21T12:38:34Z</time>
      </trkpt>
      <trkpt lat="44.98525" lon="6.7639">
        <ele>2065.050049</ele>
        <time>2014-08-21T12:38:35Z</time>
      </trkpt>
      <trkpt lat="44.98526" lon="6.76394">
        <ele>2064.609863</ele>
        <time>2014-08-21T12:38:36Z</time>
      </trkpt>
      <trkpt lat="44.98527" lon="6.76398">
        <ele>2064.149902</ele>
        <time>2014-08-21T12:38:37Z</time>
      </trkpt>
      <trkpt lat="44.98529" lon="6.76401">
        <ele>2063.619873</ele>
        <time>2014-08-21T12:38:38Z</time>
      </trkpt>
      <trkpt lat="44.9853" lon="6.76404">
        <ele>2063.090088</ele>
        <time>2014-08-21T12:38:39Z</time>
      </trkpt>
      <trkpt lat="44.98538" lon="6.76419">
        <ele>2060.410156</ele>
        <time>2014-08-21T12:38:44Z</time>
      </trkpt>
      <trkpt lat="44.9855" lon="6.76426">
        <ele>2057.830078</ele>
        <time>2014-08-21T12:38:49Z</time>
      </trkpt>
      <trkpt lat="44.98554" lon="6.7643">
        <ele>2056.159912</ele>
        <time>2014-08-21T12:38:51Z</time>
      </trkpt>
      <trkpt lat="44.98555" lon="6.76432">
        <ele>2055.5</ele>
        <time>2014-08-21T12:38:52Z</time>
      </trkpt>
      <trkpt lat="44.98556" lon="6.76435">
        <ele>2054.870117</ele>
        <time>2014-08-21T12:38:53Z</time>
      </trkpt>
      <trkpt lat="44.98559" lon="6.76439">
        <ele>2053.76001</ele>
        <time>2014-08-21T12:38:55Z</time>
      </trkpt>
      <trkpt lat="44.98561" lon="6.7644">
        <ele>2053.179932</ele>
        <time>2014-08-21T12:38:56Z</time>
      </trkpt>
      <trkpt lat="44.98562" lon="6.76441">
        <ele>2052.560059</ele>
        <time>2014-08-21T12:38:57Z</time>
      </trkpt>
      <trkpt lat="44.98564" lon="6.76441">
        <ele>2051.959961</ele>
        <time>2014-08-21T12:38:58Z</time>
      </trkpt>
      <trkpt lat="44.98565" lon="6.76442">
        <ele>2051.380127</ele>
        <time>2014-08-21T12:38:59Z</time>
      </trkpt>
      <trkpt lat="44.98567" lon="6.76442">
        <ele>2050.73999</ele>
        <time>2014-08-21T12:39:00Z</time>
      </trkpt>
      <trkpt lat="44.98569" lon="6.76443">
        <ele>2050.070068</ele>
        <time>2014-08-21T12:39:01Z</time>
      </trkpt>
      <trkpt lat="44.98571" lon="6.76444">
        <ele>2049.419922</ele>
        <time>2014-08-21T12:39:02Z</time>
      </trkpt>
      <trkpt lat="44.98573" lon="6.76444">
        <ele>2048.840088</ele>
        <time>2014-08-21T12:39:03Z</time>
      </trkpt>
      <trkpt lat="44.98575" lon="6.76446">
        <ele>2048.320068</ele>
        <time>2014-08-21T12:39:04Z</time>
      </trkpt>
      <trkpt lat="44.98585" lon="6.76459">
        <ele>2045.779907</ele>
        <time>2014-08-21T12:39:09Z</time>
      </trkpt>
      <trkpt lat="44.98591" lon="6.76473">
        <ele>2042.539917</ele>
        <time>2014-08-21T12:39:14Z</time>
      </trkpt>
      <trkpt lat="44.98595" lon="6.76485">
        <ele>2039.02002</ele>
        <time>2014-08-21T12:39:18Z</time>
      </trkpt>
      <trkpt lat="44.98597" lon="6.76503">
        <ele>2035.780029</ele>
        <time>2014-08-21T12:39:23Z</time>
      </trkpt>
      <trkpt lat="44.98598" lon="6.76521">
        <ele>2032.72998</ele>
        <time>2014-08-21T12:39:28Z</time>
      </trkpt>
      <trkpt lat="44.98598" lon="6.7654">
        <ele>2029.339966</ele>
        <time>2014-08-21T12:39:34Z</time>
      </trkpt>
      <trkpt lat="44.98598" lon="6.76543">
        <ele>2028.780029</ele>
        <time>2014-08-21T12:39:35Z</time>
      </trkpt>
      <trkpt lat="44.98598" lon="6.76547">
        <ele>2028.219971</ele>
        <time>2014-08-21T12:39:36Z</time>
      </trkpt>
      <trkpt lat="44.98599" lon="6.76551">
        <ele>2027.709961</ele>
        <time>2014-08-21T12:39:37Z</time>
      </trkpt>
      <trkpt lat="44.98599" lon="6.76554">
        <ele>2027.210083</ele>
        <time>2014-08-21T12:39:38Z</time>
      </trkpt>
      <trkpt lat="44.986" lon="6.76558">
        <ele>2026.679932</ele>
        <time>2014-08-21T12:39:39Z</time>
      </trkpt>
      <trkpt lat="44.986" lon="6.7658">
        <ele>2023.429932</ele>
        <time>2014-08-21T12:39:44Z</time>
      </trkpt>
      <trkpt lat="44.98604" lon="6.76602">
        <ele>2019.969971</ele>
        <time>2014-08-21T12:39:50Z</time>
      </trkpt>
      <trkpt lat="44.986" lon="6.76628">
        <ele>2016.410034</ele>
        <time>2014-08-21T12:39:57Z</time>
      </trkpt>
      <trkpt lat="44.98597" lon="6.76653">
        <ele>2012.849976</ele>
        <time>2014-08-21T12:40:03Z</time>
      </trkpt>
      <trkpt lat="44.98599" lon="6.76657">
        <ele>2012.23999</ele>
        <time>2014-08-21T12:40:04Z</time>
      </trkpt>
      <trkpt lat="44.98601" lon="6.7666">
        <ele>2011.22998</ele>
        <time>2014-08-21T12:40:05Z</time>
      </trkpt>
      <trkpt lat="44.98617" lon="6.76679">
        <ele>2008.149902</ele>
        <time>2014-08-21T12:40:11Z</time>
      </trkpt>
      <trkpt lat="44.98624" lon="6.76683">
        <ele>2007.209961</ele>
        <time>2014-08-21T12:40:13Z</time>
      </trkpt>
      <trkpt lat="44.98628" lon="6.76687">
        <ele>2006.810059</ele>
        <time>2014-08-21T12:40:14Z</time>
      </trkpt>
      <trkpt lat="44.98632" lon="6.76691">
        <ele>2006.419922</ele>
        <time>2014-08-21T12:40:15Z</time>
      </trkpt>
      <trkpt lat="44.98644" lon="6.76701">
        <ele>2004.410034</ele>
        <time>2014-08-21T12:40:19Z</time>
      </trkpt>
      <trkpt lat="44.98664" lon="6.76705">
        <ele>2001.449951</ele>
        <time>2014-08-21T12:40:25Z</time>
      </trkpt>
      <trkpt lat="44.98689" lon="6.76713">
        <ele>1998.099976</ele>
        <time>2014-08-21T12:40:32Z</time>
      </trkpt>
      <trkpt lat="44.98703" lon="6.76739">
        <ele>1994.579956</ele>
        <time>2014-08-21T12:40:39Z</time>
      </trkpt>
      <trkpt lat="44.98705" lon="6.76744">
        <ele>1992.47998</ele>
        <time>2014-08-21T12:40:43Z</time>
      </trkpt>
      <trkpt lat="44.98708" lon="6.76753">
        <ele>1990.070068</ele>
        <time>2014-08-21T12:40:57Z</time>
      </trkpt>
      <trkpt lat="44.98716" lon="6.76771">
        <ele>1988.630005</ele>
        <time>2014-08-21T12:41:02Z</time>
      </trkpt>
      <trkpt lat="44.98716" lon="6.76774">
        <ele>1988.099976</ele>
        <time>2014-08-21T12:41:03Z</time>
      </trkpt>
      <trkpt lat="44.98716" lon="6.76776">
        <ele>1987.539917</ele>
        <time>2014-08-21T12:41:04Z</time>
      </trkpt>
      <trkpt lat="44.98716" lon="6.76778">
        <ele>1986.949951</ele>
        <time>2014-08-21T12:41:05Z</time>
      </trkpt>
      <trkpt lat="44.98715" lon="6.7678">
        <ele>1986.369995</ele>
        <time>2014-08-21T12:41:06Z</time>
      </trkpt>
      <trkpt lat="44.98714" lon="6.76783">
        <ele>1985.790039</ele>
        <time>2014-08-21T12:41:07Z</time>
      </trkpt>
      <trkpt lat="44.98712" lon="6.76785">
        <ele>1985.210083</ele>
        <time>2014-08-21T12:41:08Z</time>
      </trkpt>
      <trkpt lat="44.987" lon="6.76792">
        <ele>1981.880005</ele>
        <time>2014-08-21T12:41:14Z</time>
      </trkpt>
      <trkpt lat="44.98686" lon="6.76795">
        <ele>1978.540039</ele>
        <time>2014-08-21T12:41:19Z</time>
      </trkpt>
      <trkpt lat="44.98674" lon="6.76797">
        <ele>1975.529907</ele>
        <time>2014-08-21T12:41:24Z</time>
      </trkpt>
      <trkpt lat="44.9866" lon="6.76799">
        <ele>1971.950073</ele>
        <time>2014-08-21T12:41:30Z</time>
      </trkpt>
      <trkpt lat="44.98648" lon="6.768">
        <ele>1968.47998</ele>
        <time>2014-08-21T12:41:35Z</time>
      </trkpt>
      <trkpt lat="44.98633" lon="6.76797">
        <ele>1965.369995</ele>
        <time>2014-08-21T12:41:40Z</time>
      </trkpt>
      <trkpt lat="44.98621" lon="6.76787">
        <ele>1962.359985</ele>
        <time>2014-08-21T12:41:44Z</time>
      </trkpt>
      <trkpt lat="44.98612" lon="6.76779">
        <ele>1960.339966</ele>
        <time>2014-08-21T12:41:48Z</time>
      </trkpt>
      <trkpt lat="44.9861" lon="6.76779">
        <ele>1959.859985</ele>
        <time>2014-08-21T12:41:49Z</time>
      </trkpt>
      <trkpt lat="44.98607" lon="6.76779">
        <ele>1959.380005</ele>
        <time>2014-08-21T12:41:50Z</time>
      </trkpt>
      <trkpt lat="44.98604" lon="6.76779">
        <ele>1958.859985</ele>
        <time>2014-08-21T12:41:51Z</time>
      </trkpt>
      <trkpt lat="44.98601" lon="6.76778">
        <ele>1958.259888</ele>
        <time>2014-08-21T12:41:52Z</time>
      </trkpt>
      <trkpt lat="44.98599" lon="6.76778">
        <ele>1957.619995</ele>
        <time>2014-08-21T12:41:53Z</time>
      </trkpt>
      <trkpt lat="44.98596" lon="6.76778">
        <ele>1956.899902</ele>
        <time>2014-08-21T12:41:54Z</time>
      </trkpt>
      <trkpt lat="44.98587" lon="6.76778">
        <ele>1953.589966</ele>
        <time>2014-08-21T12:41:59Z</time>
      </trkpt>
      <trkpt lat="44.98584" lon="6.76781">
        <ele>1950.590088</ele>
        <time>2014-08-21T12:42:04Z</time>
      </trkpt>
      <trkpt lat="44.9858" lon="6.76779">
        <ele>1948.799927</ele>
        <time>2014-08-21T12:42:12Z</time>
      </trkpt>
      <trkpt lat="44.98578" lon="6.76779">
        <ele>1948.73999</ele>
        <time>2014-08-21T12:42:13Z</time>
      </trkpt>
      <trkpt lat="44.98576" lon="6.76778">
        <ele>1948.670044</ele>
        <time>2014-08-21T12:42:14Z</time>
      </trkpt>
      <trkpt lat="44.98573" lon="6.76778">
        <ele>1948.549927</ele>
        <time>2014-08-21T12:42:15Z</time>
      </trkpt>
      <trkpt lat="44.98571" lon="6.76778">
        <ele>1948.359985</ele>
        <time>2014-08-21T12:42:16Z</time>
      </trkpt>
      <trkpt lat="44.98568" lon="6.76777">
        <ele>1948.079956</ele>
        <time>2014-08-21T12:42:17Z</time>
      </trkpt>
      <trkpt lat="44.98554" lon="6.76771">
        <ele>1945.459961</ele>
        <time>2014-08-21T12:42:23Z</time>
      </trkpt>
      <trkpt lat="44.98552" lon="6.7677">
        <ele>1943.019897</ele>
        <time>2014-08-21T12:42:29Z</time>
      </trkpt>
      <trkpt lat="44.98546" lon="6.76776">
        <ele>1941.51001</ele>
        <time>2014-08-21T12:42:44Z</time>
      </trkpt>
      <trkpt lat="44.98547" lon="6.76778">
        <ele>1941.470093</ele>
        <time>2014-08-21T12:42:45Z</time>
      </trkpt>
      <trkpt lat="44.98557" lon="6.76793">
        <ele>1941.089966</ele>
        <time>2014-08-21T12:42:50Z</time>
      </trkpt>
      <trkpt lat="44.98565" lon="6.76807">
        <ele>1940.699951</ele>
        <time>2014-08-21T12:42:53Z</time>
      </trkpt>
      <trkpt lat="44.98568" lon="6.76812">
        <ele>1940.559937</ele>
        <time>2014-08-21T12:42:54Z</time>
      </trkpt>
      <trkpt lat="44.98584" lon="6.76837">
        <ele>1937.419922</ele>
        <time>2014-08-21T12:43:01Z</time>
      </trkpt>
      <trkpt lat="44.98599" lon="6.76847">
        <ele>1934.809937</ele>
        <time>2014-08-21T12:43:07Z</time>
      </trkpt>
      <trkpt lat="44.98615" lon="6.76869">
        <ele>1932.010132</ele>
        <time>2014-08-21T12:43:13Z</time>
      </trkpt>
      <trkpt lat="44.98632" lon="6.76887">
        <ele>1929.300049</ele>
        <time>2014-08-21T12:43:19Z</time>
      </trkpt>
      <trkpt lat="44.9865" lon="6.76906">
        <ele>1926.480103</ele>
        <time>2014-08-21T12:43:25Z</time>
      </trkpt>
      <trkpt lat="44.9867" lon="6.76904">
        <ele>1924.140015</ele>
        <time>2014-08-21T12:43:31Z</time>
      </trkpt>
      <trkpt lat="44.98684" lon="6.76903">
        <ele>1922.800049</ele>
        <time>2014-08-21T12:43:34Z</time>
      </trkpt>
      <trkpt lat="44.98689" lon="6.76903">
        <ele>1922.289917</ele>
        <time>2014-08-21T12:43:35Z</time>
      </trkpt>
      <trkpt lat="44.98694" lon="6.76905">
        <ele>1921.840088</ele>
        <time>2014-08-21T12:43:36Z</time>
      </trkpt>
      <trkpt lat="44.98696" lon="6.76908">
        <ele>1921.390015</ele>
        <time>2014-08-21T12:43:37Z</time>
      </trkpt>
      <trkpt lat="44.98698" lon="6.76911">
        <ele>1920.920044</ele>
        <time>2014-08-21T12:43:38Z</time>
      </trkpt>
      <trkpt lat="44.98699" lon="6.76915">
        <ele>1920.430054</ele>
        <time>2014-08-21T12:43:39Z</time>
      </trkpt>
      <trkpt lat="44.98699" lon="6.76918">
        <ele>1919.960083</ele>
        <time>2014-08-21T12:43:40Z</time>
      </trkpt>
      <trkpt lat="44.98698" lon="6.76921">
        <ele>1919.569946</ele>
        <time>2014-08-21T12:43:41Z</time>
      </trkpt>
      <trkpt lat="44.98697" lon="6.76925">
        <ele>1919.209961</ele>
        <time>2014-08-21T12:43:42Z</time>
      </trkpt>
      <trkpt lat="44.98686" lon="6.7695">
        <ele>1916.119995</ele>
        <time>2014-08-21T12:43:48Z</time>
      </trkpt>
      <trkpt lat="44.98685" lon="6.76952">
        <ele>1915.630005</ele>
        <time>2014-08-21T12:43:49Z</time>
      </trkpt>
      <trkpt lat="44.98686" lon="6.76955">
        <ele>1915.199951</ele>
        <time>2014-08-21T12:43:50Z</time>
      </trkpt>
      <trkpt lat="44.98686" lon="6.76957">
        <ele>1914.810059</ele>
        <time>2014-08-21T12:43:51Z</time>
      </trkpt>
      <trkpt lat="44.98687" lon="6.7696">
        <ele>1914.440063</ele>
        <time>2014-08-21T12:43:52Z</time>
      </trkpt>
      <trkpt lat="44.98687" lon="6.76963">
        <ele>1914.099976</ele>
        <time>2014-08-21T12:43:53Z</time>
      </trkpt>
      <trkpt lat="44.98688" lon="6.76965">
        <ele>1913.810059</ele>
        <time>2014-08-21T12:43:54Z</time>
      </trkpt>
      <trkpt lat="44.98688" lon="6.76968">
        <ele>1912.379883</ele>
        <time>2014-08-21T12:44:00Z</time>
      </trkpt>
      <trkpt lat="44.98689" lon="6.7697">
        <ele>1911.780029</ele>
        <time>2014-08-21T12:44:04Z</time>
      </trkpt>
      <trkpt lat="44.9869" lon="6.76973">
        <ele>1911.660034</ele>
        <time>2014-08-21T12:44:05Z</time>
      </trkpt>
      <trkpt lat="44.98691" lon="6.76978">
        <ele>1911.560059</ele>
        <time>2014-08-21T12:44:06Z</time>
      </trkpt>
      <trkpt lat="44.98693" lon="6.76982">
        <ele>1911.469971</ele>
        <time>2014-08-21T12:44:07Z</time>
      </trkpt>
      <trkpt lat="44.98694" lon="6.76987">
        <ele>1911.359985</ele>
        <time>2014-08-21T12:44:08Z</time>
      </trkpt>
      <trkpt lat="44.98696" lon="6.76993">
        <ele>1911.209961</ele>
        <time>2014-08-21T12:44:09Z</time>
      </trkpt>
      <trkpt lat="44.98698" lon="6.76998">
        <ele>1910.969971</ele>
        <time>2014-08-21T12:44:10Z</time>
      </trkpt>
      <trkpt lat="44.98703" lon="6.77007">
        <ele>1909.52002</ele>
        <time>2014-08-21T12:44:12Z</time>
      </trkpt>
      <trkpt lat="44.98706" lon="6.7701">
        <ele>1909.039917</ele>
        <time>2014-08-21T12:44:13Z</time>
      </trkpt>
      <trkpt lat="44.98714" lon="6.77026">
        <ele>1906.810059</ele>
        <time>2014-08-21T12:44:18Z</time>
      </trkpt>
      <trkpt lat="44.98709" lon="6.77046">
        <ele>1904.610107</ele>
        <time>2014-08-21T12:44:23Z</time>
      </trkpt>
      <trkpt lat="44.98704" lon="6.77059">
        <ele>1901.070068</ele>
        <time>2014-08-21T12:44:28Z</time>
      </trkpt>
      <trkpt lat="44.98702" lon="6.77077">
        <ele>1897.890015</ele>
        <time>2014-08-21T12:44:33Z</time>
      </trkpt>
      <trkpt lat="44.98702" lon="6.77087">
        <ele>1895.5</ele>
        <time>2014-08-21T12:44:36Z</time>
      </trkpt>
      <trkpt lat="44.98693" lon="6.77092">
        <ele>1892.359985</ele>
        <time>2014-08-21T12:44:41Z</time>
      </trkpt>
      <trkpt lat="44.98682" lon="6.77087">
        <ele>1888.669922</ele>
        <time>2014-08-21T12:44:46Z</time>
      </trkpt>
      <trkpt lat="44.98681" lon="6.77087">
        <ele>1887.970093</ele>
        <time>2014-08-21T12:44:47Z</time>
      </trkpt>
      <trkpt lat="44.98676" lon="6.77096">
        <ele>1884.599976</ele>
        <time>2014-08-21T12:44:52Z</time>
      </trkpt>
      <trkpt lat="44.98675" lon="6.77097">
        <ele>1881.25</ele>
        <time>2014-08-21T12:44:58Z</time>
      </trkpt>
      <trkpt lat="44.98674" lon="6.77096">
        <ele>1879.859985</ele>
        <time>2014-08-21T12:45:03Z</time>
      </trkpt>
      <trkpt lat="44.98671" lon="6.77094">
        <ele>1879.610107</ele>
        <time>2014-08-21T12:45:05Z</time>
      </trkpt>
      <trkpt lat="44.98669" lon="6.77092">
        <ele>1879.47998</ele>
        <time>2014-08-21T12:45:06Z</time>
      </trkpt>
      <trkpt lat="44.98667" lon="6.7709">
        <ele>1879.329956</ele>
        <time>2014-08-21T12:45:07Z</time>
      </trkpt>
      <trkpt lat="44.98665" lon="6.77089">
        <ele>1879.160034</ele>
        <time>2014-08-21T12:45:08Z</time>
      </trkpt>
      <trkpt lat="44.98663" lon="6.77088">
        <ele>1878.969971</ele>
        <time>2014-08-21T12:45:09Z</time>
      </trkpt>
      <trkpt lat="44.98662" lon="6.77087">
        <ele>1878.790039</ele>
        <time>2014-08-21T12:45:10Z</time>
      </trkpt>
      <trkpt lat="44.98661" lon="6.77086">
        <ele>1878.580078</ele>
        <time>2014-08-21T12:45:11Z</time>
      </trkpt>
      <trkpt lat="44.98659" lon="6.77083">
        <ele>1878.060059</ele>
        <time>2014-08-21T12:45:13Z</time>
      </trkpt>
      <trkpt lat="44.98658" lon="6.77083">
        <ele>1877.809937</ele>
        <time>2014-08-21T12:45:14Z</time>
      </trkpt>
      <trkpt lat="44.98657" lon="6.77084">
        <ele>1877.559937</ele>
        <time>2014-08-21T12:45:15Z</time>
      </trkpt>
      <trkpt lat="44.98655" lon="6.77086">
        <ele>1876.97998</ele>
        <time>2014-08-21T12:45:17Z</time>
      </trkpt>
      <trkpt lat="44.98654" lon="6.77093">
        <ele>1875.829956</ele>
        <time>2014-08-21T12:45:20Z</time>
      </trkpt>
      <trkpt lat="44.98653" lon="6.77096">
        <ele>1875.349976</ele>
        <time>2014-08-21T12:45:21Z</time>
      </trkpt>
      <trkpt lat="44.98652" lon="6.77098">
        <ele>1874.839966</ele>
        <time>2014-08-21T12:45:22Z</time>
      </trkpt>
      <trkpt lat="44.98649" lon="6.77104">
        <ele>1873.709961</ele>
        <time>2014-08-21T12:45:24Z</time>
      </trkpt>
      <trkpt lat="44.98644" lon="6.77116">
        <ele>1869.969971</ele>
        <time>2014-08-21T12:45:28Z</time>
      </trkpt>
      <trkpt lat="44.98639" lon="6.77124">
        <ele>1866.900024</ele>
        <time>2014-08-21T12:45:32Z</time>
      </trkpt>
      <trkpt lat="44.98632" lon="6.77134">
        <ele>1863.619995</ele>
        <time>2014-08-21T12:45:37Z</time>
      </trkpt>
      <trkpt lat="44.98631" lon="6.77136">
        <ele>1862.97998</ele>
        <time>2014-08-21T12:45:38Z</time>
      </trkpt>
      <trkpt lat="44.98633" lon="6.77144">
        <ele>1859.580078</ele>
        <time>2014-08-21T12:45:42Z</time>
      </trkpt>
      <trkpt lat="44.98642" lon="6.77159">
        <ele>1856.080078</ele>
        <time>2014-08-21T12:45:48Z</time>
      </trkpt>
      <trkpt lat="44.98643" lon="6.77161">
        <ele>1855.570068</ele>
        <time>2014-08-21T12:45:49Z</time>
      </trkpt>
      <trkpt lat="44.98644" lon="6.77165">
        <ele>1854.539917</ele>
        <time>2014-08-21T12:45:50Z</time>
      </trkpt>
      <trkpt lat="44.98645" lon="6.77168">
        <ele>1854.079956</ele>
        <time>2014-08-21T12:45:51Z</time>
      </trkpt>
      <trkpt lat="44.98643" lon="6.77171">
        <ele>1852.380005</ele>
        <time>2014-08-21T12:45:55Z</time>
      </trkpt>
      <trkpt lat="44.98642" lon="6.77171">
        <ele>1851.969971</ele>
        <time>2014-08-21T12:45:56Z</time>
      </trkpt>
      <trkpt lat="44.98636" lon="6.77173">
        <ele>1848.969971</ele>
        <time>2014-08-21T12:46:02Z</time>
      </trkpt>
      <trkpt lat="44.98626" lon="6.77176">
        <ele>1845.960083</ele>
        <time>2014-08-21T12:46:08Z</time>
      </trkpt>
      <trkpt lat="44.98624" lon="6.77177">
        <ele>1845.449951</ele>
        <time>2014-08-21T12:46:09Z</time>
      </trkpt>
      <trkpt lat="44.9863" lon="6.77192">
        <ele>1842.160034</ele>
        <time>2014-08-21T12:46:15Z</time>
      </trkpt>
      <trkpt lat="44.98641" lon="6.77215">
        <ele>1840.609985</ele>
        <time>2014-08-21T12:46:21Z</time>
      </trkpt>
      <trkpt lat="44.98645" lon="6.77221">
        <ele>1839.900024</ele>
        <time>2014-08-21T12:46:23Z</time>
      </trkpt>
      <trkpt lat="44.98642" lon="6.77225">
        <ele>1838.369995</ele>
        <time>2014-08-21T12:46:26Z</time>
      </trkpt>
      <trkpt lat="44.9864" lon="6.77224">
        <ele>1837.97998</ele>
        <time>2014-08-21T12:46:27Z</time>
      </trkpt>
      <trkpt lat="44.98628" lon="6.77218">
        <ele>1834.869995</ele>
        <time>2014-08-21T12:46:33Z</time>
      </trkpt>
      <trkpt lat="44.98628" lon="6.77218">
        <ele>1832.789917</ele>
        <time>2014-08-21T12:46:37Z</time>
      </trkpt>
      <trkpt lat="44.9862" lon="6.77216">
        <ele>1831.920044</ele>
        <time>2014-08-21T12:46:42Z</time>
      </trkpt>
      <trkpt lat="44.98617" lon="6.77216">
        <ele>1831.72998</ele>
        <time>2014-08-21T12:46:43Z</time>
      </trkpt>
      <trkpt lat="44.98614" lon="6.77215">
        <ele>1831.52002</ele>
        <time>2014-08-21T12:46:44Z</time>
      </trkpt>
      <trkpt lat="44.9861" lon="6.77215">
        <ele>1831.280029</ele>
        <time>2014-08-21T12:46:45Z</time>
      </trkpt>
      <trkpt lat="44.98594" lon="6.77217">
        <ele>1829.310059</ele>
        <time>2014-08-21T12:46:50Z</time>
      </trkpt>
      <trkpt lat="44.98584" lon="6.77228">
        <ele>1827.01001</ele>
        <time>2014-08-21T12:46:55Z</time>
      </trkpt>
      <trkpt lat="44.98579" lon="6.77235">
        <ele>1824.97998</ele>
        <time>2014-08-21T12:46:58Z</time>
      </trkpt>
      <trkpt lat="44.98576" lon="6.77246">
        <ele>1820.969971</ele>
        <time>2014-08-21T12:47:03Z</time>
      </trkpt>
      <trkpt lat="44.98572" lon="6.77251">
        <ele>1819.5</ele>
        <time>2014-08-21T12:47:05Z</time>
      </trkpt>
      <trkpt lat="44.9857" lon="6.77253">
        <ele>1818.749878</ele>
        <time>2014-08-21T12:47:06Z</time>
      </trkpt>
      <trkpt lat="44.98564" lon="6.77256">
        <ele>1815.669922</ele>
        <time>2014-08-21T12:47:09Z</time>
      </trkpt>
      <trkpt lat="44.98564" lon="6.77259">
        <ele>1814.459961</ele>
        <time>2014-08-21T12:47:11Z</time>
      </trkpt>
      <trkpt lat="44.98563" lon="6.77261">
        <ele>1813.969971</ele>
        <time>2014-08-21T12:47:12Z</time>
      </trkpt>
      <trkpt lat="44.98562" lon="6.77264">
        <ele>1813.540039</ele>
        <time>2014-08-21T12:47:13Z</time>
      </trkpt>
      <trkpt lat="44.98561" lon="6.77272">
        <ele>1812.529907</ele>
        <time>2014-08-21T12:47:15Z</time>
      </trkpt>
      <trkpt lat="44.98563" lon="6.77275">
        <ele>1811.839966</ele>
        <time>2014-08-21T12:47:16Z</time>
      </trkpt>
      <trkpt lat="44.98565" lon="6.77278">
        <ele>1811.090088</ele>
        <time>2014-08-21T12:47:17Z</time>
      </trkpt>
      <trkpt lat="44.98567" lon="6.77279">
        <ele>1810.339966</ele>
        <time>2014-08-21T12:47:18Z</time>
      </trkpt>
      <trkpt lat="44.98575" lon="6.77289">
        <ele>1806.920044</ele>
        <time>2014-08-21T12:47:23Z</time>
      </trkpt>
      <trkpt lat="44.98582" lon="6.77311">
        <ele>1803.349976</ele>
        <time>2014-08-21T12:47:29Z</time>
      </trkpt>
      <trkpt lat="44.98589" lon="6.77325">
        <ele>1800.569946</ele>
        <time>2014-08-21T12:47:33Z</time>
      </trkpt>
      <trkpt lat="44.98599" lon="6.77332">
        <ele>1798.439941</ele>
        <time>2014-08-21T12:47:39Z</time>
      </trkpt>
      <trkpt lat="44.9861" lon="6.77335">
        <ele>1797.050049</ele>
        <time>2014-08-21T12:47:43Z</time>
      </trkpt>
      <trkpt lat="44.98612" lon="6.77337">
        <ele>1796.790039</ele>
        <time>2014-08-21T12:47:44Z</time>
      </trkpt>
      <trkpt lat="44.98613" lon="6.77341">
        <ele>1796.52002</ele>
        <time>2014-08-21T12:47:45Z</time>
      </trkpt>
      <trkpt lat="44.98614" lon="6.77346">
        <ele>1796.189941</ele>
        <time>2014-08-21T12:47:46Z</time>
      </trkpt>
      <trkpt lat="44.98614" lon="6.7735">
        <ele>1795.779907</ele>
        <time>2014-08-21T12:47:47Z</time>
      </trkpt>
      <trkpt lat="44.98614" lon="6.77354">
        <ele>1795.299927</ele>
        <time>2014-08-21T12:47:48Z</time>
      </trkpt>
      <trkpt lat="44.98617" lon="6.77373">
        <ele>1792.589966</ele>
        <time>2014-08-21T12:47:54Z</time>
      </trkpt>
      <trkpt lat="44.98617" lon="6.77376">
        <ele>1792.160034</ele>
        <time>2014-08-21T12:47:55Z</time>
      </trkpt>
      <trkpt lat="44.98617" lon="6.77378">
        <ele>1791.75</ele>
        <time>2014-08-21T12:47:56Z</time>
      </trkpt>
      <trkpt lat="44.98616" lon="6.77379">
        <ele>1791.369995</ele>
        <time>2014-08-21T12:47:57Z</time>
      </trkpt>
      <trkpt lat="44.98613" lon="6.77388">
        <ele>1789.22998</ele>
        <time>2014-08-21T12:48:01Z</time>
      </trkpt>
      <trkpt lat="44.98613" lon="6.7739">
        <ele>1788.630005</ele>
        <time>2014-08-21T12:48:02Z</time>
      </trkpt>
      <trkpt lat="44.98612" lon="6.77392">
        <ele>1788.030029</ele>
        <time>2014-08-21T12:48:03Z</time>
      </trkpt>
      <trkpt lat="44.98612" lon="6.77394">
        <ele>1787.359985</ele>
        <time>2014-08-21T12:48:04Z</time>
      </trkpt>
      <trkpt lat="44.9861" lon="6.77397">
        <ele>1785.919922</ele>
        <time>2014-08-21T12:48:06Z</time>
      </trkpt>
      <trkpt lat="44.98603" lon="6.77395">
        <ele>1783.02002</ele>
        <time>2014-08-21T12:48:10Z</time>
      </trkpt>
      <trkpt lat="44.986" lon="6.77393">
        <ele>1782.290039</ele>
        <time>2014-08-21T12:48:11Z</time>
      </trkpt>
      <trkpt lat="44.98598" lon="6.77392">
        <ele>1781.650024</ele>
        <time>2014-08-21T12:48:12Z</time>
      </trkpt>
      <trkpt lat="44.98595" lon="6.7739">
        <ele>1781.099976</ele>
        <time>2014-08-21T12:48:13Z</time>
      </trkpt>
      <trkpt lat="44.98592" lon="6.77388">
        <ele>1780.630005</ele>
        <time>2014-08-21T12:48:14Z</time>
      </trkpt>
      <trkpt lat="44.9859" lon="6.77385">
        <ele>1780.200073</ele>
        <time>2014-08-21T12:48:15Z</time>
      </trkpt>
      <trkpt lat="44.98587" lon="6.77381">
        <ele>1779.780029</ele>
        <time>2014-08-21T12:48:16Z</time>
      </trkpt>
      <trkpt lat="44.98572" lon="6.77374">
        <ele>1777.919922</ele>
        <time>2014-08-21T12:48:21Z</time>
      </trkpt>
      <trkpt lat="44.98559" lon="6.77369">
        <ele>1776.579956</ele>
        <time>2014-08-21T12:48:25Z</time>
      </trkpt>
      <trkpt lat="44.9855" lon="6.77369">
        <ele>1775.849976</ele>
        <time>2014-08-21T12:48:27Z</time>
      </trkpt>
      <trkpt lat="44.98545" lon="6.77369">
        <ele>1775.450073</ele>
        <time>2014-08-21T12:48:28Z</time>
      </trkpt>
      <trkpt lat="44.98541" lon="6.77371">
        <ele>1775.02002</ele>
        <time>2014-08-21T12:48:29Z</time>
      </trkpt>
      <trkpt lat="44.98524" lon="6.77374">
        <ele>1773.040039</ele>
        <time>2014-08-21T12:48:33Z</time>
      </trkpt>
      <trkpt lat="44.98501" lon="6.77366">
        <ele>1770.27002</ele>
        <time>2014-08-21T12:48:39Z</time>
      </trkpt>
      <trkpt lat="44.98499" lon="6.77364">
        <ele>1769.780029</ele>
        <time>2014-08-21T12:48:40Z</time>
      </trkpt>
      <trkpt lat="44.98497" lon="6.77364">
        <ele>1769.290039</ele>
        <time>2014-08-21T12:48:41Z</time>
      </trkpt>
      <trkpt lat="44.98497" lon="6.77372">
        <ele>1767.830078</ele>
        <time>2014-08-21T12:48:44Z</time>
      </trkpt>
      <trkpt lat="44.98498" lon="6.77375">
        <ele>1767.400024</ele>
        <time>2014-08-21T12:48:45Z</time>
      </trkpt>
      <trkpt lat="44.985" lon="6.77378">
        <ele>1766.949951</ele>
        <time>2014-08-21T12:48:46Z</time>
      </trkpt>
      <trkpt lat="44.98501" lon="6.77382">
        <ele>1766.5</ele>
        <time>2014-08-21T12:48:47Z</time>
      </trkpt>
      <trkpt lat="44.98503" lon="6.77384">
        <ele>1765.5</ele>
        <time>2014-08-21T12:48:48Z</time>
      </trkpt>
      <trkpt lat="44.98504" lon="6.77387">
        <ele>1764.98999</ele>
        <time>2014-08-21T12:48:49Z</time>
      </trkpt>
      <trkpt lat="44.98505" lon="6.77389">
        <ele>1764.469971</ele>
        <time>2014-08-21T12:48:50Z</time>
      </trkpt>
      <trkpt lat="44.98507" lon="6.77392">
        <ele>1763.929932</ele>
        <time>2014-08-21T12:48:51Z</time>
      </trkpt>
      <trkpt lat="44.98508" lon="6.77394">
        <ele>1763.319946</ele>
        <time>2014-08-21T12:48:52Z</time>
      </trkpt>
      <trkpt lat="44.9851" lon="6.77396">
        <ele>1762.670044</ele>
        <time>2014-08-21T12:48:53Z</time>
      </trkpt>
      <trkpt lat="44.98521" lon="6.77405">
        <ele>1759.170044</ele>
        <time>2014-08-21T12:48:59Z</time>
      </trkpt>
      <trkpt lat="44.98525" lon="6.77409">
        <ele>1757.25</ele>
        <time>2014-08-21T12:49:02Z</time>
      </trkpt>
      <trkpt lat="44.98527" lon="6.7741">
        <ele>1756.670044</ele>
        <time>2014-08-21T12:49:03Z</time>
      </trkpt>
      <trkpt lat="44.98529" lon="6.77412">
        <ele>1756.109985</ele>
        <time>2014-08-21T12:49:04Z</time>
      </trkpt>
      <trkpt lat="44.98531" lon="6.77413">
        <ele>1755.560059</ele>
        <time>2014-08-21T12:49:05Z</time>
      </trkpt>
      <trkpt lat="44.98534" lon="6.77416">
        <ele>1755.040039</ele>
        <time>2014-08-21T12:49:06Z</time>
      </trkpt>
      <trkpt lat="44.98536" lon="6.77418">
        <ele>1754.530029</ele>
        <time>2014-08-21T12:49:07Z</time>
      </trkpt>
      <trkpt lat="44.98548" lon="6.77426">
        <ele>1751.469971</ele>
        <time>2014-08-21T12:49:11Z</time>
      </trkpt>
      <trkpt lat="44.98551" lon="6.77429">
        <ele>1751.469971</ele>
        <time>2014-08-21T12:49:12Z</time>
      </trkpt>
      <trkpt lat="44.9856" lon="6.77457">
        <ele>1748.160034</ele>
        <time>2014-08-21T12:49:18Z</time>
      </trkpt>
      <trkpt lat="44.98561" lon="6.77468">
        <ele>1747.150024</ele>
        <time>2014-08-21T12:49:20Z</time>
      </trkpt>
      <trkpt lat="44.98569" lon="6.77497">
        <ele>1743.719971</ele>
        <time>2014-08-21T12:49:26Z</time>
      </trkpt>
      <trkpt lat="44.98577" lon="6.77516">
        <ele>1741.339966</ele>
        <time>2014-08-21T12:49:31Z</time>
      </trkpt>
      <trkpt lat="44.98578" lon="6.77521">
        <ele>1740.609985</ele>
        <time>2014-08-21T12:49:33Z</time>
      </trkpt>
      <trkpt lat="44.98582" lon="6.77546">
        <ele>1737.749878</ele>
        <time>2014-08-21T12:49:38Z</time>
      </trkpt>
      <trkpt lat="44.9858" lon="6.7756">
        <ele>1735.48999</ele>
        <time>2014-08-21T12:49:41Z</time>
      </trkpt>
      <trkpt lat="44.9857" lon="6.77574">
        <ele>1731.579956</ele>
        <time>2014-08-21T12:49:46Z</time>
      </trkpt>
      <trkpt lat="44.98559" lon="6.77595">
        <ele>1727.210083</ele>
        <time>2014-08-21T12:49:52Z</time>
      </trkpt>
      <trkpt lat="44.98562" lon="6.77615">
        <ele>1723.849976</ele>
        <time>2014-08-21T12:49:56Z</time>
      </trkpt>
      <trkpt lat="44.98569" lon="6.77628">
        <ele>1720.259888</ele>
        <time>2014-08-21T12:50:00Z</time>
      </trkpt>
      <trkpt lat="44.98567" lon="6.77639">
        <ele>1716.570068</ele>
        <time>2014-08-21T12:50:04Z</time>
      </trkpt>
      <trkpt lat="44.98567" lon="6.77641">
        <ele>1715.950073</ele>
        <time>2014-08-21T12:50:05Z</time>
      </trkpt>
      <trkpt lat="44.98568" lon="6.77644">
        <ele>1715.400024</ele>
        <time>2014-08-21T12:50:06Z</time>
      </trkpt>
      <trkpt lat="44.98569" lon="6.77646">
        <ele>1714.900024</ele>
        <time>2014-08-21T12:50:07Z</time>
      </trkpt>
      <trkpt lat="44.98571" lon="6.77648">
        <ele>1714.380005</ele>
        <time>2014-08-21T12:50:08Z</time>
      </trkpt>
      <trkpt lat="44.98572" lon="6.77651">
        <ele>1713.829956</ele>
        <time>2014-08-21T12:50:09Z</time>
      </trkpt>
      <trkpt lat="44.98574" lon="6.77655">
        <ele>1713.290039</ele>
        <time>2014-08-21T12:50:10Z</time>
      </trkpt>
      <trkpt lat="44.98576" lon="6.77658">
        <ele>1712.789917</ele>
        <time>2014-08-21T12:50:11Z</time>
      </trkpt>
      <trkpt lat="44.98581" lon="6.7767">
        <ele>1711.25</ele>
        <time>2014-08-21T12:50:15Z</time>
      </trkpt>
      <trkpt lat="44.98601" lon="6.77691">
        <ele>1709</ele>
        <time>2014-08-21T12:50:22Z</time>
      </trkpt>
      <trkpt lat="44.98617" lon="6.77708">
        <ele>1705.689941</ele>
        <time>2014-08-21T12:50:28Z</time>
      </trkpt>
      <trkpt lat="44.98634" lon="6.77723">
        <ele>1703.640015</ele>
        <time>2014-08-21T12:50:32Z</time>
      </trkpt>
      <trkpt lat="44.98637" lon="6.77729">
        <ele>1703.139893</ele>
        <time>2014-08-21T12:50:33Z</time>
      </trkpt>
      <trkpt lat="44.98639" lon="6.77734">
        <ele>1702.630005</ele>
        <time>2014-08-21T12:50:34Z</time>
      </trkpt>
      <trkpt lat="44.98639" lon="6.7774">
        <ele>1702.170044</ele>
        <time>2014-08-21T12:50:35Z</time>
      </trkpt>
      <trkpt lat="44.98637" lon="6.77746">
        <ele>1701.76001</ele>
        <time>2014-08-21T12:50:36Z</time>
      </trkpt>
      <trkpt lat="44.98637" lon="6.77752">
        <ele>1701.380005</ele>
        <time>2014-08-21T12:50:37Z</time>
      </trkpt>
      <trkpt lat="44.98636" lon="6.77758">
        <ele>1700.97998</ele>
        <time>2014-08-21T12:50:38Z</time>
      </trkpt>
      <trkpt lat="44.98636" lon="6.77764">
        <ele>1700.540039</ele>
        <time>2014-08-21T12:50:39Z</time>
      </trkpt>
      <trkpt lat="44.9864" lon="6.77787">
        <ele>1698.040039</ele>
        <time>2014-08-21T12:50:44Z</time>
      </trkpt>
      <trkpt lat="44.98644" lon="6.77813">
        <ele>1694.51001</ele>
        <time>2014-08-21T12:50:50Z</time>
      </trkpt>
      <trkpt lat="44.98648" lon="6.77827">
        <ele>1693.469971</ele>
        <time>2014-08-21T12:50:52Z</time>
      </trkpt>
      <trkpt lat="44.98651" lon="6.77848">
        <ele>1691.299927</ele>
        <time>2014-08-21T12:50:56Z</time>
      </trkpt>
      <trkpt lat="44.98656" lon="6.77873">
        <ele>1687.910034</ele>
        <time>2014-08-21T12:51:02Z</time>
      </trkpt>
      <trkpt lat="44.98656" lon="6.77877">
        <ele>1687.329956</ele>
        <time>2014-08-21T12:51:03Z</time>
      </trkpt>
      <trkpt lat="44.98657" lon="6.77881">
        <ele>1686.75</ele>
        <time>2014-08-21T12:51:04Z</time>
      </trkpt>
      <trkpt lat="44.98664" lon="6.77898">
        <ele>1684.390015</ele>
        <time>2014-08-21T12:51:10Z</time>
      </trkpt>
      <trkpt lat="44.98664" lon="6.77902">
        <ele>1683.349976</ele>
        <time>2014-08-21T12:51:12Z</time>
      </trkpt>
      <trkpt lat="44.98661" lon="6.77908">
        <ele>1681.400024</ele>
        <time>2014-08-21T12:51:15Z</time>
      </trkpt>
      <trkpt lat="44.98659" lon="6.77907">
        <ele>1680.97998</ele>
        <time>2014-08-21T12:51:16Z</time>
      </trkpt>
      <trkpt lat="44.98657" lon="6.77906">
        <ele>1680.619995</ele>
        <time>2014-08-21T12:51:17Z</time>
      </trkpt>
      <trkpt lat="44.98649" lon="6.77904">
        <ele>1677.72998</ele>
        <time>2014-08-21T12:51:23Z</time>
      </trkpt>
      <trkpt lat="44.98646" lon="6.77903">
        <ele>1676.869995</ele>
        <time>2014-08-21T12:51:25Z</time>
      </trkpt>
      <trkpt lat="44.98644" lon="6.77903">
        <ele>1676.459961</ele>
        <time>2014-08-21T12:51:26Z</time>
      </trkpt>
      <trkpt lat="44.98642" lon="6.77902">
        <ele>1676.059937</ele>
        <time>2014-08-21T12:51:27Z</time>
      </trkpt>
      <trkpt lat="44.9864" lon="6.77901">
        <ele>1675.679932</ele>
        <time>2014-08-21T12:51:28Z</time>
      </trkpt>
      <trkpt lat="44.98637" lon="6.77899">
        <ele>1675.369995</ele>
        <time>2014-08-21T12:51:29Z</time>
      </trkpt>
      <trkpt lat="44.98628" lon="6.77893">
        <ele>1673.830078</ele>
        <time>2014-08-21T12:51:33Z</time>
      </trkpt>
      <trkpt lat="44.98623" lon="6.77892">
        <ele>1670.829956</ele>
        <time>2014-08-21T12:51:39Z</time>
      </trkpt>
      <trkpt lat="44.98621" lon="6.77891">
        <ele>1669.890015</ele>
        <time>2014-08-21T12:51:41Z</time>
      </trkpt>
      <trkpt lat="44.98617" lon="6.77889">
        <ele>1669.390015</ele>
        <time>2014-08-21T12:51:43Z</time>
      </trkpt>
      <trkpt lat="44.98613" lon="6.77888">
        <ele>1669.130005</ele>
        <time>2014-08-21T12:51:44Z</time>
      </trkpt>
      <trkpt lat="44.9861" lon="6.77887">
        <ele>1668.829956</ele>
        <time>2014-08-21T12:51:45Z</time>
      </trkpt>
      <trkpt lat="44.98607" lon="6.77886">
        <ele>1668.5</ele>
        <time>2014-08-21T12:51:46Z</time>
      </trkpt>
      <trkpt lat="44.98596" lon="6.77876">
        <ele>1666.650024</ele>
        <time>2014-08-21T12:51:51Z</time>
      </trkpt>
      <trkpt lat="44.98592" lon="6.77874">
        <ele>1665.769897</ele>
        <time>2014-08-21T12:51:53Z</time>
      </trkpt>
      <trkpt lat="44.98589" lon="6.77872">
        <ele>1665.299927</ele>
        <time>2014-08-21T12:51:54Z</time>
      </trkpt>
      <trkpt lat="44.98586" lon="6.77869">
        <ele>1664.829956</ele>
        <time>2014-08-21T12:51:55Z</time>
      </trkpt>
      <trkpt lat="44.98585" lon="6.77867">
        <ele>1664.390015</ele>
        <time>2014-08-21T12:51:56Z</time>
      </trkpt>
      <trkpt lat="44.98584" lon="6.77865">
        <ele>1663.899902</ele>
        <time>2014-08-21T12:51:57Z</time>
      </trkpt>
      <trkpt lat="44.98582" lon="6.77864">
        <ele>1663.369995</ele>
        <time>2014-08-21T12:51:58Z</time>
      </trkpt>
      <trkpt lat="44.98579" lon="6.77861">
        <ele>1661.150024</ele>
        <time>2014-08-21T12:52:03Z</time>
      </trkpt>
      <trkpt lat="44.98577" lon="6.7786">
        <ele>1660.23999</ele>
        <time>2014-08-21T12:52:04Z</time>
      </trkpt>
      <trkpt lat="44.98576" lon="6.77859">
        <ele>1659.859985</ele>
        <time>2014-08-21T12:52:05Z</time>
      </trkpt>
      <trkpt lat="44.98566" lon="6.77868">
        <ele>1658.449951</ele>
        <time>2014-08-21T12:52:09Z</time>
      </trkpt>
      <trkpt lat="44.98558" lon="6.77887">
        <ele>1656.579956</ele>
        <time>2014-08-21T12:52:14Z</time>
      </trkpt>
      <trkpt lat="44.98562" lon="6.77909">
        <ele>1655.01001</ele>
        <time>2014-08-21T12:52:18Z</time>
      </trkpt>
      <trkpt lat="44.98563" lon="6.77914">
        <ele>1654.560059</ele>
        <time>2014-08-21T12:52:19Z</time>
      </trkpt>
      <trkpt lat="44.98564" lon="6.77919">
        <ele>1654.079956</ele>
        <time>2014-08-21T12:52:20Z</time>
      </trkpt>
      <trkpt lat="44.98565" lon="6.77923">
        <ele>1653.589966</ele>
        <time>2014-08-21T12:52:21Z</time>
      </trkpt>
      <trkpt lat="44.98566" lon="6.77928">
        <ele>1653.100098</ele>
        <time>2014-08-21T12:52:22Z</time>
      </trkpt>
      <trkpt lat="44.98567" lon="6.77933">
        <ele>1652.590088</ele>
        <time>2014-08-21T12:52:23Z</time>
      </trkpt>
      <trkpt lat="44.98569" lon="6.77938">
        <ele>1652.099976</ele>
        <time>2014-08-21T12:52:24Z</time>
      </trkpt>
      <trkpt lat="44.98576" lon="6.77965">
        <ele>1649.069946</ele>
        <time>2014-08-21T12:52:29Z</time>
      </trkpt>
      <trkpt lat="44.98581" lon="6.77982">
        <ele>1647.52002</ele>
        <time>2014-08-21T12:52:32Z</time>
      </trkpt>
      <trkpt lat="44.98583" lon="6.77987">
        <ele>1646.950073</ele>
        <time>2014-08-21T12:52:33Z</time>
      </trkpt>
      <trkpt lat="44.9859" lon="6.78008">
        <ele>1644.52002</ele>
        <time>2014-08-21T12:52:37Z</time>
      </trkpt>
      <trkpt lat="44.98592" lon="6.78014">
        <ele>1643.959961</ele>
        <time>2014-08-21T12:52:38Z</time>
      </trkpt>
      <trkpt lat="44.98593" lon="6.7802">
        <ele>1643.340088</ele>
        <time>2014-08-21T12:52:39Z</time>
      </trkpt>
      <trkpt lat="44.98601" lon="6.78049">
        <ele>1640.290039</ele>
        <time>2014-08-21T12:52:44Z</time>
      </trkpt>
      <trkpt lat="44.9861" lon="6.78082">
        <ele>1637.119995</ele>
        <time>2014-08-21T12:52:49Z</time>
      </trkpt>
      <trkpt lat="44.98617" lon="6.78111">
        <ele>1633.189941</ele>
        <time>2014-08-21T12:52:53Z</time>
      </trkpt>
      <trkpt lat="44.9862" lon="6.78123">
        <ele>1631.560059</ele>
        <time>2014-08-21T12:52:55Z</time>
      </trkpt>
      <trkpt lat="44.98622" lon="6.78148">
        <ele>1628.530029</ele>
        <time>2014-08-21T12:52:59Z</time>
      </trkpt>
      <trkpt lat="44.98625" lon="6.78173">
        <ele>1625.540039</ele>
        <time>2014-08-21T12:53:05Z</time>
      </trkpt>
      <trkpt lat="44.98624" lon="6.78188">
        <ele>1623.809937</ele>
        <time>2014-08-21T12:53:10Z</time>
      </trkpt>
      <trkpt lat="44.98625" lon="6.78238">
        <ele>1620.889893</ele>
        <time>2014-08-21T12:53:18Z</time>
      </trkpt>
      <trkpt lat="44.98634" lon="6.7826">
        <ele>1617.959961</ele>
        <time>2014-08-21T12:53:24Z</time>
      </trkpt>
      <trkpt lat="44.98655" lon="6.78288">
        <ele>1615.470093</ele>
        <time>2014-08-21T12:53:30Z</time>
      </trkpt>
      <trkpt lat="44.98662" lon="6.78297">
        <ele>1614.430054</ele>
        <time>2014-08-21T12:53:32Z</time>
      </trkpt>
      <trkpt lat="44.98672" lon="6.78314">
        <ele>1612.25</ele>
        <time>2014-08-21T12:53:36Z</time>
      </trkpt>
      <trkpt lat="44.98667" lon="6.78329">
        <ele>1608.920044</ele>
        <time>2014-08-21T12:53:42Z</time>
      </trkpt>
      <trkpt lat="44.98667" lon="6.78329">
        <ele>1606.97998</ele>
        <time>2014-08-21T12:53:46Z</time>
      </trkpt>
      <trkpt lat="44.9866" lon="6.78341">
        <ele>1605.640015</ele>
        <time>2014-08-21T12:53:56Z</time>
      </trkpt>
      <trkpt lat="44.98645" lon="6.78362">
        <ele>1603.280029</ele>
        <time>2014-08-21T12:54:03Z</time>
      </trkpt>
      <trkpt lat="44.98633" lon="6.78382">
        <ele>1600.450073</ele>
        <time>2014-08-21T12:54:08Z</time>
      </trkpt>
      <trkpt lat="44.98625" lon="6.78396">
        <ele>1597.320068</ele>
        <time>2014-08-21T12:54:12Z</time>
      </trkpt>
      <trkpt lat="44.98618" lon="6.78414">
        <ele>1593.880005</ele>
        <time>2014-08-21T12:54:17Z</time>
      </trkpt>
      <trkpt lat="44.98611" lon="6.78434">
        <ele>1590.400024</ele>
        <time>2014-08-21T12:54:22Z</time>
      </trkpt>
      <trkpt lat="44.98604" lon="6.78452">
        <ele>1587.25</ele>
        <time>2014-08-21T12:54:26Z</time>
      </trkpt>
      <trkpt lat="44.98598" lon="6.78474">
        <ele>1584.219971</ele>
        <time>2014-08-21T12:54:31Z</time>
      </trkpt>
      <trkpt lat="44.9859" lon="6.78501">
        <ele>1580.290039</ele>
        <time>2014-08-21T12:54:37Z</time>
      </trkpt>
      <trkpt lat="44.98582" lon="6.7853">
        <ele>1576.810059</ele>
        <time>2014-08-21T12:54:43Z</time>
      </trkpt>
      <trkpt lat="44.98577" lon="6.78558">
        <ele>1573.319946</ele>
        <time>2014-08-21T12:54:49Z</time>
      </trkpt>
      <trkpt lat="44.98573" lon="6.78586">
        <ele>1569.839966</ele>
        <time>2014-08-21T12:54:55Z</time>
      </trkpt>
      <trkpt lat="44.98571" lon="6.786">
        <ele>1567.219971</ele>
        <time>2014-08-21T12:54:58Z</time>
      </trkpt>
      <trkpt lat="44.98567" lon="6.78599">
        <ele>1565.359985</ele>
        <time>2014-08-21T12:55:01Z</time>
      </trkpt>
      <trkpt lat="44.98566" lon="6.78596">
        <ele>1564.700073</ele>
        <time>2014-08-21T12:55:02Z</time>
      </trkpt>
      <trkpt lat="44.98564" lon="6.78585">
        <ele>1563.459961</ele>
        <time>2014-08-21T12:55:04Z</time>
      </trkpt>
      <trkpt lat="44.98564" lon="6.78579">
        <ele>1562.899902</ele>
        <time>2014-08-21T12:55:05Z</time>
      </trkpt>
      <trkpt lat="44.98564" lon="6.78565">
        <ele>1561.090088</ele>
        <time>2014-08-21T12:55:08Z</time>
      </trkpt>
      <trkpt lat="44.98563" lon="6.78563">
        <ele>1560.420044</ele>
        <time>2014-08-21T12:55:09Z</time>
      </trkpt>
      <trkpt lat="44.98559" lon="6.78567">
        <ele>1558.619995</ele>
        <time>2014-08-21T12:55:12Z</time>
      </trkpt>
      <trkpt lat="44.98559" lon="6.7857">
        <ele>1558.119995</ele>
        <time>2014-08-21T12:55:13Z</time>
      </trkpt>
      <trkpt lat="44.98558" lon="6.78573">
        <ele>1557.650024</ele>
        <time>2014-08-21T12:55:14Z</time>
      </trkpt>
      <trkpt lat="44.98557" lon="6.78577">
        <ele>1557.280029</ele>
        <time>2014-08-21T12:55:15Z</time>
      </trkpt>
      <trkpt lat="44.98557" lon="6.78581">
        <ele>1556.880005</ele>
        <time>2014-08-21T12:55:16Z</time>
      </trkpt>
      <trkpt lat="44.98553" lon="6.78613">
        <ele>1552.98999</ele>
        <time>2014-08-21T12:55:22Z</time>
      </trkpt>
      <trkpt lat="44.98555" lon="6.7863">
        <ele>1551.120117</ele>
        <time>2014-08-21T12:55:26Z</time>
      </trkpt>
      <trkpt lat="44.98566" lon="6.7865">
        <ele>1549</ele>
        <time>2014-08-21T12:55:31Z</time>
      </trkpt>
      <trkpt lat="44.98584" lon="6.78677">
        <ele>1545.800049</ele>
        <time>2014-08-21T12:55:37Z</time>
      </trkpt>
      <trkpt lat="44.98594" lon="6.78708">
        <ele>1542.630005</ele>
        <time>2014-08-21T12:55:43Z</time>
      </trkpt>
      <trkpt lat="44.98589" lon="6.78732">
        <ele>1539.369873</ele>
        <time>2014-08-21T12:55:48Z</time>
      </trkpt>
      <trkpt lat="44.98588" lon="6.78739">
        <ele>1538.880005</ele>
        <time>2014-08-21T12:55:49Z</time>
      </trkpt>
      <trkpt lat="44.98587" lon="6.78745">
        <ele>1538.400024</ele>
        <time>2014-08-21T12:55:50Z</time>
      </trkpt>
      <trkpt lat="44.98586" lon="6.78752">
        <ele>1537.880005</ele>
        <time>2014-08-21T12:55:51Z</time>
      </trkpt>
      <trkpt lat="44.98584" lon="6.78784">
        <ele>1535.060059</ele>
        <time>2014-08-21T12:55:56Z</time>
      </trkpt>
      <trkpt lat="44.98583" lon="6.7879">
        <ele>1534.449951</ele>
        <time>2014-08-21T12:55:57Z</time>
      </trkpt>
      <trkpt lat="44.98581" lon="6.78794">
        <ele>1533.77002</ele>
        <time>2014-08-21T12:55:58Z</time>
      </trkpt>
      <trkpt lat="44.98578" lon="6.78799">
        <ele>1533.140015</ele>
        <time>2014-08-21T12:55:59Z</time>
      </trkpt>
      <trkpt lat="44.98576" lon="6.78803">
        <ele>1532.560059</ele>
        <time>2014-08-21T12:56:00Z</time>
      </trkpt>
      <trkpt lat="44.98572" lon="6.78806">
        <ele>1531.98999</ele>
        <time>2014-08-21T12:56:01Z</time>
      </trkpt>
      <trkpt lat="44.98569" lon="6.78809">
        <ele>1531.459961</ele>
        <time>2014-08-21T12:56:02Z</time>
      </trkpt>
      <trkpt lat="44.98565" lon="6.78813">
        <ele>1531</ele>
        <time>2014-08-21T12:56:03Z</time>
      </trkpt>
      <trkpt lat="44.98562" lon="6.78817">
        <ele>1530.579956</ele>
        <time>2014-08-21T12:56:04Z</time>
      </trkpt>
      <trkpt lat="44.98551" lon="6.78831">
        <ele>1529.289917</ele>
        <time>2014-08-21T12:56:07Z</time>
      </trkpt>
      <trkpt lat="44.98542" lon="6.7884">
        <ele>1528.23999</ele>
        <time>2014-08-21T12:56:09Z</time>
      </trkpt>
      <trkpt lat="44.98539" lon="6.78846">
        <ele>1527.73999</ele>
        <time>2014-08-21T12:56:10Z</time>
      </trkpt>
      <trkpt lat="44.98535" lon="6.78852">
        <ele>1527.259888</ele>
        <time>2014-08-21T12:56:11Z</time>
      </trkpt>
      <trkpt lat="44.9853" lon="6.78857">
        <ele>1526.190063</ele>
        <time>2014-08-21T12:56:12Z</time>
      </trkpt>
      <trkpt lat="44.98526" lon="6.78861">
        <ele>1525.569946</ele>
        <time>2014-08-21T12:56:13Z</time>
      </trkpt>
      <trkpt lat="44.98521" lon="6.78866">
        <ele>1524.920044</ele>
        <time>2014-08-21T12:56:14Z</time>
      </trkpt>
      <trkpt lat="44.98517" lon="6.78872">
        <ele>1524.160034</ele>
        <time>2014-08-21T12:56:15Z</time>
      </trkpt>
      <trkpt lat="44.98513" lon="6.78877">
        <ele>1523.319946</ele>
        <time>2014-08-21T12:56:16Z</time>
      </trkpt>
      <trkpt lat="44.9849" lon="6.78905">
        <ele>1520.22998</ele>
        <time>2014-08-21T12:56:21Z</time>
      </trkpt>
      <trkpt lat="44.98488" lon="6.7891">
        <ele>1519.660034</ele>
        <time>2014-08-21T12:56:22Z</time>
      </trkpt>
      <trkpt lat="44.98483" lon="6.78919">
        <ele>1517.200073</ele>
        <time>2014-08-21T12:56:26Z</time>
      </trkpt>
      <trkpt lat="44.98484" lon="6.78919">
        <ele>1514.199951</ele>
        <time>2014-08-21T12:56:39Z</time>
      </trkpt>
      <trkpt lat="44.98484" lon="6.78922">
        <ele>1513.390015</ele>
        <time>2014-08-21T12:57:05Z</time>
      </trkpt>
      <trkpt lat="44.98484" lon="6.78925">
        <ele>1513.609985</ele>
        <time>2014-08-21T12:57:12Z</time>
      </trkpt>
      <trkpt lat="44.98483" lon="6.78927">
        <ele>1513.619995</ele>
        <time>2014-08-21T12:57:13Z</time>
      </trkpt>
      <trkpt lat="44.98482" lon="6.78932">
        <ele>1513.619995</ele>
        <time>2014-08-21T12:57:14Z</time>
      </trkpt>
      <trkpt lat="44.98481" lon="6.78937">
        <ele>1513.600098</ele>
        <time>2014-08-21T12:57:15Z</time>
      </trkpt>
      <trkpt lat="44.9848" lon="6.78943">
        <ele>1513.550049</ele>
        <time>2014-08-21T12:57:16Z</time>
      </trkpt>
      <trkpt lat="44.98479" lon="6.7895">
        <ele>1513.450073</ele>
        <time>2014-08-21T12:57:17Z</time>
      </trkpt>
      <trkpt lat="44.98479" lon="6.78957">
        <ele>1513.280029</ele>
        <time>2014-08-21T12:57:18Z</time>
      </trkpt>
      <trkpt lat="44.9848" lon="6.78976">
        <ele>1512.51001</ele>
        <time>2014-08-21T12:57:21Z</time>
      </trkpt>
      <trkpt lat="44.98481" lon="6.78983">
        <ele>1512.140015</ele>
        <time>2014-08-21T12:57:22Z</time>
      </trkpt>
      <trkpt lat="44.98483" lon="6.78996">
        <ele>1511.099976</ele>
        <time>2014-08-21T12:57:24Z</time>
      </trkpt>
      <trkpt lat="44.98491" lon="6.7903">
        <ele>1507.789917</ele>
        <time>2014-08-21T12:57:29Z</time>
      </trkpt>
      <trkpt lat="44.98495" lon="6.79053">
        <ele>1503.990112</ele>
        <time>2014-08-21T12:57:33Z</time>
      </trkpt>
      <trkpt lat="44.98501" lon="6.79076">
        <ele>1500.390015</ele>
        <time>2014-08-21T12:57:37Z</time>
      </trkpt>
      <trkpt lat="44.98508" lon="6.79102">
        <ele>1496.959961</ele>
        <time>2014-08-21T12:57:41Z</time>
      </trkpt>
      <trkpt lat="44.98516" lon="6.79133">
        <ele>1493.530029</ele>
        <time>2014-08-21T12:57:45Z</time>
      </trkpt>
      <trkpt lat="44.9852" lon="6.79154">
        <ele>1490.919922</ele>
        <time>2014-08-21T12:57:48Z</time>
      </trkpt>
      <trkpt lat="44.9852" lon="6.79159">
        <ele>1490.030029</ele>
        <time>2014-08-21T12:57:49Z</time>
      </trkpt>
      <trkpt lat="44.9852" lon="6.79165">
        <ele>1489.079956</ele>
        <time>2014-08-21T12:57:50Z</time>
      </trkpt>
      <trkpt lat="44.98519" lon="6.7917">
        <ele>1488.180054</ele>
        <time>2014-08-21T12:57:51Z</time>
      </trkpt>
      <trkpt lat="44.98517" lon="6.79175">
        <ele>1487.310059</ele>
        <time>2014-08-21T12:57:52Z</time>
      </trkpt>
      <trkpt lat="44.98514" lon="6.7918">
        <ele>1486.420044</ele>
        <time>2014-08-21T12:57:53Z</time>
      </trkpt>
      <trkpt lat="44.9851" lon="6.79185">
        <ele>1485.599976</ele>
        <time>2014-08-21T12:57:54Z</time>
      </trkpt>
      <trkpt lat="44.985" lon="6.79198">
        <ele>1482.330078</ele>
        <time>2014-08-21T12:57:57Z</time>
      </trkpt>
      <trkpt lat="44.9849" lon="6.79217">
        <ele>1478.809937</ele>
        <time>2014-08-21T12:58:01Z</time>
      </trkpt>
      <trkpt lat="44.98485" lon="6.79227">
        <ele>1477.070068</ele>
        <time>2014-08-21T12:58:03Z</time>
      </trkpt>
      <trkpt lat="44.98482" lon="6.79231">
        <ele>1476.209961</ele>
        <time>2014-08-21T12:58:04Z</time>
      </trkpt>
      <trkpt lat="44.98472" lon="6.79246">
        <ele>1473.699951</ele>
        <time>2014-08-21T12:58:07Z</time>
      </trkpt>
      <trkpt lat="44.98469" lon="6.79252">
        <ele>1472.959961</ele>
        <time>2014-08-21T12:58:08Z</time>
      </trkpt>
      <trkpt lat="44.98467" lon="6.79258">
        <ele>1472.200073</ele>
        <time>2014-08-21T12:58:09Z</time>
      </trkpt>
      <trkpt lat="44.98461" lon="6.79271">
        <ele>1470.469971</ele>
        <time>2014-08-21T12:58:11Z</time>
      </trkpt>
      <trkpt lat="44.98447" lon="6.79295">
        <ele>1467.069946</ele>
        <time>2014-08-21T12:58:15Z</time>
      </trkpt>
      <trkpt lat="44.98439" lon="6.79306">
        <ele>1465.51001</ele>
        <time>2014-08-21T12:58:17Z</time>
      </trkpt>
      <trkpt lat="44.98429" lon="6.79324">
        <ele>1462.51001</ele>
        <time>2014-08-21T12:58:20Z</time>
      </trkpt>
      <trkpt lat="44.9842" lon="6.79336">
        <ele>1460.980103</ele>
        <time>2014-08-21T12:58:22Z</time>
      </trkpt>
      <trkpt lat="44.98415" lon="6.79341">
        <ele>1460.250122</ele>
        <time>2014-08-21T12:58:23Z</time>
      </trkpt>
      <trkpt lat="44.98409" lon="6.79346">
        <ele>1459.530029</ele>
        <time>2014-08-21T12:58:24Z</time>
      </trkpt>
      <trkpt lat="44.98405" lon="6.79352">
        <ele>1458.829956</ele>
        <time>2014-08-21T12:58:25Z</time>
      </trkpt>
      <trkpt lat="44.98401" lon="6.79356">
        <ele>1458.099976</ele>
        <time>2014-08-21T12:58:26Z</time>
      </trkpt>
      <trkpt lat="44.98398" lon="6.79361">
        <ele>1457.290039</ele>
        <time>2014-08-21T12:58:27Z</time>
      </trkpt>
      <trkpt lat="44.98396" lon="6.79365">
        <ele>1456.440063</ele>
        <time>2014-08-21T12:58:28Z</time>
      </trkpt>
      <trkpt lat="44.98388" lon="6.79379">
        <ele>1453.079956</ele>
        <time>2014-08-21T12:58:32Z</time>
      </trkpt>
      <trkpt lat="44.98384" lon="6.79381">
        <ele>1451.629883</ele>
        <time>2014-08-21T12:58:34Z</time>
      </trkpt>
      <trkpt lat="44.98373" lon="6.79385">
        <ele>1448.900024</ele>
        <time>2014-08-21T12:58:39Z</time>
      </trkpt>
      <trkpt lat="44.98368" lon="6.79387">
        <ele>1447.670044</ele>
        <time>2014-08-21T12:58:41Z</time>
      </trkpt>
      <trkpt lat="44.98352" lon="6.79391">
        <ele>1442.900024</ele>
        <time>2014-08-21T12:58:47Z</time>
      </trkpt>
      <trkpt lat="44.98343" lon="6.79395">
        <ele>1439.829956</ele>
        <time>2014-08-21T12:58:51Z</time>
      </trkpt>
      <trkpt lat="44.98342" lon="6.79395">
        <ele>1439.119995</ele>
        <time>2014-08-21T12:58:52Z</time>
      </trkpt>
      <trkpt lat="44.98337" lon="6.79386">
        <ele>1436.429932</ele>
        <time>2014-08-21T12:58:56Z</time>
      </trkpt>
      <trkpt lat="44.98337" lon="6.79381">
        <ele>1435.77002</ele>
        <time>2014-08-21T12:58:57Z</time>
      </trkpt>
      <trkpt lat="44.98338" lon="6.79376">
        <ele>1435.150024</ele>
        <time>2014-08-21T12:58:58Z</time>
      </trkpt>
      <trkpt lat="44.98339" lon="6.7937">
        <ele>1432.920044</ele>
        <time>2014-08-21T12:59:02Z</time>
      </trkpt>
      <trkpt lat="44.98337" lon="6.79366">
        <ele>1430.780029</ele>
        <time>2014-08-21T12:59:09Z</time>
      </trkpt>
      <trkpt lat="44.98337" lon="6.79337">
        <ele>1428.919922</ele>
        <time>2014-08-21T12:59:14Z</time>
      </trkpt>
      <trkpt lat="44.98337" lon="6.79308">
        <ele>1426.089966</ele>
        <time>2014-08-21T12:59:19Z</time>
      </trkpt>
      <trkpt lat="44.98335" lon="6.79305">
        <ele>1425.440063</ele>
        <time>2014-08-21T12:59:20Z</time>
      </trkpt>
      <trkpt lat="44.98333" lon="6.79304">
        <ele>1424.77002</ele>
        <time>2014-08-21T12:59:21Z</time>
      </trkpt>
      <trkpt lat="44.98325" lon="6.79311">
        <ele>1422.76001</ele>
        <time>2014-08-21T12:59:24Z</time>
      </trkpt>
      <trkpt lat="44.98308" lon="6.79336">
        <ele>1418.77002</ele>
        <time>2014-08-21T12:59:30Z</time>
      </trkpt>
      <trkpt lat="44.98305" lon="6.79341">
        <ele>1418.040039</ele>
        <time>2014-08-21T12:59:31Z</time>
      </trkpt>
      <trkpt lat="44.98296" lon="6.79371">
        <ele>1414.430054</ele>
        <time>2014-08-21T12:59:37Z</time>
      </trkpt>
      <trkpt lat="44.98289" lon="6.794">
        <ele>1409.959961</ele>
        <time>2014-08-21T12:59:43Z</time>
      </trkpt>
      <trkpt lat="44.98286" lon="6.7942">
        <ele>1406.679932</ele>
        <time>2014-08-21T12:59:48Z</time>
      </trkpt>
      <trkpt lat="44.9828" lon="6.79443">
        <ele>1404.109985</ele>
        <time>2014-08-21T12:59:53Z</time>
      </trkpt>
      <trkpt lat="44.98277" lon="6.79452">
        <ele>1402.910034</ele>
        <time>2014-08-21T12:59:55Z</time>
      </trkpt>
      <trkpt lat="44.98267" lon="6.7945">
        <ele>1400.359985</ele>
        <time>2014-08-21T12:59:59Z</time>
      </trkpt>
      <trkpt lat="44.98265" lon="6.79446">
        <ele>1399.169922</ele>
        <time>2014-08-21T13:00:01Z</time>
      </trkpt>
      <trkpt lat="44.98259" lon="6.7943">
        <ele>1394.440063</ele>
        <time>2014-08-21T13:00:08Z</time>
      </trkpt>
      <trkpt lat="44.98254" lon="6.7941">
        <ele>1391.320068</ele>
        <time>2014-08-21T13:00:14Z</time>
      </trkpt>
      <trkpt lat="44.98248" lon="6.79394">
        <ele>1388.300049</ele>
        <time>2014-08-21T13:00:19Z</time>
      </trkpt>
      <trkpt lat="44.98246" lon="6.79389">
        <ele>1385.880005</ele>
        <time>2014-08-21T13:00:23Z</time>
      </trkpt>
      <trkpt lat="44.98243" lon="6.79386">
        <ele>1383.339966</ele>
        <time>2014-08-21T13:00:30Z</time>
      </trkpt>
      <trkpt lat="44.9824" lon="6.79386">
        <ele>1383.049927</ele>
        <time>2014-08-21T13:00:32Z</time>
      </trkpt>
      <trkpt lat="44.98235" lon="6.79391">
        <ele>1382.780029</ele>
        <time>2014-08-21T13:00:34Z</time>
      </trkpt>
      <trkpt lat="44.98232" lon="6.79395">
        <ele>1382.689941</ele>
        <time>2014-08-21T13:00:35Z</time>
      </trkpt>
      <trkpt lat="44.9823" lon="6.79399">
        <ele>1382.560059</ele>
        <time>2014-08-21T13:00:36Z</time>
      </trkpt>
      <trkpt lat="44.98228" lon="6.79403">
        <ele>1382.319946</ele>
        <time>2014-08-21T13:00:37Z</time>
      </trkpt>
      <trkpt lat="44.98226" lon="6.79406">
        <ele>1381.869995</ele>
        <time>2014-08-21T13:00:38Z</time>
      </trkpt>
      <trkpt lat="44.98226" lon="6.79407">
        <ele>1379.809937</ele>
        <time>2014-08-21T13:00:43Z</time>
      </trkpt>
      <trkpt lat="44.98221" lon="6.79417">
        <ele>1378.170044</ele>
        <time>2014-08-21T13:00:52Z</time>
      </trkpt>
      <trkpt lat="44.98215" lon="6.79427">
        <ele>1376.969971</ele>
        <time>2014-08-21T13:00:57Z</time>
      </trkpt>
      <trkpt lat="44.98216" lon="6.79428">
        <ele>1374.780029</ele>
        <time>2014-08-21T13:01:11Z</time>
      </trkpt>
      <trkpt lat="44.98217" lon="6.79432">
        <ele>1374.030029</ele>
        <time>2014-08-21T13:01:59Z</time>
      </trkpt>
      <trkpt lat="44.98216" lon="6.79434">
        <ele>1373.98999</ele>
        <time>2014-08-21T13:02:00Z</time>
      </trkpt>
      <trkpt lat="44.98215" lon="6.79436">
        <ele>1373.940063</ele>
        <time>2014-08-21T13:02:01Z</time>
      </trkpt>
      <trkpt lat="44.98212" lon="6.79439">
        <ele>1373.890015</ele>
        <time>2014-08-21T13:02:02Z</time>
      </trkpt>
      <trkpt lat="44.98195" lon="6.7947">
        <ele>1371.700073</ele>
        <time>2014-08-21T13:02:10Z</time>
      </trkpt>
      <trkpt lat="44.98176" lon="6.79502">
        <ele>1368.290039</ele>
        <time>2014-08-21T13:02:16Z</time>
      </trkpt>
      <trkpt lat="44.98163" lon="6.79526">
        <ele>1365.290039</ele>
        <time>2014-08-21T13:02:20Z</time>
      </trkpt>
      <trkpt lat="44.98149" lon="6.79548">
        <ele>1361.77002</ele>
        <time>2014-08-21T13:02:24Z</time>
      </trkpt>
      <trkpt lat="44.98143" lon="6.79559">
        <ele>1359.890015</ele>
        <time>2014-08-21T13:02:26Z</time>
      </trkpt>
      <trkpt lat="44.98131" lon="6.79586">
        <ele>1356.190063</ele>
        <time>2014-08-21T13:02:30Z</time>
      </trkpt>
      <trkpt lat="44.98128" lon="6.79593">
        <ele>1355.339966</ele>
        <time>2014-08-21T13:02:31Z</time>
      </trkpt>
      <trkpt lat="44.98126" lon="6.796">
        <ele>1354.51001</ele>
        <time>2014-08-21T13:02:32Z</time>
      </trkpt>
      <trkpt lat="44.98125" lon="6.79607">
        <ele>1353.699951</ele>
        <time>2014-08-21T13:02:33Z</time>
      </trkpt>
      <trkpt lat="44.98125" lon="6.79613">
        <ele>1352.859985</ele>
        <time>2014-08-21T13:02:34Z</time>
      </trkpt>
      <trkpt lat="44.98125" lon="6.79619">
        <ele>1351.999878</ele>
        <time>2014-08-21T13:02:35Z</time>
      </trkpt>
      <trkpt lat="44.98125" lon="6.79646">
        <ele>1348.420044</ele>
        <time>2014-08-21T13:02:39Z</time>
      </trkpt>
      <trkpt lat="44.98123" lon="6.79668">
        <ele>1346.709961</ele>
        <time>2014-08-21T13:02:42Z</time>
      </trkpt>
      <trkpt lat="44.98122" lon="6.79674">
        <ele>1346.130005</ele>
        <time>2014-08-21T13:02:43Z</time>
      </trkpt>
      <trkpt lat="44.98119" lon="6.79686">
        <ele>1345.080078</ele>
        <time>2014-08-21T13:02:45Z</time>
      </trkpt>
      <trkpt lat="44.98118" lon="6.79691">
        <ele>1344.600098</ele>
        <time>2014-08-21T13:02:46Z</time>
      </trkpt>
      <trkpt lat="44.98115" lon="6.7974">
        <ele>1341.23999</ele>
        <time>2014-08-21T13:02:53Z</time>
      </trkpt>
      <trkpt lat="44.98116" lon="6.79748">
        <ele>1340.779907</ele>
        <time>2014-08-21T13:02:54Z</time>
      </trkpt>
      <trkpt lat="44.98121" lon="6.79777">
        <ele>1338.869995</ele>
        <time>2014-08-21T13:02:58Z</time>
      </trkpt>
      <trkpt lat="44.98121" lon="6.79798">
        <ele>1337.329956</ele>
        <time>2014-08-21T13:03:01Z</time>
      </trkpt>
      <trkpt lat="44.9812" lon="6.79804">
        <ele>1336.359985</ele>
        <time>2014-08-21T13:03:02Z</time>
      </trkpt>
      <trkpt lat="44.9812" lon="6.79808">
        <ele>1335.839966</ele>
        <time>2014-08-21T13:03:03Z</time>
      </trkpt>
      <trkpt lat="44.98119" lon="6.7981">
        <ele>1335.280029</ele>
        <time>2014-08-21T13:03:04Z</time>
      </trkpt>
      <trkpt lat="44.98118" lon="6.79812">
        <ele>1332.77002</ele>
        <time>2014-08-21T13:03:09Z</time>
      </trkpt>
      <trkpt lat="44.98118" lon="6.79814">
        <ele>1330.790039</ele>
        <time>2014-08-21T13:03:25Z</time>
      </trkpt>
      <trkpt lat="44.9812" lon="6.79816">
        <ele>1330.780029</ele>
        <time>2014-08-21T13:03:30Z</time>
      </trkpt>
      <trkpt lat="44.98122" lon="6.79816">
        <ele>1330.579956</ele>
        <time>2014-08-21T13:03:47Z</time>
      </trkpt>
      <trkpt lat="44.98122" lon="6.7983">
        <ele>1330.47998</ele>
        <time>2014-08-21T13:03:51Z</time>
      </trkpt>
      <trkpt lat="44.98124" lon="6.79836">
        <ele>1330.429932</ele>
        <time>2014-08-21T13:03:52Z</time>
      </trkpt>
      <trkpt lat="44.9814" lon="6.79871">
        <ele>1329.589966</ele>
        <time>2014-08-21T13:03:58Z</time>
      </trkpt>
      <trkpt lat="44.98142" lon="6.79877">
        <ele>1329.390015</ele>
        <time>2014-08-21T13:03:59Z</time>
      </trkpt>
      <trkpt lat="44.98146" lon="6.7989">
        <ele>1328.929932</ele>
        <time>2014-08-21T13:04:01Z</time>
      </trkpt>
      <trkpt lat="44.98147" lon="6.79897">
        <ele>1328.680054</ele>
        <time>2014-08-21T13:04:02Z</time>
      </trkpt>
      <trkpt lat="44.98146" lon="6.79914">
        <ele>1328.039917</ele>
        <time>2014-08-21T13:04:04Z</time>
      </trkpt>
      <trkpt lat="44.98145" lon="6.79923">
        <ele>1327.650024</ele>
        <time>2014-08-21T13:04:05Z</time>
      </trkpt>
      <trkpt lat="44.98142" lon="6.79931">
        <ele>1327.149902</ele>
        <time>2014-08-21T13:04:06Z</time>
      </trkpt>
      <trkpt lat="44.98122" lon="6.79984">
        <ele>1323.73999</ele>
        <time>2014-08-21T13:04:12Z</time>
      </trkpt>
      <trkpt lat="44.98099" lon="6.80041">
        <ele>1320.02002</ele>
        <time>2014-08-21T13:04:18Z</time>
      </trkpt>
      <trkpt lat="44.98097" lon="6.80051">
        <ele>1319.290039</ele>
        <time>2014-08-21T13:04:19Z</time>
      </trkpt>
      <trkpt lat="44.98097" lon="6.80061">
        <ele>1317.660034</ele>
        <time>2014-08-21T13:04:20Z</time>
      </trkpt>
      <trkpt lat="44.98096" lon="6.80119">
        <ele>1314.440063</ele>
        <time>2014-08-21T13:04:25Z</time>
      </trkpt>
      <trkpt lat="44.98095" lon="6.80167">
        <ele>1311.099976</ele>
        <time>2014-08-21T13:04:29Z</time>
      </trkpt>
      <trkpt lat="44.98095" lon="6.80213">
        <ele>1307.309937</ele>
        <time>2014-08-21T13:04:33Z</time>
      </trkpt>
      <trkpt lat="44.98094" lon="6.80251">
        <ele>1303.509888</ele>
        <time>2014-08-21T13:04:37Z</time>
      </trkpt>
      <trkpt lat="44.98093" lon="6.80259">
        <ele>1301.52002</ele>
        <time>2014-08-21T13:04:39Z</time>
      </trkpt>
      <trkpt lat="44.98091" lon="6.8026">
        <ele>1298.210083</ele>
        <time>2014-08-21T13:04:43Z</time>
      </trkpt>
      <trkpt lat="44.98091" lon="6.8026">
        <ele>1295.089966</ele>
        <time>2014-08-21T13:04:52Z</time>
      </trkpt>
      <trkpt lat="44.98092" lon="6.80257">
        <ele>1302.76001</ele>
        <time>2014-08-21T13:05:16Z</time>
      </trkpt>
    </trkseg>
  </trk>
</gpx>